<?xml version="1.0" encoding="UTF-8"?>
<gpx xmlns="http://www.topografix.com/GPX/1/1" xmlns:ns2="http://www.garmin.com/xmlschemas/GpxExtensions/v3" xmlns:ns3="http://www.garmin.com/xmlschemas/TrackPointExtension/v1" xmlns:xsi="http://www.w3.org/2001/XMLSchema-instance" xsi:schemaLocation="http://www.topografix.com/GPX/1/1 http://www.topografix.com/GPX/11.xsd" version="1.1" creator="Garmin Connect">
  <metadata>
    <name>VR - Road 8 Idro/Maniva/Irma/Livemmo</name>
    <link href="connect.garmin.com">
      <text>Garmin Connect</text>
    </link>
    <time>2017-11-17T11:14:25Z</time>
  </metadata>
  <trk>
    <trkseg>
      <trkpt lat="45.73470717296004" lon="10.458485400304154">
        <ele>377.0</ele>
        <time>2017-11-17T11:14:25Z</time>
      </trkpt>
      <trkpt lat="45.73464632034302" lon="10.458576679229736">
        <ele>377.2159734125709</ele>
        <time>2017-11-17T11:14:25.141000Z</time>
      </trkpt>
      <trkpt lat="45.734732151031494" lon="10.458769798278809">
        <ele>377.6077040439738</ele>
        <time>2017-11-17T11:14:25.397000Z</time>
      </trkpt>
      <trkpt lat="45.734968185424805" lon="10.45900583267212">
        <ele>378.3133155000714</ele>
        <time>2017-11-17T11:14:25.858000Z</time>
      </trkpt>
      <trkpt lat="45.73505409993231" lon="10.459027290344238">
        <ele>378.7560581787902</ele>
        <time>2017-11-17T11:14:25.998000Z</time>
      </trkpt>
      <trkpt lat="45.73505401611328" lon="10.459027290344238">
        <ele>378.7564837056124</ele>
        <time>2017-11-17T11:14:25.998000Z</time>
      </trkpt>
      <trkpt lat="45.73556908406317" lon="10.459907054901123">
        <ele>382.82534566203617</ele>
        <time>2017-11-17T11:14:27.283000Z</time>
      </trkpt>
      <trkpt lat="45.73576211929321" lon="10.460615158081055">
        <ele>380.46787509929646</ele>
        <time>2017-11-17T11:14:28.134000Z</time>
      </trkpt>
      <trkpt lat="45.73606252670288" lon="10.461194515228271">
        <ele>383.0947611127937</ele>
        <time>2017-11-17T11:14:28.942000Z</time>
      </trkpt>
      <trkpt lat="45.736343063808086" lon="10.461624549083297">
        <ele>383.8745715544944</ele>
        <time>2017-11-17T11:14:29.601000Z</time>
      </trkpt>
      <trkpt lat="45.73634281754494" lon="10.461624171584845">
        <ele>383.87510100349095</ele>
        <time>2017-11-17T11:14:29.601000Z</time>
      </trkpt>
      <trkpt lat="45.736342649906874" lon="10.461624003946781">
        <ele>383.8754011206277</ele>
        <time>2017-11-17T11:14:29.601000Z</time>
      </trkpt>
      <trkpt lat="45.73638439178467" lon="10.461688041687012">
        <ele>381.6318483791638</ele>
        <time>2017-11-17T11:14:29.699000Z</time>
      </trkpt>
      <trkpt lat="45.73666334152222" lon="10.461859703063965">
        <ele>382.07753617446104</ele>
        <time>2017-11-17T11:14:30.186000Z</time>
      </trkpt>
      <trkpt lat="45.73730707168579" lon="10.461859703063965">
        <ele>384.68923080302585</ele>
        <time>2017-11-17T11:14:31.218000Z</time>
      </trkpt>
      <trkpt lat="45.73790788650513" lon="10.462052822113037">
        <ele>393.8857346062525</ele>
        <time>2017-11-17T11:14:32.205000Z</time>
      </trkpt>
      <trkpt lat="45.73829412460327" lon="10.462267398834229">
        <ele>396.2151947524446</ele>
        <time>2017-11-17T11:14:32.869000Z</time>
      </trkpt>
      <trkpt lat="45.73861598968506" lon="10.462589263916016">
        <ele>400.08901398778465</ele>
        <time>2017-11-17T11:14:33.498000Z</time>
      </trkpt>
      <trkpt lat="45.7390022277832" lon="10.46323299407959">
        <ele>400.87848919867633</ele>
        <time>2017-11-17T11:14:34.448000Z</time>
      </trkpt>
      <trkpt lat="45.739195346832275" lon="10.463662147521973">
        <ele>407.35336240151236</ele>
        <time>2017-11-17T11:14:35.019000Z</time>
      </trkpt>
      <trkpt lat="45.739452838897705" lon="10.464649200439453">
        <ele>403.0</ele>
        <time>2017-11-17T11:14:36.198000Z</time>
      </trkpt>
      <trkpt lat="45.73988199234009" lon="10.465292930603027">
        <ele>391.63852586359644</ele>
        <time>2017-11-17T11:14:37.194000Z</time>
      </trkpt>
      <trkpt lat="45.74007519520819" lon="10.465700626373291">
        <ele>402.3890491278891</ele>
        <time>2017-11-17T11:14:37.745000Z</time>
      </trkpt>
      <trkpt lat="45.7403112296015" lon="10.466344356536865">
        <ele>393.03720913811645</ele>
        <time>2017-11-17T11:14:38.559000Z</time>
      </trkpt>
      <trkpt lat="45.74035406112671" lon="10.466430187225342">
        <ele>392.8410518847101</ele>
        <time>2017-11-17T11:14:38.677000Z</time>
      </trkpt>
      <trkpt lat="45.74059009552002" lon="10.468103885650635">
        <ele>385.0</ele>
        <time>2017-11-17T11:14:40.587000Z</time>
      </trkpt>
      <trkpt lat="45.740697383880615" lon="10.46846866607666">
        <ele>388.33876877010215</ele>
        <time>2017-11-17T11:14:41.030000Z</time>
      </trkpt>
      <trkpt lat="45.74070956376397" lon="10.468492945712084">
        <ele>388.6916821914226</ele>
        <time>2017-11-17T11:14:41.063000Z</time>
      </trkpt>
      <trkpt lat="45.740709985188246" lon="10.468493785788482">
        <ele>388.70389300850826</ele>
        <time>2017-11-17T11:14:41.064000Z</time>
      </trkpt>
      <trkpt lat="45.740710124373436" lon="10.46849406324327">
        <ele>388.7079259152371</ele>
        <time>2017-11-17T11:14:41.065000Z</time>
      </trkpt>
      <trkpt lat="45.740710040554404" lon="10.468493979424238">
        <ele>388.70965450940054</ele>
        <time>2017-11-17T11:14:41.066000Z</time>
      </trkpt>
      <trkpt lat="45.74084758758545" lon="10.468769073486328">
        <ele>400.70377012024557</ele>
        <time>2017-11-17T11:14:41.445000Z</time>
      </trkpt>
      <trkpt lat="45.741190910339355" lon="10.469155311584473">
        <ele>403.09863715825423</ele>
        <time>2017-11-17T11:14:42.145000Z</time>
      </trkpt>
      <trkpt lat="45.741941928863525" lon="10.469670295715332">
        <ele>409.0</ele>
        <time>2017-11-17T11:14:43.480000Z</time>
      </trkpt>
      <trkpt lat="45.74232816696167" lon="10.470035076141357">
        <ele>401.9802282051123</ele>
        <time>2017-11-17T11:14:44.222000Z</time>
      </trkpt>
      <trkpt lat="45.74301481246948" lon="10.471172332763672">
        <ele>404.0</ele>
        <time>2017-11-17T11:14:45.904000Z</time>
      </trkpt>
      <trkpt lat="45.74392046756362" lon="10.472077820318033">
        <ele>407.6696445576983</ele>
        <time>2017-11-17T11:14:47.674000Z</time>
      </trkpt>
      <trkpt lat="45.743921059705755" lon="10.472078412362562">
        <ele>407.6736571631418</ele>
        <time>2017-11-17T11:14:47.674000Z</time>
      </trkpt>
      <trkpt lat="45.74392106384039" lon="10.472078416496515">
        <ele>407.6736851811722</ele>
        <time>2017-11-17T11:14:47.675000Z</time>
      </trkpt>
      <trkpt lat="45.74392098002136" lon="10.472078416496515">
        <ele>407.6741509908681</ele>
        <time>2017-11-17T11:14:47.676000Z</time>
      </trkpt>
      <trkpt lat="45.744216442108154" lon="10.472373962402344">
        <ele>418.0099510029356</ele>
        <time>2017-11-17T11:14:48.254000Z</time>
      </trkpt>
      <trkpt lat="45.745010459795594" lon="10.47297477722168">
        <ele>419.0</ele>
        <time>2017-11-17T11:14:49.693000Z</time>
      </trkpt>
      <trkpt lat="45.74563264846802" lon="10.473425388336182">
        <ele>407.3752123761101</ele>
        <time>2017-11-17T11:14:50.811000Z</time>
      </trkpt>
      <trkpt lat="45.74584722518921" lon="10.47370433807373">
        <ele>417.34067457789416</ele>
        <time>2017-11-17T11:14:51.275000Z</time>
      </trkpt>
      <trkpt lat="45.74612625874579" lon="10.474348068237305">
        <ele>407.8438753941958</ele>
        <time>2017-11-17T11:14:52.123000Z</time>
      </trkpt>
      <trkpt lat="45.7463622931391" lon="10.474820137023926">
        <ele>407.55983467781806</ele>
        <time>2017-11-17T11:14:52.773000Z</time>
      </trkpt>
      <trkpt lat="45.74653387069702" lon="10.475013256072998">
        <ele>402.16969012238246</ele>
        <time>2017-11-17T11:14:53.123000Z</time>
      </trkpt>
      <trkpt lat="45.74679144658148" lon="10.475335121154785">
        <ele>409.6028368744167</ele>
        <time>2017-11-17T11:14:53.671000Z</time>
      </trkpt>
      <trkpt lat="45.74867972172797" lon="10.477373600006104">
        <ele>406.0</ele>
        <time>2017-11-17T11:14:57.461000Z</time>
      </trkpt>
      <trkpt lat="45.748679637908936" lon="10.477373600006104">
        <ele>405.9999318492348</ele>
        <time>2017-11-17T11:14:57.461000Z</time>
      </trkpt>
      <trkpt lat="45.74930199421942" lon="10.478060245513916">
        <ele>406.36132470268666</ele>
        <time>2017-11-17T11:14:58.720000Z</time>
      </trkpt>
      <trkpt lat="45.7499885559082" lon="10.478682518005371">
        <ele>396.0</ele>
        <time>2017-11-17T11:15:00.022000Z</time>
      </trkpt>
      <trkpt lat="45.75114735402167" lon="10.479326248168945">
        <ele>400.8376655003679</ele>
        <time>2017-11-17T11:15:02.014000Z</time>
      </trkpt>
      <trkpt lat="45.75153359211981" lon="10.479540824890137">
        <ele>402.5652285087615</ele>
        <time>2017-11-17T11:15:02.678000Z</time>
      </trkpt>
      <trkpt lat="45.751705253496766" lon="10.479648113250732">
        <ele>406.34624232983606</ele>
        <time>2017-11-17T11:15:02.978000Z</time>
      </trkpt>
      <trkpt lat="45.7523060683161" lon="10.4799485206604">
        <ele>409.0</ele>
        <time>2017-11-17T11:15:03.998000Z</time>
      </trkpt>
      <trkpt lat="45.752713764086366" lon="10.480184555053711">
        <ele>410.44896879610786</ele>
        <time>2017-11-17T11:15:04.703000Z</time>
      </trkpt>
      <trkpt lat="45.75475215911865" lon="10.481343269348145">
        <ele>428.0</ele>
        <time>2017-11-17T11:15:08.218000Z</time>
      </trkpt>
      <trkpt lat="45.754923820495605" lon="10.481536388397217">
        <ele>427.7513355037288</ele>
        <time>2017-11-17T11:15:08.568000Z</time>
      </trkpt>
      <trkpt lat="45.75507402420044" lon="10.481793880462646">
        <ele>432.8375364274569</ele>
        <time>2017-11-17T11:15:08.943000Z</time>
      </trkpt>
      <trkpt lat="45.75507402420044" lon="10.481815338134766">
        <ele>432.80042551117054</ele>
        <time>2017-11-17T11:15:08.967000Z</time>
      </trkpt>
      <trkpt lat="45.755674839019775" lon="10.48295259475708">
        <ele>423.0</ele>
        <time>2017-11-17T11:15:10.563000Z</time>
      </trkpt>
      <trkpt lat="45.756447315216064" lon="10.48396110534668">
        <ele>431.0835692602432</ele>
        <time>2017-11-17T11:15:12.238000Z</time>
      </trkpt>
      <trkpt lat="45.758657455444336" lon="10.485527515411377">
        <ele>444.0</ele>
        <time>2017-11-17T11:15:16.191000Z</time>
      </trkpt>
      <trkpt lat="45.75951433878618" lon="10.486812714695393">
        <ele>436.0</ele>
        <time>2017-11-17T11:15:18.179000Z</time>
      </trkpt>
      <trkpt lat="45.75951483763274" lon="10.486813462909838">
        <ele>436.0025379139556</ele>
        <time>2017-11-17T11:15:18.181000Z</time>
      </trkpt>
      <trkpt lat="45.75951433740556" lon="10.486812712624669">
        <ele>436.00357399482647</ele>
        <time>2017-11-17T11:15:18.182000Z</time>
      </trkpt>
      <trkpt lat="45.7595141697675" lon="10.486812628805637">
        <ele>436.0038280576651</ele>
        <time>2017-11-17T11:15:18.182000Z</time>
      </trkpt>
      <trkpt lat="45.75977325439453" lon="10.48720121383667">
        <ele>436.5404387248538</ele>
        <time>2017-11-17T11:15:18.783000Z</time>
      </trkpt>
      <trkpt lat="45.760202407836914" lon="10.487587451934814">
        <ele>434.2655695397543</ele>
        <time>2017-11-17T11:15:19.595000Z</time>
      </trkpt>
      <trkpt lat="45.76073884963989" lon="10.487802028656006">
        <ele>435.0625346982727</ele>
        <time>2017-11-17T11:15:20.488000Z</time>
      </trkpt>
      <trkpt lat="45.76106071472168" lon="10.488038063049316">
        <ele>445.1857746628572</ele>
        <time>2017-11-17T11:15:21.068000Z</time>
      </trkpt>
      <trkpt lat="45.76129674911499" lon="10.488317012786865">
        <ele>442.7137790535366</ele>
        <time>2017-11-17T11:15:21.558000Z</time>
      </trkpt>
      <trkpt lat="45.761446952819824" lon="10.488746166229248">
        <ele>429.3404027996359</ele>
        <time>2017-11-17T11:15:22.095000Z</time>
      </trkpt>
      <trkpt lat="45.76146841049194" lon="10.488810539245605">
        <ele>428.88130318227996</ele>
        <time>2017-11-17T11:15:22.175000Z</time>
      </trkpt>
      <trkpt lat="45.761704444885254" lon="10.489754676818848">
        <ele>428.42743092819563</ele>
        <time>2017-11-17T11:15:23.297000Z</time>
      </trkpt>
      <trkpt lat="45.761846802176926" lon="10.489991773331361">
        <ele>426.4144617730503</ele>
        <time>2017-11-17T11:15:23.647000Z</time>
      </trkpt>
      <trkpt lat="45.761848218716786" lon="10.489994132593035">
        <ele>426.3944314816579</ele>
        <time>2017-11-17T11:15:23.650000Z</time>
      </trkpt>
      <trkpt lat="45.76184852980077" lon="10.489994650706649">
        <ele>426.3900326621461</ele>
        <time>2017-11-17T11:15:23.650000Z</time>
      </trkpt>
      <trkpt lat="45.76184836216271" lon="10.489994483068585">
        <ele>426.3881472689548</ele>
        <time>2017-11-17T11:15:23.651000Z</time>
      </trkpt>
      <trkpt lat="45.761897563934326" lon="10.490076541900635">
        <ele>416.0252031778605</ele>
        <time>2017-11-17T11:15:23.772000Z</time>
      </trkpt>
      <trkpt lat="45.76226234436035" lon="10.490419864654541">
        <ele>412.0</ele>
        <time>2017-11-17T11:15:24.472000Z</time>
      </trkpt>
      <trkpt lat="45.762948989868164" lon="10.490913391113281">
        <ele>408.11728179784336</ele>
        <time>2017-11-17T11:15:25.703000Z</time>
      </trkpt>
      <trkpt lat="45.763743007555604" lon="10.491256713867188">
        <ele>410.910577488218</ele>
        <time>2017-11-17T11:15:27.033000Z</time>
      </trkpt>
      <trkpt lat="45.764494026079774" lon="10.491471290588379">
        <ele>419.0</ele>
        <time>2017-11-17T11:15:28.261000Z</time>
      </trkpt>
      <trkpt lat="45.76451539993286" lon="10.491664409637451">
        <ele>418.0508834246306</ele>
        <time>2017-11-17T11:15:28.480000Z</time>
      </trkpt>
      <trkpt lat="45.764687061309814" lon="10.491750240325928">
        <ele>408.4525565958436</ele>
        <time>2017-11-17T11:15:28.771000Z</time>
      </trkpt>
      <trkpt lat="45.76479434967041" lon="10.491600036621094">
        <ele>415.74241618140974</ele>
        <time>2017-11-17T11:15:29.011000Z</time>
      </trkpt>
      <trkpt lat="45.76537370681763" lon="10.491793155670166">
        <ele>405.93703238326776</ele>
        <time>2017-11-17T11:15:29.965000Z</time>
      </trkpt>
      <trkpt lat="45.76565274037421" lon="10.491793155670166">
        <ele>403.99551725226166</ele>
        <time>2017-11-17T11:15:30.412000Z</time>
      </trkpt>
      <trkpt lat="45.76582431793213" lon="10.491814613342285">
        <ele>403.63881228796134</ele>
        <time>2017-11-17T11:15:30.688000Z</time>
      </trkpt>
      <trkpt lat="45.7661247253418" lon="10.491943359375">
        <ele>403.6560928356611</ele>
        <time>2017-11-17T11:15:31.191000Z</time>
      </trkpt>
      <trkpt lat="45.766210639849305" lon="10.491986274719238">
        <ele>403.9685419176049</ele>
        <time>2017-11-17T11:15:31.337000Z</time>
      </trkpt>
      <trkpt lat="45.76627501286566" lon="10.492029190063477">
        <ele>404.2123505433383</ele>
        <time>2017-11-17T11:15:31.451000Z</time>
      </trkpt>
      <trkpt lat="45.76636075973511" lon="10.492072105407715">
        <ele>404.52425594445367</ele>
        <time>2017-11-17T11:15:31.597000Z</time>
      </trkpt>
      <trkpt lat="45.7664252165705" lon="10.492115020751953">
        <ele>404.768325492269</ele>
        <time>2017-11-17T11:15:31.711000Z</time>
      </trkpt>
      <trkpt lat="45.76659687794745" lon="10.492243766784668">
        <ele>405.43365850859</ele>
        <time>2017-11-17T11:15:32.022000Z</time>
      </trkpt>
      <trkpt lat="45.76704748906195" lon="10.492544174194336">
        <ele>408.92268621579234</ele>
        <time>2017-11-17T11:15:32.819000Z</time>
      </trkpt>
      <trkpt lat="45.7673264387995" lon="10.492608547210693">
        <ele>410.71683713513454</ele>
        <time>2017-11-17T11:15:33.272000Z</time>
      </trkpt>
      <trkpt lat="45.76751947402954" lon="10.492715835571289">
        <ele>422.36485921860043</ele>
        <time>2017-11-17T11:15:33.604000Z</time>
      </trkpt>
      <trkpt lat="45.76754889244785" lon="10.492757895323289">
        <ele>422.6286930752188</ele>
        <time>2017-11-17T11:15:33.671000Z</time>
      </trkpt>
      <trkpt lat="45.76755043002394" lon="10.492760093610219">
        <ele>422.64248255884223</ele>
        <time>2017-11-17T11:15:33.675000Z</time>
      </trkpt>
      <trkpt lat="45.7675510738045" lon="10.492761014029384">
        <ele>422.6482561929649</ele>
        <time>2017-11-17T11:15:33.676000Z</time>
      </trkpt>
      <trkpt lat="45.767550989985466" lon="10.492760762572289">
        <ele>422.6494906870216</ele>
        <time>2017-11-17T11:15:33.677000Z</time>
      </trkpt>
      <trkpt lat="45.76766976155341" lon="10.49293041229248">
        <ele>423.7141741360594</ele>
        <time>2017-11-17T11:15:33.946000Z</time>
      </trkpt>
      <trkpt lat="45.76805599965155" lon="10.493531227111816">
        <ele>423.0</ele>
        <time>2017-11-17T11:15:34.860000Z</time>
      </trkpt>
      <trkpt lat="45.76852798461914" lon="10.494239330291748">
        <ele>436.56251417041295</ele>
        <time>2017-11-17T11:15:35.955000Z</time>
      </trkpt>
      <trkpt lat="45.76861381530762" lon="10.49445390701294">
        <ele>437.96734980603486</ele>
        <time>2017-11-17T11:15:36.232000Z</time>
      </trkpt>
      <trkpt lat="45.76876410283148" lon="10.495119094848633">
        <ele>428.1418935424458</ele>
        <time>2017-11-17T11:15:37.014000Z</time>
      </trkpt>
      <trkpt lat="45.76876401901245" lon="10.495119094848633">
        <ele>428.1412361268731</ele>
        <time>2017-11-17T11:15:37.014000Z</time>
      </trkpt>
      <trkpt lat="45.76884984970093" lon="10.49595594406128">
        <ele>419.18017894737824</ele>
        <time>2017-11-17T11:15:37.960000Z</time>
      </trkpt>
      <trkpt lat="45.76910734176636" lon="10.496535301208496">
        <ele>418.1137457793255</ele>
        <time>2017-11-17T11:15:38.728000Z</time>
      </trkpt>
      <trkpt lat="45.7696008682251" lon="10.497028827667236">
        <ele>432.9035155491544</ele>
        <time>2017-11-17T11:15:39.693000Z</time>
      </trkpt>
      <trkpt lat="45.770158767700195" lon="10.498080253601074">
        <ele>450.8327764925272</ele>
        <time>2017-11-17T11:15:41.170000Z</time>
      </trkpt>
      <trkpt lat="45.771167278289795" lon="10.499131679534912">
        <ele>459.0</ele>
        <time>2017-11-17T11:15:43.169000Z</time>
      </trkpt>
      <trkpt lat="45.77166088856757" lon="10.499796867370605">
        <ele>430.1010257961164</ele>
        <time>2017-11-17T11:15:44.255000Z</time>
      </trkpt>
      <trkpt lat="45.77312001027167" lon="10.501749515533447">
        <ele>401.0</ele>
        <time>2017-11-17T11:15:47.455000Z</time>
      </trkpt>
      <trkpt lat="45.77331304550171" lon="10.50194263458252">
        <ele>403.6497012936634</ele>
        <time>2017-11-17T11:15:47.832000Z</time>
      </trkpt>
      <trkpt lat="45.7739782333374" lon="10.502307415008545">
        <ele>417.0</ele>
        <time>2017-11-17T11:15:48.974000Z</time>
      </trkpt>
      <trkpt lat="45.77472925186157" lon="10.502500534057617">
        <ele>410.36783786218865</ele>
        <time>2017-11-17T11:15:50.197000Z</time>
      </trkpt>
      <trkpt lat="45.774762404647674" lon="10.50252033363708">
        <ele>410.3537721709961</ele>
        <time>2017-11-17T11:15:50.255000Z</time>
      </trkpt>
      <trkpt lat="45.77476440924074" lon="10.502521530825343">
        <ele>410.3529216847178</ele>
        <time>2017-11-17T11:15:50.258000Z</time>
      </trkpt>
      <trkpt lat="45.77476546168327" lon="10.5025221593678">
        <ele>410.3524751661959</ele>
        <time>2017-11-17T11:15:50.260000Z</time>
      </trkpt>
      <trkpt lat="45.77476529404521" lon="10.5025221593678">
        <ele>410.35240951095415</ele>
        <time>2017-11-17T11:15:50.260000Z</time>
      </trkpt>
      <trkpt lat="45.77505111694336" lon="10.50269365310669">
        <ele>419.2310608850424</ele>
        <time>2017-11-17T11:15:50.757000Z</time>
      </trkpt>
      <trkpt lat="45.77533006668091" lon="10.502865314483643">
        <ele>416.02593868892467</ele>
        <time>2017-11-17T11:15:51.244000Z</time>
      </trkpt>
      <trkpt lat="45.77603816986084" lon="10.503551959991455">
        <ele>398.0</ele>
        <time>2017-11-17T11:15:52.614000Z</time>
      </trkpt>
      <trkpt lat="45.77633857727051" lon="10.503745079040527">
        <ele>398.474802172985</ele>
        <time>2017-11-17T11:15:53.142000Z</time>
      </trkpt>
      <trkpt lat="45.77657461166382" lon="10.503766536712646">
        <ele>398.8158937355677</ele>
        <time>2017-11-17T11:15:53.521000Z</time>
      </trkpt>
      <trkpt lat="45.776939475908875" lon="10.503551959991455">
        <ele>396.0513112841036</ele>
        <time>2017-11-17T11:15:54.153000Z</time>
      </trkpt>
      <trkpt lat="45.77723988331854" lon="10.503358840942383">
        <ele>396.52611140504615</ele>
        <time>2017-11-17T11:15:54.681000Z</time>
      </trkpt>
      <trkpt lat="45.777926528826356" lon="10.50318717956543">
        <ele>411.08958129879096</ele>
        <time>2017-11-17T11:15:55.798000Z</time>
      </trkpt>
      <trkpt lat="45.77826976776123" lon="10.503144264221191">
        <ele>409.4439352350891</ele>
        <time>2017-11-17T11:15:56.350000Z</time>
      </trkpt>
      <trkpt lat="45.77884912490845" lon="10.503401756286621">
        <ele>396.2135083536862</ele>
        <time>2017-11-17T11:15:57.322000Z</time>
      </trkpt>
      <trkpt lat="45.77921390533447" lon="10.50344467163086">
        <ele>394.2432612638279</ele>
        <time>2017-11-17T11:15:57.909000Z</time>
      </trkpt>
      <trkpt lat="45.77981472015381" lon="10.503380298614502">
        <ele>391.0</ele>
        <time>2017-11-17T11:15:58.875000Z</time>
      </trkpt>
      <trkpt lat="45.78035116195679" lon="10.50318717956543">
        <ele>396.63019707277846</ele>
        <time>2017-11-17T11:15:59.762000Z</time>
      </trkpt>
      <trkpt lat="45.78120946884155" lon="10.503101348876953">
        <ele>397.3142735502359</ele>
        <time>2017-11-17T11:16:01.141000Z</time>
      </trkpt>
      <trkpt lat="45.781681537628174" lon="10.5029296875">
        <ele>395.0389099312467</ele>
        <time>2017-11-17T11:16:01.922000Z</time>
      </trkpt>
      <trkpt lat="45.78269004821777" lon="10.502307415008545">
        <ele>393.0</ele>
        <time>2017-11-17T11:16:03.682000Z</time>
      </trkpt>
      <trkpt lat="45.78326940536499" lon="10.501728057861328">
        <ele>393.0</ele>
        <time>2017-11-17T11:16:04.814000Z</time>
      </trkpt>
      <trkpt lat="45.78348398208618" lon="10.501234531402588">
        <ele>395.6029538345652</ele>
        <time>2017-11-17T11:16:05.464000Z</time>
      </trkpt>
      <trkpt lat="45.783677101135254" lon="10.500955581665039">
        <ele>397.3621530609096</ele>
        <time>2017-11-17T11:16:05.903000Z</time>
      </trkpt>
      <trkpt lat="45.78397750854492" lon="10.500655174255371">
        <ele>410.16363053665856</ele>
        <time>2017-11-17T11:16:06.490000Z</time>
      </trkpt>
      <trkpt lat="45.78421354293823" lon="10.500526428222656">
        <ele>410.42866392660534</ele>
        <time>2017-11-17T11:16:06.895000Z</time>
      </trkpt>
      <trkpt lat="45.78444957733154" lon="10.500526428222656">
        <ele>409.49212217418545</ele>
        <time>2017-11-17T11:16:07.273000Z</time>
      </trkpt>
      <trkpt lat="45.78524351119995" lon="10.500977039337158">
        <ele>400.4374924365659</ele>
        <time>2017-11-17T11:16:08.642000Z</time>
      </trkpt>
      <trkpt lat="45.78569412231445" lon="10.501084327697754">
        <ele>401.73959995847736</ele>
        <time>2017-11-17T11:16:09.374000Z</time>
      </trkpt>
      <trkpt lat="45.7870888710022" lon="10.500998497009277">
        <ele>409.6426153103877</ele>
        <time>2017-11-17T11:16:11.612000Z</time>
      </trkpt>
      <trkpt lat="45.789663791656494" lon="10.500075817108154">
        <ele>424.0</ele>
        <time>2017-11-17T11:16:15.867000Z</time>
      </trkpt>
      <trkpt lat="45.79022169113159" lon="10.500011444091797">
        <ele>428.0</ele>
        <time>2017-11-17T11:16:16.764000Z</time>
      </trkpt>
      <trkpt lat="45.79095125198364" lon="10.50018310546875">
        <ele>434.36778490945517</ele>
        <time>2017-11-17T11:16:17.949000Z</time>
      </trkpt>
      <trkpt lat="45.79123028554022" lon="10.500140190124512">
        <ele>441.85637123681255</ele>
        <time>2017-11-17T11:16:18.399000Z</time>
      </trkpt>
      <trkpt lat="45.79123020172119" lon="10.500140190124512">
        <ele>441.8586079122797</ele>
        <time>2017-11-17T11:16:18.400000Z</time>
      </trkpt>
      <trkpt lat="45.79150923527777" lon="10.49992561340332">
        <ele>461.6406970160074</ele>
        <time>2017-11-17T11:16:18.908000Z</time>
      </trkpt>
      <trkpt lat="45.79180955886841" lon="10.49968957901001">
        <ele>465.4221166891355</ele>
        <time>2017-11-17T11:16:19.457000Z</time>
      </trkpt>
      <trkpt lat="45.79202421940863" lon="10.499775409698486">
        <ele>465.93060211925194</ele>
        <time>2017-11-17T11:16:19.814000Z</time>
      </trkpt>
      <trkpt lat="45.79206713475287" lon="10.499818325042725">
        <ele>465.56941940907745</ele>
        <time>2017-11-17T11:16:19.898000Z</time>
      </trkpt>
      <trkpt lat="45.79249620437622" lon="10.50044059753418">
        <ele>451.6900569775294</ele>
        <time>2017-11-17T11:16:20.876000Z</time>
      </trkpt>
      <trkpt lat="45.79283952713013" lon="10.500612258911133">
        <ele>463.01617966803366</ele>
        <time>2017-11-17T11:16:21.459000Z</time>
      </trkpt>
      <trkpt lat="45.79346179962158" lon="10.500848293304443">
        <ele>452.5169600508032</ele>
        <time>2017-11-17T11:16:22.491000Z</time>
      </trkpt>
      <trkpt lat="45.79427727498114" lon="10.50093412399292">
        <ele>461.0</ele>
        <time>2017-11-17T11:16:23.802000Z</time>
      </trkpt>
      <trkpt lat="45.79453468322754" lon="10.500955581665039">
        <ele>461.53672765896187</ele>
        <time>2017-11-17T11:16:24.215000Z</time>
      </trkpt>
      <trkpt lat="45.794899463653564" lon="10.501341819763184">
        <ele>462.4805608117083</ele>
        <time>2017-11-17T11:16:24.942000Z</time>
      </trkpt>
      <trkpt lat="45.795414447784424" lon="10.501513481140137">
        <ele>472.32844577670085</ele>
        <time>2017-11-17T11:16:25.790000Z</time>
      </trkpt>
      <trkpt lat="45.79577922821045" lon="10.501534938812256">
        <ele>474.2949823816819</ele>
        <time>2017-11-17T11:16:26.375000Z</time>
      </trkpt>
      <trkpt lat="45.796058177948" lon="10.501749515533447">
        <ele>473.0</ele>
        <time>2017-11-17T11:16:26.882000Z</time>
      </trkpt>
      <trkpt lat="45.79653024673462" lon="10.501964092254639">
        <ele>473.7016708886108</ele>
        <time>2017-11-17T11:16:27.676000Z</time>
      </trkpt>
      <trkpt lat="45.796637535095215" lon="10.502114295959473">
        <ele>473.91410406207206</ele>
        <time>2017-11-17T11:16:27.916000Z</time>
      </trkpt>
      <trkpt lat="45.79674482345581" lon="10.502479076385498">
        <ele>484.6385518314912</ele>
        <time>2017-11-17T11:16:28.359000Z</time>
      </trkpt>
      <trkpt lat="45.796959400177" lon="10.502886772155762">
        <ele>477.14318369174026</ele>
        <time>2017-11-17T11:16:28.930000Z</time>
      </trkpt>
      <trkpt lat="45.7972631731142" lon="10.503279713905698">
        <ele>476.0794911555183</ele>
        <time>2017-11-17T11:16:29.586000Z</time>
      </trkpt>
      <trkpt lat="45.79726478572455" lon="10.503281799894113">
        <ele>476.07384441315736</ele>
        <time>2017-11-17T11:16:29.590000Z</time>
      </trkpt>
      <trkpt lat="45.79726550728083" lon="10.503282733261585">
        <ele>476.071317800088</ele>
        <time>2017-11-17T11:16:29.592000Z</time>
      </trkpt>
      <trkpt lat="45.797265423461795" lon="10.503282649442554">
        <ele>476.0710520997227</ele>
        <time>2017-11-17T11:16:29.592000Z</time>
      </trkpt>
      <trkpt lat="45.79732418060303" lon="10.503358840942383">
        <ele>468.531747516906</ele>
        <time>2017-11-17T11:16:29.719000Z</time>
      </trkpt>
      <trkpt lat="45.79792499542236" lon="10.503787994384766">
        <ele>470.7864274737503</ele>
        <time>2017-11-17T11:16:30.795000Z</time>
      </trkpt>
      <trkpt lat="45.7982684019953" lon="10.5039381980896">
        <ele>468.9314656453228</ele>
        <time>2017-11-17T11:16:31.371000Z</time>
      </trkpt>
      <trkpt lat="45.79826831817627" lon="10.5039381980896">
        <ele>468.9301133604786</ele>
        <time>2017-11-17T11:16:31.371000Z</time>
      </trkpt>
      <trkpt lat="45.79867601394653" lon="10.504088401794434">
        <ele>459.139088818149</ele>
        <time>2017-11-17T11:16:32.046000Z</time>
      </trkpt>
      <trkpt lat="45.79901933670044" lon="10.504281520843506">
        <ele>447.52276762241536</ele>
        <time>2017-11-17T11:16:32.637000Z</time>
      </trkpt>
      <trkpt lat="45.79921245574951" lon="10.504217147827148">
        <ele>439.9907436806091</ele>
        <time>2017-11-17T11:16:32.955000Z</time>
      </trkpt>
      <trkpt lat="45.79931982792914" lon="10.504024028778076">
        <ele>449.8146866044058</ele>
        <time>2017-11-17T11:16:33.231000Z</time>
      </trkpt>
      <trkpt lat="45.7994270324707" lon="10.503852367401123">
        <ele>451.516433780758</ele>
        <time>2017-11-17T11:16:33.489000Z</time>
      </trkpt>
      <trkpt lat="45.799663150683045" lon="10.50365924835205">
        <ele>456.20031963355103</ele>
        <time>2017-11-17T11:16:33.925000Z</time>
      </trkpt>
      <trkpt lat="45.79974889755249" lon="10.503723621368408">
        <ele>457.8680968580913</ele>
        <time>2017-11-17T11:16:34.080000Z</time>
      </trkpt>
      <trkpt lat="45.799856185913086" lon="10.503723621368408">
        <ele>459.7169348816023</ele>
        <time>2017-11-17T11:16:34.252000Z</time>
      </trkpt>
      <trkpt lat="45.79996347427368" lon="10.503573417663574">
        <ele>462.3004424462588</ele>
        <time>2017-11-17T11:16:34.492000Z</time>
      </trkpt>
      <trkpt lat="45.79996347427368" lon="10.50342321395874">
        <ele>464.10496712036473</ele>
        <time>2017-11-17T11:16:34.660000Z</time>
      </trkpt>
      <trkpt lat="45.799899101257324" lon="10.503315925598145">
        <ele>474.80553728003207</ele>
        <time>2017-11-17T11:16:34.818000Z</time>
      </trkpt>
      <trkpt lat="45.79981327056885" lon="10.503273010253906">
        <ele>476.3718933249631</ele>
        <time>2017-11-17T11:16:34.964000Z</time>
      </trkpt>
      <trkpt lat="45.79972743988037" lon="10.503294467926025">
        <ele>476.69118094051856</ele>
        <time>2017-11-17T11:16:35.104000Z</time>
      </trkpt>
      <trkpt lat="45.799663066864014" lon="10.503401756286621">
        <ele>468.05283271318336</ele>
        <time>2017-11-17T11:16:35.262000Z</time>
      </trkpt>
      <trkpt lat="45.79951286315918" lon="10.503315925598145">
        <ele>477.6453610994033</ele>
        <time>2017-11-17T11:16:35.521000Z</time>
      </trkpt>
      <trkpt lat="45.79929828643799" lon="10.503380298614502">
        <ele>469.4487410215219</ele>
        <time>2017-11-17T11:16:35.872000Z</time>
      </trkpt>
      <trkpt lat="45.79919099807739" lon="10.503273010253906">
        <ele>478.92804501108594</ele>
        <time>2017-11-17T11:16:36.082000Z</time>
      </trkpt>
      <trkpt lat="45.79916954040527" lon="10.50318717956543">
        <ele>479.16101147115825</ele>
        <time>2017-11-17T11:16:36.184000Z</time>
      </trkpt>
      <trkpt lat="45.79923391342163" lon="10.502994060516357">
        <ele>479.7079179159039</ele>
        <time>2017-11-17T11:16:36.423000Z</time>
      </trkpt>
      <trkpt lat="45.79944849014282" lon="10.50295114517212">
        <ele>480.50188975315683</ele>
        <time>2017-11-17T11:16:36.770000Z</time>
      </trkpt>
      <trkpt lat="45.799856185913086" lon="10.502994060516357">
        <ele>482.0</ele>
        <time>2017-11-17T11:16:37.425000Z</time>
      </trkpt>
      <trkpt lat="45.7999849319458" lon="10.503101348876953">
        <ele>481.99933309432555</ele>
        <time>2017-11-17T11:16:37.664000Z</time>
      </trkpt>
      <trkpt lat="45.80022096633911" lon="10.503380298614502">
        <ele>472.9979632869135</ele>
        <time>2017-11-17T11:16:38.154000Z</time>
      </trkpt>
      <trkpt lat="45.80032825469971" lon="10.50344467163086">
        <ele>472.9974423974281</ele>
        <time>2017-11-17T11:16:38.340000Z</time>
      </trkpt>
      <trkpt lat="45.80047845840454" lon="10.503401756286621">
        <ele>472.99675642151493</ele>
        <time>2017-11-17T11:16:38.586000Z</time>
      </trkpt>
      <trkpt lat="45.800907611846924" lon="10.503122806549072">
        <ele>480.66131208261754</ele>
        <time>2017-11-17T11:16:39.341000Z</time>
      </trkpt>
      <trkpt lat="45.802109241485596" lon="10.503251552581787">
        <ele>490.0</ele>
        <time>2017-11-17T11:16:41.273000Z</time>
      </trkpt>
      <trkpt lat="45.802366733551025" lon="10.503358840942383">
        <ele>484.46544211657374</ele>
        <time>2017-11-17T11:16:41.703000Z</time>
      </trkpt>
      <trkpt lat="45.80275297164917" lon="10.50368070602417">
        <ele>491.12945104033923</ele>
        <time>2017-11-17T11:16:42.419000Z</time>
      </trkpt>
      <trkpt lat="45.80382585525513" lon="10.503787994384766">
        <ele>498.0</ele>
        <time>2017-11-17T11:16:44.143000Z</time>
      </trkpt>
      <trkpt lat="45.80425500869751" lon="10.50419569015503">
        <ele>502.9147109016373</ele>
        <time>2017-11-17T11:16:44.968000Z</time>
      </trkpt>
      <trkpt lat="45.804340839385986" lon="10.504131317138672">
        <ele>511.0276484041376</ele>
        <time>2017-11-17T11:16:45.123000Z</time>
      </trkpt>
      <trkpt lat="45.80431938171387" lon="10.503981113433838">
        <ele>511.0484518397718</ele>
        <time>2017-11-17T11:16:45.294000Z</time>
      </trkpt>
      <trkpt lat="45.80408334732056" lon="10.503745079040527">
        <ele>505.1044533311552</ele>
        <time>2017-11-17T11:16:45.755000Z</time>
      </trkpt>
      <trkpt lat="45.80294609069824" lon="10.503315925598145">
        <ele>509.0</ele>
        <time>2017-11-17T11:16:47.640000Z</time>
      </trkpt>
      <trkpt lat="45.802881717681885" lon="10.503251552581787">
        <ele>508.8448934754354</ele>
        <time>2017-11-17T11:16:47.766000Z</time>
      </trkpt>
      <trkpt lat="45.80294609069824" lon="10.503122806549072">
        <ele>508.62657646208635</ele>
        <time>2017-11-17T11:16:47.943000Z</time>
      </trkpt>
      <trkpt lat="45.803353786468506" lon="10.503294467926025">
        <ele>511.7867279059424</ele>
        <time>2017-11-17T11:16:48.624000Z</time>
      </trkpt>
      <trkpt lat="45.80395468510687" lon="10.503358840942383">
        <ele>502.9290183828584</ele>
        <time>2017-11-17T11:16:49.590000Z</time>
      </trkpt>
      <trkpt lat="45.804598331451416" lon="10.503787994384766">
        <ele>513.7922621179806</ele>
        <time>2017-11-17T11:16:50.728000Z</time>
      </trkpt>
      <trkpt lat="45.8049201965332" lon="10.503766536712646">
        <ele>516.0</ele>
        <time>2017-11-17T11:16:51.245000Z</time>
      </trkpt>
      <trkpt lat="45.805113315582275" lon="10.503852367401123">
        <ele>525.4920890730804</ele>
        <time>2017-11-17T11:16:51.569000Z</time>
      </trkpt>
      <trkpt lat="45.80522060394287" lon="10.504045486450195">
        <ele>526.7625549321464</ele>
        <time>2017-11-17T11:16:51.845000Z</time>
      </trkpt>
      <trkpt lat="45.80528497695923" lon="10.504496097564697">
        <ele>521.7956633961722</ele>
        <time>2017-11-17T11:16:52.359000Z</time>
      </trkpt>
      <trkpt lat="45.80543518066406" lon="10.504732131958008">
        <ele>523.4398716554074</ele>
        <time>2017-11-17T11:16:52.716000Z</time>
      </trkpt>
      <trkpt lat="45.8055853843689" lon="10.504775047302246">
        <ele>524.5701735324645</ele>
        <time>2017-11-17T11:16:52.962000Z</time>
      </trkpt>
      <trkpt lat="45.80595016479492" lon="10.504646301269531">
        <ele>536.6759320199527</ele>
        <time>2017-11-17T11:16:53.564000Z</time>
      </trkpt>
      <trkpt lat="45.80616474151611" lon="10.504646301269531">
        <ele>536.3485292198285</ele>
        <time>2017-11-17T11:16:53.908000Z</time>
      </trkpt>
      <trkpt lat="45.80642223358154" lon="10.505225658416748">
        <ele>526.6177240144439</ele>
        <time>2017-11-17T11:16:54.676000Z</time>
      </trkpt>
      <trkpt lat="45.807645320892334" lon="10.50591230392456">
        <ele>532.3615918780357</ele>
        <time>2017-11-17T11:16:56.782000Z</time>
      </trkpt>
      <trkpt lat="45.808117389678955" lon="10.505976676940918">
        <ele>533.5752715011444</ele>
        <time>2017-11-17T11:16:57.542000Z</time>
      </trkpt>
      <trkpt lat="45.80824613571167" lon="10.506126880645752">
        <ele>534.4455658153224</ele>
        <time>2017-11-17T11:16:57.808000Z</time>
      </trkpt>
      <trkpt lat="45.808417880907655" lon="10.506513118743896">
        <ele>547.5625408390363</ele>
        <time>2017-11-17T11:16:58.320000Z</time>
      </trkpt>
      <trkpt lat="45.808439338579774" lon="10.506598949432373">
        <ele>547.7848566397535</ele>
        <time>2017-11-17T11:16:58.422000Z</time>
      </trkpt>
      <trkpt lat="45.808632373809814" lon="10.507006645202637">
        <ele>541.6531488894311</ele>
        <time>2017-11-17T11:16:58.973000Z</time>
      </trkpt>
      <trkpt lat="45.80931901931763" lon="10.507714748382568">
        <ele>544.6109478928672</ele>
        <time>2017-11-17T11:17:00.329000Z</time>
      </trkpt>
      <trkpt lat="45.8105206489563" lon="10.5084228515625">
        <ele>541.0</ele>
        <time>2017-11-17T11:17:02.412000Z</time>
      </trkpt>
      <trkpt lat="45.81094980239868" lon="10.508787631988525">
        <ele>558.9888625512871</ele>
        <time>2017-11-17T11:17:03.212000Z</time>
      </trkpt>
      <trkpt lat="45.81223726272583" lon="10.510611534118652">
        <ele>571.0</ele>
        <time>2017-11-17T11:17:06.113000Z</time>
      </trkpt>
      <trkpt lat="45.812838077545166" lon="10.511255264282227">
        <ele>574.3383863378082</ele>
        <time>2017-11-17T11:17:07.315000Z</time>
      </trkpt>
      <trkpt lat="45.81378221511841" lon="10.512113571166992">
        <ele>581.0</ele>
        <time>2017-11-17T11:17:09.107000Z</time>
      </trkpt>
      <trkpt lat="45.81421136856079" lon="10.512735843658447">
        <ele>588.4259576508376</ele>
        <time>2017-11-17T11:17:10.085000Z</time>
      </trkpt>
      <trkpt lat="45.81474781036377" lon="10.51318645477295">
        <ele>590.9650579673631</ele>
        <time>2017-11-17T11:17:11.082000Z</time>
      </trkpt>
      <trkpt lat="45.81642150878906" lon="10.514881610870361">
        <ele>604.0</ele>
        <time>2017-11-17T11:17:14.366000Z</time>
      </trkpt>
      <trkpt lat="45.817387104034424" lon="10.516061782836914">
        <ele>588.0</ele>
        <time>2017-11-17T11:17:16.399000Z</time>
      </trkpt>
      <trkpt lat="45.81773042678833" lon="10.51666259765625">
        <ele>635.206140653272</ele>
        <time>2017-11-17T11:17:17.267000Z</time>
      </trkpt>
      <trkpt lat="45.818374156951904" lon="10.51741361618042">
        <ele>663.0</ele>
        <time>2017-11-17T11:17:18.597000Z</time>
      </trkpt>
      <trkpt lat="45.81852436065674" lon="10.517735481262207">
        <ele>643.0679104448395</ele>
        <time>2017-11-17T11:17:19.030000Z</time>
      </trkpt>
      <trkpt lat="45.819082260131836" lon="10.518014430999756">
        <ele>631.5447648886555</ele>
        <time>2017-11-17T11:17:19.977000Z</time>
      </trkpt>
      <trkpt lat="45.81953287124634" lon="10.51842212677002">
        <ele>642.0028233373688</ele>
        <time>2017-11-17T11:17:20.831000Z</time>
      </trkpt>
      <trkpt lat="45.82002639770508" lon="10.519044399261475">
        <ele>669.2786493992409</ele>
        <time>2017-11-17T11:17:21.884000Z</time>
      </trkpt>
      <trkpt lat="45.820369720458984" lon="10.519602298736572">
        <ele>654.7707384311835</ele>
        <time>2017-11-17T11:17:22.716000Z</time>
      </trkpt>
      <trkpt lat="45.82077741622925" lon="10.519988536834717">
        <ele>656.3106739565266</ele>
        <time>2017-11-17T11:17:23.499000Z</time>
      </trkpt>
      <trkpt lat="45.82090616226196" lon="10.520310401916504">
        <ele>666.1259123088774</ele>
        <time>2017-11-17T11:17:23.914000Z</time>
      </trkpt>
      <trkpt lat="45.82114219665527" lon="10.520567893981934">
        <ele>668.2395818590923</ele>
        <time>2017-11-17T11:17:24.389000Z</time>
      </trkpt>
      <trkpt lat="45.82118511199951" lon="10.520761013031006">
        <ele>669.2465905212874</ele>
        <time>2017-11-17T11:17:24.615000Z</time>
      </trkpt>
      <trkpt lat="45.82174301147461" lon="10.521597862243652">
        <ele>677.0</ele>
        <time>2017-11-17T11:17:25.909000Z</time>
      </trkpt>
      <trkpt lat="45.82176504134589" lon="10.52166646955112">
        <ele>675.3221987475495</ele>
        <time>2017-11-17T11:17:25.993000Z</time>
      </trkpt>
      <trkpt lat="45.82176595008879" lon="10.521669299639818">
        <ele>665.2529885522707</ele>
        <time>2017-11-17T11:17:25.996000Z</time>
      </trkpt>
      <trkpt lat="45.82176648080349" lon="10.521670952439308">
        <ele>665.2125691219513</ele>
        <time>2017-11-17T11:17:25.998000Z</time>
      </trkpt>
      <trkpt lat="45.82176648080349" lon="10.521671203896403">
        <ele>665.2069840489568</ele>
        <time>2017-11-17T11:17:25.998000Z</time>
      </trkpt>
      <trkpt lat="45.82191467285156" lon="10.52213430404663">
        <ele>653.888620944106</ele>
        <time>2017-11-17T11:17:26.567000Z</time>
      </trkpt>
      <trkpt lat="45.8220648765564" lon="10.52241325378418">
        <ele>646.0589678998053</ele>
        <time>2017-11-17T11:17:26.961000Z</time>
      </trkpt>
      <trkpt lat="45.82247257232666" lon="10.522820949554443">
        <ele>620.8878792792142</ele>
        <time>2017-11-17T11:17:27.758000Z</time>
      </trkpt>
      <trkpt lat="45.82292318344116" lon="10.522928237915039">
        <ele>608.7663481649912</ele>
        <time>2017-11-17T11:17:28.490000Z</time>
      </trkpt>
      <trkpt lat="45.823159301653504" lon="10.522799491882324">
        <ele>602.4319400680628</ele>
        <time>2017-11-17T11:17:28.895000Z</time>
      </trkpt>
      <trkpt lat="45.82318075932562" lon="10.522778034210205">
        <ele>601.7760526342771</ele>
        <time>2017-11-17T11:17:28.937000Z</time>
      </trkpt>
      <trkpt lat="45.8234167098999" lon="10.522477626800537">
        <ele>580.5323122991834</ele>
        <time>2017-11-17T11:17:29.443000Z</time>
      </trkpt>
      <trkpt lat="45.82345962524414" lon="10.522263050079346">
        <ele>579.8229379142884</ele>
        <time>2017-11-17T11:17:29.692000Z</time>
      </trkpt>
      <trkpt lat="45.8234167098999" lon="10.521984100341797">
        <ele>578.9151912517626</ele>
        <time>2017-11-17T11:17:30.011000Z</time>
      </trkpt>
      <trkpt lat="45.82354545593262" lon="10.520503520965576">
        <ele>601.465151910569</ele>
        <time>2017-11-17T11:17:31.678000Z</time>
      </trkpt>
      <trkpt lat="45.82367420196533" lon="10.519988536834717">
        <ele>611.9226672986246</ele>
        <time>2017-11-17T11:17:32.289000Z</time>
      </trkpt>
      <trkpt lat="45.82371711730957" lon="10.51917314529419">
        <ele>617.7789419099631</ele>
        <time>2017-11-17T11:17:33.203000Z</time>
      </trkpt>
      <trkpt lat="45.82391023635864" lon="10.51816463470459">
        <ele>628.929734906738</ele>
        <time>2017-11-17T11:17:34.371000Z</time>
      </trkpt>
      <trkpt lat="45.82393169403076" lon="10.517864227294922">
        <ele>628.7659579698703</ele>
        <time>2017-11-17T11:17:34.708000Z</time>
      </trkpt>
      <trkpt lat="45.82388877868652" lon="10.517327785491943">
        <ele>627.8064457446839</ele>
        <time>2017-11-17T11:17:35.311000Z</time>
      </trkpt>
      <trkpt lat="45.82371711730957" lon="10.516490936279297">
        <ele>625.0</ele>
        <time>2017-11-17T11:17:36.286000Z</time>
      </trkpt>
      <trkpt lat="45.823609828948975" lon="10.515203475952148">
        <ele>622.4550444703915</ele>
        <time>2017-11-17T11:17:37.735000Z</time>
      </trkpt>
      <trkpt lat="45.8234167098999" lon="10.514473915100098">
        <ele>617.7289377391544</ele>
        <time>2017-11-17T11:17:38.607000Z</time>
      </trkpt>
      <trkpt lat="45.82320213317871" lon="10.514194965362549">
        <ele>646.9184364925726</ele>
        <time>2017-11-17T11:17:39.071000Z</time>
      </trkpt>
      <trkpt lat="45.82320213317871" lon="10.513594150543213">
        <ele>649.7921256789956</ele>
        <time>2017-11-17T11:17:39.742000Z</time>
      </trkpt>
      <trkpt lat="45.82300901412964" lon="10.512092113494873">
        <ele>654.0607151983884</ele>
        <time>2017-11-17T11:17:41.448000Z</time>
      </trkpt>
      <trkpt lat="45.82277297973633" lon="10.511727333068848">
        <ele>653.4286955996673</ele>
        <time>2017-11-17T11:17:42.004000Z</time>
      </trkpt>
      <trkpt lat="45.82270860671997" lon="10.511512756347656">
        <ele>651.7181086534994</ele>
        <time>2017-11-17T11:17:42.265000Z</time>
      </trkpt>
      <trkpt lat="45.82277297973633" lon="10.510890483856201">
        <ele>646.2141325008512</ele>
        <time>2017-11-17T11:17:42.968000Z</time>
      </trkpt>
      <trkpt lat="45.82270860671997" lon="10.509796142578125">
        <ele>613.1035842281144</ele>
        <time>2017-11-17T11:17:44.195000Z</time>
      </trkpt>
      <trkpt lat="45.822880268096924" lon="10.508272647857666">
        <ele>573.8062615776453</ele>
        <time>2017-11-17T11:17:45.919000Z</time>
      </trkpt>
      <trkpt lat="45.82279443740845" lon="10.50816535949707">
        <ele>571.058228822022</ele>
        <time>2017-11-17T11:17:46.101000Z</time>
      </trkpt>
      <trkpt lat="45.82255840301514" lon="10.50818681716919">
        <ele>571.6763618633612</ele>
        <time>2017-11-17T11:17:46.480000Z</time>
      </trkpt>
      <trkpt lat="45.82221508026123" lon="10.50767183303833">
        <ele>612.811392743242</ele>
        <time>2017-11-17T11:17:47.276000Z</time>
      </trkpt>
      <trkpt lat="45.82197904586792" lon="10.507457256317139">
        <ele>606.0964923635177</ele>
        <time>2017-11-17T11:17:47.724000Z</time>
      </trkpt>
      <trkpt lat="45.82193613052368" lon="10.507006645202637">
        <ele>611.7133447500365</ele>
        <time>2017-11-17T11:17:48.232000Z</time>
      </trkpt>
      <trkpt lat="45.822086334228516" lon="10.506641864776611">
        <ele>606.3853624285301</ele>
        <time>2017-11-17T11:17:48.705000Z</time>
      </trkpt>
      <trkpt lat="45.822129249572754" lon="10.506362915039062">
        <ele>604.8157879117647</ele>
        <time>2017-11-17T11:17:49.024000Z</time>
      </trkpt>
      <trkpt lat="45.82200050354004" lon="10.506083965301514">
        <ele>602.9774605891624</ele>
        <time>2017-11-17T11:17:49.398000Z</time>
      </trkpt>
      <trkpt lat="45.82174301147461" lon="10.505805015563965">
        <ele>587.4337341603556</ele>
        <time>2017-11-17T11:17:49.915000Z</time>
      </trkpt>
      <trkpt lat="45.82178592681885" lon="10.505032539367676">
        <ele>581.0702700184255</ele>
        <time>2017-11-17T11:17:50.781000Z</time>
      </trkpt>
      <trkpt lat="45.82174301147461" lon="10.504903793334961">
        <ele>572.0029878922182</ele>
        <time>2017-11-17T11:17:50.940000Z</time>
      </trkpt>
      <trkpt lat="45.82154989242554" lon="10.504710674285889">
        <ele>601.7215083580327</ele>
        <time>2017-11-17T11:17:51.317000Z</time>
      </trkpt>
      <trkpt lat="45.821335315704346" lon="10.504131317138672">
        <ele>584.213115626215</ele>
        <time>2017-11-17T11:17:52.050000Z</time>
      </trkpt>
      <trkpt lat="45.820863246917725" lon="10.503208637237549">
        <ele>571.0</ele>
        <time>2017-11-17T11:17:53.329000Z</time>
      </trkpt>
      <trkpt lat="45.82071304321289" lon="10.502994060516357">
        <ele>594.3576437454975</ele>
        <time>2017-11-17T11:17:53.669000Z</time>
      </trkpt>
      <trkpt lat="45.82043409347534" lon="10.502865314483643">
        <ele>597.6171095228943</ele>
        <time>2017-11-17T11:17:54.139000Z</time>
      </trkpt>
      <trkpt lat="45.82024097442627" lon="10.502264499664307">
        <ele>588.0795384006279</ele>
        <time>2017-11-17T11:17:54.878000Z</time>
      </trkpt>
      <trkpt lat="45.820112228393555" lon="10.502092838287354">
        <ele>589.6107291260079</ele>
        <time>2017-11-17T11:17:55.160000Z</time>
      </trkpt>
      <trkpt lat="45.819854736328125" lon="10.502028465270996">
        <ele>609.221227488845</ele>
        <time>2017-11-17T11:17:55.579000Z</time>
      </trkpt>
      <trkpt lat="45.81966161727905" lon="10.50144910812378">
        <ele>599.4539796363921</ele>
        <time>2017-11-17T11:17:56.297000Z</time>
      </trkpt>
      <trkpt lat="45.819339752197266" lon="10.501298904418945">
        <ele>603.9476936797633</ele>
        <time>2017-11-17T11:17:56.840000Z</time>
      </trkpt>
      <trkpt lat="45.81918954849243" lon="10.501041412353516">
        <ele>606.1998170792772</ele>
        <time>2017-11-17T11:17:57.215000Z</time>
      </trkpt>
      <trkpt lat="45.819125175476074" lon="10.50069808959961">
        <ele>619.5843692174288</ele>
        <time>2017-11-17T11:17:57.612000Z</time>
      </trkpt>
      <trkpt lat="45.81880331039429" lon="10.500483512878418">
        <ele>622.9999197815476</ele>
        <time>2017-11-17T11:17:58.181000Z</time>
      </trkpt>
      <trkpt lat="45.81873893737793" lon="10.500397682189941">
        <ele>623.8456074491625</ele>
        <time>2017-11-17T11:17:58.322000Z</time>
      </trkpt>
      <trkpt lat="45.81867456436157" lon="10.49893856048584">
        <ele>612.0153971468716</ele>
        <time>2017-11-17T11:17:59.956000Z</time>
      </trkpt>
      <trkpt lat="45.81856727600098" lon="10.498080253601074">
        <ele>608.0</ele>
        <time>2017-11-17T11:18:00.930000Z</time>
      </trkpt>
      <trkpt lat="45.81818103790283" lon="10.49593448638916">
        <ele>614.2251456054597</ele>
        <time>2017-11-17T11:18:03.406000Z</time>
      </trkpt>
      <trkpt lat="45.817837715148926" lon="10.494990348815918">
        <ele>609.0</ele>
        <time>2017-11-17T11:18:04.596000Z</time>
      </trkpt>
      <trkpt lat="45.81775188446045" lon="10.494539737701416">
        <ele>610.24601099969</ele>
        <time>2017-11-17T11:18:05.118000Z</time>
      </trkpt>
      <trkpt lat="45.81777334213257" lon="10.494110584259033">
        <ele>612.726981816793</ele>
        <time>2017-11-17T11:18:05.599000Z</time>
      </trkpt>
      <trkpt lat="45.8177734259516" lon="10.494110584259033">
        <ele>612.7273026083524</ele>
        <time>2017-11-17T11:18:05.600000Z</time>
      </trkpt>
      <trkpt lat="45.818095207214355" lon="10.493016242980957">
        <ele>617.5620915593877</ele>
        <time>2017-11-17T11:18:06.927000Z</time>
      </trkpt>
      <trkpt lat="45.81826695241034" lon="10.492758750915527">
        <ele>617.4776762828776</ele>
        <time>2017-11-17T11:18:07.325000Z</time>
      </trkpt>
      <trkpt lat="45.81848152913153" lon="10.49269437789917">
        <ele>617.0392386482572</ele>
        <time>2017-11-17T11:18:07.676000Z</time>
      </trkpt>
      <trkpt lat="45.81884630955756" lon="10.492522716522217">
        <ele>617.4389191893692</ele>
        <time>2017-11-17T11:18:08.291000Z</time>
      </trkpt>
      <trkpt lat="45.819082260131836" lon="10.492372512817383">
        <ele>616.0409937016053</ele>
        <time>2017-11-17T11:18:08.705000Z</time>
      </trkpt>
      <trkpt lat="45.81931829452515" lon="10.491943359375">
        <ele>628.7420690080754</ele>
        <time>2017-11-17T11:18:09.316000Z</time>
      </trkpt>
      <trkpt lat="45.819345009117015" lon="10.491703339088705">
        <ele>630.3875703326318</ele>
        <time>2017-11-17T11:18:09.588000Z</time>
      </trkpt>
      <trkpt lat="45.819345351580054" lon="10.491700262159855">
        <ele>630.4086647546401</ele>
        <time>2017-11-17T11:18:09.591000Z</time>
      </trkpt>
      <trkpt lat="45.819345535710454" lon="10.491698607802391">
        <ele>630.420006490458</ele>
        <time>2017-11-17T11:18:09.593000Z</time>
      </trkpt>
      <trkpt lat="45.819345535710454" lon="10.491698356345296">
        <ele>630.4217088261624</ele>
        <time>2017-11-17T11:18:09.593000Z</time>
      </trkpt>
      <trkpt lat="45.8194899559021" lon="10.490398406982422">
        <ele>640.0</ele>
        <time>2017-11-17T11:18:11.064000Z</time>
      </trkpt>
      <trkpt lat="45.81966161727905" lon="10.48870325088501">
        <ele>640.1918262693259</ele>
        <time>2017-11-17T11:18:12.978000Z</time>
      </trkpt>
      <trkpt lat="45.819876194000244" lon="10.4874587059021">
        <ele>648.1823709987079</ele>
        <time>2017-11-17T11:18:14.410000Z</time>
      </trkpt>
      <trkpt lat="45.8199405670166" lon="10.486557483673096">
        <ele>654.9723388200435</ele>
        <time>2017-11-17T11:18:15.422000Z</time>
      </trkpt>
      <trkpt lat="45.8199405670166" lon="10.485055446624756">
        <ele>659.6897789734656</ele>
        <time>2017-11-17T11:18:17.100000Z</time>
      </trkpt>
      <trkpt lat="45.81998348236084" lon="10.484519004821777">
        <ele>662.8933502838291</ele>
        <time>2017-11-17T11:18:17.703000Z</time>
      </trkpt>
      <trkpt lat="45.819876194000244" lon="10.483789443969727">
        <ele>664.0559559629128</ele>
        <time>2017-11-17T11:18:18.536000Z</time>
      </trkpt>
      <trkpt lat="45.819854736328125" lon="10.483531951904297">
        <ele>664.4453380503588</ele>
        <time>2017-11-17T11:18:18.826000Z</time>
      </trkpt>
      <trkpt lat="45.82000494003296" lon="10.482609272003174">
        <ele>687.5347119030818</ele>
        <time>2017-11-17T11:18:19.885000Z</time>
      </trkpt>
      <trkpt lat="45.8199405670166" lon="10.48194408416748">
        <ele>667.8764154887867</ele>
        <time>2017-11-17T11:18:20.635000Z</time>
      </trkpt>
      <trkpt lat="45.81998348236084" lon="10.48044204711914">
        <ele>677.6511441390152</ele>
        <time>2017-11-17T11:18:22.315000Z</time>
      </trkpt>
      <trkpt lat="45.81991910934448" lon="10.479841232299805">
        <ele>685.0695566263175</ele>
        <time>2017-11-17T11:18:22.994000Z</time>
      </trkpt>
      <trkpt lat="45.81972599029541" lon="10.478832721710205">
        <ele>693.7384130825318</ele>
        <time>2017-11-17T11:18:24.163000Z</time>
      </trkpt>
      <trkpt lat="45.81974744796753" lon="10.477802753448486">
        <ele>699.0</ele>
        <time>2017-11-17T11:18:25.314000Z</time>
      </trkpt>
      <trkpt lat="45.819640159606934" lon="10.476171970367432">
        <ele>702.668294596056</ele>
        <time>2017-11-17T11:18:27.144000Z</time>
      </trkpt>
      <trkpt lat="45.81966161727905" lon="10.475528240203857">
        <ele>705.0446121877982</ele>
        <time>2017-11-17T11:18:27.864000Z</time>
      </trkpt>
      <trkpt lat="45.819854736328125" lon="10.47346830368042">
        <ele>707.0</ele>
        <time>2017-11-17T11:18:30.186000Z</time>
      </trkpt>
      <trkpt lat="45.82015514373779" lon="10.472073554992676">
        <ele>734.0</ele>
        <time>2017-11-17T11:18:31.817000Z</time>
      </trkpt>
      <trkpt lat="45.820369720458984" lon="10.471687316894531">
        <ele>731.3158682759982</ele>
        <time>2017-11-17T11:18:32.369000Z</time>
      </trkpt>
      <trkpt lat="45.82043409347534" lon="10.471129417419434">
        <ele>724.5762599935509</ele>
        <time>2017-11-17T11:18:33.001000Z</time>
      </trkpt>
      <trkpt lat="45.820627212524414" lon="10.47072172164917">
        <ele>722.3929794566453</ele>
        <time>2017-11-17T11:18:33.552000Z</time>
      </trkpt>
      <trkpt lat="45.82074130712063" lon="10.470183930339363">
        <ele>720.6634603364588</ele>
        <time>2017-11-17T11:18:34.180000Z</time>
      </trkpt>
      <trkpt lat="45.820741939529874" lon="10.47018094940352">
        <ele>720.6538737558712</ele>
        <time>2017-11-17T11:18:34.183000Z</time>
      </trkpt>
      <trkpt lat="45.82074221223593" lon="10.470179663971066">
        <ele>720.6497398522093</ele>
        <time>2017-11-17T11:18:34.183000Z</time>
      </trkpt>
      <trkpt lat="45.82074229605496" lon="10.470179412513971">
        <ele>720.648882288113</ele>
        <time>2017-11-17T11:18:34.183000Z</time>
      </trkpt>
      <trkpt lat="45.82077741622925" lon="10.470013618469238">
        <ele>720.1157634164138</ele>
        <time>2017-11-17T11:18:34.377000Z</time>
      </trkpt>
      <trkpt lat="45.82077741622925" lon="10.469434261322021">
        <ele>717.0</ele>
        <time>2017-11-17T11:18:35.024000Z</time>
      </trkpt>
      <trkpt lat="45.820863246917725" lon="10.469048023223877">
        <ele>729.7524888877709</ele>
        <time>2017-11-17T11:18:35.477000Z</time>
      </trkpt>
      <trkpt lat="45.82101345062256" lon="10.468618869781494">
        <ele>731.0387502875564</ele>
        <time>2017-11-17T11:18:36.014000Z</time>
      </trkpt>
      <trkpt lat="45.82101345062256" lon="10.46846866607666">
        <ele>731.4410554959708</ele>
        <time>2017-11-17T11:18:36.182000Z</time>
      </trkpt>
      <trkpt lat="45.82077741622925" lon="10.467996597290039">
        <ele>724.6638707723937</ele>
        <time>2017-11-17T11:18:36.831000Z</time>
      </trkpt>
      <trkpt lat="45.820605754852295" lon="10.467438697814941">
        <ele>726.4965118195232</ele>
        <time>2017-11-17T11:18:37.512000Z</time>
      </trkpt>
      <trkpt lat="45.820627212524414" lon="10.467052459716797">
        <ele>727.872631688096</ele>
        <time>2017-11-17T11:18:37.945000Z</time>
      </trkpt>
      <trkpt lat="45.82075595855713" lon="10.466451644897461">
        <ele>729.1050840330669</ele>
        <time>2017-11-17T11:18:38.647000Z</time>
      </trkpt>
      <trkpt lat="45.820841789245605" lon="10.466172695159912">
        <ele>737.3782308234864</ele>
        <time>2017-11-17T11:18:38.988000Z</time>
      </trkpt>
      <trkpt lat="45.8215069770813" lon="10.46499252319336">
        <ele>733.8568828361734</ele>
        <time>2017-11-17T11:18:40.684000Z</time>
      </trkpt>
      <trkpt lat="45.821614265441895" lon="10.464649200439453">
        <ele>733.7276453065252</ele>
        <time>2017-11-17T11:18:41.104000Z</time>
      </trkpt>
      <trkpt lat="45.82172163762152" lon="10.46449899673462">
        <ele>741.6612069945946</ele>
        <time>2017-11-17T11:18:41.344000Z</time>
      </trkpt>
      <trkpt lat="45.82206496037543" lon="10.463855266571045">
        <ele>735.0</ele>
        <time>2017-11-17T11:18:42.250000Z</time>
      </trkpt>
      <trkpt lat="45.822386741638184" lon="10.463447570800781">
        <ele>735.6242246468593</ele>
        <time>2017-11-17T11:18:42.938000Z</time>
      </trkpt>
      <trkpt lat="45.82268714904785" lon="10.463361740112305">
        <ele>741.3311833872067</ele>
        <time>2017-11-17T11:18:43.429000Z</time>
      </trkpt>
      <trkpt lat="45.822858810424805" lon="10.463383197784424">
        <ele>742.2914329015794</ele>
        <time>2017-11-17T11:18:43.705000Z</time>
      </trkpt>
      <trkpt lat="45.823094844818115" lon="10.463554859161377">
        <ele>743.7660853244787</ele>
        <time>2017-11-17T11:18:44.129000Z</time>
      </trkpt>
      <trkpt lat="45.82326650619507" lon="10.463511943817139">
        <ele>744.737121479748</ele>
        <time>2017-11-17T11:18:44.408000Z</time>
      </trkpt>
      <trkpt lat="45.82354553975165" lon="10.463147163391113">
        <ele>748.1739779204901</ele>
        <time>2017-11-17T11:18:45.013000Z</time>
      </trkpt>
      <trkpt lat="45.82367420196533" lon="10.462353229522705">
        <ele>744.7809015941303</ele>
        <time>2017-11-17T11:18:45.924000Z</time>
      </trkpt>
      <trkpt lat="45.82400857134419" lon="10.461666822241355">
        <ele>741.462373372438</ele>
        <time>2017-11-17T11:18:46.860000Z</time>
      </trkpt>
      <trkpt lat="45.824009815482945" lon="10.461664268190706">
        <ele>738.4500255211038</ele>
        <time>2017-11-17T11:18:46.864000Z</time>
      </trkpt>
      <trkpt lat="45.824010483920574" lon="10.461662895977497">
        <ele>738.4433913988258</ele>
        <time>2017-11-17T11:18:46.866000Z</time>
      </trkpt>
      <trkpt lat="45.82401040010154" lon="10.46166306361556">
        <ele>738.4425738394608</ele>
        <time>2017-11-17T11:18:46.866000Z</time>
      </trkpt>
      <trkpt lat="45.824081897735596" lon="10.461516380310059">
        <ele>737.7332710546513</ele>
        <time>2017-11-17T11:18:47.066000Z</time>
      </trkpt>
      <trkpt lat="45.82418918609619" lon="10.461194515228271">
        <ele>741.8117550137559</ele>
        <time>2017-11-17T11:18:47.465000Z</time>
      </trkpt>
      <trkpt lat="45.824317932128906" lon="10.46072244644165">
        <ele>737.589932272886</ele>
        <time>2017-11-17T11:18:48.031000Z</time>
      </trkpt>
      <trkpt lat="45.82474708557129" lon="10.460207462310791">
        <ele>737.7665179027867</ele>
        <time>2017-11-17T11:18:48.928000Z</time>
      </trkpt>
      <trkpt lat="45.82500457763672" lon="10.45971393585205">
        <ele>740.3518329689987</ele>
        <time>2017-11-17T11:18:49.617000Z</time>
      </trkpt>
      <trkpt lat="45.825347900390625" lon="10.458276271820068">
        <ele>716.8007843427207</ele>
        <time>2017-11-17T11:18:51.315000Z</time>
      </trkpt>
      <trkpt lat="45.825605392456055" lon="10.457954406738281">
        <ele>714.6546913246144</ele>
        <time>2017-11-17T11:18:51.862000Z</time>
      </trkpt>
      <trkpt lat="45.825605476275086" lon="10.457954406738281">
        <ele>714.6541645477059</ele>
        <time>2017-11-17T11:18:51.862000Z</time>
      </trkpt>
      <trkpt lat="45.825648391619325" lon="10.457890033721924">
        <ele>714.2640089290198</ele>
        <time>2017-11-17T11:18:51.962000Z</time>
      </trkpt>
      <trkpt lat="45.825666565570664" lon="10.457847503700549">
        <ele>714.0455191870511</ele>
        <time>2017-11-17T11:18:52.018000Z</time>
      </trkpt>
      <trkpt lat="45.82566770077663" lon="10.457844847130596">
        <ele>714.031871577025</ele>
        <time>2017-11-17T11:18:52.021000Z</time>
      </trkpt>
      <trkpt lat="45.82566884346306" lon="10.457842173054814">
        <ele>714.0181340348162</ele>
        <time>2017-11-17T11:18:52.024000Z</time>
      </trkpt>
      <trkpt lat="45.82566884346306" lon="10.457842005416751">
        <ele>714.017399872315</ele>
        <time>2017-11-17T11:18:52.024000Z</time>
      </trkpt>
      <trkpt lat="45.82571268081665" lon="10.45773983001709">
        <ele>713.4919157648129</ele>
        <time>2017-11-17T11:18:52.158000Z</time>
      </trkpt>
      <trkpt lat="45.82569122314453" lon="10.457417964935303">
        <ele>707.4092220040123</ele>
        <time>2017-11-17T11:18:52.519000Z</time>
      </trkpt>
      <trkpt lat="45.82571268081665" lon="10.457267761230469">
        <ele>707.3602552304234</ele>
        <time>2017-11-17T11:18:52.690000Z</time>
      </trkpt>
      <trkpt lat="45.825819969177246" lon="10.457117557525635">
        <ele>707.2915624244592</ele>
        <time>2017-11-17T11:18:52.930000Z</time>
      </trkpt>
      <trkpt lat="45.82620620727539" lon="10.457139015197754">
        <ele>709.447751758843</ele>
        <time>2017-11-17T11:18:53.550000Z</time>
      </trkpt>
      <trkpt lat="45.82652807235718" lon="10.457117557525635">
        <ele>709.9565509651724</ele>
        <time>2017-11-17T11:18:54.067000Z</time>
      </trkpt>
      <trkpt lat="45.82665681838989" lon="10.457181930541992">
        <ele>710.171837721924</ele>
        <time>2017-11-17T11:18:54.286000Z</time>
      </trkpt>
      <trkpt lat="45.82706459797919" lon="10.457181930541992">
        <ele>710.8157547666575</ele>
        <time>2017-11-17T11:18:54.940000Z</time>
      </trkpt>
      <trkpt lat="45.82798719406128" lon="10.456795692443848">
        <ele>713.0</ele>
        <time>2017-11-17T11:18:56.481000Z</time>
      </trkpt>
      <trkpt lat="45.828631008043885" lon="10.456666946411133">
        <ele>714.7628808329473</ele>
        <time>2017-11-17T11:18:57.523000Z</time>
      </trkpt>
      <trkpt lat="45.82888841629028" lon="10.45649528503418">
        <ele>714.7554680036268</ele>
        <time>2017-11-17T11:18:57.978000Z</time>
      </trkpt>
      <trkpt lat="45.82945951392571" lon="10.455990547669565">
        <ele>716.1922674219569</ele>
        <time>2017-11-17T11:18:59.053000Z</time>
      </trkpt>
      <trkpt lat="45.829461362982165" lon="10.455988913449376">
        <ele>716.1947609075141</ele>
        <time>2017-11-17T11:18:59.056000Z</time>
      </trkpt>
      <trkpt lat="45.82946333102882" lon="10.455987174063921">
        <ele>716.1974148535246</ele>
        <time>2017-11-17T11:18:59.060000Z</time>
      </trkpt>
      <trkpt lat="45.82946324720979" lon="10.455987341701984">
        <ele>716.197579937771</ele>
        <time>2017-11-17T11:18:59.060000Z</time>
      </trkpt>
      <trkpt lat="45.829811096191406" lon="10.455679893493652">
        <ele>717.0</ele>
        <time>2017-11-17T11:18:59.715000Z</time>
      </trkpt>
      <trkpt lat="45.83122730255127" lon="10.454671382904053">
        <ele>722.1145084706874</ele>
        <time>2017-11-17T11:19:02.250000Z</time>
      </trkpt>
      <trkpt lat="45.83189249038696" lon="10.454070568084717">
        <ele>725.0</ele>
        <time>2017-11-17T11:19:03.510000Z</time>
      </trkpt>
      <trkpt lat="45.83324432373047" lon="10.453448295593262">
        <ele>726.8436263785879</ele>
        <time>2017-11-17T11:19:05.786000Z</time>
      </trkpt>
      <trkpt lat="45.83463907241821" lon="10.45346975326538">
        <ele>732.0</ele>
        <time>2017-11-17T11:19:08.022000Z</time>
      </trkpt>
      <trkpt lat="45.83517551422119" lon="10.453319549560547">
        <ele>733.9183469744767</ele>
        <time>2017-11-17T11:19:08.898000Z</time>
      </trkpt>
      <trkpt lat="45.83575575199623" lon="10.452919382742328">
        <ele>735.0</ele>
        <time>2017-11-17T11:19:09.930000Z</time>
      </trkpt>
      <trkpt lat="45.83575770933207" lon="10.452918032830242">
        <ele>735.0142660366705</ele>
        <time>2017-11-17T11:19:09.933000Z</time>
      </trkpt>
      <trkpt lat="45.83575998432934" lon="10.452916463837028">
        <ele>735.0308473479909</ele>
        <time>2017-11-17T11:19:09.937000Z</time>
      </trkpt>
      <trkpt lat="45.83575990051031" lon="10.45291654765606">
        <ele>735.031518461556</ele>
        <time>2017-11-17T11:19:09.937000Z</time>
      </trkpt>
      <trkpt lat="45.83579778671265" lon="10.452890396118164">
        <ele>735.3076967828123</ele>
        <time>2017-11-17T11:19:10.004000Z</time>
      </trkpt>
      <trkpt lat="45.83616256713867" lon="10.452804565429688">
        <ele>739.4027593789548</ele>
        <time>2017-11-17T11:19:10.597000Z</time>
      </trkpt>
      <trkpt lat="45.8364200592041" lon="10.452868938446045">
        <ele>741.1198099422281</ele>
        <time>2017-11-17T11:19:11.016000Z</time>
      </trkpt>
      <trkpt lat="45.83648451603949" lon="10.452611446380615">
        <ele>742.3721136205472</ele>
        <time>2017-11-17T11:19:11.322000Z</time>
      </trkpt>
      <trkpt lat="45.83646297454834" lon="10.452439785003662">
        <ele>742.6949427100875</ele>
        <time>2017-11-17T11:19:11.517000Z</time>
      </trkpt>
      <trkpt lat="45.83644160069525" lon="10.45224666595459">
        <ele>744.1779233436736</ele>
        <time>2017-11-17T11:19:11.735000Z</time>
      </trkpt>
      <trkpt lat="45.83624848164618" lon="10.451667308807373">
        <ele>749.0487786983955</ele>
        <time>2017-11-17T11:19:12.452000Z</time>
      </trkpt>
      <trkpt lat="45.835883701220155" lon="10.450658798217773">
        <ele>768.0</ele>
        <time>2017-11-17T11:19:13.721000Z</time>
      </trkpt>
      <trkpt lat="45.83564758300781" lon="10.44999361038208">
        <ele>768.8461375193314</ele>
        <time>2017-11-17T11:19:14.555000Z</time>
      </trkpt>
      <trkpt lat="45.8355188369751" lon="10.449285507202148">
        <ele>770.3291036795969</ele>
        <time>2017-11-17T11:19:15.372000Z</time>
      </trkpt>
      <trkpt lat="45.835347175598145" lon="10.44872760772705">
        <ele>775.2141945557099</ele>
        <time>2017-11-17T11:19:16.053000Z</time>
      </trkpt>
      <trkpt lat="45.835068225860596" lon="10.448276996612549">
        <ele>782.73625821422</ele>
        <time>2017-11-17T11:19:16.726000Z</time>
      </trkpt>
      <trkpt lat="45.834832191467285" lon="10.447998046875">
        <ele>779.1336226622993</ele>
        <time>2017-11-17T11:19:17.216000Z</time>
      </trkpt>
      <trkpt lat="45.83448886871338" lon="10.447933673858643">
        <ele>779.2061324347201</ele>
        <time>2017-11-17T11:19:17.771000Z</time>
      </trkpt>
      <trkpt lat="45.83416700363159" lon="10.447783470153809">
        <ele>779.8574022372432</ele>
        <time>2017-11-17T11:19:18.314000Z</time>
      </trkpt>
      <trkpt lat="45.83399534225464" lon="10.447440147399902">
        <ele>785.4239581240068</ele>
        <time>2017-11-17T11:19:18.786000Z</time>
      </trkpt>
      <trkpt lat="45.833978721009" lon="10.447223826698371">
        <ele>785.7157400494567</ele>
        <time>2017-11-17T11:19:19.029000Z</time>
      </trkpt>
      <trkpt lat="45.83397848296883" lon="10.447220728713942">
        <ele>785.7199187341475</ele>
        <time>2017-11-17T11:19:19.033000Z</time>
      </trkpt>
      <trkpt lat="45.83397824317217" lon="10.447217607870698">
        <ele>785.7241282517552</ele>
        <time>2017-11-17T11:19:19.036000Z</time>
      </trkpt>
      <trkpt lat="45.83397824317217" lon="10.447217775508761">
        <ele>785.7243530060606</ele>
        <time>2017-11-17T11:19:19.036000Z</time>
      </trkpt>
      <trkpt lat="45.83397388458252" lon="10.447161197662354">
        <ele>785.8006698522149</ele>
        <time>2017-11-17T11:19:19.100000Z</time>
      </trkpt>
      <trkpt lat="45.83388805389404" lon="10.447053909301758">
        <ele>786.0196879817969</ele>
        <time>2017-11-17T11:19:19.282000Z</time>
      </trkpt>
      <trkpt lat="45.83365201950073" lon="10.447204113006592">
        <ele>786.5165224406492</ele>
        <time>2017-11-17T11:19:19.696000Z</time>
      </trkpt>
      <trkpt lat="45.833373069763184" lon="10.447847843170166">
        <ele>776.95579144653</ele>
        <time>2017-11-17T11:19:20.543000Z</time>
      </trkpt>
      <trkpt lat="45.833072662353516" lon="10.448362827301025">
        <ele>780.8774937719612</ele>
        <time>2017-11-17T11:19:21.293000Z</time>
      </trkpt>
      <trkpt lat="45.832858085632324" lon="10.44851303100586">
        <ele>781.5177628616235</ele>
        <time>2017-11-17T11:19:21.676000Z</time>
      </trkpt>
      <trkpt lat="45.832579135894775" lon="10.448577404022217">
        <ele>785.2187019505673</ele>
        <time>2017-11-17T11:19:22.129000Z</time>
      </trkpt>
      <trkpt lat="45.83223581314087" lon="10.448448657989502">
        <ele>793.8669195672443</ele>
        <time>2017-11-17T11:19:22.698000Z</time>
      </trkpt>
      <trkpt lat="45.83174287558213" lon="10.448037918210423">
        <ele>806.0</ele>
        <time>2017-11-17T11:19:23.612000Z</time>
      </trkpt>
      <trkpt lat="45.83174099757142" lon="10.44803635337589">
        <ele>806.0286580207306</ele>
        <time>2017-11-17T11:19:23.615000Z</time>
      </trkpt>
      <trkpt lat="45.831738682463765" lon="10.448034424334764">
        <ele>806.0639860416499</ele>
        <time>2017-11-17T11:19:23.619000Z</time>
      </trkpt>
      <trkpt lat="45.8317387662828" lon="10.448034508153796">
        <ele>806.0653342229558</ele>
        <time>2017-11-17T11:19:23.619000Z</time>
      </trkpt>
      <trkpt lat="45.83172082901001" lon="10.44801950454712">
        <ele>806.3393190500046</ele>
        <time>2017-11-17T11:19:23.652000Z</time>
      </trkpt>
      <trkpt lat="45.831592082977295" lon="10.44774055480957">
        <ele>810.4159996628777</ele>
        <time>2017-11-17T11:19:24.026000Z</time>
      </trkpt>
      <trkpt lat="45.83094835281372" lon="10.447118282318115">
        <ele>829.3252269358236</ele>
        <time>2017-11-17T11:19:25.270000Z</time>
      </trkpt>
      <trkpt lat="45.83064794540405" lon="10.447096824645996">
        <ele>833.9612429045347</ele>
        <time>2017-11-17T11:19:25.752000Z</time>
      </trkpt>
      <trkpt lat="45.829629207612506" lon="10.447429400589893">
        <ele>836.5480069873433</ele>
        <time>2017-11-17T11:19:27.427000Z</time>
      </trkpt>
      <trkpt lat="45.82962709013507" lon="10.44743009184605">
        <ele>836.5422416979618</ele>
        <time>2017-11-17T11:19:27.430000Z</time>
      </trkpt>
      <trkpt lat="45.82962376065552" lon="10.447431178763509">
        <ele>836.5331764712005</ele>
        <time>2017-11-17T11:19:27.435000Z</time>
      </trkpt>
      <trkpt lat="45.829623928293586" lon="10.447431094944477">
        <ele>836.532705171997</ele>
        <time>2017-11-17T11:19:27.435000Z</time>
      </trkpt>
      <trkpt lat="45.829596519470215" lon="10.447440147399902">
        <ele>836.458035502911</ele>
        <time>2017-11-17T11:19:27.480000Z</time>
      </trkpt>
      <trkpt lat="45.82938194274902" lon="10.447611808776855">
        <ele>825.805826016283</ele>
        <time>2017-11-17T11:19:27.874000Z</time>
      </trkpt>
      <trkpt lat="45.829339027404785" lon="10.447568893432617">
        <ele>826.6402392651665</ele>
        <time>2017-11-17T11:19:27.958000Z</time>
      </trkpt>
      <trkpt lat="45.829339027404785" lon="10.44750452041626">
        <ele>827.3557875849515</ele>
        <time>2017-11-17T11:19:28.030000Z</time>
      </trkpt>
      <trkpt lat="45.8294677734375" lon="10.447418689727783">
        <ele>839.6203860827522</ele>
        <time>2017-11-17T11:19:28.258000Z</time>
      </trkpt>
      <trkpt lat="45.83026170730591" lon="10.446581840515137">
        <ele>861.3345973441119</ele>
        <time>2017-11-17T11:19:29.837000Z</time>
      </trkpt>
      <trkpt lat="45.83036425430531" lon="10.44654246694352">
        <ele>861.6659549128162</ele>
        <time>2017-11-17T11:19:30.007000Z</time>
      </trkpt>
      <trkpt lat="45.83036635209388" lon="10.446541661482753">
        <ele>861.6727334456995</ele>
        <time>2017-11-17T11:19:30.011000Z</time>
      </trkpt>
      <trkpt lat="45.83036933094263" lon="10.446540517732501">
        <ele>861.6823589268391</ele>
        <time>2017-11-17T11:19:30.016000Z</time>
      </trkpt>
      <trkpt lat="45.8303692471236" lon="10.446540517732501">
        <ele>861.6826205675316</ele>
        <time>2017-11-17T11:19:30.017000Z</time>
      </trkpt>
      <trkpt lat="45.830819606781006" lon="10.446367263793945">
        <ele>863.1380452145177</ele>
        <time>2017-11-17T11:19:30.764000Z</time>
      </trkpt>
      <trkpt lat="45.831055641174316" lon="10.446195602416992">
        <ele>864.3137955431702</ele>
        <time>2017-11-17T11:19:31.188000Z</time>
      </trkpt>
      <trkpt lat="45.83116292953491" lon="10.446195602416992">
        <ele>864.6553600498692</ele>
        <time>2017-11-17T11:19:31.360000Z</time>
      </trkpt>
      <trkpt lat="45.831570625305176" lon="10.446453094482422">
        <ele>866.073425322055</ele>
        <time>2017-11-17T11:19:32.074000Z</time>
      </trkpt>
      <trkpt lat="45.832064151763916" lon="10.44623851776123">
        <ele>863.2585900055382</ele>
        <time>2017-11-17T11:19:32.901000Z</time>
      </trkpt>
      <trkpt lat="45.83212852478027" lon="10.446152687072754">
        <ele>863.5173257351656</ele>
        <time>2017-11-17T11:19:33.042000Z</time>
      </trkpt>
      <trkpt lat="45.832107067108154" lon="10.446088314056396">
        <ele>863.6637386839046</ele>
        <time>2017-11-17T11:19:33.122000Z</time>
      </trkpt>
      <trkpt lat="45.83163499832153" lon="10.4459810256958">
        <ele>869.4044834765159</ele>
        <time>2017-11-17T11:19:33.888000Z</time>
      </trkpt>
      <trkpt lat="45.83127184784213" lon="10.445654231641658">
        <ele>879.8978056571972</ele>
        <time>2017-11-17T11:19:34.575000Z</time>
      </trkpt>
      <trkpt lat="45.8312700080231" lon="10.445652576027173">
        <ele>879.9153941026267</ele>
        <time>2017-11-17T11:19:34.579000Z</time>
      </trkpt>
      <trkpt lat="45.83126745186746" lon="10.445650275796652">
        <ele>879.9398306382026</ele>
        <time>2017-11-17T11:19:34.584000Z</time>
      </trkpt>
      <trkpt lat="45.831267619505525" lon="10.445650359615684">
        <ele>879.9412684501631</ele>
        <time>2017-11-17T11:19:34.584000Z</time>
      </trkpt>
      <trkpt lat="45.83120584487915" lon="10.445594787597656">
        <ele>880.5317735631974</ele>
        <time>2017-11-17T11:19:34.701000Z</time>
      </trkpt>
      <trkpt lat="45.830884063616395" lon="10.445530414581299">
        <ele>883.1632156291575</ele>
        <time>2017-11-17T11:19:35.222000Z</time>
      </trkpt>
      <trkpt lat="45.83075523376465" lon="10.44550895690918">
        <ele>885.5470004310396</ele>
        <time>2017-11-17T11:19:35.430000Z</time>
      </trkpt>
      <trkpt lat="45.83039045333862" lon="10.445637702941895">
        <ele>888.5895432184444</ele>
        <time>2017-11-17T11:19:36.032000Z</time>
      </trkpt>
      <trkpt lat="45.830090045928955" lon="10.44550895690918">
        <ele>889.8927803218179</ele>
        <time>2017-11-17T11:19:36.535000Z</time>
      </trkpt>
      <trkpt lat="45.82942485809326" lon="10.445423126220703">
        <ele>895.3356825715651</ele>
        <time>2017-11-17T11:19:37.606000Z</time>
      </trkpt>
      <trkpt lat="45.82918882369995" lon="10.44574499130249">
        <ele>897.3054153805584</ele>
        <time>2017-11-17T11:19:38.128000Z</time>
      </trkpt>
      <trkpt lat="45.829102993011475" lon="10.44574499130249">
        <ele>900.9191886164739</ele>
        <time>2017-11-17T11:19:38.266000Z</time>
      </trkpt>
      <trkpt lat="45.829060077667236" lon="10.445680618286133">
        <ele>901.8452856263834</ele>
        <time>2017-11-17T11:19:38.366000Z</time>
      </trkpt>
      <trkpt lat="45.829081535339355" lon="10.445594787597656">
        <ele>902.7931846726065</ele>
        <time>2017-11-17T11:19:38.468000Z</time>
      </trkpt>
      <trkpt lat="45.82923438576857" lon="10.445403806231202">
        <ele>903.4832232530824</ele>
        <time>2017-11-17T11:19:38.793000Z</time>
      </trkpt>
      <trkpt lat="45.829236023576684" lon="10.4454017598383">
        <ele>903.5156190481979</ele>
        <time>2017-11-17T11:19:38.797000Z</time>
      </trkpt>
      <trkpt lat="45.82923844456673" lon="10.445398734882474">
        <ele>903.5635061588823</ele>
        <time>2017-11-17T11:19:38.802000Z</time>
      </trkpt>
      <trkpt lat="45.829238360747695" lon="10.445398734882474">
        <ele>903.5647565884747</ele>
        <time>2017-11-17T11:19:38.802000Z</time>
      </trkpt>
      <trkpt lat="45.82951068878174" lon="10.445058345794678">
        <ele>908.952226761563</ele>
        <time>2017-11-17T11:19:39.381000Z</time>
      </trkpt>
      <trkpt lat="45.82974672317505" lon="10.444908142089844">
        <ele>924.1374108295289</ele>
        <time>2017-11-17T11:19:39.795000Z</time>
      </trkpt>
      <trkpt lat="45.83028316497803" lon="10.444672107696533">
        <ele>920.4472855420692</ele>
        <time>2017-11-17T11:19:40.695000Z</time>
      </trkpt>
      <trkpt lat="45.83051919937134" lon="10.444672107696533">
        <ele>920.0167437481578</ele>
        <time>2017-11-17T11:19:41.073000Z</time>
      </trkpt>
      <trkpt lat="45.8310341835022" lon="10.444307327270508">
        <ele>911.6840741627451</ele>
        <time>2017-11-17T11:19:41.994000Z</time>
      </trkpt>
      <trkpt lat="45.83116292953491" lon="10.443942546844482">
        <ele>919.0459581818828</ele>
        <time>2017-11-17T11:19:42.451000Z</time>
      </trkpt>
      <trkpt lat="45.83124876022339" lon="10.443856716156006">
        <ele>919.6683796672346</ele>
        <time>2017-11-17T11:19:42.619000Z</time>
      </trkpt>
      <trkpt lat="45.83154916763306" lon="10.44374942779541">
        <ele>921.5102710076867</ele>
        <time>2017-11-17T11:19:43.115000Z</time>
      </trkpt>
      <trkpt lat="45.83165645599365" lon="10.443620681762695">
        <ele>922.3423580341799</ele>
        <time>2017-11-17T11:19:43.339000Z</time>
      </trkpt>
      <trkpt lat="45.83167185585251" lon="10.443589882048503">
        <ele>918.8328508611527</ele>
        <time>2017-11-17T11:19:43.381000Z</time>
      </trkpt>
      <trkpt lat="45.83167317433273" lon="10.44358724508685">
        <ele>918.8463062934894</ele>
        <time>2017-11-17T11:19:43.385000Z</time>
      </trkpt>
      <trkpt lat="45.831675147637725" lon="10.44358329847455">
        <ele>918.8664443835743</ele>
        <time>2017-11-17T11:19:43.390000Z</time>
      </trkpt>
      <trkpt lat="45.83167506381869" lon="10.443583466112614">
        <ele>918.867299778237</ele>
        <time>2017-11-17T11:19:43.390000Z</time>
      </trkpt>
      <trkpt lat="45.83174228668213" lon="10.443449020385742">
        <ele>919.5533257508372</ele>
        <time>2017-11-17T11:19:43.575000Z</time>
      </trkpt>
      <trkpt lat="45.831806659698486" lon="10.443084239959717">
        <ele>925.7799998475806</ele>
        <time>2017-11-17T11:19:43.995000Z</time>
      </trkpt>
      <trkpt lat="45.83191394805908" lon="10.442590713500977">
        <ele>927.166394329135</ele>
        <time>2017-11-17T11:19:44.572000Z</time>
      </trkpt>
      <trkpt lat="45.83199977874756" lon="10.442354679107666">
        <ele>932.9304539004366</ele>
        <time>2017-11-17T11:19:44.869000Z</time>
      </trkpt>
      <trkpt lat="45.83221435546875" lon="10.442161560058594">
        <ele>934.8838177686811</ele>
        <time>2017-11-17T11:19:45.275000Z</time>
      </trkpt>
      <trkpt lat="45.83221435546875" lon="10.442054271697998">
        <ele>935.4603520485421</ele>
        <time>2017-11-17T11:19:45.395000Z</time>
      </trkpt>
      <trkpt lat="45.83214998245239" lon="10.442054271697998">
        <ele>935.9568208736655</ele>
        <time>2017-11-17T11:19:45.498000Z</time>
      </trkpt>
      <trkpt lat="45.83178520202637" lon="10.442290306091309">
        <ele>939.0428507471746</ele>
        <time>2017-11-17T11:19:46.139000Z</time>
      </trkpt>
      <trkpt lat="45.83152770996094" lon="10.442333221435547">
        <ele>944.7042446992283</ele>
        <time>2017-11-17T11:19:46.555000Z</time>
      </trkpt>
      <trkpt lat="45.83129167556763" lon="10.442440509796143">
        <ele>946.9278316989112</ele>
        <time>2017-11-17T11:19:46.952000Z</time>
      </trkpt>
      <trkpt lat="45.831129995451654" lon="10.442672848318809">
        <ele>945.9826438433238</ele>
        <time>2017-11-17T11:19:47.319000Z</time>
      </trkpt>
      <trkpt lat="45.83112839737245" lon="10.442675144790023">
        <ele>946.0029539808293</ele>
        <time>2017-11-17T11:19:47.323000Z</time>
      </trkpt>
      <trkpt lat="45.831125965341926" lon="10.442678639665246">
        <ele>946.0338628822141</ele>
        <time>2017-11-17T11:19:47.329000Z</time>
      </trkpt>
      <trkpt lat="45.83112604916096" lon="10.442678555846214">
        <ele>946.0347803693886</ele>
        <time>2017-11-17T11:19:47.329000Z</time>
      </trkpt>
      <trkpt lat="45.83094835281372" lon="10.442934036254883">
        <ele>948.2937070316561</ele>
        <time>2017-11-17T11:19:47.732000Z</time>
      </trkpt>
      <trkpt lat="45.830626487731934" lon="10.443084239959717">
        <ele>957.0</ele>
        <time>2017-11-17T11:19:48.275000Z</time>
      </trkpt>
      <trkpt lat="45.8300256729126" lon="10.442805290222168">
        <ele>964.0683148921921</ele>
        <time>2017-11-17T11:19:49.287000Z</time>
      </trkpt>
      <trkpt lat="45.82943217385106" lon="10.442589479900304">
        <ele>975.5881639431159</ele>
        <time>2017-11-17T11:19:50.269000Z</time>
      </trkpt>
      <trkpt lat="45.82942998165438" lon="10.442588682774423">
        <ele>975.6218929237642</ele>
        <time>2017-11-17T11:19:50.272000Z</time>
      </trkpt>
      <trkpt lat="45.82942611537874" lon="10.442587276920676">
        <ele>975.6813791627122</ele>
        <time>2017-11-17T11:19:50.278000Z</time>
      </trkpt>
      <trkpt lat="45.82942619919777" lon="10.442587360739708">
        <ele>975.6829028493411</ele>
        <time>2017-11-17T11:19:50.279000Z</time>
      </trkpt>
      <trkpt lat="45.829081535339355" lon="10.442461967468262">
        <ele>991.3193818569989</ele>
        <time>2017-11-17T11:19:50.849000Z</time>
      </trkpt>
      <trkpt lat="45.82867383956909" lon="10.442397594451904">
        <ele>997.4367111129551</ele>
        <time>2017-11-17T11:19:51.507000Z</time>
      </trkpt>
      <trkpt lat="45.82863092422485" lon="10.442354679107666">
        <ele>997.7361043665566</ele>
        <time>2017-11-17T11:19:51.591000Z</time>
      </trkpt>
      <trkpt lat="45.82865238189697" lon="10.44224739074707">
        <ele>998.1812913844229</ele>
        <time>2017-11-17T11:19:51.716000Z</time>
      </trkpt>
      <trkpt lat="45.829124450683594" lon="10.442118644714355">
        <ele>1000.9316953190187</ele>
        <time>2017-11-17T11:19:52.486000Z</time>
      </trkpt>
      <trkpt lat="45.82972526550293" lon="10.442097187042236">
        <ele>987.7759287170284</ele>
        <time>2017-11-17T11:19:53.449000Z</time>
      </trkpt>
      <trkpt lat="45.83004713058472" lon="10.442161560058594">
        <ele>973.3116125881387</ele>
        <time>2017-11-17T11:19:53.970000Z</time>
      </trkpt>
      <trkpt lat="45.83008719910712" lon="10.442121491540505">
        <ele>973.8716929458046</ele>
        <time>2017-11-17T11:19:54.048000Z</time>
      </trkpt>
      <trkpt lat="45.83008905456607" lon="10.442119636080015">
        <ele>973.8976286768657</ele>
        <time>2017-11-17T11:19:54.052000Z</time>
      </trkpt>
      <trkpt lat="45.830092057585716" lon="10.442116633057594">
        <ele>973.939605089633</ele>
        <time>2017-11-17T11:19:54.058000Z</time>
      </trkpt>
      <trkpt lat="45.830091973766685" lon="10.442116716876626">
        <ele>973.9407767174043</ele>
        <time>2017-11-17T11:19:54.058000Z</time>
      </trkpt>
      <trkpt lat="45.830111503601074" lon="10.442097187042236">
        <ele>974.2137659567893</ele>
        <time>2017-11-17T11:19:54.096000Z</time>
      </trkpt>
      <trkpt lat="45.830111503601074" lon="10.44198989868164">
        <ele>975.0711236232868</ele>
        <time>2017-11-17T11:19:54.216000Z</time>
      </trkpt>
      <trkpt lat="45.830068588256836" lon="10.441925525665283">
        <ele>975.7830652485951</ele>
        <time>2017-11-17T11:19:54.316000Z</time>
      </trkpt>
      <trkpt lat="45.82972526550293" lon="10.441946983337402">
        <ele>989.0575457065994</ele>
        <time>2017-11-17T11:19:54.867000Z</time>
      </trkpt>
      <trkpt lat="45.82942485809326" lon="10.441861152648926">
        <ele>995.0270469729047</ele>
        <time>2017-11-17T11:19:55.358000Z</time>
      </trkpt>
      <trkpt lat="45.82880258560181" lon="10.441603660583496">
        <ele>1018.3151515459434</ele>
        <time>2017-11-17T11:19:56.396000Z</time>
      </trkpt>
      <trkpt lat="45.82862975681175" lon="10.441430913297719">
        <ele>1020.1849204831033</ele>
        <time>2017-11-17T11:19:56.734000Z</time>
      </trkpt>
      <trkpt lat="45.828627901079145" lon="10.44142905844749">
        <ele>1020.204996922911</ele>
        <time>2017-11-17T11:19:56.738000Z</time>
      </trkpt>
      <trkpt lat="45.82862488925457" lon="10.441426048055291">
        <ele>1020.2375806657118</ele>
        <time>2017-11-17T11:19:56.744000Z</time>
      </trkpt>
      <trkpt lat="45.828609466552734" lon="10.441410541534424">
        <ele>1020.4047557192667</ele>
        <time>2017-11-17T11:19:56.774000Z</time>
      </trkpt>
      <trkpt lat="45.828351974487305" lon="10.441281795501709">
        <ele>1022.8254397050074</ele>
        <time>2017-11-17T11:19:57.211000Z</time>
      </trkpt>
      <trkpt lat="45.828309059143066" lon="10.441195964813232">
        <ele>1022.8122705851915</ele>
        <time>2017-11-17T11:19:57.329000Z</time>
      </trkpt>
      <trkpt lat="45.82893133163452" lon="10.44074535369873">
        <ele>1033.0</ele>
        <time>2017-11-17T11:19:58.446000Z</time>
      </trkpt>
      <trkpt lat="45.82916736602783" lon="10.440723896026611">
        <ele>1024.2875200224503</ele>
        <time>2017-11-17T11:19:58.825000Z</time>
      </trkpt>
      <trkpt lat="45.82927465438843" lon="10.440638065338135">
        <ele>1024.6099643488963</ele>
        <time>2017-11-17T11:19:59.022000Z</time>
      </trkpt>
      <trkpt lat="45.82927465439008" lon="10.440592952914601">
        <ele>1024.6924821507744</ele>
        <time>2017-11-17T11:19:59.072000Z</time>
      </trkpt>
      <trkpt lat="45.82927465438953" lon="10.44058970741167">
        <ele>1024.6984186921281</ele>
        <time>2017-11-17T11:19:59.075000Z</time>
      </trkpt>
      <trkpt lat="45.82927465438843" lon="10.440584421157837">
        <ele>1024.708088091648</ele>
        <time>2017-11-17T11:19:59.081000Z</time>
      </trkpt>
      <trkpt lat="45.82927465438843" lon="10.440423488616943">
        <ele>1025.0024593199032</ele>
        <time>2017-11-17T11:19:59.261000Z</time>
      </trkpt>
      <trkpt lat="45.82918882369995" lon="10.440101623535156">
        <ele>1025.6328439749175</ele>
        <time>2017-11-17T11:19:59.646000Z</time>
      </trkpt>
      <trkpt lat="45.82921028137207" lon="10.439822673797607">
        <ele>1034.4795211229002</ele>
        <time>2017-11-17T11:19:59.959000Z</time>
      </trkpt>
      <trkpt lat="45.829360485076904" lon="10.439436435699463">
        <ele>1035.2885935377196</ele>
        <time>2017-11-17T11:20:00.453000Z</time>
      </trkpt>
      <trkpt lat="45.829596519470215" lon="10.439050197601318">
        <ele>1049.5702611043764</ele>
        <time>2017-11-17T11:20:01.027000Z</time>
      </trkpt>
      <trkpt lat="45.82978963851929" lon="10.43849229812622">
        <ele>1057.1872791154162</ele>
        <time>2017-11-17T11:20:01.723000Z</time>
      </trkpt>
      <trkpt lat="45.82993984222412" lon="10.43825626373291">
        <ele>1067.3806142114333</ele>
        <time>2017-11-17T11:20:02.080000Z</time>
      </trkpt>
      <trkpt lat="45.83021879196167" lon="10.4380202293396">
        <ele>1061.486506106154</ele>
        <time>2017-11-17T11:20:02.599000Z</time>
      </trkpt>
      <trkpt lat="45.83051919937134" lon="10.437633991241455">
        <ele>1061.2032249416804</ele>
        <time>2017-11-17T11:20:03.246000Z</time>
      </trkpt>
      <trkpt lat="45.83079041436007" lon="10.437091478459731">
        <ele>1068.8764565209176</ele>
        <time>2017-11-17T11:20:03.992000Z</time>
      </trkpt>
      <trkpt lat="45.830791732680225" lon="10.437088841391414">
        <ele>1068.8748681568593</ele>
        <time>2017-11-17T11:20:03.996000Z</time>
      </trkpt>
      <trkpt lat="45.83079353906214" lon="10.437085228040814">
        <ele>1068.8726917566905</ele>
        <time>2017-11-17T11:20:04.001000Z</time>
      </trkpt>
      <trkpt lat="45.83079345524311" lon="10.437085395678878">
        <ele>1068.872590779042</ele>
        <time>2017-11-17T11:20:04.001000Z</time>
      </trkpt>
      <trkpt lat="45.830841064453125" lon="10.43699026107788">
        <ele>1061.4819353159994</ele>
        <time>2017-11-17T11:20:04.132000Z</time>
      </trkpt>
      <trkpt lat="45.831077098846436" lon="10.436453819274902">
        <ele>1073.733206609162</ele>
        <time>2017-11-17T11:20:04.841000Z</time>
      </trkpt>
      <trkpt lat="45.83127021789551" lon="10.435874462127686">
        <ele>1079.723828397009</ele>
        <time>2017-11-17T11:20:05.558000Z</time>
      </trkpt>
      <trkpt lat="45.83154916763306" lon="10.435423851013184">
        <ele>1092.731875696493</ele>
        <time>2017-11-17T11:20:06.231000Z</time>
      </trkpt>
      <trkpt lat="45.83172082901001" lon="10.435359477996826">
        <ele>1091.021418370525</ele>
        <time>2017-11-17T11:20:06.515000Z</time>
      </trkpt>
      <trkpt lat="45.83191394805908" lon="10.435445308685303">
        <ele>1092.1109747687192</ele>
        <time>2017-11-17T11:20:06.839000Z</time>
      </trkpt>
      <trkpt lat="45.832064151763916" lon="10.435423851013184">
        <ele>1092.9244813658534</ele>
        <time>2017-11-17T11:20:07.081000Z</time>
      </trkpt>
      <trkpt lat="45.83253622055054" lon="10.434930324554443">
        <ele>1101.0720623183904</ele>
        <time>2017-11-17T11:20:08.017000Z</time>
      </trkpt>
      <trkpt lat="45.833072662353516" lon="10.434222221374512">
        <ele>1105.0</ele>
        <time>2017-11-17T11:20:09.185000Z</time>
      </trkpt>
      <trkpt lat="45.833330154418945" lon="10.434114933013916">
        <ele>1114.0854230291473</ele>
        <time>2017-11-17T11:20:09.615000Z</time>
      </trkpt>
      <trkpt lat="45.833566188812256" lon="10.434222221374512">
        <ele>1106.1132460555057</ele>
        <time>2017-11-17T11:20:10.012000Z</time>
      </trkpt>
      <trkpt lat="45.833866596221924" lon="10.43424367904663">
        <ele>1106.9569356521934</ele>
        <time>2017-11-17T11:20:10.494000Z</time>
      </trkpt>
      <trkpt lat="45.83416700363159" lon="10.434179306030273">
        <ele>1111.2893756205433</ele>
        <time>2017-11-17T11:20:10.981000Z</time>
      </trkpt>
      <trkpt lat="45.83474084981889" lon="10.433892424438797">
        <ele>1125.622555780363</ele>
        <time>2017-11-17T11:20:11.955000Z</time>
      </trkpt>
      <trkpt lat="45.8347429854456" lon="10.433891356768218">
        <ele>1125.6424037739123</ele>
        <time>2017-11-17T11:20:11.959000Z</time>
      </trkpt>
      <trkpt lat="45.83474694751203" lon="10.43388937599957">
        <ele>1125.6792262529361</ele>
        <time>2017-11-17T11:20:11.966000Z</time>
      </trkpt>
      <trkpt lat="45.834746863693" lon="10.43388937599957">
        <ele>1125.6799618974433</ele>
        <time>2017-11-17T11:20:11.966000Z</time>
      </trkpt>
      <trkpt lat="45.835068225860596" lon="10.433728694915771">
        <ele>1125.0</ele>
        <time>2017-11-17T11:20:12.512000Z</time>
      </trkpt>
      <trkpt lat="45.83523988723755" lon="10.433707237243652">
        <ele>1125.1707029115803</ele>
        <time>2017-11-17T11:20:12.788000Z</time>
      </trkpt>
      <trkpt lat="45.8354115486145" lon="10.433471202850342">
        <ele>1125.4062057295375</ele>
        <time>2017-11-17T11:20:13.169000Z</time>
      </trkpt>
      <trkpt lat="45.83596953190863" lon="10.433063507080078">
        <ele>1127.3598170118764</ele>
        <time>2017-11-17T11:20:14.173000Z</time>
      </trkpt>
      <trkpt lat="45.83637714385986" lon="10.432569980621338">
        <ele>1127.8881110097823</ele>
        <time>2017-11-17T11:20:15.028000Z</time>
      </trkpt>
      <trkpt lat="45.83650588989258" lon="10.432484149932861">
        <ele>1132.7291255814555</ele>
        <time>2017-11-17T11:20:15.256000Z</time>
      </trkpt>
      <trkpt lat="45.836849212646484" lon="10.431690216064453">
        <ele>1126.0</ele>
        <time>2017-11-17T11:20:16.300000Z</time>
      </trkpt>
      <trkpt lat="45.8369220751929" lon="10.431340410341953">
        <ele>1134.2906502995854</ele>
        <time>2017-11-17T11:20:16.708000Z</time>
      </trkpt>
      <trkpt lat="45.836922722973455" lon="10.431337300385916">
        <ele>1134.3169423768593</ele>
        <time>2017-11-17T11:20:16.712000Z</time>
      </trkpt>
      <trkpt lat="45.83692372776568" lon="10.431332476437092">
        <ele>1134.3577248283434</ele>
        <time>2017-11-17T11:20:16.717000Z</time>
      </trkpt>
      <trkpt lat="45.83695650100708" lon="10.431175231933594">
        <ele>1135.6871627712505</ele>
        <time>2017-11-17T11:20:16.900000Z</time>
      </trkpt>
      <trkpt lat="45.8368706703186" lon="10.431110858917236">
        <ele>1136.8130518831747</ele>
        <time>2017-11-17T11:20:17.055000Z</time>
      </trkpt>
      <trkpt lat="45.83664220748759" lon="10.431585301497597">
        <ele>1146.151267348928</ele>
        <time>2017-11-17T11:20:17.699000Z</time>
      </trkpt>
      <trkpt lat="45.836640921659665" lon="10.4315879717191">
        <ele>1146.1775594754163</ele>
        <time>2017-11-17T11:20:17.703000Z</time>
      </trkpt>
      <trkpt lat="45.83663891069591" lon="10.431592147797346">
        <ele>1146.218678904696</ele>
        <time>2017-11-17T11:20:17.709000Z</time>
      </trkpt>
      <trkpt lat="45.83663899451494" lon="10.431591896340251">
        <ele>1146.2209368112674</ele>
        <time>2017-11-17T11:20:17.709000Z</time>
      </trkpt>
      <trkpt lat="45.836591720581055" lon="10.431690216064453">
        <ele>1143.188563799259</ele>
        <time>2017-11-17T11:20:17.842000Z</time>
      </trkpt>
      <trkpt lat="45.83646297454834" lon="10.431840419769287">
        <ele>1145.1174678508307</ele>
        <time>2017-11-17T11:20:18.108000Z</time>
      </trkpt>
      <trkpt lat="45.83626985549927" lon="10.431990623474121">
        <ele>1147.671137236252</ele>
        <time>2017-11-17T11:20:18.460000Z</time>
      </trkpt>
      <trkpt lat="45.83573341369629" lon="10.432205200195312">
        <ele>1159.95207365166</ele>
        <time>2017-11-17T11:20:19.353000Z</time>
      </trkpt>
      <trkpt lat="45.8354115486145" lon="10.43250560760498">
        <ele>1155.7585593810277</ele>
        <time>2017-11-17T11:20:19.968000Z</time>
      </trkpt>
      <trkpt lat="45.83515405654907" lon="10.432548522949219">
        <ele>1157.20331710334</ele>
        <time>2017-11-17T11:20:20.384000Z</time>
      </trkpt>
      <trkpt lat="45.834574699401855" lon="10.43250560760498">
        <ele>1171.6007388254864</ele>
        <time>2017-11-17T11:20:21.314000Z</time>
      </trkpt>
      <trkpt lat="45.834498003192905" lon="10.432454450838279">
        <ele>1181.9221418754007</ele>
        <time>2017-11-17T11:20:21.450000Z</time>
      </trkpt>
      <trkpt lat="45.83449595236192" lon="10.432453082925576">
        <ele>1181.9574757416078</ele>
        <time>2017-11-17T11:20:21.454000Z</time>
      </trkpt>
      <trkpt lat="45.834492137655616" lon="10.432450538501143">
        <ele>1182.0231995000888</ele>
        <time>2017-11-17T11:20:21.461000Z</time>
      </trkpt>
      <trkpt lat="45.83449222147465" lon="10.432450706139207">
        <ele>1182.0254456857076</ele>
        <time>2017-11-17T11:20:21.461000Z</time>
      </trkpt>
      <trkpt lat="45.83425283432007" lon="10.432291030883789">
        <ele>1186.149875687096</ele>
        <time>2017-11-17T11:20:21.884000Z</time>
      </trkpt>
      <trkpt lat="45.833823680877686" lon="10.432162284851074">
        <ele>1194.0</ele>
        <time>2017-11-17T11:20:22.587000Z</time>
      </trkpt>
      <trkpt lat="45.833351612091064" lon="10.431797504425049">
        <ele>1193.670656074947</ele>
        <time>2017-11-17T11:20:23.447000Z</time>
      </trkpt>
      <trkpt lat="45.8323860168457" lon="10.431346893310547">
        <ele>1196.0469321305527</ele>
        <time>2017-11-17T11:20:25.075000Z</time>
      </trkpt>
      <trkpt lat="45.83212852478027" lon="10.431389808654785">
        <ele>1194.435943179489</ele>
        <time>2017-11-17T11:20:25.491000Z</time>
      </trkpt>
      <trkpt lat="45.83176374435425" lon="10.431668758392334">
        <ele>1183.2005567434805</ele>
        <time>2017-11-17T11:20:26.154000Z</time>
      </trkpt>
      <trkpt lat="45.83152770996094" lon="10.431690216064453">
        <ele>1188.1374763539286</ele>
        <time>2017-11-17T11:20:26.533000Z</time>
      </trkpt>
      <trkpt lat="45.83124876022339" lon="10.43154001235962">
        <ele>1196.5864580440323</ele>
        <time>2017-11-17T11:20:27.011000Z</time>
      </trkpt>
      <trkpt lat="45.83114147186279" lon="10.43154001235962">
        <ele>1196.9882081284122</ele>
        <time>2017-11-17T11:20:27.183000Z</time>
      </trkpt>
      <trkpt lat="45.83099126815796" lon="10.431690216064453">
        <ele>1190.3403947813913</ele>
        <time>2017-11-17T11:20:27.476000Z</time>
      </trkpt>
      <trkpt lat="45.829918384552" lon="10.432162284851074">
        <ele>1197.5424672046968</ele>
        <time>2017-11-17T11:20:29.275000Z</time>
      </trkpt>
      <trkpt lat="45.82923173904419" lon="10.4325270652771">
        <ele>1198.9797865112546</ele>
        <time>2017-11-17T11:20:30.449000Z</time>
      </trkpt>
      <trkpt lat="45.828824043273926" lon="10.432419776916504">
        <ele>1212.304688103213</ele>
        <time>2017-11-17T11:20:31.113000Z</time>
      </trkpt>
      <trkpt lat="45.82848072052002" lon="10.432205200195312">
        <ele>1217.2979990191914</ele>
        <time>2017-11-17T11:20:31.713000Z</time>
      </trkpt>
      <trkpt lat="45.828073024749756" lon="10.432162284851074">
        <ele>1226.4156511425235</ele>
        <time>2017-11-17T11:20:32.368000Z</time>
      </trkpt>
      <trkpt lat="45.8279013633728" lon="10.43203353881836">
        <ele>1228.998395480876</ele>
        <time>2017-11-17T11:20:32.679000Z</time>
      </trkpt>
      <trkpt lat="45.82775115966797" lon="10.431582927703857">
        <ele>1238.434027319833</ele>
        <time>2017-11-17T11:20:33.237000Z</time>
      </trkpt>
      <trkpt lat="45.827364921569824" lon="10.431346893310547">
        <ele>1237.509186723399</ele>
        <time>2017-11-17T11:20:33.910000Z</time>
      </trkpt>
      <trkpt lat="45.82703374618626" lon="10.430927426488402">
        <ele>1239.341950180342</ele>
        <time>2017-11-17T11:20:34.618000Z</time>
      </trkpt>
      <trkpt lat="45.82703205065297" lon="10.430925278943379">
        <ele>1239.3579288960007</ele>
        <time>2017-11-17T11:20:34.621000Z</time>
      </trkpt>
      <trkpt lat="45.82702914252877" lon="10.430921595543623">
        <ele>1239.3853350746401</ele>
        <time>2017-11-17T11:20:34.627000Z</time>
      </trkpt>
      <trkpt lat="45.827029226347804" lon="10.430921763181686">
        <ele>1239.3863509372704</ele>
        <time>2017-11-17T11:20:34.627000Z</time>
      </trkpt>
      <trkpt lat="45.82672119140625" lon="10.43053150177002">
        <ele>1249.2896314695004</ele>
        <time>2017-11-17T11:20:35.286000Z</time>
      </trkpt>
      <trkpt lat="45.82676410675049" lon="10.430445671081543">
        <ele>1249.809754771602</ele>
        <time>2017-11-17T11:20:35.404000Z</time>
      </trkpt>
      <trkpt lat="45.826871395111084" lon="10.430445671081543">
        <ele>1250.5678149032053</ele>
        <time>2017-11-17T11:20:35.576000Z</time>
      </trkpt>
      <trkpt lat="45.827622413635254" lon="10.430681705474854">
        <ele>1256.0</ele>
        <time>2017-11-17T11:20:36.809000Z</time>
      </trkpt>
      <trkpt lat="45.82770824432373" lon="10.430617332458496">
        <ele>1256.3570207676505</ele>
        <time>2017-11-17T11:20:36.964000Z</time>
      </trkpt>
      <trkpt lat="45.82813739776611" lon="10.429887771606445">
        <ele>1265.809616788854</ele>
        <time>2017-11-17T11:20:38.031000Z</time>
      </trkpt>
      <trkpt lat="45.828309059143066" lon="10.429866313934326">
        <ele>1266.444844056321</ele>
        <time>2017-11-17T11:20:38.307000Z</time>
      </trkpt>
      <trkpt lat="45.82873821258545" lon="10.430059432983398">
        <ele>1264.7695426110256</ele>
        <time>2017-11-17T11:20:39.028000Z</time>
      </trkpt>
      <trkpt lat="45.82923173904419" lon="10.429952144622803">
        <ele>1263.866544211118</ele>
        <time>2017-11-17T11:20:39.828000Z</time>
      </trkpt>
      <trkpt lat="45.829875469207764" lon="10.429608821868896">
        <ele>1264.0</ele>
        <time>2017-11-17T11:20:40.929000Z</time>
      </trkpt>
      <trkpt lat="45.829912509119694" lon="10.429542981544094">
        <ele>1264.4426992685896</ele>
        <time>2017-11-17T11:20:41.024000Z</time>
      </trkpt>
      <trkpt lat="45.82991392974054" lon="10.429540456315275">
        <ele>1264.4596784738824</ele>
        <time>2017-11-17T11:20:41.028000Z</time>
      </trkpt>
      <trkpt lat="45.829916540533304" lon="10.429535815492272">
        <ele>1264.4908825691155</ele>
        <time>2017-11-17T11:20:41.035000Z</time>
      </trkpt>
      <trkpt lat="45.82991645671427" lon="10.429535983130336">
        <ele>1264.491962006701</ele>
        <time>2017-11-17T11:20:41.035000Z</time>
      </trkpt>
      <trkpt lat="45.830068588256836" lon="10.42926549911499">
        <ele>1264.6438155246062</ele>
        <time>2017-11-17T11:20:41.423000Z</time>
      </trkpt>
      <trkpt lat="45.83026170730591" lon="10.428063869476318">
        <ele>1277.7618964890207</ele>
        <time>2017-11-17T11:20:42.801000Z</time>
      </trkpt>
      <trkpt lat="45.83039045333862" lon="10.427935123443604">
        <ele>1278.7606552491025</ele>
        <time>2017-11-17T11:20:43.053000Z</time>
      </trkpt>
      <trkpt lat="45.830583572387695" lon="10.42776346206665">
        <ele>1280.206498389414</ele>
        <time>2017-11-17T11:20:43.417000Z</time>
      </trkpt>
      <trkpt lat="45.831334590911865" lon="10.42752742767334">
        <ele>1282.760550113765</ele>
        <time>2017-11-17T11:20:44.650000Z</time>
      </trkpt>
      <trkpt lat="45.83268642425537" lon="10.42628288269043">
        <ele>1305.0</ele>
        <time>2017-11-17T11:20:47.225000Z</time>
      </trkpt>
      <trkpt lat="45.83343744277954" lon="10.426068305969238">
        <ele>1303.5116126729388</ele>
        <time>2017-11-17T11:20:48.453000Z</time>
      </trkpt>
      <trkpt lat="45.83371175246846" lon="10.425815097051068">
        <ele>1312.581340196949</ele>
        <time>2017-11-17T11:20:48.976000Z</time>
      </trkpt>
      <trkpt lat="45.83371365450673" lon="10.42581334131313">
        <ele>1312.5876314698428</ele>
        <time>2017-11-17T11:20:48.979000Z</time>
      </trkpt>
      <trkpt lat="45.83371639251709" lon="10.425810813903809">
        <ele>1312.596687844257</ele>
        <time>2017-11-17T11:20:48.984000Z</time>
      </trkpt>
      <trkpt lat="45.833717063069344" lon="10.425809808075428">
        <ele>1312.5993861443167</ele>
        <time>2017-11-17T11:20:48.984000Z</time>
      </trkpt>
      <trkpt lat="45.83371697925031" lon="10.425809808075428">
        <ele>1312.5996193246665</ele>
        <time>2017-11-17T11:20:48.984000Z</time>
      </trkpt>
      <trkpt lat="45.83378076553345" lon="10.425703525543213">
        <ele>1312.8715159011983</ele>
        <time>2017-11-17T11:20:49.141000Z</time>
      </trkpt>
      <trkpt lat="45.83375930786133" lon="10.425596237182617">
        <ele>1313.087871283504</ele>
        <time>2017-11-17T11:20:49.266000Z</time>
      </trkpt>
      <trkpt lat="45.833308696746826" lon="10.42553186416626">
        <ele>1319.0143099949564</ele>
        <time>2017-11-17T11:20:49.992000Z</time>
      </trkpt>
      <trkpt lat="45.833072662353516" lon="10.425252914428711">
        <ele>1319.8649095780113</ele>
        <time>2017-11-17T11:20:50.482000Z</time>
      </trkpt>
      <trkpt lat="45.83290100097656" lon="10.425209999084473">
        <ele>1320.409014447899</ele>
        <time>2017-11-17T11:20:50.761000Z</time>
      </trkpt>
      <trkpt lat="45.83212852478027" lon="10.425853729248047">
        <ele>1317.531632618492</ele>
        <time>2017-11-17T11:20:52.193000Z</time>
      </trkpt>
      <trkpt lat="45.83176374435425" lon="10.425896644592285">
        <ele>1323.2365238660866</ele>
        <time>2017-11-17T11:20:52.780000Z</time>
      </trkpt>
      <trkpt lat="45.83099126815796" lon="10.42578935623169">
        <ele>1349.0</ele>
        <time>2017-11-17T11:20:54.024000Z</time>
      </trkpt>
      <trkpt lat="45.83041191101074" lon="10.425875186920166">
        <ele>1342.3333333333333</ele>
        <time>2017-11-17T11:20:54.958000Z</time>
      </trkpt>
      <trkpt lat="45.82938194274902" lon="10.425188541412354">
        <ele>1350.3329448027182</ele>
        <time>2017-11-17T11:20:56.779000Z</time>
      </trkpt>
      <trkpt lat="45.8289098739624" lon="10.4250168800354">
        <ele>1349.0</ele>
        <time>2017-11-17T11:20:57.560000Z</time>
      </trkpt>
      <trkpt lat="45.82850217819214" lon="10.424394607543945">
        <ele>1364.4656698915496</ele>
        <time>2017-11-17T11:20:58.514000Z</time>
      </trkpt>
      <trkpt lat="45.82824468612671" lon="10.424094200134277">
        <ele>1376.967564236252</ele>
        <time>2017-11-17T11:20:59.046000Z</time>
      </trkpt>
      <trkpt lat="45.82794427871704" lon="10.423965454101562">
        <ele>1378.4568784169444</ele>
        <time>2017-11-17T11:20:59.549000Z</time>
      </trkpt>
      <trkpt lat="45.827600955963135" lon="10.423986911773682">
        <ele>1380.0893263118078</ele>
        <time>2017-11-17T11:21:00.100000Z</time>
      </trkpt>
      <trkpt lat="45.82730054855347" lon="10.423836708068848">
        <ele>1381.2671666739789</ele>
        <time>2017-11-17T11:21:00.610000Z</time>
      </trkpt>
      <trkpt lat="45.82693576812744" lon="10.423836708068848">
        <ele>1383.0</ele>
        <time>2017-11-17T11:21:01.195000Z</time>
      </trkpt>
      <trkpt lat="45.82684435230716" lon="10.42373219882412">
        <ele>1384.4115297156839</ele>
        <time>2017-11-17T11:21:01.382000Z</time>
      </trkpt>
      <trkpt lat="45.82684258349791" lon="10.423730176673965">
        <ele>1384.438841451537</ele>
        <time>2017-11-17T11:21:01.386000Z</time>
      </trkpt>
      <trkpt lat="45.826839208602905" lon="10.423726318404078">
        <ele>1384.4909523491135</ele>
        <time>2017-11-17T11:21:01.393000Z</time>
      </trkpt>
      <trkpt lat="45.82678556442261" lon="10.423665046691895">
        <ele>1385.3189666162432</ele>
        <time>2017-11-17T11:21:01.503000Z</time>
      </trkpt>
      <trkpt lat="45.82642078399658" lon="10.42304277420044">
        <ele>1396.4957298489715</ele>
        <time>2017-11-17T11:21:02.411000Z</time>
      </trkpt>
      <trkpt lat="45.8264422416687" lon="10.42229175567627">
        <ele>1408.4880315308774</ele>
        <time>2017-11-17T11:21:03.251000Z</time>
      </trkpt>
      <trkpt lat="45.82627058029175" lon="10.422098636627197">
        <ele>1409.2497765101791</ele>
        <time>2017-11-17T11:21:03.601000Z</time>
      </trkpt>
      <trkpt lat="45.82629203796387" lon="10.421948432922363">
        <ele>1409.6229067994807</ele>
        <time>2017-11-17T11:21:03.772000Z</time>
      </trkpt>
      <trkpt lat="45.82639932632446" lon="10.421969890594482">
        <ele>1410.0012094010617</ele>
        <time>2017-11-17T11:21:03.946000Z</time>
      </trkpt>
      <trkpt lat="45.82674264907837" lon="10.422227382659912">
        <ele>1410.3540602740661</ele>
        <time>2017-11-17T11:21:04.567000Z</time>
      </trkpt>
      <trkpt lat="45.827171886339784" lon="10.42203426361084">
        <ele>1410.7005910864457</ele>
        <time>2017-11-17T11:21:05.288000Z</time>
      </trkpt>
      <trkpt lat="45.827322006225586" lon="10.421969890594482">
        <ele>1411.4272984115212</ele>
        <time>2017-11-17T11:21:05.539000Z</time>
      </trkpt>
      <trkpt lat="45.82779407501221" lon="10.422184467315674">
        <ele>1417.3907252516453</ele>
        <time>2017-11-17T11:21:06.333000Z</time>
      </trkpt>
      <trkpt lat="45.828330516815186" lon="10.422248840332031">
        <ele>1419.88753956988</ele>
        <time>2017-11-17T11:21:07.196000Z</time>
      </trkpt>
      <trkpt lat="45.82841634750366" lon="10.422205924987793">
        <ele>1422.3960205627582</ele>
        <time>2017-11-17T11:21:07.342000Z</time>
      </trkpt>
      <trkpt lat="45.82841634750366" lon="10.422141551971436">
        <ele>1422.6469620614907</ele>
        <time>2017-11-17T11:21:07.414000Z</time>
      </trkpt>
      <trkpt lat="45.828399142910854" lon="10.422112966904978">
        <ele>1422.7942066423293</ele>
        <time>2017-11-17T11:21:07.456000Z</time>
      </trkpt>
      <trkpt lat="45.82839766465577" lon="10.422110510816838">
        <ele>1422.8068582050175</ele>
        <time>2017-11-17T11:21:07.460000Z</time>
      </trkpt>
      <trkpt lat="45.82839480601251" lon="10.422105761244893">
        <ele>1422.8313237408138</ele>
        <time>2017-11-17T11:21:07.467000Z</time>
      </trkpt>
      <trkpt lat="45.82839488983154" lon="10.422105845063925">
        <ele>1422.8318952720354</ele>
        <time>2017-11-17T11:21:07.467000Z</time>
      </trkpt>
      <trkpt lat="45.828351974487305" lon="10.42203426361084">
        <ele>1423.2000064542215</ele>
        <time>2017-11-17T11:21:07.572000Z</time>
      </trkpt>
      <trkpt lat="45.8279013633728" lon="10.42179822921753">
        <ele>1423.8835848173312</ele>
        <time>2017-11-17T11:21:08.341000Z</time>
      </trkpt>
      <trkpt lat="45.827815532684326" lon="10.421690940856934">
        <ele>1424.8644832474301</ele>
        <time>2017-11-17T11:21:08.523000Z</time>
      </trkpt>
      <trkpt lat="45.82750714496364" lon="10.420856548312756">
        <ele>1436.5361263893446</ele>
        <time>2017-11-17T11:21:09.578000Z</time>
      </trkpt>
      <trkpt lat="45.82750608529464" lon="10.420853681252169">
        <ele>1436.5511266259207</ele>
        <time>2017-11-17T11:21:09.582000Z</time>
      </trkpt>
      <trkpt lat="45.82750456407666" lon="10.420849565416574">
        <ele>1436.5726603568025</ele>
        <time>2017-11-17T11:21:09.587000Z</time>
      </trkpt>
      <trkpt lat="45.827504647895694" lon="10.42084981687367">
        <ele>1436.5739487245219</ele>
        <time>2017-11-17T11:21:09.587000Z</time>
      </trkpt>
      <trkpt lat="45.8274507522583" lon="10.420703887939453">
        <ele>1439.3373141948575</ele>
        <time>2017-11-17T11:21:09.771000Z</time>
      </trkpt>
      <trkpt lat="45.827107429504395" lon="10.420424938201904">
        <ele>1441.954223226372</ele>
        <time>2017-11-17T11:21:10.403000Z</time>
      </trkpt>
      <trkpt lat="45.8270001411438" lon="10.420403480529785">
        <ele>1442.672742536329</ele>
        <time>2017-11-17T11:21:10.577000Z</time>
      </trkpt>
      <trkpt lat="45.826850021258" lon="10.42055368423462">
        <ele>1443.886614389192</ele>
        <time>2017-11-17T11:21:10.870000Z</time>
      </trkpt>
      <trkpt lat="45.82669973373413" lon="10.420660972595215">
        <ele>1445.0</ele>
        <time>2017-11-17T11:21:11.139000Z</time>
      </trkpt>
      <trkpt lat="45.82652815617621" lon="10.420703887939453">
        <ele>1447.213780413832</ele>
        <time>2017-11-17T11:21:11.418000Z</time>
      </trkpt>
      <trkpt lat="45.826313495635986" lon="10.420639514923096">
        <ele>1448.742101961121</ele>
        <time>2017-11-17T11:21:11.770000Z</time>
      </trkpt>
      <trkpt lat="45.826254166904825" lon="10.420481251929148">
        <ele>1449.6148455564864</ele>
        <time>2017-11-17T11:21:11.971000Z</time>
      </trkpt>
      <trkpt lat="45.826253095515256" lon="10.420478393940826">
        <ele>1449.6306059855676</ele>
        <time>2017-11-17T11:21:11.975000Z</time>
      </trkpt>
      <trkpt lat="45.82625096663833" lon="10.420472715049982">
        <ele>1449.66192233547</ele>
        <time>2017-11-17T11:21:11.982000Z</time>
      </trkpt>
      <trkpt lat="45.82624912261963" lon="10.420467853546143">
        <ele>1449.6888027015696</ele>
        <time>2017-11-17T11:21:11.988000Z</time>
      </trkpt>
      <trkpt lat="45.82624912261963" lon="10.42027473449707">
        <ele>1450.6266613260148</ele>
        <time>2017-11-17T11:21:12.204000Z</time>
      </trkpt>
      <trkpt lat="45.82614183425903" lon="10.42003870010376">
        <ele>1451.9952430389021</ele>
        <time>2017-11-17T11:21:12.519000Z</time>
      </trkpt>
      <trkpt lat="45.825133323669434" lon="10.41877269744873">
        <ele>1468.0</ele>
        <time>2017-11-17T11:21:14.667000Z</time>
      </trkpt>
      <trkpt lat="45.825089154457736" lon="10.418673297369224">
        <ele>1468.2174724614376</ele>
        <time>2017-11-17T11:21:14.799000Z</time>
      </trkpt>
      <trkpt lat="45.82508793857555" lon="10.418670561106481">
        <ele>1468.2234589970203</ele>
        <time>2017-11-17T11:21:14.803000Z</time>
      </trkpt>
      <trkpt lat="45.825085463002324" lon="10.418664989992976">
        <ele>1468.235647765061</ele>
        <time>2017-11-17T11:21:14.810000Z</time>
      </trkpt>
      <trkpt lat="45.825085546821356" lon="10.418665073812008">
        <ele>1468.2359182128127</ele>
        <time>2017-11-17T11:21:14.810000Z</time>
      </trkpt>
      <trkpt lat="45.82504749298096" lon="10.418579578399658">
        <ele>1468.423059563872</ele>
        <time>2017-11-17T11:21:14.923000Z</time>
      </trkpt>
      <trkpt lat="45.82504749298096" lon="10.418429374694824">
        <ele>1468.7001429793645</ele>
        <time>2017-11-17T11:21:15.091000Z</time>
      </trkpt>
      <trkpt lat="45.825133323669434" lon="10.418365001678467">
        <ele>1468.956515821</ele>
        <time>2017-11-17T11:21:15.246000Z</time>
      </trkpt>
      <trkpt lat="45.82569122314453" lon="10.418407917022705">
        <ele>1472.3313887619342</ele>
        <time>2017-11-17T11:21:16.142000Z</time>
      </trkpt>
      <trkpt lat="45.82605600357056" lon="10.41853666305542">
        <ele>1479.2672035744272</ele>
        <time>2017-11-17T11:21:16.744000Z</time>
      </trkpt>
      <trkpt lat="45.82672119140625" lon="10.418987274169922">
        <ele>1484.710506774996</ele>
        <time>2017-11-17T11:21:17.923000Z</time>
      </trkpt>
      <trkpt lat="45.82683022686032" lon="10.418999310549664">
        <ele>1485.3364427188883</ele>
        <time>2017-11-17T11:21:18.098000Z</time>
      </trkpt>
      <trkpt lat="45.826832481641425" lon="10.41899955945458">
        <ele>1485.348150201582</ele>
        <time>2017-11-17T11:21:18.102000Z</time>
      </trkpt>
      <trkpt lat="45.82683736458421" lon="10.419000098481774">
        <ele>1485.3735038679936</ele>
        <time>2017-11-17T11:21:18.110000Z</time>
      </trkpt>
      <trkpt lat="45.826837196946144" lon="10.419000014662743">
        <ele>1485.3744228976823</ele>
        <time>2017-11-17T11:21:18.110000Z</time>
      </trkpt>
      <trkpt lat="45.82691431045532" lon="10.419008731842041">
        <ele>1485.7748760716468</ele>
        <time>2017-11-17T11:21:18.234000Z</time>
      </trkpt>
      <trkpt lat="45.82697868347168" lon="10.418944358825684">
        <ele>1486.1810651450508</ele>
        <time>2017-11-17T11:21:18.360000Z</time>
      </trkpt>
      <trkpt lat="45.82693576812744" lon="10.418815612792969">
        <ele>1486.6959175710501</ele>
        <time>2017-11-17T11:21:18.519000Z</time>
      </trkpt>
      <trkpt lat="45.826570987701416" lon="10.418450832366943">
        <ele>1487.9976611638485</ele>
        <time>2017-11-17T11:21:19.232000Z</time>
      </trkpt>
      <trkpt lat="45.82618474960327" lon="10.41780710220337">
        <ele>1496.3954888298374</ele>
        <time>2017-11-17T11:21:20.181000Z</time>
      </trkpt>
      <trkpt lat="45.82624238854209" lon="10.417763854168745">
        <ele>1496.5863942421877</ele>
        <time>2017-11-17T11:21:20.285000Z</time>
      </trkpt>
      <trkpt lat="45.82624439258389" lon="10.41776235048086">
        <ele>1496.5930318127248</ele>
        <time>2017-11-17T11:21:20.288000Z</time>
      </trkpt>
      <trkpt lat="45.826248871162534" lon="10.417758990079165">
        <ele>1496.6078652768526</ele>
        <time>2017-11-17T11:21:20.296000Z</time>
      </trkpt>
      <trkpt lat="45.8262487873435" lon="10.417758990079165">
        <ele>1496.6081112945305</ele>
        <time>2017-11-17T11:21:20.296000Z</time>
      </trkpt>
      <trkpt lat="45.82627058029175" lon="10.417742729187012">
        <ele>1496.680205523637</ele>
        <time>2017-11-17T11:21:20.335000Z</time>
      </trkpt>
      <trkpt lat="45.826377868652344" lon="10.417871475219727">
        <ele>1497.0906957736606</ele>
        <time>2017-11-17T11:21:20.559000Z</time>
      </trkpt>
      <trkpt lat="45.82665681838989" lon="10.417935848236084">
        <ele>1497.919961019027</ele>
        <time>2017-11-17T11:21:21.012000Z</time>
      </trkpt>
      <trkpt lat="45.82693576812744" lon="10.417957305908203">
        <ele>1499.4065498858965</ele>
        <time>2017-11-17T11:21:21.460000Z</time>
      </trkpt>
      <trkpt lat="45.82721471786499" lon="10.417892932891846">
        <ele>1501.2537492803522</ele>
        <time>2017-11-17T11:21:21.913000Z</time>
      </trkpt>
      <trkpt lat="45.8280086517334" lon="10.417227745056152">
        <ele>1514.261792615114</ele>
        <time>2017-11-17T11:21:23.387000Z</time>
      </trkpt>
      <trkpt lat="45.82843780517578" lon="10.417249202728271">
        <ele>1520.5155012708008</ele>
        <time>2017-11-17T11:21:24.075000Z</time>
      </trkpt>
      <trkpt lat="45.829124450683594" lon="10.417077541351318">
        <ele>1526.3376670962305</ele>
        <time>2017-11-17T11:21:25.192000Z</time>
      </trkpt>
      <trkpt lat="45.82915609847905" lon="10.417103821565602">
        <ele>1526.6167375974646</ele>
        <time>2017-11-17T11:21:25.251000Z</time>
      </trkpt>
      <trkpt lat="45.829158055868625" lon="10.41710544697591">
        <ele>1526.6339978764943</ele>
        <time>2017-11-17T11:21:25.255000Z</time>
      </trkpt>
      <trkpt lat="45.82916250452399" lon="10.417109141126275">
        <ele>1526.6732261605755</ele>
        <time>2017-11-17T11:21:25.263000Z</time>
      </trkpt>
      <trkpt lat="45.82916242070496" lon="10.417109057307243">
        <ele>1526.674005892897</ele>
        <time>2017-11-17T11:21:25.263000Z</time>
      </trkpt>
      <trkpt lat="45.82925319671631" lon="10.417184829711914">
        <ele>1530.4755163169068</ele>
        <time>2017-11-17T11:21:25.431000Z</time>
      </trkpt>
      <trkpt lat="45.82953214645386" lon="10.417721271514893">
        <ele>1528.5792272668841</ele>
        <time>2017-11-17T11:21:26.179000Z</time>
      </trkpt>
      <trkpt lat="45.82969061748761" lon="10.417914805351975">
        <ele>1529.0716405638068</ele>
        <time>2017-11-17T11:21:26.513000Z</time>
      </trkpt>
      <trkpt lat="45.82969233974847" lon="10.417916908683116">
        <ele>1529.0769921130143</ele>
        <time>2017-11-17T11:21:26.517000Z</time>
      </trkpt>
      <trkpt lat="45.829696180298924" lon="10.417921599000692">
        <ele>1529.088925784442</ele>
        <time>2017-11-17T11:21:26.525000Z</time>
      </trkpt>
      <trkpt lat="45.82969609647989" lon="10.41792151518166">
        <ele>1529.0891675395922</ele>
        <time>2017-11-17T11:21:26.525000Z</time>
      </trkpt>
      <trkpt lat="45.82972526550293" lon="10.417957305908203">
        <ele>1529.1799833512378</ele>
        <time>2017-11-17T11:21:26.587000Z</time>
      </trkpt>
      <trkpt lat="45.829832553863525" lon="10.417871475219727">
        <ele>1529.4706553787757</ele>
        <time>2017-11-17T11:21:26.784000Z</time>
      </trkpt>
      <trkpt lat="45.830090045928955" lon="10.416820049285889">
        <ele>1532.9749806719203</ele>
        <time>2017-11-17T11:21:28.029000Z</time>
      </trkpt>
      <trkpt lat="45.83030462265015" lon="10.416476726531982">
        <ele>1540.6156687104847</ele>
        <time>2017-11-17T11:21:28.544000Z</time>
      </trkpt>
      <trkpt lat="45.8304762840271" lon="10.416347980499268">
        <ele>1542.162803207564</ele>
        <time>2017-11-17T11:21:28.855000Z</time>
      </trkpt>
      <trkpt lat="45.830862522125244" lon="10.415940284729004">
        <ele>1545.992582381709</ele>
        <time>2017-11-17T11:21:29.624000Z</time>
      </trkpt>
      <trkpt lat="45.831077098846436" lon="10.41579008102417">
        <ele>1552.676172201087</ele>
        <time>2017-11-17T11:21:30.007000Z</time>
      </trkpt>
      <trkpt lat="45.83163963373595" lon="10.415748500567242">
        <ele>1556.6484235926346</ele>
        <time>2017-11-17T11:21:30.910000Z</time>
      </trkpt>
      <trkpt lat="45.83164189219261" lon="10.415748333628933">
        <ele>1556.664371328491</ele>
        <time>2017-11-17T11:21:30.913000Z</time>
      </trkpt>
      <trkpt lat="45.83164748735726" lon="10.415747920051217">
        <ele>1556.703880702191</ele>
        <time>2017-11-17T11:21:30.922000Z</time>
      </trkpt>
      <trkpt lat="45.83165645599365" lon="10.415747165679932">
        <ele>1556.7672360128472</ele>
        <time>2017-11-17T11:21:30.936000Z</time>
      </trkpt>
      <trkpt lat="45.83167791366577" lon="10.415704250335693">
        <ele>1557.3601139469422</ele>
        <time>2017-11-17T11:21:30.995000Z</time>
      </trkpt>
      <trkpt lat="45.83165645599365" lon="10.415661334991455">
        <ele>1557.2863252804225</ele>
        <time>2017-11-17T11:21:31.054000Z</time>
      </trkpt>
      <trkpt lat="45.83146333694458" lon="10.415661334991455">
        <ele>1558.6481999856715</ele>
        <time>2017-11-17T11:21:31.364000Z</time>
      </trkpt>
      <trkpt lat="45.831334590911865" lon="10.415596961975098">
        <ele>1559.609637145479</ele>
        <time>2017-11-17T11:21:31.583000Z</time>
      </trkpt>
      <trkpt lat="45.83040255249498" lon="10.41495857257152">
        <ele>1568.7130306669944</ele>
        <time>2017-11-17T11:21:33.239000Z</time>
      </trkpt>
      <trkpt lat="45.830400511558366" lon="10.41495717468069">
        <ele>1568.7338381582078</ele>
        <time>2017-11-17T11:21:33.243000Z</time>
      </trkpt>
      <trkpt lat="45.83039573393762" lon="10.414953902363777">
        <ele>1568.7825463347833</ele>
        <time>2017-11-17T11:21:33.251000Z</time>
      </trkpt>
      <trkpt lat="45.83039581775665" lon="10.41495407000184">
        <ele>1568.7838691506604</ele>
        <time>2017-11-17T11:21:33.251000Z</time>
      </trkpt>
      <trkpt lat="45.82976818084717" lon="10.41452407836914">
        <ele>1575.5163094035595</ele>
        <time>2017-11-17T11:21:34.366000Z</time>
      </trkpt>
      <trkpt lat="45.829575061798096" lon="10.414202213287354">
        <ele>1580.6852602721085</ele>
        <time>2017-11-17T11:21:34.840000Z</time>
      </trkpt>
      <trkpt lat="45.8293176535517" lon="10.413966178894043">
        <ele>1591.3535044461935</ele>
        <time>2017-11-17T11:21:35.330000Z</time>
      </trkpt>
      <trkpt lat="45.829317569732666" lon="10.413966178894043">
        <ele>1591.354968336091</ele>
        <time>2017-11-17T11:21:35.330000Z</time>
      </trkpt>
      <trkpt lat="45.8289098739624" lon="10.41327953338623">
        <ele>1610.0</ele>
        <time>2017-11-17T11:21:36.338000Z</time>
      </trkpt>
      <trkpt lat="45.82865238189697" lon="10.412979125976562">
        <ele>1612.8496125381691</ele>
        <time>2017-11-17T11:21:36.870000Z</time>
      </trkpt>
      <trkpt lat="45.82843780517578" lon="10.412850379943848">
        <ele>1614.8467938733174</ele>
        <time>2017-11-17T11:21:37.243000Z</time>
      </trkpt>
      <trkpt lat="45.828073024749756" lon="10.41203498840332">
        <ele>1623.644852983025</ele>
        <time>2017-11-17T11:21:38.325000Z</time>
      </trkpt>
      <trkpt lat="45.827858448028564" lon="10.411906242370605">
        <ele>1624.99531260195</ele>
        <time>2017-11-17T11:21:38.698000Z</time>
      </trkpt>
      <trkpt lat="45.82753658294678" lon="10.411520004272461">
        <ele>1636.0981784685318</ele>
        <time>2017-11-17T11:21:39.371000Z</time>
      </trkpt>
      <trkpt lat="45.826377868652344" lon="10.411090850830078">
        <ele>1622.2047359566425</ele>
        <time>2017-11-17T11:21:41.289000Z</time>
      </trkpt>
      <trkpt lat="45.8258843421936" lon="10.411198139190674">
        <ele>1620.4826260615966</ele>
        <time>2017-11-17T11:21:42.089000Z</time>
      </trkpt>
      <trkpt lat="45.82564830780029" lon="10.411176681518555">
        <ele>1624.915792595574</ele>
        <time>2017-11-17T11:21:42.468000Z</time>
      </trkpt>
      <trkpt lat="45.825369358062744" lon="10.41104793548584">
        <ele>1629.3102297391536</ele>
        <time>2017-11-17T11:21:42.938000Z</time>
      </trkpt>
      <trkpt lat="45.824875831604004" lon="10.410640239715576">
        <ele>1647.1836958766341</ele>
        <time>2017-11-17T11:21:43.851000Z</time>
      </trkpt>
      <trkpt lat="45.823974609375" lon="10.410339832305908">
        <ele>1652.0111909032737</ele>
        <time>2017-11-17T11:21:45.334000Z</time>
      </trkpt>
      <trkpt lat="45.823373794555664" lon="10.410747528076172">
        <ele>1655.0</ele>
        <time>2017-11-17T11:21:46.399000Z</time>
      </trkpt>
      <trkpt lat="45.823073244634855" lon="10.410557780320495">
        <ele>1656.325664176655</ele>
        <time>2017-11-17T11:21:46.925000Z</time>
      </trkpt>
      <trkpt lat="45.82307117467994" lon="10.410556473492761">
        <ele>1656.3324985758816</ele>
        <time>2017-11-17T11:21:46.928000Z</time>
      </trkpt>
      <trkpt lat="45.82306617870927" lon="10.410553319379687">
        <ele>1656.3489938421865</ele>
        <time>2017-11-17T11:21:46.937000Z</time>
      </trkpt>
      <trkpt lat="45.8230662625283" lon="10.410553319379687">
        <ele>1656.3492471561296</ele>
        <time>2017-11-17T11:21:46.937000Z</time>
      </trkpt>
      <trkpt lat="45.8229660987854" lon="10.410490036010742">
        <ele>1656.6799990360134</ele>
        <time>2017-11-17T11:21:47.112000Z</time>
      </trkpt>
      <trkpt lat="45.82268714904785" lon="10.410189628601074">
        <ele>1657.734031372713</ele>
        <time>2017-11-17T11:21:47.671000Z</time>
      </trkpt>
      <trkpt lat="45.82264869382402" lon="10.410112718141308">
        <ele>1658.1530865349414</ele>
        <time>2017-11-17T11:21:47.777000Z</time>
      </trkpt>
      <trkpt lat="45.8226473755081" lon="10.410110081512773">
        <ele>1658.1674525047977</ele>
        <time>2017-11-17T11:21:47.781000Z</time>
      </trkpt>
      <trkpt lat="45.82264423370361" lon="10.410103797912598">
        <ele>1658.201689416541</ele>
        <time>2017-11-17T11:21:47.790000Z</time>
      </trkpt>
      <trkpt lat="45.822837352752686" lon="10.40978193283081">
        <ele>1659.4152864639957</ele>
        <time>2017-11-17T11:21:48.265000Z</time>
      </trkpt>
      <trkpt lat="45.82300901412964" lon="10.409138202667236">
        <ele>1656.799923811927</ele>
        <time>2017-11-17T11:21:49.035000Z</time>
      </trkpt>
      <trkpt lat="45.82336853796845" lon="10.40834198982174">
        <ele>1673.0</ele>
        <time>2017-11-17T11:21:50.095000Z</time>
      </trkpt>
      <trkpt lat="45.82336976767822" lon="10.408339266428996">
        <ele>1672.9501723792675</ele>
        <time>2017-11-17T11:21:50.099000Z</time>
      </trkpt>
      <trkpt lat="45.82337220199406" lon="10.408333875238895">
        <ele>1672.851534327451</ele>
        <time>2017-11-17T11:21:50.106000Z</time>
      </trkpt>
      <trkpt lat="45.82337228581309" lon="10.4083336237818">
        <ele>1672.8472543150274</ele>
        <time>2017-11-17T11:21:50.106000Z</time>
      </trkpt>
      <trkpt lat="45.823609828948975" lon="10.40780782699585">
        <ele>1657.8923681005533</ele>
        <time>2017-11-17T11:21:50.806000Z</time>
      </trkpt>
      <trkpt lat="45.823631286621094" lon="10.407700538635254">
        <ele>1656.1784935076064</ele>
        <time>2017-11-17T11:21:50.931000Z</time>
      </trkpt>
      <trkpt lat="45.823588371276855" lon="10.40755033493042">
        <ele>1653.6858539629695</ele>
        <time>2017-11-17T11:21:51.112000Z</time>
      </trkpt>
      <trkpt lat="45.82328796386719" lon="10.408129692077637">
        <ele>1629.9309906402366</ele>
        <time>2017-11-17T11:21:51.919000Z</time>
      </trkpt>
      <trkpt lat="45.82292318344116" lon="10.4085373878479">
        <ele>1633.058240418609</ele>
        <time>2017-11-17T11:21:52.660000Z</time>
      </trkpt>
      <trkpt lat="45.82273006439209" lon="10.408923625946045">
        <ele>1631.0</ele>
        <time>2017-11-17T11:21:53.191000Z</time>
      </trkpt>
      <trkpt lat="45.82266569137573" lon="10.408966541290283">
        <ele>1630.715446198268</ele>
        <time>2017-11-17T11:21:53.305000Z</time>
      </trkpt>
      <trkpt lat="45.822601318359375" lon="10.408923625946045">
        <ele>1630.430892338127</ele>
        <time>2017-11-17T11:21:53.419000Z</time>
      </trkpt>
      <trkpt lat="45.822601318359375" lon="10.40879487991333">
        <ele>1630.0712131740358</ele>
        <time>2017-11-17T11:21:53.563000Z</time>
      </trkpt>
      <trkpt lat="45.82300901412964" lon="10.40806531906128">
        <ele>1621.458669098829</ele>
        <time>2017-11-17T11:21:54.608000Z</time>
      </trkpt>
      <trkpt lat="45.82345962524414" lon="10.406606197357178">
        <ele>1613.0</ele>
        <time>2017-11-17T11:21:56.391000Z</time>
      </trkpt>
      <trkpt lat="45.8234167098999" lon="10.40654182434082">
        <ele>1612.8308687187098</ele>
        <time>2017-11-17T11:21:56.491000Z</time>
      </trkpt>
      <trkpt lat="45.823352336883545" lon="10.406606197357178">
        <ele>1612.6171116322464</ele>
        <time>2017-11-17T11:21:56.617000Z</time>
      </trkpt>
      <trkpt lat="45.82313776016235" lon="10.407207012176514">
        <ele>1608.0020439792697</ele>
        <time>2017-11-17T11:21:57.371000Z</time>
      </trkpt>
      <trkpt lat="45.82277297973633" lon="10.407850742340088">
        <ele>1611.7601752164476</ele>
        <time>2017-11-17T11:21:58.298000Z</time>
      </trkpt>
      <trkpt lat="45.82264423370361" lon="10.407893657684326">
        <ele>1610.001037214306</ele>
        <time>2017-11-17T11:21:58.510000Z</time>
      </trkpt>
      <trkpt lat="45.822601318359375" lon="10.407721996307373">
        <ele>1608.3095287863125</ele>
        <time>2017-11-17T11:21:58.714000Z</time>
      </trkpt>
      <trkpt lat="45.822880268096924" lon="10.407121181488037">
        <ele>1596.2801889428085</ele>
        <time>2017-11-17T11:21:59.521000Z</time>
      </trkpt>
      <trkpt lat="45.82313776016235" lon="10.405962467193604">
        <ele>1576.0</ele>
        <time>2017-11-17T11:22:00.880000Z</time>
      </trkpt>
      <trkpt lat="45.823609828948975" lon="10.40531873703003">
        <ele>1589.5783391551465</ele>
        <time>2017-11-17T11:22:01.924000Z</time>
      </trkpt>
      <trkpt lat="45.82367420196533" lon="10.405104160308838">
        <ele>1589.2096254757769</ele>
        <time>2017-11-17T11:22:02.185000Z</time>
      </trkpt>
      <trkpt lat="45.823631286621094" lon="10.403730869293213">
        <ele>1581.0399907695844</ele>
        <time>2017-11-17T11:22:03.721000Z</time>
      </trkpt>
      <trkpt lat="45.823566913604736" lon="10.40280818939209">
        <ele>1579.8788388027988</ele>
        <time>2017-11-17T11:22:04.757000Z</time>
      </trkpt>
      <trkpt lat="45.82348108291626" lon="10.402529239654541">
        <ele>1578.8402774497597</ele>
        <time>2017-11-17T11:22:05.098000Z</time>
      </trkpt>
      <trkpt lat="45.82339409414364" lon="10.402386736206793">
        <ele>1577.8617164330296</ele>
        <time>2017-11-17T11:22:05.310000Z</time>
      </trkpt>
      <trkpt lat="45.82339260404275" lon="10.40238429515662">
        <ele>1577.8506638235333</ele>
        <time>2017-11-17T11:22:05.314000Z</time>
      </trkpt>
      <trkpt lat="45.82338888198137" lon="10.40237819775939">
        <ele>1577.8230559689857</ele>
        <time>2017-11-17T11:22:05.323000Z</time>
      </trkpt>
      <trkpt lat="45.82338871434331" lon="10.402378113940358">
        <ele>1577.8221883424883</ele>
        <time>2017-11-17T11:22:05.323000Z</time>
      </trkpt>
      <trkpt lat="45.82324504852295" lon="10.402143001556396">
        <ele>1562.757175171643</ele>
        <time>2017-11-17T11:22:05.672000Z</time>
      </trkpt>
      <trkpt lat="45.82320213317871" lon="10.401971340179443">
        <ele>1562.1360280090594</ele>
        <time>2017-11-17T11:22:05.876000Z</time>
      </trkpt>
      <trkpt lat="45.82343816757202" lon="10.401520729064941">
        <ele>1570.549411519866</ele>
        <time>2017-11-17T11:22:06.506000Z</time>
      </trkpt>
      <trkpt lat="45.82348108291626" lon="10.400876998901367">
        <ele>1566.5805671285361</ele>
        <time>2017-11-17T11:22:07.228000Z</time>
      </trkpt>
      <trkpt lat="45.823631286621094" lon="10.400168895721436">
        <ele>1551.8884846768444</ele>
        <time>2017-11-17T11:22:08.055000Z</time>
      </trkpt>
      <trkpt lat="45.82399606704712" lon="10.3995680809021">
        <ele>1539.5487104639612</ele>
        <time>2017-11-17T11:22:08.945000Z</time>
      </trkpt>
      <trkpt lat="45.82418918609619" lon="10.399138927459717">
        <ele>1549.031432710223</ele>
        <time>2017-11-17T11:22:09.516000Z</time>
      </trkpt>
      <trkpt lat="45.82418918609619" lon="10.399010181427002">
        <ele>1548.060997085381</ele>
        <time>2017-11-17T11:22:09.660000Z</time>
      </trkpt>
      <trkpt lat="45.82414627075195" lon="10.398945808410645">
        <ele>1529.7228308255956</ele>
        <time>2017-11-17T11:22:09.760000Z</time>
      </trkpt>
      <trkpt lat="45.82406044006348" lon="10.398967266082764">
        <ele>1528.7804615916727</ele>
        <time>2017-11-17T11:22:09.900000Z</time>
      </trkpt>
      <trkpt lat="45.823845863342285" lon="10.399417877197266">
        <ele>1529.0</ele>
        <time>2017-11-17T11:22:10.510000Z</time>
      </trkpt>
      <trkpt lat="45.82315921783447" lon="10.399932861328125">
        <ele>1511.9421627697254</ele>
        <time>2017-11-17T11:22:11.752000Z</time>
      </trkpt>
      <trkpt lat="45.823116302490234" lon="10.400083065032959">
        <ele>1518.3009833719436</ele>
        <time>2017-11-17T11:22:11.933000Z</time>
      </trkpt>
      <trkpt lat="45.82300901412964" lon="10.400984287261963">
        <ele>1519.6898884125847</ele>
        <time>2017-11-17T11:22:12.954000Z</time>
      </trkpt>
      <trkpt lat="45.8229660987854" lon="10.401005744934082">
        <ele>1518.8439653737394</ele>
        <time>2017-11-17T11:22:13.027000Z</time>
      </trkpt>
      <trkpt lat="45.82292318344116" lon="10.400919914245605">
        <ele>1517.4736795740985</ele>
        <time>2017-11-17T11:22:13.145000Z</time>
      </trkpt>
      <trkpt lat="45.82292318344116" lon="10.39980411529541">
        <ele>1491.0</ele>
        <time>2017-11-17T11:22:14.392000Z</time>
      </trkpt>
      <trkpt lat="45.82303047180176" lon="10.39954662322998">
        <ele>1492.2018952136996</ele>
        <time>2017-11-17T11:22:14.727000Z</time>
      </trkpt>
      <trkpt lat="45.82324504852295" lon="10.39931058883667">
        <ele>1493.7561908080609</ele>
        <time>2017-11-17T11:22:15.160000Z</time>
      </trkpt>
      <trkpt lat="45.82315921783447" lon="10.399203300476074">
        <ele>1494.410570195989</ele>
        <time>2017-11-17T11:22:15.342000Z</time>
      </trkpt>
      <trkpt lat="45.822815895080566" lon="10.39954662322998">
        <ele>1496.816249464072</ele>
        <time>2017-11-17T11:22:16.013000Z</time>
      </trkpt>
      <trkpt lat="45.82268714904785" lon="10.39980411529541">
        <ele>1498.0858751375338</ele>
        <time>2017-11-17T11:22:16.367000Z</time>
      </trkpt>
      <trkpt lat="45.8225154876709" lon="10.401005744934082">
        <ele>1512.0691914235351</ele>
        <time>2017-11-17T11:22:17.737000Z</time>
      </trkpt>
      <trkpt lat="45.822386741638184" lon="10.40107011795044">
        <ele>1496.3146499486077</ele>
        <time>2017-11-17T11:22:17.956000Z</time>
      </trkpt>
      <trkpt lat="45.822365283966064" lon="10.400962829589844">
        <ele>1495.1234394956548</ele>
        <time>2017-11-17T11:22:18.081000Z</time>
      </trkpt>
      <trkpt lat="45.822386741638184" lon="10.400404930114746">
        <ele>1485.8270971711572</ele>
        <time>2017-11-17T11:22:18.705000Z</time>
      </trkpt>
      <trkpt lat="45.82219362258911" lon="10.399696826934814">
        <ele>1470.856012353878</ele>
        <time>2017-11-17T11:22:19.555000Z</time>
      </trkpt>
      <trkpt lat="45.82247257232666" lon="10.39905309677124">
        <ele>1457.2503362389814</ele>
        <time>2017-11-17T11:22:20.402000Z</time>
      </trkpt>
      <trkpt lat="45.82249547669136" lon="10.398138085466217">
        <ele>1450.1761718311598</ele>
        <time>2017-11-17T11:22:21.425000Z</time>
      </trkpt>
      <trkpt lat="45.8224955578561" lon="10.398134842478315">
        <ele>1450.1821170674677</ele>
        <time>2017-11-17T11:22:21.428000Z</time>
      </trkpt>
      <trkpt lat="45.822495706379414" lon="10.398128908127546">
        <ele>1450.192996268552</ele>
        <time>2017-11-17T11:22:21.434000Z</time>
      </trkpt>
      <trkpt lat="45.822495706379414" lon="10.398128740489483">
        <ele>1450.1933033945143</ele>
        <time>2017-11-17T11:22:21.434000Z</time>
      </trkpt>
      <trkpt lat="45.82251557148993" lon="10.397336483001709">
        <ele>1459.3123869407025</ele>
        <time>2017-11-17T11:22:22.320000Z</time>
      </trkpt>
      <trkpt lat="45.82242965698242" lon="10.396521091461182">
        <ele>1444.5924452837073</ele>
        <time>2017-11-17T11:22:23.241000Z</time>
      </trkpt>
      <trkpt lat="45.82245111465454" lon="10.39579153060913">
        <ele>1439.1179254639503</ele>
        <time>2017-11-17T11:22:24.057000Z</time>
      </trkpt>
      <trkpt lat="45.82225799560547" lon="10.395212173461914">
        <ele>1434.569679542664</ele>
        <time>2017-11-17T11:22:24.774000Z</time>
      </trkpt>
      <trkpt lat="45.82215070724487" lon="10.394504070281982">
        <ele>1432.6224514134528</ele>
        <time>2017-11-17T11:22:25.584000Z</time>
      </trkpt>
      <trkpt lat="45.82204341888428" lon="10.394439697265625">
        <ele>1432.250807024847</ele>
        <time>2017-11-17T11:22:25.770000Z</time>
      </trkpt>
      <trkpt lat="45.82204350270331" lon="10.394439697265625">
        <ele>1432.2505391517798</ele>
        <time>2017-11-17T11:22:25.770000Z</time>
      </trkpt>
      <trkpt lat="45.82200050354004" lon="10.39456844329834">
        <ele>1431.9325732870082</ele>
        <time>2017-11-17T11:22:25.930000Z</time>
      </trkpt>
      <trkpt lat="45.82204341888428" lon="10.395190715789795">
        <ele>1430.8732403815686</ele>
        <time>2017-11-17T11:22:26.629000Z</time>
      </trkpt>
      <trkpt lat="45.82202196121216" lon="10.395448207855225">
        <ele>1429.088800370803</ele>
        <time>2017-11-17T11:22:26.919000Z</time>
      </trkpt>
      <trkpt lat="45.82191467285156" lon="10.395619869232178">
        <ele>1427.5021338713807</ele>
        <time>2017-11-17T11:22:27.177000Z</time>
      </trkpt>
      <trkpt lat="45.82154989242554" lon="10.396006107330322">
        <ele>1415.359225011817</ele>
        <time>2017-11-17T11:22:27.904000Z</time>
      </trkpt>
      <trkpt lat="45.82142114639282" lon="10.396478176116943">
        <ele>1413.0</ele>
        <time>2017-11-17T11:22:28.470000Z</time>
      </trkpt>
      <trkpt lat="45.8215069770813" lon="10.397508144378662">
        <ele>1418.3837890552902</ele>
        <time>2017-11-17T11:22:29.629000Z</time>
      </trkpt>
      <trkpt lat="45.82144260406494" lon="10.397593975067139">
        <ele>1418.5519993532264</ele>
        <time>2017-11-17T11:22:29.770000Z</time>
      </trkpt>
      <trkpt lat="45.821335315704346" lon="10.39757251739502">
        <ele>1418.7593597168122</ele>
        <time>2017-11-17T11:22:29.944000Z</time>
      </trkpt>
      <trkpt lat="45.821356773376465" lon="10.397143363952637">
        <ele>1417.6666666666667</ele>
        <time>2017-11-17T11:22:30.425000Z</time>
      </trkpt>
      <trkpt lat="45.82118511199951" lon="10.396091938018799">
        <ele>1412.8363571163784</ele>
        <time>2017-11-17T11:22:31.631000Z</time>
      </trkpt>
      <trkpt lat="45.82131385803223" lon="10.395534038543701">
        <ele>1407.5585012728507</ele>
        <time>2017-11-17T11:22:32.288000Z</time>
      </trkpt>
      <trkpt lat="45.82148551940918" lon="10.395104885101318">
        <ele>1405.3599528029972</ele>
        <time>2017-11-17T11:22:32.841000Z</time>
      </trkpt>
      <trkpt lat="45.82148551940918" lon="10.39456844329834">
        <ele>1403.5014662846422</ele>
        <time>2017-11-17T11:22:33.440000Z</time>
      </trkpt>
      <trkpt lat="45.821356773376465" lon="10.393946170806885">
        <ele>1399.849267667614</ele>
        <time>2017-11-17T11:22:34.165000Z</time>
      </trkpt>
      <trkpt lat="45.82131385803223" lon="10.39308786392212">
        <ele>1393.0</ele>
        <time>2017-11-17T11:22:35.126000Z</time>
      </trkpt>
      <trkpt lat="45.82118511199951" lon="10.392723083496094">
        <ele>1390.1973939400566</ele>
        <time>2017-11-17T11:22:35.583000Z</time>
      </trkpt>
      <trkpt lat="45.82115912020463" lon="10.392541061862614">
        <ele>1388.923874854785</ele>
        <time>2017-11-17T11:22:35.791000Z</time>
      </trkpt>
      <trkpt lat="45.821158666262605" lon="10.392537882906963">
        <ele>1388.9016332033527</ele>
        <time>2017-11-17T11:22:35.794000Z</time>
      </trkpt>
      <trkpt lat="45.82115753553808" lon="10.392529964447021">
        <ele>1388.8462314767178</ele>
        <time>2017-11-17T11:22:35.803000Z</time>
      </trkpt>
      <trkpt lat="45.821157451719046" lon="10.392529712989926">
        <ele>1388.8443209518518</ele>
        <time>2017-11-17T11:22:35.804000Z</time>
      </trkpt>
      <trkpt lat="45.821120738983154" lon="10.392272472381592">
        <ele>1378.0445685580041</ele>
        <time>2017-11-17T11:22:36.097000Z</time>
      </trkpt>
      <trkpt lat="45.820884704589844" lon="10.391950607299805">
        <ele>1374.84207610391</ele>
        <time>2017-11-17T11:22:36.619000Z</time>
      </trkpt>
      <trkpt lat="45.82090616226196" lon="10.39182186126709">
        <ele>1374.9242533266945</ele>
        <time>2017-11-17T11:22:36.767000Z</time>
      </trkpt>
      <trkpt lat="45.82099207676947" lon="10.391736030578613">
        <ele>1375.0175051240785</ele>
        <time>2017-11-17T11:22:36.935000Z</time>
      </trkpt>
      <trkpt lat="45.821828842163086" lon="10.391778945922852">
        <ele>1384.430016675078</ele>
        <time>2017-11-17T11:22:38.277000Z</time>
      </trkpt>
      <trkpt lat="45.82221508026123" lon="10.391242504119873">
        <ele>1370.9082029769772</ele>
        <time>2017-11-17T11:22:39.139000Z</time>
      </trkpt>
      <trkpt lat="45.82227945327759" lon="10.390985012054443">
        <ele>1366.4881478504537</ele>
        <time>2017-11-17T11:22:39.445000Z</time>
      </trkpt>
      <trkpt lat="45.82230091094971" lon="10.39006233215332">
        <ele>1343.2382607257446</ele>
        <time>2017-11-17T11:22:40.476000Z</time>
      </trkpt>
      <trkpt lat="45.82242965698242" lon="10.389461517333984">
        <ele>1322.5994652169986</ele>
        <time>2017-11-17T11:22:41.178000Z</time>
      </trkpt>
      <trkpt lat="45.82249402999878" lon="10.389289855957031">
        <ele>1319.403497650049</ele>
        <time>2017-11-17T11:22:41.396000Z</time>
      </trkpt>
      <trkpt lat="45.82255840301514" lon="10.389246940612793">
        <ele>1314.3685503648483</ele>
        <time>2017-11-17T11:22:41.510000Z</time>
      </trkpt>
      <trkpt lat="45.82270860671997" lon="10.38931131362915">
        <ele>1312.819055627368</ele>
        <time>2017-11-17T11:22:41.761000Z</time>
      </trkpt>
      <trkpt lat="45.822880268096924" lon="10.389654636383057">
        <ele>1309.908399135954</ele>
        <time>2017-11-17T11:22:42.233000Z</time>
      </trkpt>
      <trkpt lat="45.82318067550659" lon="10.38982629776001">
        <ele>1306.712237915989</ele>
        <time>2017-11-17T11:22:42.751000Z</time>
      </trkpt>
      <trkpt lat="45.823330879211426" lon="10.389976501464844">
        <ele>1308.7477389148619</ele>
        <time>2017-11-17T11:22:43.044000Z</time>
      </trkpt>
      <trkpt lat="45.82371711730957" lon="10.39006233215332">
        <ele>1321.759869986131</ele>
        <time>2017-11-17T11:22:43.671000Z</time>
      </trkpt>
      <trkpt lat="45.82401752471924" lon="10.39029836654663">
        <ele>1325.5677503061827</ele>
        <time>2017-11-17T11:22:44.220000Z</time>
      </trkpt>
      <trkpt lat="45.82414627075195" lon="10.39029836654663">
        <ele>1326.9991762574116</ele>
        <time>2017-11-17T11:22:44.426000Z</time>
      </trkpt>
      <trkpt lat="45.82427501678467" lon="10.390212535858154">
        <ele>1332.5775336188105</ele>
        <time>2017-11-17T11:22:44.654000Z</time>
      </trkpt>
      <trkpt lat="45.824360847473145" lon="10.389955043792725">
        <ele>1324.6933921056602</ele>
        <time>2017-11-17T11:22:44.973000Z</time>
      </trkpt>
      <trkpt lat="45.82448959350586" lon="10.38982629776001">
        <ele>1324.5145241651908</ele>
        <time>2017-11-17T11:22:45.225000Z</time>
      </trkpt>
      <trkpt lat="45.82456134109176" lon="10.389794301202462">
        <ele>1324.428884865904</ele>
        <time>2017-11-17T11:22:45.345000Z</time>
      </trkpt>
      <trkpt lat="45.82456350065233" lon="10.38979333812338">
        <ele>1324.4263071725404</ele>
        <time>2017-11-17T11:22:45.348000Z</time>
      </trkpt>
      <trkpt lat="45.824569473043084" lon="10.38979067467153">
        <ele>1324.419178411121</ele>
        <time>2017-11-17T11:22:45.358000Z</time>
      </trkpt>
      <trkpt lat="45.82456964068115" lon="10.389790590852499">
        <ele>1324.4189760629035</ele>
        <time>2017-11-17T11:22:45.358000Z</time>
      </trkpt>
      <trkpt lat="45.82468271255493" lon="10.389740467071533">
        <ele>1324.2840822625099</ele>
        <time>2017-11-17T11:22:45.548000Z</time>
      </trkpt>
      <trkpt lat="45.824832916259766" lon="10.38956880569458">
        <ele>1324.065211731592</ele>
        <time>2017-11-17T11:22:45.856000Z</time>
      </trkpt>
      <trkpt lat="45.824875831604004" lon="10.389440059661865">
        <ele>1323.9518507054215</ele>
        <time>2017-11-17T11:22:46.015000Z</time>
      </trkpt>
      <trkpt lat="45.8248330000788" lon="10.389246940612793">
        <ele>1323.7908732242813</ele>
        <time>2017-11-17T11:22:46.241000Z</time>
      </trkpt>
      <trkpt lat="45.8244252204895" lon="10.388689041137695">
        <ele>1325.4820112374491</ele>
        <time>2017-11-17T11:22:47.144000Z</time>
      </trkpt>
      <trkpt lat="45.824382305145264" lon="10.388495922088623">
        <ele>1325.559935127485</ele>
        <time>2017-11-17T11:22:47.370000Z</time>
      </trkpt>
      <trkpt lat="45.82429647445679" lon="10.387659072875977">
        <ele>1327.8851082007648</ele>
        <time>2017-11-17T11:22:48.315000Z</time>
      </trkpt>
      <trkpt lat="45.82414627075195" lon="10.387187004089355">
        <ele>1324.9290677261718</ele>
        <time>2017-11-17T11:22:48.895000Z</time>
      </trkpt>
      <trkpt lat="45.82391023635864" lon="10.386993885040283">
        <ele>1325.2484934721786</ele>
        <time>2017-11-17T11:22:49.331000Z</time>
      </trkpt>
      <trkpt lat="45.82365274429321" lon="10.386886596679688">
        <ele>1325.563713090057</ele>
        <time>2017-11-17T11:22:49.761000Z</time>
      </trkpt>
      <trkpt lat="45.82330942153931" lon="10.38684368133545">
        <ele>1317.3021972283184</ele>
        <time>2017-11-17T11:22:50.313000Z</time>
      </trkpt>
      <trkpt lat="45.82324952949648" lon="10.386469762816676">
        <ele>1323.6165257711493</ele>
        <time>2017-11-17T11:22:50.742000Z</time>
      </trkpt>
      <trkpt lat="45.82324902291547" lon="10.386466600161647">
        <ele>1323.6244200256644</ele>
        <time>2017-11-17T11:22:50.746000Z</time>
      </trkpt>
      <trkpt lat="45.823247730731964" lon="10.386458532884717">
        <ele>1323.6445566321634</ele>
        <time>2017-11-17T11:22:50.755000Z</time>
      </trkpt>
      <trkpt lat="45.823247730731964" lon="10.386458281427622">
        <ele>1323.6451683398782</ele>
        <time>2017-11-17T11:22:50.755000Z</time>
      </trkpt>
      <trkpt lat="45.82322359085083" lon="10.38630723953247">
        <ele>1324.0221401502035</ele>
        <time>2017-11-17T11:22:50.928000Z</time>
      </trkpt>
      <trkpt lat="45.82300901412964" lon="10.385921001434326">
        <ele>1325.2237612716654</ele>
        <time>2017-11-17T11:22:51.480000Z</time>
      </trkpt>
      <trkpt lat="45.82264423370361" lon="10.385642051696777">
        <ele>1341.3333333333333</ele>
        <time>2017-11-17T11:22:52.143000Z</time>
      </trkpt>
      <trkpt lat="45.8215069770813" lon="10.385363101959229">
        <ele>1316.095945912727</ele>
        <time>2017-11-17T11:22:53.993000Z</time>
      </trkpt>
      <trkpt lat="45.82122802734375" lon="10.385234355926514">
        <ele>1313.4112467098546</ele>
        <time>2017-11-17T11:22:54.463000Z</time>
      </trkpt>
      <trkpt lat="45.821120738983154" lon="10.385255813598633">
        <ele>1312.4187643674743</ele>
        <time>2017-11-17T11:22:54.637000Z</time>
      </trkpt>
      <trkpt lat="45.82114219665527" lon="10.385406017303467">
        <ele>1311.4397665247184</ele>
        <time>2017-11-17T11:22:54.808000Z</time>
      </trkpt>
      <trkpt lat="45.821142280474305" lon="10.385406017303467">
        <ele>1311.4389985714558</ele>
        <time>2017-11-17T11:22:54.808000Z</time>
      </trkpt>
      <trkpt lat="45.82193613052368" lon="10.38583517074585">
        <ele>1295.3333333333333</ele>
        <time>2017-11-17T11:22:56.168000Z</time>
      </trkpt>
      <trkpt lat="45.82219362258911" lon="10.386135578155518">
        <ele>1295.3333333333333</ele>
        <time>2017-11-17T11:22:56.700000Z</time>
      </trkpt>
      <trkpt lat="45.82253694534302" lon="10.38632869720459">
        <ele>1303.6666666666667</ele>
        <time>2017-11-17T11:22:57.291000Z</time>
      </trkpt>
      <trkpt lat="45.822579860687256" lon="10.386414527893066">
        <ele>1303.0315869008257</ele>
        <time>2017-11-17T11:22:57.409000Z</time>
      </trkpt>
      <trkpt lat="45.8225154876709" lon="10.386521816253662">
        <ele>1302.1804518672805</ele>
        <time>2017-11-17T11:22:57.567000Z</time>
      </trkpt>
      <trkpt lat="45.82245111465454" lon="10.386521816253662">
        <ele>1293.2917831793386</ele>
        <time>2017-11-17T11:22:57.670000Z</time>
      </trkpt>
      <trkpt lat="45.82178592681885" lon="10.38609266281128">
        <ele>1287.0</ele>
        <time>2017-11-17T11:22:58.839000Z</time>
      </trkpt>
      <trkpt lat="45.82152843475342" lon="10.386028289794922">
        <ele>1275.7388864876605</ele>
        <time>2017-11-17T11:22:59.258000Z</time>
      </trkpt>
      <trkpt lat="45.82056964752563" lon="10.385899145648242">
        <ele>1247.6880219709133</ele>
        <time>2017-11-17T11:23:00.802000Z</time>
      </trkpt>
      <trkpt lat="45.8205673959875" lon="10.385898842381895">
        <ele>1247.6698517490233</ele>
        <time>2017-11-17T11:23:00.806000Z</time>
      </trkpt>
      <trkpt lat="45.82056015729904" lon="10.385897867381573">
        <ele>1247.6114345390445</ele>
        <time>2017-11-17T11:23:00.818000Z</time>
      </trkpt>
      <trkpt lat="45.82056007348001" lon="10.385897783562541">
        <ele>1247.6106136559667</ele>
        <time>2017-11-17T11:23:00.818000Z</time>
      </trkpt>
      <trkpt lat="45.82041263580322" lon="10.385878086090088">
        <ele>1246.4208554235356</ele>
        <time>2017-11-17T11:23:01.055000Z</time>
      </trkpt>
      <trkpt lat="45.819876194000244" lon="10.38532018661499">
        <ele>1237.0975700341528</ele>
        <time>2017-11-17T11:23:02.117000Z</time>
      </trkpt>
      <trkpt lat="45.81974744796753" lon="10.385019779205322">
        <ele>1235.1227916213345</ele>
        <time>2017-11-17T11:23:02.511000Z</time>
      </trkpt>
      <trkpt lat="45.81974744796753" lon="10.384869575500488">
        <ele>1232.7906990676545</ele>
        <time>2017-11-17T11:23:02.679000Z</time>
      </trkpt>
      <trkpt lat="45.82051992416382" lon="10.382659435272217">
        <ele>1245.298081608547</ele>
        <time>2017-11-17T11:23:05.441000Z</time>
      </trkpt>
      <trkpt lat="45.82052000798285" lon="10.382487773895264">
        <ele>1249.0</ele>
        <time>2017-11-17T11:23:05.633000Z</time>
      </trkpt>
      <trkpt lat="45.8200478553772" lon="10.38233757019043">
        <ele>1236.9175258799403</ele>
        <time>2017-11-17T11:23:06.408000Z</time>
      </trkpt>
      <trkpt lat="45.81989765167236" lon="10.382187366485596">
        <ele>1215.6768293836385</ele>
        <time>2017-11-17T11:23:06.702000Z</time>
      </trkpt>
      <trkpt lat="45.81989765167236" lon="10.382037162780762">
        <ele>1213.0615680840647</ele>
        <time>2017-11-17T11:23:06.870000Z</time>
      </trkpt>
      <trkpt lat="45.8200478553772" lon="10.381479263305664">
        <ele>1236.5594698842685</ele>
        <time>2017-11-17T11:23:07.538000Z</time>
      </trkpt>
      <trkpt lat="45.82002639770508" lon="10.381028652191162">
        <ele>1239.9562060155638</ele>
        <time>2017-11-17T11:23:08.043000Z</time>
      </trkpt>
      <trkpt lat="45.82012256733667" lon="10.380692058558392">
        <ele>1242.6920367474877</ele>
        <time>2017-11-17T11:23:08.449000Z</time>
      </trkpt>
      <trkpt lat="45.820123459267286" lon="10.380688936780361">
        <ele>1242.7174105122522</ele>
        <time>2017-11-17T11:23:08.453000Z</time>
      </trkpt>
      <trkpt lat="45.82012580707669" lon="10.380680719390512">
        <ele>1242.7842013282989</ele>
        <time>2017-11-17T11:23:08.463000Z</time>
      </trkpt>
      <trkpt lat="45.820125890895724" lon="10.380680467933416">
        <ele>1242.7862975970995</ele>
        <time>2017-11-17T11:23:08.463000Z</time>
      </trkpt>
      <trkpt lat="45.82015514373779" lon="10.38057804107666">
        <ele>1243.6187729329022</ele>
        <time>2017-11-17T11:23:08.587000Z</time>
      </trkpt>
      <trkpt lat="45.82017660140991" lon="10.380191802978516">
        <ele>1246.5326965737395</ele>
        <time>2017-11-17T11:23:09.020000Z</time>
      </trkpt>
      <trkpt lat="45.81970453262329" lon="10.379548072814941">
        <ele>1225.488183582239</ele>
        <time>2017-11-17T11:23:10.064000Z</time>
      </trkpt>
      <trkpt lat="45.81921100616455" lon="10.37931203842163">
        <ele>1220.8083296866928</ele>
        <time>2017-11-17T11:23:10.898000Z</time>
      </trkpt>
      <trkpt lat="45.818932140246034" lon="10.37883996963501">
        <ele>1210.9285440210713</ele>
        <time>2017-11-17T11:23:11.589000Z</time>
      </trkpt>
      <trkpt lat="45.81878185272217" lon="10.378646850585938">
        <ele>1211.178204986303</ele>
        <time>2017-11-17T11:23:11.912000Z</time>
      </trkpt>
      <trkpt lat="45.818352699279785" lon="10.378303527832031">
        <ele>1221.1195864212295</ele>
        <time>2017-11-17T11:23:12.700000Z</time>
      </trkpt>
      <trkpt lat="45.81794500350952" lon="10.377724170684814">
        <ele>1207.3525473203488</ele>
        <time>2017-11-17T11:23:13.620000Z</time>
      </trkpt>
      <trkpt lat="45.81710823811591" lon="10.376887321472168">
        <ele>1194.0540103161736</ele>
        <time>2017-11-17T11:23:15.255000Z</time>
      </trkpt>
      <trkpt lat="45.816893577575684" lon="10.376286506652832">
        <ele>1191.4752417417994</ele>
        <time>2017-11-17T11:23:16.009000Z</time>
      </trkpt>
      <trkpt lat="45.81674337387085" lon="10.376007556915283">
        <ele>1188.9106061370453</ele>
        <time>2017-11-17T11:23:16.403000Z</time>
      </trkpt>
      <trkpt lat="45.815885150805116" lon="10.37510633468628">
        <ele>1158.732118463445</ele>
        <time>2017-11-17T11:23:18.108000Z</time>
      </trkpt>
      <trkpt lat="45.81543898602328" lon="10.374530086592372">
        <ele>1126.0978677921273</ele>
        <time>2017-11-17T11:23:19.070000Z</time>
      </trkpt>
      <trkpt lat="45.815437238424956" lon="10.374527829491743">
        <ele>1126.0796841205927</ele>
        <time>2017-11-17T11:23:19.074000Z</time>
      </trkpt>
      <trkpt lat="45.81543236039579" lon="10.374521529302001">
        <ele>1126.028928477086</ele>
        <time>2017-11-17T11:23:19.085000Z</time>
      </trkpt>
      <trkpt lat="45.81543227657676" lon="10.37452144548297">
        <ele>1126.0281383765414</ele>
        <time>2017-11-17T11:23:19.085000Z</time>
      </trkpt>
      <trkpt lat="45.815370082855225" lon="10.374441146850586">
        <ele>1125.381114006346</ele>
        <time>2017-11-17T11:23:19.219000Z</time>
      </trkpt>
      <trkpt lat="45.81517696380615" lon="10.374226570129395">
        <ele>1123.4922079817286</ele>
        <time>2017-11-17T11:23:19.611000Z</time>
      </trkpt>
      <trkpt lat="45.81515550613403" lon="10.37407636642456">
        <ele>1115.6070872745106</ele>
        <time>2017-11-17T11:23:19.782000Z</time>
      </trkpt>
      <trkpt lat="45.81519842147827" lon="10.374033451080322">
        <ele>1115.6633209330519</ele>
        <time>2017-11-17T11:23:19.866000Z</time>
      </trkpt>
      <trkpt lat="45.81577777862549" lon="10.374312400817871">
        <ele>1124.3202607496064</ele>
        <time>2017-11-17T11:23:20.846000Z</time>
      </trkpt>
      <trkpt lat="45.81594944000244" lon="10.374290943145752">
        <ele>1130.1721619340997</ele>
        <time>2017-11-17T11:23:21.122000Z</time>
      </trkpt>
      <trkpt lat="45.81627130508423" lon="10.373797416687012">
        <ele>1114.9170257807443</ele>
        <time>2017-11-17T11:23:21.877000Z</time>
      </trkpt>
      <trkpt lat="45.81680774688721" lon="10.372810363769531">
        <ele>1099.0</ele>
        <time>2017-11-17T11:23:23.276000Z</time>
      </trkpt>
      <trkpt lat="45.8169150352478" lon="10.372703075408936">
        <ele>1097.8866655768832</ele>
        <time>2017-11-17T11:23:23.486000Z</time>
      </trkpt>
      <trkpt lat="45.817129611968994" lon="10.372617244720459">
        <ele>1095.9902378826018</ele>
        <time>2017-11-17T11:23:23.843000Z</time>
      </trkpt>
      <trkpt lat="45.81715613773561" lon="10.37261829585788">
        <ele>1095.7643283607404</ele>
        <time>2017-11-17T11:23:23.886000Z</time>
      </trkpt>
      <trkpt lat="45.81715848816798" lon="10.372618388998566">
        <ele>1095.7443106526073</ele>
        <time>2017-11-17T11:23:23.889000Z</time>
      </trkpt>
      <trkpt lat="45.8171655703336" lon="10.372618669643998">
        <ele>1095.6839946333864</ele>
        <time>2017-11-17T11:23:23.900000Z</time>
      </trkpt>
      <trkpt lat="45.81716573797166" lon="10.37261875346303">
        <ele>1095.6824832985312</ele>
        <time>2017-11-17T11:23:23.900000Z</time>
      </trkpt>
      <trkpt lat="45.81766605377197" lon="10.372638702392578">
        <ele>1092.0881369006836</ele>
        <time>2017-11-17T11:23:24.702000Z</time>
      </trkpt>
      <trkpt lat="45.8179235458374" lon="10.372424125671387">
        <ele>1080.8864505773547</ele>
        <time>2017-11-17T11:23:25.179000Z</time>
      </trkpt>
      <trkpt lat="45.81820249557495" lon="10.372316837310791">
        <ele>1081.8978452097506</ele>
        <time>2017-11-17T11:23:25.642000Z</time>
      </trkpt>
      <trkpt lat="45.81878185272217" lon="10.372424125671387">
        <ele>1088.2769669998052</ele>
        <time>2017-11-17T11:23:26.578000Z</time>
      </trkpt>
      <trkpt lat="45.81897497177124" lon="10.372209548950195">
        <ele>1089.5019675635356</ele>
        <time>2017-11-17T11:23:26.970000Z</time>
      </trkpt>
      <trkpt lat="45.81921108998358" lon="10.371243953704834">
        <ele>1098.4120965930886</ele>
        <time>2017-11-17T11:23:28.113000Z</time>
      </trkpt>
      <trkpt lat="45.81923185667011" lon="10.371155549068904">
        <ele>1098.3948090968152</ele>
        <time>2017-11-17T11:23:28.217000Z</time>
      </trkpt>
      <trkpt lat="45.81923260769202" lon="10.371152351931165">
        <ele>1098.394183897766</ele>
        <time>2017-11-17T11:23:28.221000Z</time>
      </trkpt>
      <trkpt lat="45.81923489458859" lon="10.37114261649549">
        <ele>1098.3922801372112</ele>
        <time>2017-11-17T11:23:28.232000Z</time>
      </trkpt>
      <trkpt lat="45.81923489458859" lon="10.371142365038395">
        <ele>1098.3922335405764</ele>
        <time>2017-11-17T11:23:28.232000Z</time>
      </trkpt>
      <trkpt lat="45.81929683685303" lon="10.370879173278809">
        <ele>1098.340756572684</ele>
        <time>2017-11-17T11:23:28.542000Z</time>
      </trkpt>
      <trkpt lat="45.81946849822998" lon="10.370664596557617">
        <ele>1098.2802226465385</ele>
        <time>2017-11-17T11:23:28.907000Z</time>
      </trkpt>
      <trkpt lat="45.8194899559021" lon="10.370492935180664">
        <ele>1098.2479052102015</ele>
        <time>2017-11-17T11:23:29.102000Z</time>
      </trkpt>
      <trkpt lat="45.81942558288574" lon="10.37034273147583">
        <ele>1098.2152298805486</ele>
        <time>2017-11-17T11:23:29.299000Z</time>
      </trkpt>
      <trkpt lat="45.81936129368842" lon="10.37034273147583">
        <ele>1097.9591526232082</ele>
        <time>2017-11-17T11:23:29.402000Z</time>
      </trkpt>
      <trkpt lat="45.81889908094433" lon="10.371181424103995">
        <ele>1088.990951875706</ele>
        <time>2017-11-17T11:23:30.597000Z</time>
      </trkpt>
      <trkpt lat="45.81889762246835" lon="10.371184070493015">
        <ele>1088.969227733207</ele>
        <time>2017-11-17T11:23:30.600000Z</time>
      </trkpt>
      <trkpt lat="45.818893583491445" lon="10.371191399171948">
        <ele>1088.9090667808498</ele>
        <time>2017-11-17T11:23:30.610000Z</time>
      </trkpt>
      <trkpt lat="45.81889349967241" lon="10.371191566810012">
        <ele>1088.9077383018441</ele>
        <time>2017-11-17T11:23:30.610000Z</time>
      </trkpt>
      <trkpt lat="45.81878185272217" lon="10.371394157409668">
        <ele>1087.244701463853</ele>
        <time>2017-11-17T11:23:30.899000Z</time>
      </trkpt>
      <trkpt lat="45.81841707229614" lon="10.371737480163574">
        <ele>1083.8807948440774</ele>
        <time>2017-11-17T11:23:31.598000Z</time>
      </trkpt>
      <trkpt lat="45.81828832626343" lon="10.371737480163574">
        <ele>1077.7197295114972</ele>
        <time>2017-11-17T11:23:31.804000Z</time>
      </trkpt>
      <trkpt lat="45.81805229187012" lon="10.371501445770264">
        <ele>1070.6353785441852</ele>
        <time>2017-11-17T11:23:32.265000Z</time>
      </trkpt>
      <trkpt lat="45.81770896911621" lon="10.371415615081787">
        <ele>1065.687997614925</ele>
        <time>2017-11-17T11:23:32.824000Z</time>
      </trkpt>
      <trkpt lat="45.817172611132264" lon="10.371522903442383">
        <ele>1054.0</ele>
        <time>2017-11-17T11:23:33.692000Z</time>
      </trkpt>
      <trkpt lat="45.817163462349406" lon="10.37146861173834">
        <ele>1054.400582024083</ele>
        <time>2017-11-17T11:23:33.754000Z</time>
      </trkpt>
      <trkpt lat="45.81716290976424" lon="10.371465332532726">
        <ele>1054.4247770825907</ele>
        <time>2017-11-17T11:23:33.758000Z</time>
      </trkpt>
      <trkpt lat="45.81716112792492" lon="10.371454758569598">
        <ele>1054.5027952674984</ele>
        <time>2017-11-17T11:23:33.770000Z</time>
      </trkpt>
      <trkpt lat="45.81716112792492" lon="10.371454507112503">
        <ele>1054.504598637109</ele>
        <time>2017-11-17T11:23:33.770000Z</time>
      </trkpt>
      <trkpt lat="45.81715106964111" lon="10.371394157409668">
        <ele>1054.9496107943503</ele>
        <time>2017-11-17T11:23:33.839000Z</time>
      </trkpt>
      <trkpt lat="45.81723690032959" lon="10.37132978439331">
        <ele>1055.946196566835</ele>
        <time>2017-11-17T11:23:33.994000Z</time>
      </trkpt>
      <trkpt lat="45.817859172821045" lon="10.371179580688477">
        <ele>1066.4394092044301</ele>
        <time>2017-11-17T11:23:35.006000Z</time>
      </trkpt>
      <trkpt lat="45.81798791885376" lon="10.370986461639404">
        <ele>1068.3559825803538</ele>
        <time>2017-11-17T11:23:35.305000Z</time>
      </trkpt>
      <trkpt lat="45.81800946034491" lon="10.37083625793457">
        <ele>1069.188920368793</ele>
        <time>2017-11-17T11:23:35.476000Z</time>
      </trkpt>
      <trkpt lat="45.81798800267279" lon="10.370535850524902">
        <ele>1071.495821914121</ele>
        <time>2017-11-17T11:23:35.813000Z</time>
      </trkpt>
      <trkpt lat="45.81796654500067" lon="10.370299816131592">
        <ele>1072.7887234691243</ele>
        <time>2017-11-17T11:23:36.079000Z</time>
      </trkpt>
      <trkpt lat="45.817902171984315" lon="10.369956493377686">
        <ele>1082.7198188569357</ele>
        <time>2017-11-17T11:23:36.476000Z</time>
      </trkpt>
      <trkpt lat="45.81770228943725" lon="10.36987315575059">
        <ele>1084.342031739297</ele>
        <time>2017-11-17T11:23:36.810000Z</time>
      </trkpt>
      <trkpt lat="45.81770003153267" lon="10.369872214359226">
        <ele>1084.3603565049975</ele>
        <time>2017-11-17T11:23:36.814000Z</time>
      </trkpt>
      <trkpt lat="45.8176922891289" lon="10.369868986308575">
        <ele>1084.4231925234178</ele>
        <time>2017-11-17T11:23:36.827000Z</time>
      </trkpt>
      <trkpt lat="45.81769220530987" lon="10.369868986308575">
        <ele>1084.4238457647316</ele>
        <time>2017-11-17T11:23:36.827000Z</time>
      </trkpt>
      <trkpt lat="45.81764459609985" lon="10.36984920501709">
        <ele>1084.8101303129076</ele>
        <time>2017-11-17T11:23:36.906000Z</time>
      </trkpt>
      <trkpt lat="45.81706523895264" lon="10.36982774734497">
        <ele>1074.7363203076338</ele>
        <time>2017-11-17T11:23:37.835000Z</time>
      </trkpt>
      <trkpt lat="45.81678628921509" lon="10.370213985443115">
        <ele>1059.4492502267215</ele>
        <time>2017-11-17T11:23:38.456000Z</time>
      </trkpt>
      <trkpt lat="45.816378593444824" lon="10.370514392852783">
        <ele>1046.1065082945604</ele>
        <time>2017-11-17T11:23:39.191000Z</time>
      </trkpt>
      <trkpt lat="45.81620693206787" lon="10.370450019836426">
        <ele>1042.618693049533</ele>
        <time>2017-11-17T11:23:39.475000Z</time>
      </trkpt>
      <trkpt lat="45.815928066149354" lon="10.3700852394104">
        <ele>1038.0790251190058</ele>
        <time>2017-11-17T11:23:40.080000Z</time>
      </trkpt>
      <trkpt lat="45.815842151641846" lon="10.369977951049805">
        <ele>1045.7088367439003</ele>
        <time>2017-11-17T11:23:40.263000Z</time>
      </trkpt>
      <trkpt lat="45.81549882888794" lon="10.36961317062378">
        <ele>1029.9028589809714</ele>
        <time>2017-11-17T11:23:40.948000Z</time>
      </trkpt>
      <trkpt lat="45.81406116485596" lon="10.369484424591064">
        <ele>1013.677743108759</ele>
        <time>2017-11-17T11:23:43.257000Z</time>
      </trkpt>
      <trkpt lat="45.81396883348277" lon="10.36941040686467">
        <ele>1013.5072302831373</ele>
        <time>2017-11-17T11:23:43.427000Z</time>
      </trkpt>
      <trkpt lat="45.81396678086535" lon="10.36940876138094">
        <ele>1013.5034396167442</ele>
        <time>2017-11-17T11:23:43.431000Z</time>
      </trkpt>
      <trkpt lat="45.81395974382758" lon="10.3694031201303">
        <ele>1013.4904439838812</ele>
        <time>2017-11-17T11:23:43.444000Z</time>
      </trkpt>
      <trkpt lat="45.81395957618952" lon="10.369403036311269">
        <ele>1013.4901577830442</ele>
        <time>2017-11-17T11:23:43.444000Z</time>
      </trkpt>
      <trkpt lat="45.813846588134766" lon="10.369312763214111">
        <ele>1013.2816636244157</ele>
        <time>2017-11-17T11:23:43.651000Z</time>
      </trkpt>
      <trkpt lat="45.813653552904725" lon="10.36884069442749">
        <ele>1017.3333333333334</ele>
        <time>2017-11-17T11:23:44.263000Z</time>
      </trkpt>
      <trkpt lat="45.813589096069336" lon="10.368540287017822">
        <ele>1016.1457508736262</ele>
        <time>2017-11-17T11:23:44.614000Z</time>
      </trkpt>
      <trkpt lat="45.81348189152777" lon="10.368432998657227">
        <ele>1015.437205668018</ele>
        <time>2017-11-17T11:23:44.824000Z</time>
      </trkpt>
      <trkpt lat="45.81341743469238" lon="10.368540287017822">
        <ele>1014.9020365386532</ele>
        <time>2017-11-17T11:23:44.982000Z</time>
      </trkpt>
      <trkpt lat="45.81369638442993" lon="10.369291305541992">
        <ele>1007.0200677328249</ele>
        <time>2017-11-17T11:23:45.933000Z</time>
      </trkpt>
      <trkpt lat="45.81369638442993" lon="10.369462966918945">
        <ele>1005.6041845400505</ele>
        <time>2017-11-17T11:23:46.125000Z</time>
      </trkpt>
      <trkpt lat="45.81369373348469" lon="10.369470950581698">
        <ele>1005.5312436056902</ele>
        <time>2017-11-17T11:23:46.135000Z</time>
      </trkpt>
      <trkpt lat="45.81369272222674" lon="10.369473996114555">
        <ele>1005.5034187801056</ele>
        <time>2017-11-17T11:23:46.139000Z</time>
      </trkpt>
      <trkpt lat="45.813689175993204" lon="10.36948467604816">
        <ele>1005.405843960075</ele>
        <time>2017-11-17T11:23:46.152000Z</time>
      </trkpt>
      <trkpt lat="45.81368909217417" lon="10.369484759867191">
        <ele>1005.4046348973121</ele>
        <time>2017-11-17T11:23:46.153000Z</time>
      </trkpt>
      <trkpt lat="45.813632011413574" lon="10.369656085968018">
        <ele>1003.8383697385842</ele>
        <time>2017-11-17T11:23:46.365000Z</time>
      </trkpt>
      <trkpt lat="45.8135461807251" lon="10.369741916656494">
        <ele>1002.6002884305802</ele>
        <time>2017-11-17T11:23:46.533000Z</time>
      </trkpt>
      <trkpt lat="45.81320294179022" lon="10.369870662689209">
        <ele>992.0685982600465</ele>
        <time>2017-11-17T11:23:47.102000Z</time>
      </trkpt>
      <trkpt lat="45.81294536590576" lon="10.369913578033447">
        <ele>989.0</ele>
        <time>2017-11-17T11:23:47.518000Z</time>
      </trkpt>
      <trkpt lat="45.81275224685669" lon="10.369677543640137">
        <ele>988.5121270738291</ele>
        <time>2017-11-17T11:23:47.925000Z</time>
      </trkpt>
      <trkpt lat="45.81270933151245" lon="10.369377136230469">
        <ele>988.1010924963972</ele>
        <time>2017-11-17T11:23:48.268000Z</time>
      </trkpt>
      <trkpt lat="45.81272196457881" lon="10.369075142442284">
        <ele>989.6955737891532</ele>
        <time>2017-11-17T11:23:48.606000Z</time>
      </trkpt>
      <trkpt lat="45.81272210543828" lon="10.369071775084924">
        <ele>989.691052086071</ele>
        <time>2017-11-17T11:23:48.610000Z</time>
      </trkpt>
      <trkpt lat="45.81272257491946" lon="10.36906055174768">
        <ele>989.67598133697</ele>
        <time>2017-11-17T11:23:48.623000Z</time>
      </trkpt>
      <trkpt lat="45.81272257491946" lon="10.369060132652521">
        <ele>989.6754195848049</ele>
        <time>2017-11-17T11:23:48.623000Z</time>
      </trkpt>
      <trkpt lat="45.81273078918457" lon="10.36886215209961">
        <ele>989.4095781584684</ele>
        <time>2017-11-17T11:23:48.845000Z</time>
      </trkpt>
      <trkpt lat="45.81275224685669" lon="10.368647575378418">
        <ele>989.1190161424921</ele>
        <time>2017-11-17T11:23:49.087000Z</time>
      </trkpt>
      <trkpt lat="45.81268787384033" lon="10.368454456329346">
        <ele>988.8320820917461</ele>
        <time>2017-11-17T11:23:49.326000Z</time>
      </trkpt>
      <trkpt lat="45.812129974365234" lon="10.367896556854248">
        <ele>981.5243036316715</ele>
        <time>2017-11-17T11:23:50.416000Z</time>
      </trkpt>
      <trkpt lat="45.81185110844672" lon="10.367317199707031">
        <ele>984.0573765615567</ele>
        <time>2017-11-17T11:23:51.203000Z</time>
      </trkpt>
      <trkpt lat="45.811636447906494" lon="10.367016792297363">
        <ele>974.1961068915089</ele>
        <time>2017-11-17T11:23:51.684000Z</time>
      </trkpt>
      <trkpt lat="45.81132369971078" lon="10.36668781961171">
        <ele>975.5270433336035</ele>
        <time>2017-11-17T11:23:52.306000Z</time>
      </trkpt>
      <trkpt lat="45.81132180347587" lon="10.366685825019816">
        <ele>975.535112962405</ele>
        <time>2017-11-17T11:23:52.310000Z</time>
      </trkpt>
      <trkpt lat="45.811314918100834" lon="10.366678582504392">
        <ele>975.5644144054912</ele>
        <time>2017-11-17T11:23:52.324000Z</time>
      </trkpt>
      <trkpt lat="45.81131475046277" lon="10.36667849868536">
        <ele>975.5650236778315</ele>
        <time>2017-11-17T11:23:52.324000Z</time>
      </trkpt>
      <trkpt lat="45.81079959869385" lon="10.366137027740479">
        <ele>976.0900793453794</ele>
        <time>2017-11-17T11:23:53.348000Z</time>
      </trkpt>
      <trkpt lat="45.81019878387451" lon="10.365278720855713">
        <ele>988.0</ele>
        <time>2017-11-17T11:23:54.707000Z</time>
      </trkpt>
      <trkpt lat="45.80971854393844" lon="10.364758460821868">
        <ele>969.8712590398235</ele>
        <time>2017-11-17T11:23:55.672000Z</time>
      </trkpt>
      <trkpt lat="45.809716667540954" lon="10.36475642808011">
        <ele>969.8444205013502</ele>
        <time>2017-11-17T11:23:55.676000Z</time>
      </trkpt>
      <trkpt lat="45.80970995128155" lon="10.364749152213335">
        <ele>969.7483563239581</ele>
        <time>2017-11-17T11:23:55.690000Z</time>
      </trkpt>
      <trkpt lat="45.809709867462516" lon="10.36474890075624">
        <ele>969.7461386417276</ele>
        <time>2017-11-17T11:23:55.690000Z</time>
      </trkpt>
      <trkpt lat="45.80968379974365" lon="10.364720821380615">
        <ele>969.3740534708992</ele>
        <time>2017-11-17T11:23:55.742000Z</time>
      </trkpt>
      <trkpt lat="45.80949068069458" lon="10.36433458328247">
        <ele>965.5921370230752</ele>
        <time>2017-11-17T11:23:56.273000Z</time>
      </trkpt>
      <trkpt lat="45.809426391497254" lon="10.364291667938232">
        <ele>964.7827604006283</ele>
        <time>2017-11-17T11:23:56.387000Z</time>
      </trkpt>
      <trkpt lat="45.8094048500061" lon="10.364291667938232">
        <ele>964.5368760035527</ele>
        <time>2017-11-17T11:23:56.422000Z</time>
      </trkpt>
      <trkpt lat="45.80946922302246" lon="10.364549160003662">
        <ele>962.3603819878012</ele>
        <time>2017-11-17T11:23:56.728000Z</time>
      </trkpt>
      <trkpt lat="45.80968379974365" lon="10.36487102508545">
        <ele>958.8167875742519</ele>
        <time>2017-11-17T11:23:57.226000Z</time>
      </trkpt>
      <trkpt lat="45.80979108810425" lon="10.365235805511475">
        <ele>950.0</ele>
        <time>2017-11-17T11:23:57.668000Z</time>
      </trkpt>
      <trkpt lat="45.809834003448486" lon="10.365686416625977">
        <ele>948.7368702091343</ele>
        <time>2017-11-17T11:23:58.176000Z</time>
      </trkpt>
      <trkpt lat="45.80982405605442" lon="10.365754549496922">
        <ele>948.5435353882607</ele>
        <time>2017-11-17T11:23:58.254000Z</time>
      </trkpt>
      <trkpt lat="45.80982357402918" lon="10.365757851033594">
        <ele>948.5341668990072</ele>
        <time>2017-11-17T11:23:58.258000Z</time>
      </trkpt>
      <trkpt lat="45.809821765869856" lon="10.365770235657692">
        <ele>948.4990241048132</ele>
        <time>2017-11-17T11:23:58.272000Z</time>
      </trkpt>
      <trkpt lat="45.809821765869856" lon="10.365770319476724">
        <ele>948.4987913104663</ele>
        <time>2017-11-17T11:23:58.273000Z</time>
      </trkpt>
      <trkpt lat="45.80966234207153" lon="10.36686658859253">
        <ele>942.3885083355876</ele>
        <time>2017-11-17T11:23:59.524000Z</time>
      </trkpt>
      <trkpt lat="45.80974825657904" lon="10.367124080657959">
        <ele>941.5956532701281</ele>
        <time>2017-11-17T11:23:59.843000Z</time>
      </trkpt>
      <trkpt lat="45.809876918792725" lon="10.367145538330078">
        <ele>941.3660434126288</ele>
        <time>2017-11-17T11:24:00.051000Z</time>
      </trkpt>
      <trkpt lat="45.8099627494812" lon="10.367274284362793">
        <ele>941.1459169207033</ele>
        <time>2017-11-17T11:24:00.250000Z</time>
      </trkpt>
      <trkpt lat="45.8099627494812" lon="10.36736011505127">
        <ele>941.0398633673459</ele>
        <time>2017-11-17T11:24:00.346000Z</time>
      </trkpt>
      <trkpt lat="45.80979108810425" lon="10.367574691772461">
        <ele>939.6362634496085</ele>
        <time>2017-11-17T11:24:00.711000Z</time>
      </trkpt>
      <trkpt lat="45.80944776535034" lon="10.367724895477295">
        <ele>939.0</ele>
        <time>2017-11-17T11:24:01.286000Z</time>
      </trkpt>
      <trkpt lat="45.809361934661865" lon="10.367703437805176">
        <ele>939.3935500885312</ele>
        <time>2017-11-17T11:24:01.426000Z</time>
      </trkpt>
      <trkpt lat="45.80929756164551" lon="10.367639064788818">
        <ele>939.7480014776024</ele>
        <time>2017-11-17T11:24:01.552000Z</time>
      </trkpt>
      <trkpt lat="45.80927671703327" lon="10.367053125751541">
        <ele>942.5953209870019</ele>
        <time>2017-11-17T11:24:02.208000Z</time>
      </trkpt>
      <trkpt lat="45.80927659259897" lon="10.367049628175556">
        <ele>942.6127267839987</ele>
        <time>2017-11-17T11:24:02.212000Z</time>
      </trkpt>
      <trkpt lat="45.80927618779242" lon="10.367038249969482">
        <ele>942.6693507853906</ele>
        <time>2017-11-17T11:24:02.225000Z</time>
      </trkpt>
      <trkpt lat="45.80927610397339" lon="10.367038249969482">
        <ele>942.6699484274117</ele>
        <time>2017-11-17T11:24:02.225000Z</time>
      </trkpt>
      <trkpt lat="45.80927618779242" lon="10.367038249968482">
        <ele>942.6705460694326</ele>
        <time>2017-11-17T11:24:02.225000Z</time>
      </trkpt>
      <trkpt lat="45.80931901931763" lon="10.365407466888428">
        <ele>953.7813867324425</ele>
        <time>2017-11-17T11:24:04.049000Z</time>
      </trkpt>
      <trkpt lat="45.80925464630127" lon="10.365128517150879">
        <ele>954.003343519838</ele>
        <time>2017-11-17T11:24:04.377000Z</time>
      </trkpt>
      <trkpt lat="45.80916881561279" lon="10.36484956741333">
        <ele>959.9003344563713</ele>
        <time>2017-11-17T11:24:04.718000Z</time>
      </trkpt>
      <trkpt lat="45.808846950531006" lon="10.364377498626709">
        <ele>941.2567035737248</ele>
        <time>2017-11-17T11:24:05.456000Z</time>
      </trkpt>
      <trkpt lat="45.808675372973084" lon="10.363883972167969">
        <ele>939.5433104425753</ele>
        <time>2017-11-17T11:24:06.072000Z</time>
      </trkpt>
      <trkpt lat="45.80856800079346" lon="10.363068580627441">
        <ele>931.6477596410205</ele>
        <time>2017-11-17T11:24:06.999000Z</time>
      </trkpt>
      <trkpt lat="45.80826759338379" lon="10.361824035644531">
        <ele>905.0</ele>
        <time>2017-11-17T11:24:08.471000Z</time>
      </trkpt>
      <trkpt lat="45.80822467803955" lon="10.361437797546387">
        <ele>904.9029611723698</ele>
        <time>2017-11-17T11:24:08.908000Z</time>
      </trkpt>
      <trkpt lat="45.80824371581874" lon="10.361136857585915">
        <ele>904.5704535850628</ele>
        <time>2017-11-17T11:24:09.246000Z</time>
      </trkpt>
      <trkpt lat="45.808243936451305" lon="10.361133369859267">
        <ele>904.5666000078753</ele>
        <time>2017-11-17T11:24:09.250000Z</time>
      </trkpt>
      <trkpt lat="45.80824471078813" lon="10.361121129244566">
        <ele>904.5530753950674</ele>
        <time>2017-11-17T11:24:09.264000Z</time>
      </trkpt>
      <trkpt lat="45.80824471078813" lon="10.361121380701661">
        <ele>904.5527986980802</ele>
        <time>2017-11-17T11:24:09.264000Z</time>
      </trkpt>
      <trkpt lat="45.80831050872803" lon="10.36008596420288">
        <ele>902.4087288751886</ele>
        <time>2017-11-17T11:24:10.426000Z</time>
      </trkpt>
      <trkpt lat="45.808632373809814" lon="10.359163284301758">
        <ele>905.2370613666318</ele>
        <time>2017-11-17T11:24:11.579000Z</time>
      </trkpt>
      <trkpt lat="45.808653915300965" lon="10.35912036895752">
        <ele>905.5269296329061</ele>
        <time>2017-11-17T11:24:11.638000Z</time>
      </trkpt>
      <trkpt lat="45.808696830645204" lon="10.359013080596924">
        <ele>906.2049402501107</ele>
        <time>2017-11-17T11:24:11.776000Z</time>
      </trkpt>
      <trkpt lat="45.80916881561279" lon="10.357489585876465">
        <ele>930.3430741658293</ele>
        <time>2017-11-17T11:24:13.639000Z</time>
      </trkpt>
      <trkpt lat="45.80923327244818" lon="10.35733938217163">
        <ele>930.47156017899</ele>
        <time>2017-11-17T11:24:13.836000Z</time>
      </trkpt>
      <trkpt lat="45.809383392333984" lon="10.356674194335938">
        <ele>930.9808693095301</ele>
        <time>2017-11-17T11:24:14.617000Z</time>
      </trkpt>
      <trkpt lat="45.809361934661865" lon="10.35635232925415">
        <ele>924.8280400812824</ele>
        <time>2017-11-17T11:24:14.978000Z</time>
      </trkpt>
      <trkpt lat="45.80921173095703" lon="10.355772972106934">
        <ele>912.3790260628057</ele>
        <time>2017-11-17T11:24:15.669000Z</time>
      </trkpt>
      <trkpt lat="45.80921173095703" lon="10.355579853057861">
        <ele>910.4530138363606</ele>
        <time>2017-11-17T11:24:15.885000Z</time>
      </trkpt>
      <trkpt lat="45.809361934661865" lon="10.35485029220581">
        <ele>901.199563937309</ele>
        <time>2017-11-17T11:24:16.735000Z</time>
      </trkpt>
      <trkpt lat="45.8093620184809" lon="10.354807376861572">
        <ele>900.9593036826827</ele>
        <time>2017-11-17T11:24:16.783000Z</time>
      </trkpt>
      <trkpt lat="45.809383476153016" lon="10.35463571548462">
        <ele>899.9829363565467</ele>
        <time>2017-11-17T11:24:16.978000Z</time>
      </trkpt>
      <trkpt lat="45.8093620184809" lon="10.354249477386475">
        <ele>897.8137455498753</ele>
        <time>2017-11-17T11:24:17.411000Z</time>
      </trkpt>
      <trkpt lat="45.8090615272522" lon="10.353047847747803">
        <ele>885.0</ele>
        <time>2017-11-17T11:24:18.838000Z</time>
      </trkpt>
      <trkpt lat="45.8090615272522" lon="10.352833271026611">
        <ele>885.1465468061715</ele>
        <time>2017-11-17T11:24:19.078000Z</time>
      </trkpt>
      <trkpt lat="45.80923318862915" lon="10.352232456207275">
        <ele>896.2566754983396</ele>
        <time>2017-11-17T11:24:19.804000Z</time>
      </trkpt>
      <trkpt lat="45.80929756164551" lon="10.351438522338867">
        <ele>887.4692197062769</ele>
        <time>2017-11-17T11:24:20.697000Z</time>
      </trkpt>
      <trkpt lat="45.80942630767822" lon="10.350708961486816">
        <ele>884.4876706722722</ele>
        <time>2017-11-17T11:24:21.538000Z</time>
      </trkpt>
      <trkpt lat="45.80949068069458" lon="10.350708961486816">
        <ele>884.3263176895516</ele>
        <time>2017-11-17T11:24:21.641000Z</time>
      </trkpt>
      <trkpt lat="45.809619426727295" lon="10.350472927093506">
        <ele>883.8026713865517</ele>
        <time>2017-11-17T11:24:21.976000Z</time>
      </trkpt>
      <trkpt lat="45.80970525741577" lon="10.349786281585693">
        <ele>880.4052992814213</ele>
        <time>2017-11-17T11:24:22.756000Z</time>
      </trkpt>
      <trkpt lat="45.8099627494812" lon="10.34862756729126">
        <ele>869.4540646967149</ele>
        <time>2017-11-17T11:24:24.115000Z</time>
      </trkpt>
      <trkpt lat="45.80998420715332" lon="10.348455905914307">
        <ele>869.2775469058051</ele>
        <time>2017-11-17T11:24:24.310000Z</time>
      </trkpt>
      <trkpt lat="45.809919917955995" lon="10.348305702209473">
        <ele>869.7658120950045</ele>
        <time>2017-11-17T11:24:24.507000Z</time>
      </trkpt>
      <trkpt lat="45.8099627494812" lon="10.348005294799805">
        <ele>869.455460597204</ele>
        <time>2017-11-17T11:24:24.850000Z</time>
      </trkpt>
      <trkpt lat="45.80998429097235" lon="10.346567630767822">
        <ele>868.0</ele>
        <time>2017-11-17T11:24:26.457000Z</time>
      </trkpt>
      <trkpt lat="45.81022024154663" lon="10.345473289489746">
        <ele>890.180469986229</ele>
        <time>2017-11-17T11:24:27.737000Z</time>
      </trkpt>
      <trkpt lat="45.81011303700507" lon="10.343949794769287">
        <ele>892.0</ele>
        <time>2017-11-17T11:24:29.448000Z</time>
      </trkpt>
      <trkpt lat="45.810134494677186" lon="10.343220233917236">
        <ele>877.8877567141941</ele>
        <time>2017-11-17T11:24:30.264000Z</time>
      </trkpt>
      <trkpt lat="45.81022024154663" lon="10.34137487411499">
        <ele>860.8494222078217</ele>
        <time>2017-11-17T11:24:32.331000Z</time>
      </trkpt>
      <trkpt lat="45.810177410021424" lon="10.341160297393799">
        <ele>859.5630356977503</ele>
        <time>2017-11-17T11:24:32.580000Z</time>
      </trkpt>
      <trkpt lat="45.81011303700507" lon="10.34088134765625">
        <ele>858.5009120998039</ele>
        <time>2017-11-17T11:24:32.908000Z</time>
      </trkpt>
      <trkpt lat="45.81007012166083" lon="10.340709686279297">
        <ele>859.841716388754</ele>
        <time>2017-11-17T11:24:33.112000Z</time>
      </trkpt>
      <trkpt lat="45.8099627494812" lon="10.340280532836914">
        <ele>851.5269108366133</ele>
        <time>2017-11-17T11:24:33.622000Z</time>
      </trkpt>
      <trkpt lat="45.809919917955995" lon="10.338542461395264">
        <ele>844.2404747390092</ele>
        <time>2017-11-17T11:24:35.565000Z</time>
      </trkpt>
      <trkpt lat="45.809898376464844" lon="10.337190628051758">
        <ele>840.0</ele>
        <time>2017-11-17T11:24:37.076000Z</time>
      </trkpt>
      <trkpt lat="45.80983408726752" lon="10.336847305297852">
        <ele>839.8767338467354</ele>
        <time>2017-11-17T11:24:37.473000Z</time>
      </trkpt>
      <trkpt lat="45.809834003448486" lon="10.336847305297852">
        <ele>839.8766921508477</ele>
        <time>2017-11-17T11:24:37.473000Z</time>
      </trkpt>
      <trkpt lat="45.80946930684149" lon="10.335602760314941">
        <ele>839.0752350645135</ele>
        <time>2017-11-17T11:24:38.982000Z</time>
      </trkpt>
      <trkpt lat="45.80942630767822" lon="10.335452556610107">
        <ele>838.9504445540941</ele>
        <time>2017-11-17T11:24:39.163000Z</time>
      </trkpt>
      <trkpt lat="45.8093620184809" lon="10.33513069152832">
        <ele>838.6931293444319</ele>
        <time>2017-11-17T11:24:39.537000Z</time>
      </trkpt>
      <trkpt lat="45.80929764546454" lon="10.334980487823486">
        <ele>839.6185367370914</ele>
        <time>2017-11-17T11:24:39.734000Z</time>
      </trkpt>
      <trkpt lat="45.80927610397339" lon="10.334916114807129">
        <ele>839.5883284255938</ele>
        <time>2017-11-17T11:24:39.814000Z</time>
      </trkpt>
      <trkpt lat="45.80884703435004" lon="10.334293842315674">
        <ele>837.2180432144834</ele>
        <time>2017-11-17T11:24:40.792000Z</time>
      </trkpt>
      <trkpt lat="45.80882557667792" lon="10.333993434906006">
        <ele>837.8278322226275</ele>
        <time>2017-11-17T11:24:41.129000Z</time>
      </trkpt>
      <trkpt lat="45.80873974598944" lon="10.333521366119385">
        <ele>838.2744597924366</ele>
        <time>2017-11-17T11:24:41.674000Z</time>
      </trkpt>
      <trkpt lat="45.8083535078913" lon="10.332105159759521">
        <ele>841.0</ele>
        <time>2017-11-17T11:24:43.373000Z</time>
      </trkpt>
      <trkpt lat="45.80833205021918" lon="10.331568717956543">
        <ele>828.8563076365817</ele>
        <time>2017-11-17T11:24:43.973000Z</time>
      </trkpt>
      <trkpt lat="45.80831050872803" lon="10.331053733825684">
        <ele>824.2376535808484</ele>
        <time>2017-11-17T11:24:44.550000Z</time>
      </trkpt>
      <trkpt lat="45.808396423235536" lon="10.33064603805542">
        <ele>827.9136909333189</ele>
        <time>2017-11-17T11:24:45.026000Z</time>
      </trkpt>
      <trkpt lat="45.80850371159613" lon="10.330367088317871">
        <ele>827.6713612997597</ele>
        <time>2017-11-17T11:24:45.382000Z</time>
      </trkpt>
      <trkpt lat="45.80869674682617" lon="10.329830646514893">
        <ele>825.2121736569424</ele>
        <time>2017-11-17T11:24:46.057000Z</time>
      </trkpt>
      <trkpt lat="45.80869674682617" lon="10.329551696777344">
        <ele>825.0</ele>
        <time>2017-11-17T11:24:46.369000Z</time>
      </trkpt>
      <trkpt lat="45.80852516926825" lon="10.328178405761719">
        <ele>821.0123504745796</ele>
        <time>2017-11-17T11:24:47.928000Z</time>
      </trkpt>
      <trkpt lat="45.80852508544922" lon="10.327856540679932">
        <ele>821.2458983039916</ele>
        <time>2017-11-17T11:24:48.288000Z</time>
      </trkpt>
      <trkpt lat="45.80856800079346" lon="10.327084064483643">
        <ele>822.4748556619047</ele>
        <time>2017-11-17T11:24:49.154000Z</time>
      </trkpt>
      <trkpt lat="45.80848217010498" lon="10.326740741729736">
        <ele>826.5189147185525</ele>
        <time>2017-11-17T11:24:49.562000Z</time>
      </trkpt>
      <trkpt lat="45.807838439941406" lon="10.325775146484375">
        <ele>856.0</ele>
        <time>2017-11-17T11:24:51.055000Z</time>
      </trkpt>
      <trkpt lat="45.80728054046631" lon="10.324745178222656">
        <ele>845.3866945724698</ele>
        <time>2017-11-17T11:24:52.513000Z</time>
      </trkpt>
      <trkpt lat="45.80717325210571" lon="10.32463788986206">
        <ele>844.4584315739562</ele>
        <time>2017-11-17T11:24:52.723000Z</time>
      </trkpt>
      <trkpt lat="45.80702304840088" lon="10.32463788986206">
        <ele>843.392321043831</ele>
        <time>2017-11-17T11:24:52.964000Z</time>
      </trkpt>
      <trkpt lat="45.806937301531434" lon="10.324723720550537">
        <ele>842.6501975911716</ele>
        <time>2017-11-17T11:24:53.132000Z</time>
      </trkpt>
      <trkpt lat="45.806851387023926" lon="10.324788093566895">
        <ele>841.9622306631032</ele>
        <time>2017-11-17T11:24:53.287000Z</time>
      </trkpt>
      <trkpt lat="45.80662723760948" lon="10.324767716342961">
        <ele>831.7018786135876</ele>
        <time>2017-11-17T11:24:53.647000Z</time>
      </trkpt>
      <trkpt lat="45.80662480134114" lon="10.32476749486491">
        <ele>831.6736879823158</ele>
        <time>2017-11-17T11:24:53.651000Z</time>
      </trkpt>
      <trkpt lat="45.806615352630615" lon="10.324766635894775">
        <ele>831.5643547412634</ele>
        <time>2017-11-17T11:24:53.666000Z</time>
      </trkpt>
      <trkpt lat="45.80685147084296" lon="10.324788093566895">
        <ele>836.4988461858761</ele>
        <time>2017-11-17T11:24:54.045000Z</time>
      </trkpt>
      <trkpt lat="45.806615352630615" lon="10.324873924255371">
        <ele>826.0192924645277</ele>
        <time>2017-11-17T11:24:54.435000Z</time>
      </trkpt>
      <trkpt lat="45.8060359954834" lon="10.324573516845703">
        <ele>818.9052009290943</ele>
        <time>2017-11-17T11:24:55.423000Z</time>
      </trkpt>
      <trkpt lat="45.8059287071228" lon="10.324358940124512">
        <ele>815.8513747670607</ele>
        <time>2017-11-17T11:24:55.718000Z</time>
      </trkpt>
      <trkpt lat="45.80577850341797" lon="10.323092937469482">
        <ele>791.0</ele>
        <time>2017-11-17T11:24:57.153000Z</time>
      </trkpt>
      <trkpt lat="45.805842876434326" lon="10.322771072387695">
        <ele>807.5791528690315</ele>
        <time>2017-11-17T11:24:57.527000Z</time>
      </trkpt>
      <trkpt lat="45.806100368499756" lon="10.322341918945312">
        <ele>812.5284407429903</ele>
        <time>2017-11-17T11:24:58.160000Z</time>
      </trkpt>
      <trkpt lat="45.806121826171875" lon="10.322041511535645">
        <ele>816.056847130296</ele>
        <time>2017-11-17T11:24:58.497000Z</time>
      </trkpt>
      <trkpt lat="45.80607891082764" lon="10.321526527404785">
        <ele>829.1168812708802</ele>
        <time>2017-11-17T11:24:59.077000Z</time>
      </trkpt>
      <trkpt lat="45.80569267272949" lon="10.321097373962402">
        <ele>809.5723361017448</ele>
        <time>2017-11-17T11:24:59.860000Z</time>
      </trkpt>
      <trkpt lat="45.80554246902466" lon="10.321011543273926">
        <ele>807.7373939298141</ele>
        <time>2017-11-17T11:25:00.119000Z</time>
      </trkpt>
      <trkpt lat="45.80513345578539" lon="10.320891935392538">
        <ele>803.0</ele>
        <time>2017-11-17T11:25:00.788000Z</time>
      </trkpt>
      <trkpt lat="45.80513106382367" lon="10.320891235915589">
        <ele>802.9727599831012</ele>
        <time>2017-11-17T11:25:00.792000Z</time>
      </trkpt>
      <trkpt lat="45.80512169748545" lon="10.320888496935368">
        <ele>802.8660947263871</ele>
        <time>2017-11-17T11:25:00.807000Z</time>
      </trkpt>
      <trkpt lat="45.80512178130448" lon="10.320888496935368">
        <ele>802.8651594185853</ele>
        <time>2017-11-17T11:25:00.808000Z</time>
      </trkpt>
      <trkpt lat="45.80466270446777" lon="10.320754051208496">
        <ele>801.3034798104596</ele>
        <time>2017-11-17T11:25:01.559000Z</time>
      </trkpt>
      <trkpt lat="45.80423355102539" lon="10.32041072845459">
        <ele>795.8203463991223</ele>
        <time>2017-11-17T11:25:02.347000Z</time>
      </trkpt>
      <trkpt lat="45.804104804992676" lon="10.320217609405518">
        <ele>781.4083967384571</ele>
        <time>2017-11-17T11:25:02.646000Z</time>
      </trkpt>
      <trkpt lat="45.80406188964844" lon="10.320024490356445">
        <ele>781.4949354856744</ele>
        <time>2017-11-17T11:25:02.873000Z</time>
      </trkpt>
      <trkpt lat="45.804147804155946" lon="10.31916618347168">
        <ele>783.5318049445433</ele>
        <time>2017-11-17T11:25:03.842000Z</time>
      </trkpt>
      <trkpt lat="45.804147720336914" lon="10.31916618347168">
        <ele>783.5321528559707</ele>
        <time>2017-11-17T11:25:03.842000Z</time>
      </trkpt>
      <trkpt lat="45.80451250076294" lon="10.318007469177246">
        <ele>792.5443044769585</ele>
        <time>2017-11-17T11:25:05.263000Z</time>
      </trkpt>
      <trkpt lat="45.80444812774658" lon="10.316956043243408">
        <ele>784.5018526364598</ele>
        <time>2017-11-17T11:25:06.443000Z</time>
      </trkpt>
      <trkpt lat="45.804476201526796" lon="10.316747550827245">
        <ele>783.7556308398008</ele>
        <time>2017-11-17T11:25:06.680000Z</time>
      </trkpt>
      <trkpt lat="45.804476664491276" lon="10.316744112555117">
        <ele>783.7624610213408</ele>
        <time>2017-11-17T11:25:06.684000Z</time>
      </trkpt>
      <trkpt lat="45.80447838641703" lon="10.31673132441938">
        <ele>783.7878648524144</ele>
        <time>2017-11-17T11:25:06.699000Z</time>
      </trkpt>
      <trkpt lat="45.804478302598" lon="10.316731492057443">
        <ele>783.788267233204</ele>
        <time>2017-11-17T11:25:06.699000Z</time>
      </trkpt>
      <trkpt lat="45.804598331451416" lon="10.315840244293213">
        <ele>784.2254193612513</ele>
        <time>2017-11-17T11:25:07.713000Z</time>
      </trkpt>
      <trkpt lat="45.8045768737793" lon="10.315110683441162">
        <ele>789.2577122093799</ele>
        <time>2017-11-17T11:25:08.529000Z</time>
      </trkpt>
      <trkpt lat="45.80444812774658" lon="10.314874649047852">
        <ele>795.2460303818833</ele>
        <time>2017-11-17T11:25:08.864000Z</time>
      </trkpt>
      <trkpt lat="45.80408334732056" lon="10.314466953277588">
        <ele>785.9481233042957</ele>
        <time>2017-11-17T11:25:09.605000Z</time>
      </trkpt>
      <trkpt lat="45.803868770599365" lon="10.31393051147461">
        <ele>798.3370327436493</ele>
        <time>2017-11-17T11:25:10.296000Z</time>
      </trkpt>
      <trkpt lat="45.80369710922241" lon="10.313801765441895">
        <ele>798.2122407969067</ele>
        <time>2017-11-17T11:25:10.607000Z</time>
      </trkpt>
      <trkpt lat="45.803139209747314" lon="10.313630104064941">
        <ele>778.6171418568289</ele>
        <time>2017-11-17T11:25:11.522000Z</time>
      </trkpt>
      <trkpt lat="45.8030104637146" lon="10.313501358032227">
        <ele>777.6231246192818</ele>
        <time>2017-11-17T11:25:11.774000Z</time>
      </trkpt>
      <trkpt lat="45.80281734466553" lon="10.313136577606201">
        <ele>775.2673582590586</ele>
        <time>2017-11-17T11:25:12.286000Z</time>
      </trkpt>
      <trkpt lat="45.802804445535294" lon="10.312987596295734">
        <ele>774.6044977663629</ele>
        <time>2017-11-17T11:25:12.454000Z</time>
      </trkpt>
      <trkpt lat="45.8028041446575" lon="10.312984121269627">
        <ele>774.5890363786328</ele>
        <time>2017-11-17T11:25:12.458000Z</time>
      </trkpt>
      <trkpt lat="45.802803011611104" lon="10.312971035018563">
        <ele>774.5308118927824</ele>
        <time>2017-11-17T11:25:12.473000Z</time>
      </trkpt>
      <trkpt lat="45.802803011611104" lon="10.312971202656627">
        <ele>774.5300717099103</ele>
        <time>2017-11-17T11:25:12.473000Z</time>
      </trkpt>
      <trkpt lat="45.80277451314032" lon="10.312643051147461">
        <ele>773.0699634552592</ele>
        <time>2017-11-17T11:25:12.843000Z</time>
      </trkpt>
      <trkpt lat="45.80277442932129" lon="10.312643051147461">
        <ele>773.0692375122266</ele>
        <time>2017-11-17T11:25:12.843000Z</time>
      </trkpt>
      <trkpt lat="45.802860260009766" lon="10.312364101409912">
        <ele>768.5615943313975</ele>
        <time>2017-11-17T11:25:13.184000Z</time>
      </trkpt>
      <trkpt lat="45.803139209747314" lon="10.311784744262695">
        <ele>764.3104028300689</ele>
        <time>2017-11-17T11:25:13.971000Z</time>
      </trkpt>
      <trkpt lat="45.803139209747314" lon="10.310518741607666">
        <ele>755.0</ele>
        <time>2017-11-17T11:25:15.386000Z</time>
      </trkpt>
      <trkpt lat="45.803117752075195" lon="10.310025215148926">
        <ele>754.2435523870655</ele>
        <time>2017-11-17T11:25:15.939000Z</time>
      </trkpt>
      <trkpt lat="45.80297368877378" lon="10.309644464786858">
        <ele>755.2474975517989</ele>
        <time>2017-11-17T11:25:16.423000Z</time>
      </trkpt>
      <trkpt lat="45.802972524287966" lon="10.30964138714475">
        <ele>755.2421407009696</ele>
        <time>2017-11-17T11:25:16.427000Z</time>
      </trkpt>
      <trkpt lat="45.802968218922615" lon="10.309630008414388">
        <ele>755.2223352244364</ele>
        <time>2017-11-17T11:25:16.441000Z</time>
      </trkpt>
      <trkpt lat="45.80296830274165" lon="10.309630176052451">
        <ele>755.2220196354114</ele>
        <time>2017-11-17T11:25:16.441000Z</time>
      </trkpt>
      <trkpt lat="45.80281734466553" lon="10.309231281280518">
        <ele>754.5276830201601</ele>
        <time>2017-11-17T11:25:16.948000Z</time>
      </trkpt>
      <trkpt lat="45.80277442932129" lon="10.30867338180542">
        <ele>746.7959503556839</ele>
        <time>2017-11-17T11:25:17.575000Z</time>
      </trkpt>
      <trkpt lat="45.802860260009766" lon="10.308308601379395">
        <ele>749.3238361338286</ele>
        <time>2017-11-17T11:25:18.005000Z</time>
      </trkpt>
      <trkpt lat="45.80328941345215" lon="10.308029651641846">
        <ele>752.0059940665939</ele>
        <time>2017-11-17T11:25:18.760000Z</time>
      </trkpt>
      <trkpt lat="45.80378293991089" lon="10.307857990264893">
        <ele>764.2302442547748</ele>
        <time>2017-11-17T11:25:19.574000Z</time>
      </trkpt>
      <trkpt lat="45.803847312927246" lon="10.307793617248535">
        <ele>764.3223996657733</ele>
        <time>2017-11-17T11:25:19.700000Z</time>
      </trkpt>
      <trkpt lat="45.8039116859436" lon="10.307557582855225">
        <ele>764.5298991702326</ele>
        <time>2017-11-17T11:25:19.983000Z</time>
      </trkpt>
      <trkpt lat="45.8039116859436" lon="10.307364463806152">
        <ele>762.3546694961155</ele>
        <time>2017-11-17T11:25:20.199000Z</time>
      </trkpt>
      <trkpt lat="45.80380439758301" lon="10.306956768035889">
        <ele>762.7114345655044</ele>
        <time>2017-11-17T11:25:20.686000Z</time>
      </trkpt>
      <trkpt lat="45.803654193878174" lon="10.30667781829834">
        <ele>763.0</ele>
        <time>2017-11-17T11:25:21.080000Z</time>
      </trkpt>
      <trkpt lat="45.80322504043579" lon="10.306313037872314">
        <ele>753.0319770436558</ele>
        <time>2017-11-17T11:25:21.880000Z</time>
      </trkpt>
      <trkpt lat="45.80321316237747" lon="10.30629169849829">
        <ele>752.9314327351268</ele>
        <time>2017-11-17T11:25:21.910000Z</time>
      </trkpt>
      <trkpt lat="45.80321163920245" lon="10.306288962058861">
        <ele>752.9185395049243</ele>
        <time>2017-11-17T11:25:21.914000Z</time>
      </trkpt>
      <trkpt lat="45.803205678239465" lon="10.306278252974153">
        <ele>752.8680817038926</ele>
        <time>2017-11-17T11:25:21.929000Z</time>
      </trkpt>
      <trkpt lat="45.8032057620585" lon="10.306278336793184">
        <ele>752.8675420453341</ele>
        <time>2017-11-17T11:25:21.929000Z</time>
      </trkpt>
      <trkpt lat="45.803117752075195" lon="10.306119918823242">
        <ele>752.1216851489611</ele>
        <time>2017-11-17T11:25:22.155000Z</time>
      </trkpt>
      <trkpt lat="45.803160667419434" lon="10.305798053741455">
        <ele>746.2484389358752</ele>
        <time>2017-11-17T11:25:22.521000Z</time>
      </trkpt>
      <trkpt lat="45.80341815948486" lon="10.305261611938477">
        <ele>751.8503546889343</ele>
        <time>2017-11-17T11:25:23.249000Z</time>
      </trkpt>
      <trkpt lat="45.803439700976014" lon="10.305068492889404">
        <ele>751.3105396673308</ele>
        <time>2017-11-17T11:25:23.468000Z</time>
      </trkpt>
      <trkpt lat="45.80343961715698" lon="10.305068492889404">
        <ele>751.3102078002981</ele>
        <time>2017-11-17T11:25:23.468000Z</time>
      </trkpt>
      <trkpt lat="45.80341815948486" lon="10.30468225479126">
        <ele>753.5740915810626</ele>
        <time>2017-11-17T11:25:23.901000Z</time>
      </trkpt>
      <trkpt lat="45.80326803959906" lon="10.304317474365234">
        <ele>744.4048954097625</ele>
        <time>2017-11-17T11:25:24.374000Z</time>
      </trkpt>
      <trkpt lat="45.80283880233765" lon="10.303888320922852">
        <ele>745.0</ele>
        <time>2017-11-17T11:25:25.213000Z</time>
      </trkpt>
      <trkpt lat="45.80271005630493" lon="10.303480625152588">
        <ele>742.0120332542177</ele>
        <time>2017-11-17T11:25:25.713000Z</time>
      </trkpt>
      <trkpt lat="45.80279588699341" lon="10.303072929382324">
        <ele>734.1688932616031</ele>
        <time>2017-11-17T11:25:26.189000Z</time>
      </trkpt>
      <trkpt lat="45.80322504043579" lon="10.30240774154663">
        <ele>724.4516425502576</ele>
        <time>2017-11-17T11:25:27.202000Z</time>
      </trkpt>
      <trkpt lat="45.80333232879639" lon="10.302042961120605">
        <ele>724.7077396771748</ele>
        <time>2017-11-17T11:25:27.644000Z</time>
      </trkpt>
      <trkpt lat="45.80333232879639" lon="10.301635265350342">
        <ele>728.9714557054969</ele>
        <time>2017-11-17T11:25:28.100000Z</time>
      </trkpt>
      <trkpt lat="45.80328941345215" lon="10.30118465423584">
        <ele>729.9453749981525</ele>
        <time>2017-11-17T11:25:28.608000Z</time>
      </trkpt>
      <trkpt lat="45.803117752075195" lon="10.300905704498291">
        <ele>730.7421747321986</ele>
        <time>2017-11-17T11:25:29.024000Z</time>
      </trkpt>
      <trkpt lat="45.80281734466553" lon="10.3006911277771">
        <ele>736.7548216868022</ele>
        <time>2017-11-17T11:25:29.562000Z</time>
      </trkpt>
      <trkpt lat="45.80271005630493" lon="10.300519466400146">
        <ele>736.1223118791844</ele>
        <time>2017-11-17T11:25:29.820000Z</time>
      </trkpt>
      <trkpt lat="45.80247402191162" lon="10.299360752105713">
        <ele>720.8104498870576</ele>
        <time>2017-11-17T11:25:31.169000Z</time>
      </trkpt>
      <trkpt lat="45.80232381820679" lon="10.29895305633545">
        <ele>723.4836407364577</ele>
        <time>2017-11-17T11:25:31.684000Z</time>
      </trkpt>
      <trkpt lat="45.80205453737373" lon="10.298674473159231">
        <ele>722.0023862376639</ele>
        <time>2017-11-17T11:25:32.216000Z</time>
      </trkpt>
      <trkpt lat="45.8020525574518" lon="10.298672424853214">
        <ele>721.9914951463888</ele>
        <time>2017-11-17T11:25:32.220000Z</time>
      </trkpt>
      <trkpt lat="45.80204478465021" lon="10.298664383590221">
        <ele>721.948738768755</ele>
        <time>2017-11-17T11:25:32.235000Z</time>
      </trkpt>
      <trkpt lat="45.80204486846924" lon="10.298664551228285">
        <ele>721.9480971279669</ele>
        <time>2017-11-17T11:25:32.235000Z</time>
      </trkpt>
      <trkpt lat="45.80170154571533" lon="10.298309326171875">
        <ele>724.392806855461</ele>
        <time>2017-11-17T11:25:32.914000Z</time>
      </trkpt>
      <trkpt lat="45.801594257354736" lon="10.298116207122803">
        <ele>712.2914172230034</ele>
        <time>2017-11-17T11:25:33.190000Z</time>
      </trkpt>
      <trkpt lat="45.80157288350165" lon="10.297794342041016">
        <ele>712.4211599980725</ele>
        <time>2017-11-17T11:25:33.551000Z</time>
      </trkpt>
      <trkpt lat="45.801658630371094" lon="10.29719352722168">
        <ele>712.3339216980672</ele>
        <time>2017-11-17T11:25:34.236000Z</time>
      </trkpt>
      <trkpt lat="45.80178737640381" lon="10.296614170074463">
        <ele>716.2445960264922</ele>
        <time>2017-11-17T11:25:34.916000Z</time>
      </trkpt>
      <trkpt lat="45.80202341079712" lon="10.296313762664795">
        <ele>716.5122046408733</ele>
        <time>2017-11-17T11:25:35.422000Z</time>
      </trkpt>
      <trkpt lat="45.80223798751831" lon="10.295841693878174">
        <ele>717.0150959951972</ele>
        <time>2017-11-17T11:25:36.052000Z</time>
      </trkpt>
      <trkpt lat="45.80221652984619" lon="10.29494047164917">
        <ele>721.4864503761227</ele>
        <time>2017-11-17T11:25:37.060000Z</time>
      </trkpt>
      <trkpt lat="45.802109241485596" lon="10.294575691223145">
        <ele>721.8397511155919</ele>
        <time>2017-11-17T11:25:37.502000Z</time>
      </trkpt>
      <trkpt lat="45.80142259597778" lon="10.292816162109375">
        <ele>703.0</ele>
        <time>2017-11-17T11:25:39.756000Z</time>
      </trkpt>
      <trkpt lat="45.801379680633545" lon="10.292537212371826">
        <ele>700.8922229302067</ele>
        <time>2017-11-17T11:25:40.075000Z</time>
      </trkpt>
      <trkpt lat="45.80152996815741" lon="10.291786193847656">
        <ele>691.4603422255582</ele>
        <time>2017-11-17T11:25:40.948000Z</time>
      </trkpt>
      <trkpt lat="45.80157279968262" lon="10.291528701782227">
        <ele>687.1737528799698</ele>
        <time>2017-11-17T11:25:41.244000Z</time>
      </trkpt>
      <trkpt lat="45.80161579884589" lon="10.291292667388916">
        <ele>687.7017897871629</ele>
        <time>2017-11-17T11:25:41.517000Z</time>
      </trkpt>
      <trkpt lat="45.801615715026855" lon="10.29118537902832">
        <ele>687.9340091179091</ele>
        <time>2017-11-17T11:25:41.637000Z</time>
      </trkpt>
      <trkpt lat="45.80146551132202" lon="10.290842056274414">
        <ele>688.8113232134289</ele>
        <time>2017-11-17T11:25:42.090000Z</time>
      </trkpt>
      <trkpt lat="45.801100730895996" lon="10.290670394897461">
        <ele>705.7019152537268</ele>
        <time>2017-11-17T11:25:42.705000Z</time>
      </trkpt>
      <trkpt lat="45.80077886581421" lon="10.290799140930176">
        <ele>705.7116490708619</ele>
        <time>2017-11-17T11:25:43.241000Z</time>
      </trkpt>
      <trkpt lat="45.800349712371826" lon="10.29118537902832">
        <ele>699.8056711629384</ele>
        <time>2017-11-17T11:25:44.053000Z</time>
      </trkpt>
      <trkpt lat="45.800178134813905" lon="10.29118537902832">
        <ele>700.7406089999195</ele>
        <time>2017-11-17T11:25:44.328000Z</time>
      </trkpt>
      <trkpt lat="45.80004938878119" lon="10.291099548339844">
        <ele>701.5142258807778</ele>
        <time>2017-11-17T11:25:44.556000Z</time>
      </trkpt>
      <trkpt lat="45.79979181289673" lon="10.29069185256958">
        <ele>705.6043776269547</ele>
        <time>2017-11-17T11:25:45.171000Z</time>
      </trkpt>
      <trkpt lat="45.79926250987305" lon="10.288245994695503">
        <ele>727.0</ele>
        <time>2017-11-17T11:25:48.033000Z</time>
      </trkpt>
      <trkpt lat="45.79926178615538" lon="10.288242650663262">
        <ele>726.9640326490968</ele>
        <time>2017-11-17T11:25:48.037000Z</time>
      </trkpt>
      <trkpt lat="45.799260064959526" lon="10.288234697654843">
        <ele>726.7927268495381</ele>
        <time>2017-11-17T11:25:48.046000Z</time>
      </trkpt>
      <trkpt lat="45.79926014877856" lon="10.288234949111938">
        <ele>726.7869931854881</ele>
        <time>2017-11-17T11:25:48.046000Z</time>
      </trkpt>
      <trkpt lat="45.79916954040527" lon="10.287816524505615">
        <ele>717.7737587248563</ele>
        <time>2017-11-17T11:25:48.536000Z</time>
      </trkpt>
      <trkpt lat="45.79882621765137" lon="10.287086963653564">
        <ele>686.0</ele>
        <time>2017-11-17T11:25:49.520000Z</time>
      </trkpt>
      <trkpt lat="45.798869132995605" lon="10.286378860473633">
        <ele>690.1441213461788</ele>
        <time>2017-11-17T11:25:50.314000Z</time>
      </trkpt>
      <trkpt lat="45.79874047078192" lon="10.285778045654297">
        <ele>690.6048977472178</ele>
        <time>2017-11-17T11:25:51.016000Z</time>
      </trkpt>
      <trkpt lat="45.79874038696289" lon="10.285778045654297">
        <ele>690.6049221250545</ele>
        <time>2017-11-17T11:25:51.016000Z</time>
      </trkpt>
      <trkpt lat="45.79856872558594" lon="10.285499095916748">
        <ele>690.6803648699823</ele>
        <time>2017-11-17T11:25:51.432000Z</time>
      </trkpt>
      <trkpt lat="45.79831123352051" lon="10.285284519195557">
        <ele>678.0692335835273</ele>
        <time>2017-11-17T11:25:51.909000Z</time>
      </trkpt>
      <trkpt lat="45.79781770706177" lon="10.285134315490723">
        <ele>675.339715651248</ele>
        <time>2017-11-17T11:25:52.718000Z</time>
      </trkpt>
      <trkpt lat="45.79768896102905" lon="10.284812450408936">
        <ele>677.4273805404525</ele>
        <time>2017-11-17T11:25:53.133000Z</time>
      </trkpt>
      <trkpt lat="45.79777479171753" lon="10.283567905426025">
        <ele>679.8093345851169</ele>
        <time>2017-11-17T11:25:54.531000Z</time>
      </trkpt>
      <trkpt lat="45.797624588012695" lon="10.28318166732788">
        <ele>680.0676986096622</ele>
        <time>2017-11-17T11:25:55.025000Z</time>
      </trkpt>
      <trkpt lat="45.79743146896362" lon="10.28294563293457">
        <ele>665.0478836031504</ele>
        <time>2017-11-17T11:25:55.432000Z</time>
      </trkpt>
      <trkpt lat="45.79717397689819" lon="10.282773971557617">
        <ele>665.7319531210557</ele>
        <time>2017-11-17T11:25:55.887000Z</time>
      </trkpt>
      <trkpt lat="45.79702377319336" lon="10.282559394836426">
        <ele>668.0855223288773</ele>
        <time>2017-11-17T11:25:56.227000Z</time>
      </trkpt>
      <trkpt lat="45.79698085784912" lon="10.28221607208252">
        <ele>671.4519860782211</ele>
        <time>2017-11-17T11:25:56.617000Z</time>
      </trkpt>
      <trkpt lat="45.797016379578125" lon="10.282002475444479">
        <ele>673.1516717815063</ele>
        <time>2017-11-17T11:25:56.862000Z</time>
      </trkpt>
      <trkpt lat="45.79701694595086" lon="10.281999069752223">
        <ele>673.1787724159684</ele>
        <time>2017-11-17T11:25:56.866000Z</time>
      </trkpt>
      <trkpt lat="45.797019163146615" lon="10.281985737383366">
        <ele>673.284864101416</ele>
        <time>2017-11-17T11:25:56.881000Z</time>
      </trkpt>
      <trkpt lat="45.797019163146615" lon="10.281985905021429">
        <ele>673.2861616711269</ele>
        <time>2017-11-17T11:25:56.881000Z</time>
      </trkpt>
      <trkpt lat="45.797109603881836" lon="10.28144359588623">
        <ele>680.2688767883598</ele>
        <time>2017-11-17T11:25:57.504000Z</time>
      </trkpt>
      <trkpt lat="45.79702385701239" lon="10.280821323394775">
        <ele>698.6035205935185</ele>
        <time>2017-11-17T11:25:58.213000Z</time>
      </trkpt>
      <trkpt lat="45.79670190811157" lon="10.279684066772461">
        <ele>724.0</ele>
        <time>2017-11-17T11:25:59.585000Z</time>
      </trkpt>
      <trkpt lat="45.79622983932495" lon="10.278139114379883">
        <ele>684.6164876904137</ele>
        <time>2017-11-17T11:26:01.470000Z</time>
      </trkpt>
      <trkpt lat="45.7959508895874" lon="10.2777099609375">
        <ele>675.9032132922124</ele>
        <time>2017-11-17T11:26:02.126000Z</time>
      </trkpt>
      <trkpt lat="45.79556465148926" lon="10.277366638183594">
        <ele>655.2473960220003</ele>
        <time>2017-11-17T11:26:02.854000Z</time>
      </trkpt>
      <trkpt lat="45.79479545182024" lon="10.277185776060543">
        <ele>644.7867598153533</ele>
        <time>2017-11-17T11:26:04.104000Z</time>
      </trkpt>
      <trkpt lat="45.794793042900075" lon="10.277185209658409">
        <ele>644.7766519710525</ele>
        <time>2017-11-17T11:26:04.108000Z</time>
      </trkpt>
      <trkpt lat="45.79478253610432" lon="10.27718273922801">
        <ele>644.7325653895881</ele>
        <time>2017-11-17T11:26:04.125000Z</time>
      </trkpt>
      <trkpt lat="45.79478261992335" lon="10.27718273922801">
        <ele>644.7322183173565</ele>
        <time>2017-11-17T11:26:04.125000Z</time>
      </trkpt>
      <trkpt lat="45.79410561360419" lon="10.277023315429688">
        <ele>639.2247151161149</ele>
        <time>2017-11-17T11:26:05.225000Z</time>
      </trkpt>
      <trkpt lat="45.79356917180121" lon="10.277066230773926">
        <ele>637.0</ele>
        <time>2017-11-17T11:26:06.086000Z</time>
      </trkpt>
      <trkpt lat="45.79352625645697" lon="10.277066230773926">
        <ele>637.3035866654908</ele>
        <time>2017-11-17T11:26:06.155000Z</time>
      </trkpt>
      <trkpt lat="45.79322576522827" lon="10.277001857757568">
        <ele>640.1195354695152</ele>
        <time>2017-11-17T11:26:06.642000Z</time>
      </trkpt>
      <trkpt lat="45.7930326461792" lon="10.276787281036377">
        <ele>641.8476882213272</ele>
        <time>2017-11-17T11:26:07.034000Z</time>
      </trkpt>
      <trkpt lat="45.79296827316284" lon="10.276615619659424">
        <ele>650.1424182500759</ele>
        <time>2017-11-17T11:26:07.252000Z</time>
      </trkpt>
      <trkpt lat="45.7929253578186" lon="10.276486873626709">
        <ele>650.8462853238543</ele>
        <time>2017-11-17T11:26:07.412000Z</time>
      </trkpt>
      <trkpt lat="45.79253920353949" lon="10.27522087097168">
        <ele>661.3287824222756</ele>
        <time>2017-11-17T11:26:08.957000Z</time>
      </trkpt>
      <trkpt lat="45.792296085731046" lon="10.274422325405096">
        <ele>641.0</ele>
        <time>2017-11-17T11:26:09.931000Z</time>
      </trkpt>
      <trkpt lat="45.792295108908874" lon="10.274419116982648">
        <ele>641.0030147623258</ele>
        <time>2017-11-17T11:26:09.935000Z</time>
      </trkpt>
      <trkpt lat="45.79229151830077" lon="10.27440732344985">
        <ele>641.014096439537</ele>
        <time>2017-11-17T11:26:09.949000Z</time>
      </trkpt>
      <trkpt lat="45.7922916021198" lon="10.274407407268882">
        <ele>641.0142226367102</ele>
        <time>2017-11-17T11:26:09.949000Z</time>
      </trkpt>
      <trkpt lat="45.79223879612982" lon="10.2742338180542">
        <ele>641.1773123136405</ele>
        <time>2017-11-17T11:26:10.161000Z</time>
      </trkpt>
      <trkpt lat="45.79202421940863" lon="10.273289680480957">
        <ele>644.6991057325655</ele>
        <time>2017-11-17T11:26:11.271000Z</time>
      </trkpt>
      <trkpt lat="45.79200276173651" lon="10.273182392120361">
        <ele>644.7952207943672</ele>
        <time>2017-11-17T11:26:11.396000Z</time>
      </trkpt>
      <trkpt lat="45.79198130406439" lon="10.273160934448242">
        <ele>644.8275273295418</ele>
        <time>2017-11-17T11:26:11.438000Z</time>
      </trkpt>
      <trkpt lat="45.79174518585205" lon="10.272860527038574">
        <ele>645.2173434798812</ele>
        <time>2017-11-17T11:26:11.944000Z</time>
      </trkpt>
      <trkpt lat="45.79157360829413" lon="10.272216796875">
        <ele>636.7026729118201</ele>
        <time>2017-11-17T11:26:12.714000Z</time>
      </trkpt>
      <trkpt lat="45.7915735244751" lon="10.272216796875">
        <ele>636.7022924201307</ele>
        <time>2017-11-17T11:26:12.714000Z</time>
      </trkpt>
      <trkpt lat="45.791380405426025" lon="10.27097225189209">
        <ele>634.0</ele>
        <time>2017-11-17T11:26:14.139000Z</time>
      </trkpt>
      <trkpt lat="45.79123020172119" lon="10.270435810089111">
        <ele>634.037222261864</ele>
        <time>2017-11-17T11:26:14.785000Z</time>
      </trkpt>
      <trkpt lat="45.791015625" lon="10.26998519897461">
        <ele>635.1471101269432</ele>
        <time>2017-11-17T11:26:15.395000Z</time>
      </trkpt>
      <trkpt lat="45.79035043716431" lon="10.269169807434082">
        <ele>626.0</ele>
        <time>2017-11-17T11:26:16.798000Z</time>
      </trkpt>
      <trkpt lat="45.79013594426215" lon="10.268654823303223">
        <ele>629.8897194178797</ele>
        <time>2017-11-17T11:26:17.469000Z</time>
      </trkpt>
      <trkpt lat="45.789899826049805" lon="10.268161296844482">
        <ele>624.7796851628768</ele>
        <time>2017-11-17T11:26:18.138000Z</time>
      </trkpt>
      <trkpt lat="45.7895565032959" lon="10.266852378845215">
        <ele>629.9263374423455</ele>
        <time>2017-11-17T11:26:19.701000Z</time>
      </trkpt>
      <trkpt lat="45.78934201039374" lon="10.26648759841919">
        <ele>632.0</ele>
        <time>2017-11-17T11:26:20.234000Z</time>
      </trkpt>
      <trkpt lat="45.78927763737738" lon="10.266401767730713">
        <ele>631.414426556642</ele>
        <time>2017-11-17T11:26:20.375000Z</time>
      </trkpt>
      <trkpt lat="45.789213264361024" lon="10.266315937042236">
        <ele>630.8288527997347</ele>
        <time>2017-11-17T11:26:20.516000Z</time>
      </trkpt>
      <trkpt lat="45.788831445174935" lon="10.266017238765027">
        <ele>621.9312986695844</ele>
        <time>2017-11-17T11:26:21.213000Z</time>
      </trkpt>
      <trkpt lat="45.78882930223647" lon="10.266015562351242">
        <ele>621.9150363413054</ele>
        <time>2017-11-17T11:26:21.217000Z</time>
      </trkpt>
      <trkpt lat="45.78882015310228" lon="10.266008405014873">
        <ele>621.8456054058927</ele>
        <time>2017-11-17T11:26:21.234000Z</time>
      </trkpt>
      <trkpt lat="45.78882023692131" lon="10.266008405014873">
        <ele>621.8450469995447</ele>
        <time>2017-11-17T11:26:21.234000Z</time>
      </trkpt>
      <trkpt lat="45.788719737902284" lon="10.265929698944092">
        <ele>621.0821884127275</ele>
        <time>2017-11-17T11:26:21.418000Z</time>
      </trkpt>
      <trkpt lat="45.78871965408325" lon="10.265929698944092">
        <ele>621.0816300063794</ele>
        <time>2017-11-17T11:26:21.418000Z</time>
      </trkpt>
      <trkpt lat="45.788462245836854" lon="10.265758037567139">
        <ele>623.1904143088226</ele>
        <time>2017-11-17T11:26:21.873000Z</time>
      </trkpt>
      <trkpt lat="45.787925804033875" lon="10.265393257141113">
        <ele>615.7871074643676</ele>
        <time>2017-11-17T11:26:22.825000Z</time>
      </trkpt>
      <trkpt lat="45.78760385513306" lon="10.26522159576416">
        <ele>613.4324217954653</ele>
        <time>2017-11-17T11:26:23.376000Z</time>
      </trkpt>
      <trkpt lat="45.78747519291937" lon="10.265071392059326">
        <ele>607.6284201694532</ele>
        <time>2017-11-17T11:26:23.642000Z</time>
      </trkpt>
      <trkpt lat="45.78700304031372" lon="10.264534950256348">
        <ele>612.9822117206744</ele>
        <time>2017-11-17T11:26:24.608000Z</time>
      </trkpt>
      <trkpt lat="45.7862735632807" lon="10.263526439666748">
        <ele>605.5439090163404</ele>
        <time>2017-11-17T11:26:26.232000Z</time>
      </trkpt>
      <trkpt lat="45.78627347946167" lon="10.263526439666748">
        <ele>605.5449961159868</ele>
        <time>2017-11-17T11:26:26.232000Z</time>
      </trkpt>
      <trkpt lat="45.786166274920106" lon="10.263397693634033">
        <ele>607.3585705143001</ele>
        <time>2017-11-17T11:26:26.456000Z</time>
      </trkpt>
      <trkpt lat="45.785930240526795" lon="10.26322603225708">
        <ele>612.7910317695671</ele>
        <time>2017-11-17T11:26:26.880000Z</time>
      </trkpt>
      <trkpt lat="45.78543663024902" lon="10.263183116912842">
        <ele>628.2047169262343</ele>
        <time>2017-11-17T11:26:27.673000Z</time>
      </trkpt>
      <trkpt lat="45.785136222839355" lon="10.263268947601318">
        <ele>629.4936716887513</ele>
        <time>2017-11-17T11:26:28.164000Z</time>
      </trkpt>
      <trkpt lat="45.784878730773926" lon="10.263354778289795">
        <ele>612.3610479864774</ele>
        <time>2017-11-17T11:26:28.588000Z</time>
      </trkpt>
      <trkpt lat="45.784621238708496" lon="10.263311862945557">
        <ele>629.9494314645331</ele>
        <time>2017-11-17T11:26:29.004000Z</time>
      </trkpt>
      <trkpt lat="45.784166068625304" lon="10.263087826855864">
        <ele>616.5202573434262</ele>
        <time>2017-11-17T11:26:29.775000Z</time>
      </trkpt>
      <trkpt lat="45.78416375982012" lon="10.263086690464847">
        <ele>616.4944092190542</ele>
        <time>2017-11-17T11:26:29.779000Z</time>
      </trkpt>
      <trkpt lat="45.784153612330556" lon="10.263081695884466">
        <ele>616.38080345798</ele>
        <time>2017-11-17T11:26:29.796000Z</time>
      </trkpt>
      <trkpt lat="45.78415369614959" lon="10.263081695884466">
        <ele>616.3799158943509</ele>
        <time>2017-11-17T11:26:29.796000Z</time>
      </trkpt>
      <trkpt lat="45.783226573839784" lon="10.262625217437744">
        <ele>597.0</ele>
        <time>2017-11-17T11:26:31.367000Z</time>
      </trkpt>
      <trkpt lat="45.78309774398804" lon="10.262560844421387">
        <ele>596.4479178483541</ele>
        <time>2017-11-17T11:26:31.586000Z</time>
      </trkpt>
      <trkpt lat="45.78277596272528" lon="10.262603759765625">
        <ele>595.140142554157</ele>
        <time>2017-11-17T11:26:32.104000Z</time>
      </trkpt>
      <trkpt lat="45.78159579075873" lon="10.262796878814697">
        <ele>577.0</ele>
        <time>2017-11-17T11:26:34.008000Z</time>
      </trkpt>
      <trkpt lat="45.781445587053895" lon="10.262818336486816">
        <ele>576.8329233314204</ele>
        <time>2017-11-17T11:26:34.250000Z</time>
      </trkpt>
      <trkpt lat="45.78030833043158" lon="10.262947082519531">
        <ele>575.5702288412086</ele>
        <time>2017-11-17T11:26:36.079000Z</time>
      </trkpt>
      <trkpt lat="45.78030824661255" lon="10.262947082519531">
        <ele>575.5698282254201</ele>
        <time>2017-11-17T11:26:36.079000Z</time>
      </trkpt>
      <trkpt lat="45.77919244766235" lon="10.263032913208008">
        <ele>567.5624952641011</ele>
        <time>2017-11-17T11:26:37.870000Z</time>
      </trkpt>
      <trkpt lat="45.77904224395752" lon="10.26298999786377">
        <ele>564.8091559430668</ele>
        <time>2017-11-17T11:26:38.116000Z</time>
      </trkpt>
      <trkpt lat="45.77864187048772" lon="10.262589705958366">
        <ele>563.6931217261773</ele>
        <time>2017-11-17T11:26:38.898000Z</time>
      </trkpt>
      <trkpt lat="45.778639868177784" lon="10.2625877040743">
        <ele>563.6875403377067</ele>
        <time>2017-11-17T11:26:38.902000Z</time>
      </trkpt>
      <trkpt lat="45.77863127924502" lon="10.2625791169703">
        <ele>563.6635989047363</ele>
        <time>2017-11-17T11:26:38.919000Z</time>
      </trkpt>
      <trkpt lat="45.77863136306405" lon="10.2625791169703">
        <ele>563.663407252348</ele>
        <time>2017-11-17T11:26:38.919000Z</time>
      </trkpt>
      <trkpt lat="45.77833414077759" lon="10.262281894683838">
        <ele>564.8348484706396</ele>
        <time>2017-11-17T11:26:39.500000Z</time>
      </trkpt>
      <trkpt lat="45.77826985158026" lon="10.262389183044434">
        <ele>561.275947787687</ele>
        <time>2017-11-17T11:26:39.658000Z</time>
      </trkpt>
      <trkpt lat="45.77807673253119" lon="10.262753963470459">
        <ele>560.5456247664208</ele>
        <time>2017-11-17T11:26:40.170000Z</time>
      </trkpt>
      <trkpt lat="45.77807664871216" lon="10.262753963470459">
        <ele>560.5454239873387</ele>
        <time>2017-11-17T11:26:40.170000Z</time>
      </trkpt>
      <trkpt lat="45.77796936035156" lon="10.262839794158936">
        <ele>560.2511300621909</ele>
        <time>2017-11-17T11:26:40.367000Z</time>
      </trkpt>
      <trkpt lat="45.777390003204346" lon="10.262753963470459">
        <ele>559.5226233361419</ele>
        <time>2017-11-17T11:26:41.301000Z</time>
      </trkpt>
      <trkpt lat="45.776660442352295" lon="10.26296854019165">
        <ele>555.7023862235814</ele>
        <time>2017-11-17T11:26:42.495000Z</time>
      </trkpt>
      <trkpt lat="45.77597379684448" lon="10.263397693634033">
        <ele>559.4762669757616</ele>
        <time>2017-11-17T11:26:43.696000Z</time>
      </trkpt>
      <trkpt lat="45.775510528210354" lon="10.263537962021092">
        <ele>556.0</ele>
        <time>2017-11-17T11:26:44.455000Z</time>
      </trkpt>
      <trkpt lat="45.77550813989269" lon="10.263538685149255">
        <ele>556.0022772371451</ele>
        <time>2017-11-17T11:26:44.459000Z</time>
      </trkpt>
      <trkpt lat="45.77549736946821" lon="10.263541946187615">
        <ele>556.0125467297938</ele>
        <time>2017-11-17T11:26:44.477000Z</time>
      </trkpt>
      <trkpt lat="45.775497537106276" lon="10.263541862368584">
        <ele>556.0127123589463</ele>
        <time>2017-11-17T11:26:44.477000Z</time>
      </trkpt>
      <trkpt lat="45.77526569366455" lon="10.263612270355225">
        <ele>556.2338012357669</ele>
        <time>2017-11-17T11:26:44.857000Z</time>
      </trkpt>
      <trkpt lat="45.774943828582764" lon="10.263569355010986">
        <ele>556.5353695428372</ele>
        <time>2017-11-17T11:26:45.375000Z</time>
      </trkpt>
      <trkpt lat="45.774686336517334" lon="10.26346206665039">
        <ele>556.7855262963363</ele>
        <time>2017-11-17T11:26:45.805000Z</time>
      </trkpt>
      <trkpt lat="45.77427864074707" lon="10.263097286224365">
        <ele>559.5671913264076</ele>
        <time>2017-11-17T11:26:46.575000Z</time>
      </trkpt>
      <trkpt lat="45.773935317993164" lon="10.263075828552246">
        <ele>556.5734959342391</ele>
        <time>2017-11-17T11:26:47.126000Z</time>
      </trkpt>
      <trkpt lat="45.77359199523926" lon="10.262861251831055">
        <ele>554.7639436525789</ele>
        <time>2017-11-17T11:26:47.726000Z</time>
      </trkpt>
      <trkpt lat="45.77322721481323" lon="10.262839794158936">
        <ele>550.0</ele>
        <time>2017-11-17T11:26:48.311000Z</time>
      </trkpt>
      <trkpt lat="45.77254056930542" lon="10.263161659240723">
        <ele>550.3304398647477</ele>
        <time>2017-11-17T11:26:49.469000Z</time>
      </trkpt>
      <trkpt lat="45.77181100845337" lon="10.263290405273438">
        <ele>551.3333333333334</ele>
        <time>2017-11-17T11:26:50.647000Z</time>
      </trkpt>
      <trkpt lat="45.77121019363403" lon="10.263118743896484">
        <ele>549.3018174770483</ele>
        <time>2017-11-17T11:26:51.629000Z</time>
      </trkpt>
      <trkpt lat="45.77089071106117" lon="10.263177797098493">
        <ele>548.2421233945817</ele>
        <time>2017-11-17T11:26:52.145000Z</time>
      </trkpt>
      <trkpt lat="45.770888290111245" lon="10.263178244584624">
        <ele>548.2340933288183</ele>
        <time>2017-11-17T11:26:52.149000Z</time>
      </trkpt>
      <trkpt lat="45.77087734825909" lon="10.263180267065763">
        <ele>548.1978002228531</ele>
        <time>2017-11-17T11:26:52.167000Z</time>
      </trkpt>
      <trkpt lat="45.77087743207812" lon="10.263180267065763">
        <ele>548.1975244852825</ele>
        <time>2017-11-17T11:26:52.167000Z</time>
      </trkpt>
      <trkpt lat="45.770630836486816" lon="10.26322603225708">
        <ele>545.3795355191706</ele>
        <time>2017-11-17T11:26:52.566000Z</time>
      </trkpt>
      <trkpt lat="45.769429206848145" lon="10.263011455535889">
        <ele>541.4270876115298</ele>
        <time>2017-11-17T11:26:54.507000Z</time>
      </trkpt>
      <trkpt lat="45.76908588409424" lon="10.26271104812622">
        <ele>542.090487404666</ele>
        <time>2017-11-17T11:26:55.152000Z</time>
      </trkpt>
      <trkpt lat="45.76801308430731" lon="10.262539386749268">
        <ele>544.8102839832632</ele>
        <time>2017-11-17T11:26:56.883000Z</time>
      </trkpt>
      <trkpt lat="45.76801300048828" lon="10.262539386749268">
        <ele>544.8110977961996</ele>
        <time>2017-11-17T11:26:56.883000Z</time>
      </trkpt>
      <trkpt lat="45.76797008514404" lon="10.262646675109863">
        <ele>545.6487268580578</ele>
        <time>2017-11-17T11:26:57.021000Z</time>
      </trkpt>
      <trkpt lat="45.767691135406494" lon="10.262904167175293">
        <ele>548.8700020906227</ele>
        <time>2017-11-17T11:26:57.553000Z</time>
      </trkpt>
      <trkpt lat="45.76766875509331" lon="10.262960053291922">
        <ele>549.3064467775135</ele>
        <time>2017-11-17T11:26:57.625000Z</time>
      </trkpt>
      <trkpt lat="45.76766753978924" lon="10.262963088037356">
        <ele>549.3301467404114</ele>
        <time>2017-11-17T11:26:57.629000Z</time>
      </trkpt>
      <trkpt lat="45.76766213402152" lon="10.262976586818695">
        <ele>549.4355660155992</ele>
        <time>2017-11-17T11:26:57.646000Z</time>
      </trkpt>
      <trkpt lat="45.76766221784055" lon="10.2629763353616">
        <ele>549.4374535406878</ele>
        <time>2017-11-17T11:26:57.646000Z</time>
      </trkpt>
      <trkpt lat="45.76760530471802" lon="10.263118743896484">
        <ele>550.5490378993277</ele>
        <time>2017-11-17T11:26:57.830000Z</time>
      </trkpt>
      <trkpt lat="45.7675838470459" lon="10.263676643371582">
        <ele>561.0</ele>
        <time>2017-11-17T11:26:58.455000Z</time>
      </trkpt>
      <trkpt lat="45.76762676239014" lon="10.26399850845337">
        <ele>564.2630003112008</ele>
        <time>2017-11-17T11:26:58.821000Z</time>
      </trkpt>
      <trkpt lat="45.76751947402954" lon="10.264685153961182">
        <ele>579.9363917970344</ele>
        <time>2017-11-17T11:26:59.608000Z</time>
      </trkpt>
      <trkpt lat="45.767604740351516" lon="10.26514362171659">
        <ele>587.661065095691</ele>
        <time>2017-11-17T11:27:00.139000Z</time>
      </trkpt>
      <trkpt lat="45.76760536917594" lon="10.265147002879083">
        <ele>587.695909148895</ele>
        <time>2017-11-17T11:27:00.143000Z</time>
      </trkpt>
      <trkpt lat="45.76760798692703" lon="10.265161078423262">
        <ele>587.8409625068831</ele>
        <time>2017-11-17T11:27:00.159000Z</time>
      </trkpt>
      <trkpt lat="45.76760798692703" lon="10.265160826966166">
        <ele>587.8434663979737</ele>
        <time>2017-11-17T11:27:00.159000Z</time>
      </trkpt>
      <trkpt lat="45.767691135406494" lon="10.265607833862305">
        <ele>592.4500788219515</ele>
        <time>2017-11-17T11:27:00.676000Z</time>
      </trkpt>
      <trkpt lat="45.76786279678345" lon="10.266058444976807">
        <ele>593.9972998709335</ele>
        <time>2017-11-17T11:27:01.250000Z</time>
      </trkpt>
      <trkpt lat="45.767927169799805" lon="10.266401767730713">
        <ele>595.0686294734638</ele>
        <time>2017-11-17T11:27:01.648000Z</time>
      </trkpt>
      <trkpt lat="45.76801300048828" lon="10.266616344451904">
        <ele>595.4713739559559</ele>
        <time>2017-11-17T11:27:01.925000Z</time>
      </trkpt>
      <trkpt lat="45.768184661865234" lon="10.267324447631836">
        <ele>594.6919615980039</ele>
        <time>2017-11-17T11:27:02.763000Z</time>
      </trkpt>
      <trkpt lat="45.76839932240546" lon="10.2677321434021">
        <ele>614.0379860236559</ele>
        <time>2017-11-17T11:27:03.334000Z</time>
      </trkpt>
      <trkpt lat="45.768399238586426" lon="10.2677321434021">
        <ele>614.039165212077</ele>
        <time>2017-11-17T11:27:03.334000Z</time>
      </trkpt>
      <trkpt lat="45.76861381530762" lon="10.268118381500244">
        <ele>618.8846999446413</ele>
        <time>2017-11-17T11:27:03.886000Z</time>
      </trkpt>
      <trkpt lat="45.768635272979736" lon="10.268247127532959">
        <ele>620.183701815146</ele>
        <time>2017-11-17T11:27:04.034000Z</time>
      </trkpt>
      <trkpt lat="45.76850652694702" lon="10.269105434417725">
        <ele>628.7991757136573</ele>
        <time>2017-11-17T11:27:05.016000Z</time>
      </trkpt>
      <trkpt lat="45.768635272979736" lon="10.269899368286133">
        <ele>628.111873883581</ele>
        <time>2017-11-17T11:27:05.928000Z</time>
      </trkpt>
      <trkpt lat="45.768678188323975" lon="10.270006656646729">
        <ele>626.226361193989</ele>
        <time>2017-11-17T11:27:06.066000Z</time>
      </trkpt>
      <trkpt lat="45.76874256134033" lon="10.26998519897461">
        <ele>627.725375155479</ele>
        <time>2017-11-17T11:27:06.172000Z</time>
      </trkpt>
      <trkpt lat="45.76876401901245" lon="10.269856452941895">
        <ele>627.4911458223224</ele>
        <time>2017-11-17T11:27:06.320000Z</time>
      </trkpt>
      <trkpt lat="45.768635272979736" lon="10.26921272277832">
        <ele>626.3061655341845</ele>
        <time>2017-11-17T11:27:07.069000Z</time>
      </trkpt>
      <trkpt lat="45.76872110366821" lon="10.269083976745605">
        <ele>627.9776317842401</ele>
        <time>2017-11-17T11:27:07.268000Z</time>
      </trkpt>
      <trkpt lat="45.76878547668457" lon="10.269126892089844">
        <ele>627.7898811442482</ele>
        <time>2017-11-17T11:27:07.382000Z</time>
      </trkpt>
      <trkpt lat="45.76880693435669" lon="10.26970624923706">
        <ele>624.7195928646979</ele>
        <time>2017-11-17T11:27:08.031000Z</time>
      </trkpt>
      <trkpt lat="45.76897859573364" lon="10.27022123336792">
        <ele>622.0</ele>
        <time>2017-11-17T11:27:08.669000Z</time>
      </trkpt>
      <trkpt lat="45.76887130737305" lon="10.270564556121826">
        <ele>624.6355985676238</ele>
        <time>2017-11-17T11:27:09.090000Z</time>
      </trkpt>
      <trkpt lat="45.768935680389404" lon="10.27097225189209">
        <ele>624.8974347869167</ele>
        <time>2017-11-17T11:27:09.557000Z</time>
      </trkpt>
      <trkpt lat="45.77007293701172" lon="10.27198076248169">
        <ele>651.3280134690912</ele>
        <time>2017-11-17T11:27:11.701000Z</time>
      </trkpt>
      <trkpt lat="45.770437717437744" lon="10.272002220153809">
        <ele>652.6170200769421</ele>
        <time>2017-11-17T11:27:12.286000Z</time>
      </trkpt>
      <trkpt lat="45.77048063278198" lon="10.272130966186523">
        <ele>652.2642863452916</ele>
        <time>2017-11-17T11:27:12.446000Z</time>
      </trkpt>
      <trkpt lat="45.77009439468384" lon="10.272560119628906">
        <ele>649.5325058398577</ele>
        <time>2017-11-17T11:27:13.229000Z</time>
      </trkpt>
      <trkpt lat="45.77000856399536" lon="10.272774696350098">
        <ele>648.3883932092764</ele>
        <time>2017-11-17T11:27:13.506000Z</time>
      </trkpt>
      <trkpt lat="45.769922733306885" lon="10.274255275726318">
        <ele>636.5164931807572</ele>
        <time>2017-11-17T11:27:15.167000Z</time>
      </trkpt>
      <trkpt lat="45.76985836029053" lon="10.274426937103271">
        <ele>636.7907657796479</ele>
        <time>2017-11-17T11:27:15.385000Z</time>
      </trkpt>
      <trkpt lat="45.7694935798645" lon="10.274856090545654">
        <ele>637.742794916121</ele>
        <time>2017-11-17T11:27:16.142000Z</time>
      </trkpt>
      <trkpt lat="45.76947212219238" lon="10.275027751922607">
        <ele>644.2027856304402</ele>
        <time>2017-11-17T11:27:16.337000Z</time>
      </trkpt>
      <trkpt lat="45.76951503753662" lon="10.275242328643799">
        <ele>646.0715374395398</ele>
        <time>2017-11-17T11:27:16.587000Z</time>
      </trkpt>
      <trkpt lat="45.769665241241455" lon="10.27547836303711">
        <ele>648.7462883203784</ele>
        <time>2017-11-17T11:27:16.944000Z</time>
      </trkpt>
      <trkpt lat="45.76983690261841" lon="10.275628566741943">
        <ele>651.7409146876134</ele>
        <time>2017-11-17T11:27:17.266000Z</time>
      </trkpt>
      <trkpt lat="45.77030897140503" lon="10.275886058807373">
        <ele>667.5951914530432</ele>
        <time>2017-11-17T11:27:18.076000Z</time>
      </trkpt>
      <trkpt lat="45.770630836486816" lon="10.276272296905518">
        <ele>673.8453279041968</ele>
        <time>2017-11-17T11:27:18.749000Z</time>
      </trkpt>
      <trkpt lat="45.770695209503174" lon="10.276272296905518">
        <ele>674.1272441213841</ele>
        <time>2017-11-17T11:27:18.852000Z</time>
      </trkpt>
      <trkpt lat="45.770695209503174" lon="10.276143550872803">
        <ele>674.5205351101764</ele>
        <time>2017-11-17T11:27:18.996000Z</time>
      </trkpt>
      <trkpt lat="45.77024459838867" lon="10.275564193725586">
        <ele>673.8639974837171</ele>
        <time>2017-11-17T11:27:19.966000Z</time>
      </trkpt>
      <trkpt lat="45.77022314071655" lon="10.275263786315918">
        <ele>673.5195171565578</ele>
        <time>2017-11-17T11:27:20.304000Z</time>
      </trkpt>
      <trkpt lat="45.77033042907715" lon="10.275092124938965">
        <ele>673.2565881952582</ele>
        <time>2017-11-17T11:27:20.562000Z</time>
      </trkpt>
      <trkpt lat="45.77065432698943" lon="10.274836467188685">
        <ele>667.651910008686</ele>
        <time>2017-11-17T11:27:21.155000Z</time>
      </trkpt>
      <trkpt lat="45.77065646531097" lon="10.274834779366328">
        <ele>667.6733466624229</ele>
        <time>2017-11-17T11:27:21.159000Z</time>
      </trkpt>
      <trkpt lat="45.7706662081182" lon="10.27482708916068">
        <ele>667.7710182173751</ele>
        <time>2017-11-17T11:27:21.177000Z</time>
      </trkpt>
      <trkpt lat="45.77066612429917" lon="10.27482708916068">
        <ele>667.7717543090977</ele>
        <time>2017-11-17T11:27:21.177000Z</time>
      </trkpt>
      <trkpt lat="45.77073812484741" lon="10.274770259857178">
        <ele>668.4935522483257</ele>
        <time>2017-11-17T11:27:21.309000Z</time>
      </trkpt>
      <trkpt lat="45.77082395553589" lon="10.274577140808105">
        <ele>669.8962611752563</ele>
        <time>2017-11-17T11:27:21.565000Z</time>
      </trkpt>
      <trkpt lat="45.77129602432251" lon="10.273504257202148">
        <ele>686.0</ele>
        <time>2017-11-17T11:27:22.983000Z</time>
      </trkpt>
      <trkpt lat="45.77125310897827" lon="10.272903442382812">
        <ele>680.7817776473804</ele>
        <time>2017-11-17T11:27:23.658000Z</time>
      </trkpt>
      <trkpt lat="45.77127456665039" lon="10.272667407989502">
        <ele>680.3016537210043</ele>
        <time>2017-11-17T11:27:23.924000Z</time>
      </trkpt>
      <trkpt lat="45.77133893966675" lon="10.272517204284668">
        <ele>679.9460649221285</ele>
        <time>2017-11-17T11:27:24.121000Z</time>
      </trkpt>
      <trkpt lat="45.77159643173218" lon="10.272388458251953">
        <ele>678.1574763565161</ele>
        <time>2017-11-17T11:27:24.558000Z</time>
      </trkpt>
      <trkpt lat="45.771660804748535" lon="10.27245283126831">
        <ele>677.9305147855104</ele>
        <time>2017-11-17T11:27:24.684000Z</time>
      </trkpt>
      <trkpt lat="45.771639347076416" lon="10.272560119628906">
        <ele>678.7053882295419</ele>
        <time>2017-11-17T11:27:24.809000Z</time>
      </trkpt>
      <trkpt lat="45.77153205871582" lon="10.272624492645264">
        <ele>679.2328607188906</ele>
        <time>2017-11-17T11:27:24.995000Z</time>
      </trkpt>
      <trkpt lat="45.77146768569946" lon="10.272860527038574">
        <ele>680.0345843059187</ele>
        <time>2017-11-17T11:27:25.278000Z</time>
      </trkpt>
      <trkpt lat="45.7715106010437" lon="10.27294635772705">
        <ele>680.3686559908625</ele>
        <time>2017-11-17T11:27:25.396000Z</time>
      </trkpt>
      <trkpt lat="45.77170372009277" lon="10.273096561431885">
        <ele>685.698418312797</ele>
        <time>2017-11-17T11:27:25.748000Z</time>
      </trkpt>
      <trkpt lat="45.77178955078125" lon="10.27369737625122">
        <ele>688.6384946330696</ele>
        <time>2017-11-17T11:27:26.434000Z</time>
      </trkpt>
      <trkpt lat="45.77176809310913" lon="10.273890495300293">
        <ele>689.7229031693092</ele>
        <time>2017-11-17T11:27:26.653000Z</time>
      </trkpt>
      <trkpt lat="45.7715106010437" lon="10.27444839477539">
        <ele>694.432585945383</ele>
        <time>2017-11-17T11:27:27.401000Z</time>
      </trkpt>
      <trkpt lat="45.77153205871582" lon="10.274555683135986">
        <ele>695.1466425758458</ele>
        <time>2017-11-17T11:27:27.526000Z</time>
      </trkpt>
      <trkpt lat="45.77159643173218" lon="10.274577140808105">
        <ele>695.7528237966995</ele>
        <time>2017-11-17T11:27:27.632000Z</time>
      </trkpt>
      <trkpt lat="45.77185392379761" lon="10.274126529693604">
        <ele>698.4795672485542</ele>
        <time>2017-11-17T11:27:28.283000Z</time>
      </trkpt>
      <trkpt lat="45.771939754486084" lon="10.274147987365723">
        <ele>699.2786896211629</ele>
        <time>2017-11-17T11:27:28.423000Z</time>
      </trkpt>
      <trkpt lat="45.771939754486084" lon="10.274276733398438">
        <ele>704.4356947175205</ele>
        <time>2017-11-17T11:27:28.567000Z</time>
      </trkpt>
      <trkpt lat="45.771682262420654" lon="10.275006294250488">
        <ele>713.0</ele>
        <time>2017-11-17T11:27:29.481000Z</time>
      </trkpt>
      <trkpt lat="45.771639347076416" lon="10.275177955627441">
        <ele>709.9641387101616</ele>
        <time>2017-11-17T11:27:29.685000Z</time>
      </trkpt>
      <trkpt lat="45.771682262420654" lon="10.275285243988037">
        <ele>713.4992259665486</ele>
        <time>2017-11-17T11:27:29.823000Z</time>
      </trkpt>
      <trkpt lat="45.77183246612549" lon="10.275413990020752">
        <ele>713.9085023528287</ele>
        <time>2017-11-17T11:27:30.104000Z</time>
      </trkpt>
      <trkpt lat="45.77226161956787" lon="10.275306701660156">
        <ele>714.9273074281213</ele>
        <time>2017-11-17T11:27:30.802000Z</time>
      </trkpt>
      <trkpt lat="45.772411823272705" lon="10.275349617004395">
        <ele>715.2854961873744</ele>
        <time>2017-11-17T11:27:31.048000Z</time>
      </trkpt>
      <trkpt lat="45.77284097671509" lon="10.27571439743042">
        <ele>724.0744525302721</ele>
        <time>2017-11-17T11:27:31.848000Z</time>
      </trkpt>
      <trkpt lat="45.77301263809204" lon="10.276100635528564">
        <ele>728.073613661018</ele>
        <time>2017-11-17T11:27:32.360000Z</time>
      </trkpt>
      <trkpt lat="45.773141384124756" lon="10.276079177856445">
        <ele>728.8847622420853</ele>
        <time>2017-11-17T11:27:32.568000Z</time>
      </trkpt>
      <trkpt lat="45.773141384124756" lon="10.275928974151611">
        <ele>729.5404199884729</ele>
        <time>2017-11-17T11:27:32.736000Z</time>
      </trkpt>
      <trkpt lat="45.772926807403564" lon="10.27545690536499">
        <ele>730.0</ele>
        <time>2017-11-17T11:27:33.366000Z</time>
      </trkpt>
      <trkpt lat="45.7729697227478" lon="10.27519941329956">
        <ele>731.7076845004062</ele>
        <time>2017-11-17T11:27:33.662000Z</time>
      </trkpt>
      <trkpt lat="45.77305555343628" lon="10.275092124938965">
        <ele>732.7607620483392</ele>
        <time>2017-11-17T11:27:33.845000Z</time>
      </trkpt>
      <trkpt lat="45.773184299468994" lon="10.275049209594727">
        <ele>733.9831417392579</ele>
        <time>2017-11-17T11:27:34.057000Z</time>
      </trkpt>
      <trkpt lat="45.773420417681336" lon="10.27522087097168">
        <ele>741.4314261857527</ele>
        <time>2017-11-17T11:27:34.481000Z</time>
      </trkpt>
      <trkpt lat="45.77359199523926" lon="10.27644395828247">
        <ele>751.812066211129</ele>
        <time>2017-11-17T11:27:35.876000Z</time>
      </trkpt>
      <trkpt lat="45.77354916371405" lon="10.277023315429688">
        <ele>756.25793253208</ele>
        <time>2017-11-17T11:27:36.527000Z</time>
      </trkpt>
      <trkpt lat="45.77352770604193" lon="10.277173519134521">
        <ele>756.6405523201925</ele>
        <time>2017-11-17T11:27:36.698000Z</time>
      </trkpt>
      <trkpt lat="45.773463333025575" lon="10.27747392654419">
        <ele>757.4248111917115</ele>
        <time>2017-11-17T11:27:37.049000Z</time>
      </trkpt>
      <trkpt lat="45.773377418518066" lon="10.277924537658691">
        <ele>765.4890724933706</ele>
        <time>2017-11-17T11:27:37.571000Z</time>
      </trkpt>
      <trkpt lat="45.7735276222229" lon="10.2787184715271">
        <ele>780.2330491057288</ele>
        <time>2017-11-17T11:27:38.491000Z</time>
      </trkpt>
      <trkpt lat="45.7735276222229" lon="10.278997421264648">
        <ele>782.859021762743</ele>
        <time>2017-11-17T11:27:38.803000Z</time>
      </trkpt>
      <trkpt lat="45.77346324920654" lon="10.279169082641602">
        <ele>789.0270861126005</ele>
        <time>2017-11-17T11:27:39.021000Z</time>
      </trkpt>
      <trkpt lat="45.773306082698795" lon="10.279266313450606">
        <ele>775.2029607787254</ele>
        <time>2017-11-17T11:27:39.295000Z</time>
      </trkpt>
      <trkpt lat="45.77330375889102" lon="10.279267751066104">
        <ele>775.1809184719632</ele>
        <time>2017-11-17T11:27:39.299000Z</time>
      </trkpt>
      <trkpt lat="45.773293348029256" lon="10.279274191707373">
        <ele>775.0821670140895</ele>
        <time>2017-11-17T11:27:39.317000Z</time>
      </trkpt>
      <trkpt lat="45.77329343184829" lon="10.279274107888341">
        <ele>775.081276984795</ele>
        <time>2017-11-17T11:27:39.317000Z</time>
      </trkpt>
      <trkpt lat="45.77301263809204" lon="10.27944803237915">
        <ele>772.417314570035</ele>
        <time>2017-11-17T11:27:39.807000Z</time>
      </trkpt>
      <trkpt lat="45.77281951904297" lon="10.27946949005127">
        <ele>770.5671019864614</ele>
        <time>2017-11-17T11:27:40.118000Z</time>
      </trkpt>
      <trkpt lat="45.77249773778021" lon="10.279383659362793">
        <ele>763.7740228047446</ele>
        <time>2017-11-17T11:27:40.643000Z</time>
      </trkpt>
      <trkpt lat="45.771939838305116" lon="10.279641151428223">
        <ele>758.1756056867083</ele>
        <time>2017-11-17T11:27:41.583000Z</time>
      </trkpt>
      <trkpt lat="45.771403312683105" lon="10.27994155883789">
        <ele>759.9567227134106</ele>
        <time>2017-11-17T11:27:42.506000Z</time>
      </trkpt>
      <trkpt lat="45.77133893966675" lon="10.280070304870605">
        <ele>766.1568892829893</ele>
        <time>2017-11-17T11:27:42.683000Z</time>
      </trkpt>
      <trkpt lat="45.77127456665039" lon="10.280349254608154">
        <ele>767.1464509163299</ele>
        <time>2017-11-17T11:27:43.012000Z</time>
      </trkpt>
      <trkpt lat="45.77133893966675" lon="10.280585289001465">
        <ele>768.0</ele>
        <time>2017-11-17T11:27:43.295000Z</time>
      </trkpt>
      <trkpt lat="45.77176809310913" lon="10.28144359588623">
        <ele>792.2278399751763</ele>
        <time>2017-11-17T11:27:44.476000Z</time>
      </trkpt>
      <trkpt lat="45.771918296813965" lon="10.281980037689209">
        <ele>800.921008433731</ele>
        <time>2017-11-17T11:27:45.122000Z</time>
      </trkpt>
      <trkpt lat="45.771896839141846" lon="10.282237529754639">
        <ele>801.1027860222451</ele>
        <time>2017-11-17T11:27:45.412000Z</time>
      </trkpt>
      <trkpt lat="45.77181100845337" lon="10.282344818115234">
        <ele>801.2172235741238</ele>
        <time>2017-11-17T11:27:45.595000Z</time>
      </trkpt>
      <trkpt lat="45.77103853225708" lon="10.282666683197021">
        <ele>797.69230856196</ele>
        <time>2017-11-17T11:27:46.885000Z</time>
      </trkpt>
      <trkpt lat="45.770909786224365" lon="10.282902717590332">
        <ele>797.4578032401035</ele>
        <time>2017-11-17T11:27:47.220000Z</time>
      </trkpt>
      <trkpt lat="45.770909786224365" lon="10.283117294311523">
        <ele>797.352173979251</ele>
        <time>2017-11-17T11:27:47.460000Z</time>
      </trkpt>
      <trkpt lat="45.770952785387635" lon="10.283567905426025">
        <ele>801.794953286485</ele>
        <time>2017-11-17T11:27:47.969000Z</time>
      </trkpt>
      <trkpt lat="45.77101707458496" lon="10.284297466278076">
        <ele>802.4329599258266</ele>
        <time>2017-11-17T11:27:48.791000Z</time>
      </trkpt>
      <trkpt lat="45.77082403935492" lon="10.284984111785889">
        <ele>792.0685299485463</ele>
        <time>2017-11-17T11:27:49.619000Z</time>
      </trkpt>
      <trkpt lat="45.77078104019165" lon="10.285177230834961">
        <ele>793.6123718698335</ele>
        <time>2017-11-17T11:27:49.846000Z</time>
      </trkpt>
      <trkpt lat="45.77080249786377" lon="10.28545618057251">
        <ele>794.3652567981854</ele>
        <time>2017-11-17T11:27:50.160000Z</time>
      </trkpt>
      <trkpt lat="45.77103853225708" lon="10.285520553588867">
        <ele>803.6226699881582</ele>
        <time>2017-11-17T11:27:50.545000Z</time>
      </trkpt>
      <trkpt lat="45.77157497406006" lon="10.286786556243896">
        <ele>794.4441947604532</ele>
        <time>2017-11-17T11:27:52.201000Z</time>
      </trkpt>
      <trkpt lat="45.771639347076416" lon="10.287258625030518">
        <ele>792.5891200279784</ele>
        <time>2017-11-17T11:27:52.739000Z</time>
      </trkpt>
      <trkpt lat="45.77157497406006" lon="10.28745174407959">
        <ele>791.7636483739697</ele>
        <time>2017-11-17T11:27:52.978000Z</time>
      </trkpt>
      <trkpt lat="45.77125310897827" lon="10.287880897521973">
        <ele>788.0</ele>
        <time>2017-11-17T11:27:53.683000Z</time>
      </trkpt>
      <trkpt lat="45.771188735961914" lon="10.288052558898926">
        <ele>788.219301712426</ele>
        <time>2017-11-17T11:27:53.901000Z</time>
      </trkpt>
      <trkpt lat="45.771145820617676" lon="10.288760662078857">
        <ele>794.3524104293459</ele>
        <time>2017-11-17T11:27:54.696000Z</time>
      </trkpt>
      <trkpt lat="45.77117831145467" lon="10.28910527118032">
        <ele>794.7436982835849</ele>
        <time>2017-11-17T11:27:55.085000Z</time>
      </trkpt>
      <trkpt lat="45.7711786504651" lon="10.289108866902625">
        <ele>794.7477810603606</ele>
        <time>2017-11-17T11:27:55.089000Z</time>
      </trkpt>
      <trkpt lat="45.77118010260165" lon="10.289124269038439">
        <ele>794.7652694741982</ele>
        <time>2017-11-17T11:27:55.106000Z</time>
      </trkpt>
      <trkpt lat="45.77118010260165" lon="10.289124017581344">
        <ele>794.7655524191473</ele>
        <time>2017-11-17T11:27:55.108000Z</time>
      </trkpt>
      <trkpt lat="45.77125310897827" lon="10.289897918701172">
        <ele>795.9776254078533</ele>
        <time>2017-11-17T11:27:55.981000Z</time>
      </trkpt>
      <trkpt lat="45.77148914337158" lon="10.291271209716797">
        <ele>771.0</ele>
        <time>2017-11-17T11:27:57.563000Z</time>
      </trkpt>
      <trkpt lat="45.7716178894043" lon="10.291657447814941">
        <ele>768.4475881028619</ele>
        <time>2017-11-17T11:27:58.042000Z</time>
      </trkpt>
      <trkpt lat="45.771896839141846" lon="10.291872024536133">
        <ele>769.4081866916907</ele>
        <time>2017-11-17T11:27:58.550000Z</time>
      </trkpt>
      <trkpt lat="45.771939754486084" lon="10.291979312896729">
        <ele>768.6707574374608</ele>
        <time>2017-11-17T11:27:58.688000Z</time>
      </trkpt>
      <trkpt lat="45.771918296813965" lon="10.292086601257324">
        <ele>768.0052734044011</ele>
        <time>2017-11-17T11:27:58.813000Z</time>
      </trkpt>
      <trkpt lat="45.77181100845337" lon="10.292150974273682">
        <ele>767.0110744304658</ele>
        <time>2017-11-17T11:27:58.999000Z</time>
      </trkpt>
      <trkpt lat="45.771167278289795" lon="10.29219388961792">
        <ele>752.5024045753407</ele>
        <time>2017-11-17T11:28:00.032000Z</time>
      </trkpt>
      <trkpt lat="45.770931243896484" lon="10.292301177978516">
        <ele>749.5955694628075</ele>
        <time>2017-11-17T11:28:00.429000Z</time>
      </trkpt>
      <trkpt lat="45.7705020904541" lon="10.29268741607666">
        <ele>737.313764047779</ele>
        <time>2017-11-17T11:28:01.241000Z</time>
      </trkpt>
      <trkpt lat="45.77037334442139" lon="10.292901992797852">
        <ele>735.7875044996226</ele>
        <time>2017-11-17T11:28:01.558000Z</time>
      </trkpt>
      <trkpt lat="45.77034903211324" lon="10.293066100979082">
        <ele>736.6601371739772</ele>
        <time>2017-11-17T11:28:01.746000Z</time>
      </trkpt>
      <trkpt lat="45.770348506302206" lon="10.293069650186615">
        <ele>736.679009817533</ele>
        <time>2017-11-17T11:28:01.750000Z</time>
      </trkpt>
      <trkpt lat="45.77034618705511" lon="10.293085305020213">
        <ele>736.7622532208312</ele>
        <time>2017-11-17T11:28:01.768000Z</time>
      </trkpt>
      <trkpt lat="45.77034627087414" lon="10.293084969744086">
        <ele>736.7641057500733</ele>
        <time>2017-11-17T11:28:01.768000Z</time>
      </trkpt>
      <trkpt lat="45.77028751373291" lon="10.293481349945068">
        <ele>744.8718822826236</ele>
        <time>2017-11-17T11:28:02.221000Z</time>
      </trkpt>
      <trkpt lat="45.77028751373291" lon="10.293653011322021">
        <ele>745.7647633480639</ele>
        <time>2017-11-17T11:28:02.413000Z</time>
      </trkpt>
      <trkpt lat="45.770480716601014" lon="10.294017791748047">
        <ele>748.1471056692253</ele>
        <time>2017-11-17T11:28:02.925000Z</time>
      </trkpt>
      <trkpt lat="45.77048063278198" lon="10.294017791748047">
        <ele>748.147730693012</ele>
        <time>2017-11-17T11:28:02.925000Z</time>
      </trkpt>
      <trkpt lat="45.7703519705683" lon="10.29421091079712">
        <ele>753.8701179080366</ele>
        <time>2017-11-17T11:28:03.224000Z</time>
      </trkpt>
      <trkpt lat="45.77035188674927" lon="10.29421091079712">
        <ele>753.8707429318232</ele>
        <time>2017-11-17T11:28:03.224000Z</time>
      </trkpt>
      <trkpt lat="45.770180225372314" lon="10.29421091079712">
        <ele>755.150791646816</ele>
        <time>2017-11-17T11:28:03.499000Z</time>
      </trkpt>
      <trkpt lat="45.76975107192993" lon="10.294017791748047">
        <ele>738.3200442283814</ele>
        <time>2017-11-17T11:28:04.220000Z</time>
      </trkpt>
      <trkpt lat="45.769386291503906" lon="10.293374061584473">
        <ele>731.6409752374742</ele>
        <time>2017-11-17T11:28:05.147000Z</time>
      </trkpt>
      <trkpt lat="45.76908588409424" lon="10.292665958404541">
        <ele>722.9666690617537</ele>
        <time>2017-11-17T11:28:06.074000Z</time>
      </trkpt>
      <trkpt lat="45.76904296875" lon="10.29242992401123">
        <ele>720.4346328881343</ele>
        <time>2017-11-17T11:28:06.347000Z</time>
      </trkpt>
      <trkpt lat="45.76902151107788" lon="10.291485786437988">
        <ele>713.4590477258431</ele>
        <time>2017-11-17T11:28:07.403000Z</time>
      </trkpt>
      <trkpt lat="45.76890862895892" lon="10.291294003155922">
        <ele>713.7630227417852</ele>
        <time>2017-11-17T11:28:07.684000Z</time>
      </trkpt>
      <trkpt lat="45.76890699679036" lon="10.29129123016098">
        <ele>713.7859992173147</ele>
        <time>2017-11-17T11:28:07.688000Z</time>
      </trkpt>
      <trkpt lat="45.768899554386735" lon="10.291278585791588">
        <ele>713.890767925793</ele>
        <time>2017-11-17T11:28:07.707000Z</time>
      </trkpt>
      <trkpt lat="45.76889963820577" lon="10.29127866961062">
        <ele>713.8916957002997</ele>
        <time>2017-11-17T11:28:07.707000Z</time>
      </trkpt>
      <trkpt lat="45.76880693435669" lon="10.291121006011963">
        <ele>715.1975037929795</ele>
        <time>2017-11-17T11:28:07.938000Z</time>
      </trkpt>
      <trkpt lat="45.76852798461914" lon="10.29092788696289">
        <ele>718.0097353443922</ele>
        <time>2017-11-17T11:28:08.435000Z</time>
      </trkpt>
      <trkpt lat="45.76835632324219" lon="10.290412902832031">
        <ele>717.9575145739783</ele>
        <time>2017-11-17T11:28:09.073000Z</time>
      </trkpt>
      <trkpt lat="45.76824903488159" lon="10.290219783782959">
        <ele>728.5209439898766</ele>
        <time>2017-11-17T11:28:09.349000Z</time>
      </trkpt>
      <trkpt lat="45.767455101013184" lon="10.289168357849121">
        <ele>743.0</ele>
        <time>2017-11-17T11:28:11.082000Z</time>
      </trkpt>
      <trkpt lat="45.76736927032471" lon="10.28895378112793">
        <ele>743.8720391449442</ele>
        <time>2017-11-17T11:28:11.359000Z</time>
      </trkpt>
      <trkpt lat="45.76730489730835" lon="10.288524627685547">
        <ele>744.8280580848977</ele>
        <time>2017-11-17T11:28:11.850000Z</time>
      </trkpt>
      <trkpt lat="45.76704740524292" lon="10.28818130493164">
        <ele>748.0368292264703</ele>
        <time>2017-11-17T11:28:12.414000Z</time>
      </trkpt>
      <trkpt lat="45.76709032058716" lon="10.287559032440186">
        <ele>750.3631706762471</ele>
        <time>2017-11-17T11:28:13.113000Z</time>
      </trkpt>
      <trkpt lat="45.76704740524292" lon="10.28743028640747">
        <ele>750.8940225557004</ele>
        <time>2017-11-17T11:28:13.273000Z</time>
      </trkpt>
      <trkpt lat="45.766940116882324" lon="10.287344455718994">
        <ele>751.5492839524803</ele>
        <time>2017-11-17T11:28:13.470000Z</time>
      </trkpt>
      <trkpt lat="45.76623201370239" lon="10.287280082702637">
        <ele>759.0</ele>
        <time>2017-11-17T11:28:14.607000Z</time>
      </trkpt>
      <trkpt lat="45.76586723327637" lon="10.287516117095947">
        <ele>761.981274054252</ele>
        <time>2017-11-17T11:28:15.249000Z</time>
      </trkpt>
      <trkpt lat="45.76552391052246" lon="10.287387371063232">
        <ele>761.8136046829806</ele>
        <time>2017-11-17T11:28:15.818000Z</time>
      </trkpt>
      <trkpt lat="45.765395164489746" lon="10.28743028640747">
        <ele>762.7421534919162</ele>
        <time>2017-11-17T11:28:16.030000Z</time>
      </trkpt>
      <trkpt lat="45.76512022311714" lon="10.288544418620399">
        <ele>777.2002125490466</ele>
        <time>2017-11-17T11:28:17.352000Z</time>
      </trkpt>
      <trkpt lat="45.76511937904776" lon="10.288547838919287">
        <ele>777.2179917204686</ele>
        <time>2017-11-17T11:28:17.356000Z</time>
      </trkpt>
      <trkpt lat="45.765116047114134" lon="10.288561340421438">
        <ele>777.2881743425233</ele>
        <time>2017-11-17T11:28:17.372000Z</time>
      </trkpt>
      <trkpt lat="45.765116130933166" lon="10.288561088964343">
        <ele>777.2895400660177</ele>
        <time>2017-11-17T11:28:17.373000Z</time>
      </trkpt>
      <trkpt lat="45.76498746871948" lon="10.289082527160645">
        <ele>777.0</ele>
        <time>2017-11-17T11:28:17.992000Z</time>
      </trkpt>
      <trkpt lat="45.76472997665405" lon="10.289468765258789">
        <ele>786.1991414831213</ele>
        <time>2017-11-17T11:28:18.589000Z</time>
      </trkpt>
      <trkpt lat="45.7641077041626" lon="10.289876461029053">
        <ele>786.4601622037908</ele>
        <time>2017-11-17T11:28:19.686000Z</time>
      </trkpt>
      <trkpt lat="45.763700008392334" lon="10.290477275848389">
        <ele>807.128296757874</ele>
        <time>2017-11-17T11:28:20.623000Z</time>
      </trkpt>
      <trkpt lat="45.76324939727783" lon="10.291593074798584">
        <ele>826.0</ele>
        <time>2017-11-17T11:28:22.065000Z</time>
      </trkpt>
      <trkpt lat="45.76324939727783" lon="10.291786193847656">
        <ele>835.0864858981889</ele>
        <time>2017-11-17T11:28:22.281000Z</time>
      </trkpt>
      <trkpt lat="45.76331377029419" lon="10.291764736175537">
        <ele>835.9465135193385</ele>
        <time>2017-11-17T11:28:22.387000Z</time>
      </trkpt>
      <trkpt lat="45.76348543167114" lon="10.291571617126465">
        <ele>837.7861267211259</ele>
        <time>2017-11-17T11:28:22.737000Z</time>
      </trkpt>
      <trkpt lat="45.76397895812988" lon="10.290884971618652">
        <ele>846.7359575817327</ele>
        <time>2017-11-17T11:28:23.840000Z</time>
      </trkpt>
      <trkpt lat="45.76408624649048" lon="10.290799140930176">
        <ele>838.3620266254926</ele>
        <time>2017-11-17T11:28:24.037000Z</time>
      </trkpt>
      <trkpt lat="45.76412916183472" lon="10.290884971618652">
        <ele>849.8701766466792</ele>
        <time>2017-11-17T11:28:24.155000Z</time>
      </trkpt>
      <trkpt lat="45.763893127441406" lon="10.291228294372559">
        <ele>855.2328092434809</ele>
        <time>2017-11-17T11:28:24.694000Z</time>
      </trkpt>
      <trkpt lat="45.76350688934326" lon="10.292129516601562">
        <ele>878.0</ele>
        <time>2017-11-17T11:28:25.877000Z</time>
      </trkpt>
      <trkpt lat="45.763142108917236" lon="10.292623043060303">
        <ele>872.1927297543248</ele>
        <time>2017-11-17T11:28:26.681000Z</time>
      </trkpt>
      <trkpt lat="45.7629919052124" lon="10.292730331420898">
        <ele>870.4728583624463</ele>
        <time>2017-11-17T11:28:26.950000Z</time>
      </trkpt>
      <trkpt lat="45.76286315917969" lon="10.29270887374878">
        <ele>869.1445339092687</ele>
        <time>2017-11-17T11:28:27.158000Z</time>
      </trkpt>
      <trkpt lat="45.76273441314697" lon="10.292601585388184">
        <ele>867.6183291490792</ele>
        <time>2017-11-17T11:28:27.397000Z</time>
      </trkpt>
      <trkpt lat="45.76251983642578" lon="10.292215347290039">
        <ele>854.7549222993961</ele>
        <time>2017-11-17T11:28:27.949000Z</time>
      </trkpt>
      <trkpt lat="45.76230525970459" lon="10.29146432876587">
        <ele>860.0596670592973</ele>
        <time>2017-11-17T11:28:28.857000Z</time>
      </trkpt>
      <trkpt lat="45.762176513671875" lon="10.290820598602295">
        <ele>861.1440789621201</ele>
        <time>2017-11-17T11:28:29.606000Z</time>
      </trkpt>
      <trkpt lat="45.76187610626221" lon="10.290327072143555">
        <ele>863.8348240130439</ele>
        <time>2017-11-17T11:28:30.339000Z</time>
      </trkpt>
      <trkpt lat="45.76176881790161" lon="10.28996229171753">
        <ele>865.0092105037243</ele>
        <time>2017-11-17T11:28:30.782000Z</time>
      </trkpt>
      <trkpt lat="45.7617055357852" lon="10.289883189050839">
        <ele>865.8729584789953</ele>
        <time>2017-11-17T11:28:30.917000Z</time>
      </trkpt>
      <trkpt lat="45.7617036283367" lon="10.28988080474339">
        <ele>865.8989935384811</ele>
        <time>2017-11-17T11:28:30.921000Z</time>
      </trkpt>
      <trkpt lat="45.761694721877575" lon="10.289869671687484">
        <ele>866.0205591695377</ele>
        <time>2017-11-17T11:28:30.940000Z</time>
      </trkpt>
      <trkpt lat="45.76159715652466" lon="10.289747714996338">
        <ele>873.0189122870446</ele>
        <time>2017-11-17T11:28:31.148000Z</time>
      </trkpt>
      <trkpt lat="45.76127529144287" lon="10.289511680603027">
        <ele>876.7381161827998</ele>
        <time>2017-11-17T11:28:31.728000Z</time>
      </trkpt>
      <trkpt lat="45.76073884963989" lon="10.289382934570312">
        <ele>888.0</ele>
        <time>2017-11-17T11:28:32.600000Z</time>
      </trkpt>
      <trkpt lat="45.76026678085327" lon="10.289361476898193">
        <ele>889.7383643878311</ele>
        <time>2017-11-17T11:28:33.357000Z</time>
      </trkpt>
      <trkpt lat="45.7599235419184" lon="10.28944730758667">
        <ele>892.0207667232522</ele>
        <time>2017-11-17T11:28:33.916000Z</time>
      </trkpt>
      <trkpt lat="45.75938701629639" lon="10.289533138275146">
        <ele>895.0513440519077</ele>
        <time>2017-11-17T11:28:34.781000Z</time>
      </trkpt>
      <trkpt lat="45.75910806655884" lon="10.289661884307861">
        <ele>891.6964563627959</ele>
        <time>2017-11-17T11:28:35.251000Z</time>
      </trkpt>
      <trkpt lat="45.75855016708374" lon="10.290133953094482">
        <ele>905.0</ele>
        <time>2017-11-17T11:28:36.290000Z</time>
      </trkpt>
      <trkpt lat="45.75848579406738" lon="10.290069580078125">
        <ele>904.1512841585067</ele>
        <time>2017-11-17T11:28:36.416000Z</time>
      </trkpt>
      <trkpt lat="45.758421421051025" lon="10.289468765258789">
        <ele>889.8989848080546</ele>
        <time>2017-11-17T11:28:37.096000Z</time>
      </trkpt>
      <trkpt lat="45.758163928985596" lon="10.289297103881836">
        <ele>885.1616762014081</ele>
        <time>2017-11-17T11:28:37.551000Z</time>
      </trkpt>
      <trkpt lat="45.75676926411688" lon="10.288825035095215">
        <ele>869.0</ele>
        <time>2017-11-17T11:28:39.848000Z</time>
      </trkpt>
      <trkpt lat="45.75676918029785" lon="10.288825035095215">
        <ele>869.00008579393</ele>
        <time>2017-11-17T11:28:39.848000Z</time>
      </trkpt>
      <trkpt lat="45.756736041906464" lon="10.288812674413167">
        <ele>869.0351347937582</ele>
        <time>2017-11-17T11:28:39.903000Z</time>
      </trkpt>
      <trkpt lat="45.756733592635385" lon="10.288811760831047">
        <ele>869.0406684557303</ele>
        <time>2017-11-17T11:28:39.907000Z</time>
      </trkpt>
      <trkpt lat="45.756721990182996" lon="10.288807433098555">
        <ele>869.0668819891353</ele>
        <time>2017-11-17T11:28:39.926000Z</time>
      </trkpt>
      <trkpt lat="45.75672207400203" lon="10.288807433098555">
        <ele>869.0670652577697</ele>
        <time>2017-11-17T11:28:39.926000Z</time>
      </trkpt>
      <trkpt lat="45.75659760273993" lon="10.288760662078857">
        <ele>872.3484166891423</ele>
        <time>2017-11-17T11:28:40.132000Z</time>
      </trkpt>
      <trkpt lat="45.75659760273993" lon="10.288825035095215">
        <ele>872.446619303525</ele>
        <time>2017-11-17T11:28:40.204000Z</time>
      </trkpt>
      <trkpt lat="45.75651168823242" lon="10.289254188537598">
        <ele>871.4610549341061</ele>
        <time>2017-11-17T11:28:40.703000Z</time>
      </trkpt>
      <trkpt lat="45.75634002685547" lon="10.289533138275146">
        <ele>872.0284751184222</ele>
        <time>2017-11-17T11:28:41.119000Z</time>
      </trkpt>
      <trkpt lat="45.75576066970825" lon="10.290026664733887">
        <ele>873.8354134873771</ele>
        <time>2017-11-17T11:28:42.199000Z</time>
      </trkpt>
      <trkpt lat="45.755653381347656" lon="10.29019832611084">
        <ele>875.4946556630957</ele>
        <time>2017-11-17T11:28:42.457000Z</time>
      </trkpt>
      <trkpt lat="45.755417346954346" lon="10.29094934463501">
        <ele>888.7466201335483</ele>
        <time>2017-11-17T11:28:43.378000Z</time>
      </trkpt>
      <trkpt lat="45.755181312561035" lon="10.292000770568848">
        <ele>901.7890925217786</ele>
        <time>2017-11-17T11:28:44.613000Z</time>
      </trkpt>
      <trkpt lat="45.75511693954468" lon="10.292215347290039">
        <ele>900.6158044896906</ele>
        <time>2017-11-17T11:28:44.874000Z</time>
      </trkpt>
      <trkpt lat="45.75503119267523" lon="10.292279720306396">
        <ele>899.9189088369667</ele>
        <time>2017-11-17T11:28:45.029000Z</time>
      </trkpt>
      <trkpt lat="45.7550311088562" lon="10.292279720306396">
        <ele>899.9183053836568</ele>
        <time>2017-11-17T11:28:45.029000Z</time>
      </trkpt>
      <trkpt lat="45.754687786102295" lon="10.292258262634277">
        <ele>883.1108781776993</ele>
        <time>2017-11-17T11:28:45.580000Z</time>
      </trkpt>
      <trkpt lat="45.75451612472534" lon="10.292322635650635">
        <ele>881.833401643337</ele>
        <time>2017-11-17T11:28:45.864000Z</time>
      </trkpt>
      <trkpt lat="45.753936767578125" lon="10.29270887374878">
        <ele>882.869698796935</ele>
        <time>2017-11-17T11:28:46.888000Z</time>
      </trkpt>
      <trkpt lat="45.75378656387329" lon="10.292751789093018">
        <ele>882.7533884399672</ele>
        <time>2017-11-17T11:28:47.134000Z</time>
      </trkpt>
      <trkpt lat="45.753185749053955" lon="10.292665958404541">
        <ele>880.2948642885261</ele>
        <time>2017-11-17T11:28:48.102000Z</time>
      </trkpt>
      <trkpt lat="45.75275659561157" lon="10.293052196502686">
        <ele>882.1282637986379</ele>
        <time>2017-11-17T11:28:48.914000Z</time>
      </trkpt>
      <trkpt lat="45.752220153808594" lon="10.293352603912354">
        <ele>886.5452937029094</ele>
        <time>2017-11-17T11:28:49.837000Z</time>
      </trkpt>
      <trkpt lat="45.75220713783431" lon="10.293365619890077">
        <ele>886.5196844149033</ele>
        <time>2017-11-17T11:28:49.862000Z</time>
      </trkpt>
      <trkpt lat="45.75220506229904" lon="10.293367695425204">
        <ele>886.5156007424711</ele>
        <time>2017-11-17T11:28:49.866000Z</time>
      </trkpt>
      <trkpt lat="45.75219517573714" lon="10.293377581983805">
        <ele>886.4961486619928</ele>
        <time>2017-11-17T11:28:49.885000Z</time>
      </trkpt>
      <trkpt lat="45.752195343375206" lon="10.293377414345741">
        <ele>886.4958188294901</ele>
        <time>2017-11-17T11:28:49.885000Z</time>
      </trkpt>
      <trkpt lat="45.7520055770874" lon="10.293567180633545">
        <ele>886.1224475737059</ele>
        <time>2017-11-17T11:28:50.256000Z</time>
      </trkpt>
      <trkpt lat="45.75176954269409" lon="10.294060707092285">
        <ele>882.9986735916078</ele>
        <time>2017-11-17T11:28:50.925000Z</time>
      </trkpt>
      <trkpt lat="45.751683712005615" lon="10.294082164764404">
        <ele>882.3467726833625</ele>
        <time>2017-11-17T11:28:51.065000Z</time>
      </trkpt>
      <trkpt lat="45.751490676775575" lon="10.293889045715332">
        <ele>874.9186702416127</ele>
        <time>2017-11-17T11:28:51.442000Z</time>
      </trkpt>
      <trkpt lat="45.75136184692383" lon="10.293824672698975">
        <ele>873.8978290748029</ele>
        <time>2017-11-17T11:28:51.661000Z</time>
      </trkpt>
      <trkpt lat="45.75086832046509" lon="10.293781757354736">
        <ele>870.1983707723542</ele>
        <time>2017-11-17T11:28:52.454000Z</time>
      </trkpt>
      <trkpt lat="45.75033187866211" lon="10.293567180633545">
        <ele>867.9714770189526</ele>
        <time>2017-11-17T11:28:53.347000Z</time>
      </trkpt>
      <trkpt lat="45.75007438659668" lon="10.293610095977783">
        <ele>869.9926026927037</ele>
        <time>2017-11-17T11:28:53.763000Z</time>
      </trkpt>
      <trkpt lat="45.749924182891846" lon="10.293803215026855">
        <ele>871.2325963769216</ele>
        <time>2017-11-17T11:28:54.087000Z</time>
      </trkpt>
      <trkpt lat="45.74985980987549" lon="10.29416799545288">
        <ele>878.2796623814006</ele>
        <time>2017-11-17T11:28:54.508000Z</time>
      </trkpt>
      <trkpt lat="45.74985989369452" lon="10.294618606567383">
        <ele>880.0984837163036</ele>
        <time>2017-11-17T11:28:55.012000Z</time>
      </trkpt>
      <trkpt lat="45.749945640563965" lon="10.295605659484863">
        <ele>884.4466519441979</ele>
        <time>2017-11-17T11:28:56.125000Z</time>
      </trkpt>
      <trkpt lat="45.75037479400635" lon="10.296528339385986">
        <ele>899.1473707306304</ele>
        <time>2017-11-17T11:28:57.365000Z</time>
      </trkpt>
      <trkpt lat="45.75078248977661" lon="10.29695749282837">
        <ele>896.8131589546143</ele>
        <time>2017-11-17T11:28:58.176000Z</time>
      </trkpt>
      <trkpt lat="45.751941204071045" lon="10.297515392303467">
        <ele>924.6195041713833</ele>
        <time>2017-11-17T11:29:00.136000Z</time>
      </trkpt>
      <trkpt lat="45.75226306915283" lon="10.29792308807373">
        <ele>924.6607772461199</ele>
        <time>2017-11-17T11:29:00.825000Z</time>
      </trkpt>
      <trkpt lat="45.75228452682495" lon="10.298137664794922">
        <ele>922.0286641497574</ele>
        <time>2017-11-17T11:29:01.067000Z</time>
      </trkpt>
      <trkpt lat="45.752220153808594" lon="10.298223495483398">
        <ele>920.4986081702792</ele>
        <time>2017-11-17T11:29:01.208000Z</time>
      </trkpt>
      <trkpt lat="45.75179100036621" lon="10.298223495483398">
        <ele>913.0304686078352</ele>
        <time>2017-11-17T11:29:01.896000Z</time>
      </trkpt>
      <trkpt lat="45.75080394744873" lon="10.299017429351807">
        <ele>876.0</ele>
        <time>2017-11-17T11:29:03.711000Z</time>
      </trkpt>
      <trkpt lat="45.75039625167847" lon="10.29916763305664">
        <ele>904.8818223821783</ele>
        <time>2017-11-17T11:29:04.386000Z</time>
      </trkpt>
      <trkpt lat="45.749709606170654" lon="10.299317836761475">
        <ele>910.8047649793047</ele>
        <time>2017-11-17T11:29:05.500000Z</time>
      </trkpt>
      <trkpt lat="45.74949502944946" lon="10.299510955810547">
        <ele>914.5461536751158</ele>
        <time>2017-11-17T11:29:05.906000Z</time>
      </trkpt>
      <trkpt lat="45.749430656433105" lon="10.299746990203857">
        <ele>917.1572874674225</ele>
        <time>2017-11-17T11:29:06.189000Z</time>
      </trkpt>
      <trkpt lat="45.74932336807251" lon="10.300326347351074">
        <ele>935.0</ele>
        <time>2017-11-17T11:29:06.860000Z</time>
      </trkpt>
      <trkpt lat="45.74910879135132" lon="10.300712585449219">
        <ele>926.4899887728922</ele>
        <time>2017-11-17T11:29:07.412000Z</time>
      </trkpt>
      <trkpt lat="45.74887275695801" lon="10.301249027252197">
        <ele>933.9757758840748</ele>
        <time>2017-11-17T11:29:08.121000Z</time>
      </trkpt>
      <trkpt lat="45.74882984161377" lon="10.301485061645508">
        <ele>934.5472321658432</ele>
        <time>2017-11-17T11:29:08.394000Z</time>
      </trkpt>
      <trkpt lat="45.74885129928589" lon="10.301849842071533">
        <ele>944.4055699183141</ele>
        <time>2017-11-17T11:29:08.804000Z</time>
      </trkpt>
      <trkpt lat="45.748947197895134" lon="10.302712928886345">
        <ele>956.5958544705599</ele>
        <time>2017-11-17T11:29:09.782000Z</time>
      </trkpt>
      <trkpt lat="45.7489475958551" lon="10.302716510651358">
        <ele>956.650593410834</ele>
        <time>2017-11-17T11:29:09.786000Z</time>
      </trkpt>
      <trkpt lat="45.748949283733964" lon="10.30273170210421">
        <ele>956.8827593925043</ele>
        <time>2017-11-17T11:29:09.803000Z</time>
      </trkpt>
      <trkpt lat="45.74894919991493" lon="10.302731450647116">
        <ele>956.8869652918762</ele>
        <time>2017-11-17T11:29:09.803000Z</time>
      </trkpt>
      <trkpt lat="45.748958587646484" lon="10.302815437316895">
        <ele>958.1706974970183</ele>
        <time>2017-11-17T11:29:09.898000Z</time>
      </trkpt>
      <trkpt lat="45.74923753738403" lon="10.30343770980835">
        <ele>987.0</ele>
        <time>2017-11-17T11:29:10.725000Z</time>
      </trkpt>
      <trkpt lat="45.749666690826416" lon="10.304038524627686">
        <ele>984.3498687779639</ele>
        <time>2017-11-17T11:29:11.687000Z</time>
      </trkpt>
      <trkpt lat="45.749688148498535" lon="10.304253101348877">
        <ele>982.0150470898598</ele>
        <time>2017-11-17T11:29:11.929000Z</time>
      </trkpt>
      <trkpt lat="45.749452114105225" lon="10.30444622039795">
        <ele>980.8144637659628</ele>
        <time>2017-11-17T11:29:12.365000Z</time>
      </trkpt>
      <trkpt lat="45.7490873336792" lon="10.304467678070068">
        <ele>965.2109331517448</ele>
        <time>2017-11-17T11:29:12.950000Z</time>
      </trkpt>
      <trkpt lat="45.747671127319336" lon="10.305089950561523">
        <ele>963.0</ele>
        <time>2017-11-17T11:29:15.325000Z</time>
      </trkpt>
      <trkpt lat="45.74726343154907" lon="10.306527614593506">
        <ele>949.0</ele>
        <time>2017-11-17T11:29:17.061000Z</time>
      </trkpt>
      <trkpt lat="45.747199058532715" lon="10.30693531036377">
        <ele>954.3002244487637</ele>
        <time>2017-11-17T11:29:17.529000Z</time>
      </trkpt>
      <trkpt lat="45.747199058532715" lon="10.307600498199463">
        <ele>956.1722213663758</ele>
        <time>2017-11-17T11:29:18.273000Z</time>
      </trkpt>
      <trkpt lat="45.7469315798152" lon="10.308292786654665">
        <ele>958.002640115159</ele>
        <time>2017-11-17T11:29:19.158000Z</time>
      </trkpt>
      <trkpt lat="45.74693035389048" lon="10.308295959553014">
        <ele>957.9918435530011</ele>
        <time>2017-11-17T11:29:19.162000Z</time>
      </trkpt>
      <trkpt lat="45.746924886479974" lon="10.308310110121965">
        <ele>957.9436927762631</ele>
        <time>2017-11-17T11:29:19.180000Z</time>
      </trkpt>
      <trkpt lat="45.746924970299006" lon="10.308309942483902">
        <ele>957.9430788564817</ele>
        <time>2017-11-17T11:29:19.180000Z</time>
      </trkpt>
      <trkpt lat="45.74683427810669" lon="10.308544635772705">
        <ele>958.8111166172765</ele>
        <time>2017-11-17T11:29:19.480000Z</time>
      </trkpt>
      <trkpt lat="45.746684074401855" lon="10.309252738952637">
        <ele>958.9412521134168</ele>
        <time>2017-11-17T11:29:20.308000Z</time>
      </trkpt>
      <trkpt lat="45.746169090270996" lon="10.309724807739258">
        <ele>947.0</ele>
        <time>2017-11-17T11:29:21.288000Z</time>
      </trkpt>
      <trkpt lat="45.74584722518921" lon="10.310347080230713">
        <ele>948.4017770845659</ele>
        <time>2017-11-17T11:29:22.155000Z</time>
      </trkpt>
      <trkpt lat="45.74580430984497" lon="10.31043291091919">
        <ele>952.3049715673229</ele>
        <time>2017-11-17T11:29:22.273000Z</time>
      </trkpt>
      <trkpt lat="45.74582576751709" lon="10.310518741607666">
        <ele>952.5092067899528</ele>
        <time>2017-11-17T11:29:22.375000Z</time>
      </trkpt>
      <trkpt lat="45.745933055877686" lon="10.310475826263428">
        <ele>949.2001056840721</ele>
        <time>2017-11-17T11:29:22.554000Z</time>
      </trkpt>
      <trkpt lat="45.74610471725464" lon="10.310132503509521">
        <ele>950.2706962698604</ele>
        <time>2017-11-17T11:29:23.027000Z</time>
      </trkpt>
      <trkpt lat="45.74627637863159" lon="10.310068130493164">
        <ele>950.9152351796415</ele>
        <time>2017-11-17T11:29:23.311000Z</time>
      </trkpt>
      <trkpt lat="45.746469497680664" lon="10.310132503509521">
        <ele>951.6354479653246</ele>
        <time>2017-11-17T11:29:23.629000Z</time>
      </trkpt>
      <trkpt lat="45.74685581959784" lon="10.310711860656738">
        <ele>961.3333333333334</ele>
        <time>2017-11-17T11:29:24.525000Z</time>
      </trkpt>
      <trkpt lat="45.74685573577881" lon="10.310711860656738">
        <ele>961.3328523258124</ele>
        <time>2017-11-17T11:29:24.525000Z</time>
      </trkpt>
      <trkpt lat="45.747199058532715" lon="10.311291217803955">
        <ele>950.6224260440305</ele>
        <time>2017-11-17T11:29:25.375000Z</time>
      </trkpt>
      <trkpt lat="45.747671127319336" lon="10.311312675476074">
        <ele>957.5036542812508</ele>
        <time>2017-11-17T11:29:26.132000Z</time>
      </trkpt>
      <trkpt lat="45.74777841567993" lon="10.31141996383667">
        <ele>956.3627612884989</ele>
        <time>2017-11-17T11:29:26.342000Z</time>
      </trkpt>
      <trkpt lat="45.74777841567993" lon="10.311527252197266">
        <ele>955.7098728153193</ele>
        <time>2017-11-17T11:29:26.462000Z</time>
      </trkpt>
      <trkpt lat="45.74713468551636" lon="10.312621593475342">
        <ele>931.0</ele>
        <time>2017-11-17T11:29:28.063000Z</time>
      </trkpt>
      <trkpt lat="45.74702739715576" lon="10.313136577606201">
        <ele>929.6022900128341</ele>
        <time>2017-11-17T11:29:28.664000Z</time>
      </trkpt>
      <trkpt lat="45.746705532073975" lon="10.313823223114014">
        <ele>931.7291985801822</ele>
        <time>2017-11-17T11:29:29.589000Z</time>
      </trkpt>
      <trkpt lat="45.74649095535278" lon="10.314981937408447">
        <ele>911.0</ele>
        <time>2017-11-17T11:29:30.930000Z</time>
      </trkpt>
      <trkpt lat="45.74639511700583" lon="10.315284124109771">
        <ele>914.4350003915218</ele>
        <time>2017-11-17T11:29:31.301000Z</time>
      </trkpt>
      <trkpt lat="45.74639406986883" lon="10.31528742580491">
        <ele>914.4397532153525</ele>
        <time>2017-11-17T11:29:31.305000Z</time>
      </trkpt>
      <trkpt lat="45.74638911522925" lon="10.315303048118949">
        <ele>914.4622416989044</ele>
        <time>2017-11-17T11:29:31.324000Z</time>
      </trkpt>
      <trkpt lat="45.74638919904828" lon="10.315302796661854">
        <ele>914.4626069019877</ele>
        <time>2017-11-17T11:29:31.324000Z</time>
      </trkpt>
      <trkpt lat="45.746212005615234" lon="10.315861701965332">
        <ele>917.9337758087872</ele>
        <time>2017-11-17T11:29:32.011000Z</time>
      </trkpt>
      <trkpt lat="45.74589014053345" lon="10.317106246948242">
        <ele>921.0065009596137</ele>
        <time>2017-11-17T11:29:33.496000Z</time>
      </trkpt>
      <trkpt lat="45.74576139450073" lon="10.319015979766846">
        <ele>889.0</ele>
        <time>2017-11-17T11:29:35.642000Z</time>
      </trkpt>
      <trkpt lat="45.74556835927069" lon="10.32017469406128">
        <ele>896.4415799352587</ele>
        <time>2017-11-17T11:29:36.975000Z</time>
      </trkpt>
      <trkpt lat="45.74558981694281" lon="10.321462154388428">
        <ele>906.8448108610465</ele>
        <time>2017-11-17T11:29:38.416000Z</time>
      </trkpt>
      <trkpt lat="45.745911598205566" lon="10.322341918945312">
        <ele>927.1056830993757</ele>
        <time>2017-11-17T11:29:39.527000Z</time>
      </trkpt>
      <trkpt lat="45.745954513549805" lon="10.322556495666504">
        <ele>920.1139027829319</ele>
        <time>2017-11-17T11:29:39.777000Z</time>
      </trkpt>
      <trkpt lat="45.74586868286133" lon="10.3236722946167">
        <ele>902.0874920949763</ele>
        <time>2017-11-17T11:29:41.033000Z</time>
      </trkpt>
      <trkpt lat="45.74612617492676" lon="10.324187278747559">
        <ele>887.4251754203278</ele>
        <time>2017-11-17T11:29:41.742000Z</time>
      </trkpt>
      <trkpt lat="45.74638366699219" lon="10.324337482452393">
        <ele>888.7433836227343</ele>
        <time>2017-11-17T11:29:42.188000Z</time>
      </trkpt>
      <trkpt lat="45.74728488922119" lon="10.324294567108154">
        <ele>897.3523168386387</ele>
        <time>2017-11-17T11:29:43.634000Z</time>
      </trkpt>
      <trkpt lat="45.748576984204206" lon="10.324900593787275">
        <ele>947.0</ele>
        <time>2017-11-17T11:29:45.814000Z</time>
      </trkpt>
      <trkpt lat="45.748579389462456" lon="10.324901721944473">
        <ele>946.9346006383006</ele>
        <time>2017-11-17T11:29:45.818000Z</time>
      </trkpt>
      <trkpt lat="45.74859196320176" lon="10.32490761950612">
        <ele>946.5927186259045</ele>
        <time>2017-11-17T11:29:45.839000Z</time>
      </trkpt>
      <trkpt lat="45.7485917955637" lon="10.32490761950612">
        <ele>946.5883866479143</ele>
        <time>2017-11-17T11:29:45.839000Z</time>
      </trkpt>
      <trkpt lat="45.74902296066284" lon="10.325109958648682">
        <ele>918.1976832050527</ele>
        <time>2017-11-17T11:29:46.566000Z</time>
      </trkpt>
      <trkpt lat="45.74951648712158" lon="10.326054096221924">
        <ele>895.2592372112395</ele>
        <time>2017-11-17T11:29:47.886000Z</time>
      </trkpt>
      <trkpt lat="45.74975252151489" lon="10.326268672943115">
        <ele>890.9558083536177</ele>
        <time>2017-11-17T11:29:48.334000Z</time>
      </trkpt>
      <trkpt lat="45.75001001358032" lon="10.326375961303711">
        <ele>886.6589570193937</ele>
        <time>2017-11-17T11:29:48.764000Z</time>
      </trkpt>
      <trkpt lat="45.75035333633423" lon="10.326333045959473">
        <ele>885.4206653771968</ele>
        <time>2017-11-17T11:29:49.316000Z</time>
      </trkpt>
      <trkpt lat="45.751447677612305" lon="10.325260162353516">
        <ele>890.2762969914285</ele>
        <time>2017-11-17T11:29:51.442000Z</time>
      </trkpt>
      <trkpt lat="45.75183391571045" lon="10.325109958648682">
        <ele>894.2739213480764</ele>
        <time>2017-11-17T11:29:52.084000Z</time>
      </trkpt>
      <trkpt lat="45.75224161148071" lon="10.324680805206299">
        <ele>902.9514639444834</ele>
        <time>2017-11-17T11:29:52.895000Z</time>
      </trkpt>
      <trkpt lat="45.75230598449707" lon="10.324702262878418">
        <ele>903.4319490253807</ele>
        <time>2017-11-17T11:29:53.001000Z</time>
      </trkpt>
      <trkpt lat="45.75239181518555" lon="10.324938297271729">
        <ele>903.3038622197633</ele>
        <time>2017-11-17T11:29:53.299000Z</time>
      </trkpt>
      <trkpt lat="45.752434730529785" lon="10.325582027435303">
        <ele>897.9926680254102</ele>
        <time>2017-11-17T11:29:54.022000Z</time>
      </trkpt>
      <trkpt lat="45.75185537338257" lon="10.327470302581787">
        <ele>899.0</ele>
        <time>2017-11-17T11:29:56.329000Z</time>
      </trkpt>
      <trkpt lat="45.7515549659729" lon="10.328586101531982">
        <ele>885.0042144573353</ele>
        <time>2017-11-17T11:29:57.667000Z</time>
      </trkpt>
      <trkpt lat="45.75149059295654" lon="10.329251289367676">
        <ele>890.806262690498</ele>
        <time>2017-11-17T11:29:58.418000Z</time>
      </trkpt>
      <trkpt lat="45.75157642364502" lon="10.329766273498535">
        <ele>893.8038880674707</ele>
        <time>2017-11-17T11:29:59.010000Z</time>
      </trkpt>
      <trkpt lat="45.751705169677734" lon="10.330002307891846">
        <ele>906.0506474641471</ele>
        <time>2017-11-17T11:29:59.345000Z</time>
      </trkpt>
      <trkpt lat="45.75232744216919" lon="10.330667495727539">
        <ele>910.9323293648782</ele>
        <time>2017-11-17T11:30:00.590000Z</time>
      </trkpt>
      <trkpt lat="45.75277805328369" lon="10.332469940185547">
        <ele>922.0</ele>
        <time>2017-11-17T11:30:02.732000Z</time>
      </trkpt>
      <trkpt lat="45.75273513793945" lon="10.332856178283691">
        <ele>907.471045461249</ele>
        <time>2017-11-17T11:30:03.169000Z</time>
      </trkpt>
      <trkpt lat="45.75260639190674" lon="10.33289909362793">
        <ele>904.578719439079</ele>
        <time>2017-11-17T11:30:03.381000Z</time>
      </trkpt>
      <trkpt lat="45.75224161148071" lon="10.33266305923462">
        <ele>885.1543480963546</ele>
        <time>2017-11-17T11:30:04.023000Z</time>
      </trkpt>
      <trkpt lat="45.751962661743164" lon="10.3326416015625">
        <ele>879.0417772748698</ele>
        <time>2017-11-17T11:30:04.471000Z</time>
      </trkpt>
      <trkpt lat="45.75125455856323" lon="10.33315658569336">
        <ele>856.0</ele>
        <time>2017-11-17T11:30:05.744000Z</time>
      </trkpt>
      <trkpt lat="45.750718116760254" lon="10.333199501037598">
        <ele>856.2683746026769</ele>
        <time>2017-11-17T11:30:06.605000Z</time>
      </trkpt>
      <trkpt lat="45.75011730194092" lon="10.333414077758789">
        <ele>876.5716607133483</ele>
        <time>2017-11-17T11:30:07.598000Z</time>
      </trkpt>
      <trkpt lat="45.749666690826416" lon="10.333263874053955">
        <ele>858.4477604944695</ele>
        <time>2017-11-17T11:30:08.340000Z</time>
      </trkpt>
      <trkpt lat="45.74930191040039" lon="10.333220958709717">
        <ele>854.921517364572</ele>
        <time>2017-11-17T11:30:08.927000Z</time>
      </trkpt>
      <trkpt lat="45.74878692626953" lon="10.332963466644287">
        <ele>851.0</ele>
        <time>2017-11-17T11:30:09.801000Z</time>
      </trkpt>
      <trkpt lat="45.748679637908936" lon="10.332963466644287">
        <ele>853.1555392131545</ele>
        <time>2017-11-17T11:30:09.973000Z</time>
      </trkpt>
      <trkpt lat="45.747671127319336" lon="10.333564281463623">
        <ele>888.7653946284059</ele>
        <time>2017-11-17T11:30:11.724000Z</time>
      </trkpt>
      <trkpt lat="45.74739217758179" lon="10.33390760421753">
        <ele>886.1246706676192</ele>
        <time>2017-11-17T11:30:12.313000Z</time>
      </trkpt>
      <trkpt lat="45.74737071990967" lon="10.334186553955078">
        <ele>895.5804346040098</ele>
        <time>2017-11-17T11:30:12.627000Z</time>
      </trkpt>
      <trkpt lat="45.74732780456543" lon="10.334250926971436">
        <ele>895.724315460121</ele>
        <time>2017-11-17T11:30:12.727000Z</time>
      </trkpt>
      <trkpt lat="45.74709177017212" lon="10.334315299987793">
        <ele>896.280772674709</ele>
        <time>2017-11-17T11:30:13.112000Z</time>
      </trkpt>
      <trkpt lat="45.746662616729736" lon="10.335023403167725">
        <ele>896.7965190420952</ele>
        <time>2017-11-17T11:30:14.161000Z</time>
      </trkpt>
      <trkpt lat="45.746426582336426" lon="10.335538387298584">
        <ele>899.8542481410763</ele>
        <time>2017-11-17T11:30:14.850000Z</time>
      </trkpt>
      <trkpt lat="45.74623346328735" lon="10.33613920211792">
        <ele>907.8037495844441</ele>
        <time>2017-11-17T11:30:15.590000Z</time>
      </trkpt>
      <trkpt lat="45.74623346328735" lon="10.336289405822754">
        <ele>908.0850117332939</ele>
        <time>2017-11-17T11:30:15.758000Z</time>
      </trkpt>
      <trkpt lat="45.74631929397583" lon="10.33639669418335">
        <ele>908.3906348543223</ele>
        <time>2017-11-17T11:30:15.941000Z</time>
      </trkpt>
      <trkpt lat="45.74687719345093" lon="10.336697101593018">
        <ele>911.3232016663405</ele>
        <time>2017-11-17T11:30:16.896000Z</time>
      </trkpt>
      <trkpt lat="45.74689865112305" lon="10.336847305297852">
        <ele>911.6815865589894</ele>
        <time>2017-11-17T11:30:17.068000Z</time>
      </trkpt>
      <trkpt lat="45.746469497680664" lon="10.33837080001831">
        <ele>915.855326306802</ele>
        <time>2017-11-17T11:30:18.906000Z</time>
      </trkpt>
      <trkpt lat="45.74634443346682" lon="10.33918388160011">
        <ele>926.0</ele>
        <time>2017-11-17T11:30:19.837000Z</time>
      </trkpt>
      <trkpt lat="45.74634388868956" lon="10.339187423277513">
        <ele>925.9999705950564</ele>
        <time>2017-11-17T11:30:19.841000Z</time>
      </trkpt>
      <trkpt lat="45.7463414222002" lon="10.339203458279371">
        <ele>925.9998374636889</ele>
        <time>2017-11-17T11:30:19.859000Z</time>
      </trkpt>
      <trkpt lat="45.7463414222002" lon="10.339203290641308">
        <ele>925.9998361044933</ele>
        <time>2017-11-17T11:30:19.859000Z</time>
      </trkpt>
      <trkpt lat="45.74629783630371" lon="10.339486598968506">
        <ele>925.9974839026651</ele>
        <time>2017-11-17T11:30:20.184000Z</time>
      </trkpt>
      <trkpt lat="45.746448040008545" lon="10.3401517868042">
        <ele>929.6584819678793</ele>
        <time>2017-11-17T11:30:20.966000Z</time>
      </trkpt>
      <trkpt lat="45.74655532836914" lon="10.3416109085083">
        <ele>927.6465879604278</ele>
        <time>2017-11-17T11:30:22.607000Z</time>
      </trkpt>
      <trkpt lat="45.74649095535278" lon="10.342061519622803">
        <ele>921.7229076389516</ele>
        <time>2017-11-17T11:30:23.122000Z</time>
      </trkpt>
      <trkpt lat="45.74649095535278" lon="10.342469215393066">
        <ele>919.135961082236</ele>
        <time>2017-11-17T11:30:23.578000Z</time>
      </trkpt>
      <trkpt lat="45.7466197013855" lon="10.343263149261475">
        <ele>913.0267391560287</ele>
        <time>2017-11-17T11:30:24.490000Z</time>
      </trkpt>
      <trkpt lat="45.7466197013855" lon="10.343842506408691">
        <ele>905.8690127004662</ele>
        <time>2017-11-17T11:30:25.138000Z</time>
      </trkpt>
      <trkpt lat="45.74649095535278" lon="10.344314575195312">
        <ele>902.4398634139669</ele>
        <time>2017-11-17T11:30:25.705000Z</time>
      </trkpt>
      <trkpt lat="45.74638366699219" lon="10.344443321228027">
        <ele>901.0208842100992</ele>
        <time>2017-11-17T11:30:25.929000Z</time>
      </trkpt>
      <trkpt lat="45.7460618019104" lon="10.344314575195312">
        <ele>897.6323909552099</ele>
        <time>2017-11-17T11:30:26.465000Z</time>
      </trkpt>
      <trkpt lat="45.74582576751709" lon="10.344336032867432">
        <ele>890.9534338978136</ele>
        <time>2017-11-17T11:30:26.844000Z</time>
      </trkpt>
      <trkpt lat="45.74563264846802" lon="10.344164371490479">
        <ele>882.032909821879</ele>
        <time>2017-11-17T11:30:27.208000Z</time>
      </trkpt>
      <trkpt lat="45.74498891830444" lon="10.343971252441406">
        <ele>875.1768458940828</ele>
        <time>2017-11-17T11:30:28.262000Z</time>
      </trkpt>
      <trkpt lat="45.74477434158325" lon="10.344035625457764">
        <ele>876.3348541160461</ele>
        <time>2017-11-17T11:30:28.613000Z</time>
      </trkpt>
      <trkpt lat="45.744473934173584" lon="10.344314575195312">
        <ele>885.8923691210431</ele>
        <time>2017-11-17T11:30:29.187000Z</time>
      </trkpt>
      <trkpt lat="45.74423789978027" lon="10.344722270965576">
        <ele>887.8450680702545</ele>
        <time>2017-11-17T11:30:29.780000Z</time>
      </trkpt>
      <trkpt lat="45.74406623840332" lon="10.344808101654053">
        <ele>883.4832725511733</ele>
        <time>2017-11-17T11:30:30.071000Z</time>
      </trkpt>
      <trkpt lat="45.74383020401001" lon="10.344207286834717">
        <ele>880.8314766345128</ele>
        <time>2017-11-17T11:30:30.842000Z</time>
      </trkpt>
      <trkpt lat="45.74340105056763" lon="10.343799591064453">
        <ele>872.9937313392624</ele>
        <time>2017-11-17T11:30:31.667000Z</time>
      </trkpt>
      <trkpt lat="45.743229473009706" lon="10.343713760375977">
        <ele>878.5008955725647</ele>
        <time>2017-11-17T11:30:31.958000Z</time>
      </trkpt>
      <trkpt lat="45.74299335479736" lon="10.343585014343262">
        <ele>880.1326950822166</ele>
        <time>2017-11-17T11:30:32.363000Z</time>
      </trkpt>
      <trkpt lat="45.74275732040405" lon="10.343563556671143">
        <ele>881.6603319288215</ele>
        <time>2017-11-17T11:30:32.742000Z</time>
      </trkpt>
      <trkpt lat="45.742199420928955" lon="10.344099998474121">
        <ele>889.0</ele>
        <time>2017-11-17T11:30:33.819000Z</time>
      </trkpt>
      <trkpt lat="45.742220962420106" lon="10.344421863555908">
        <ele>893.5272575211789</ele>
        <time>2017-11-17T11:30:34.181000Z</time>
      </trkpt>
      <trkpt lat="45.742220962420106" lon="10.344529151916504">
        <ele>893.9234147472167</ele>
        <time>2017-11-17T11:30:34.301000Z</time>
      </trkpt>
      <trkpt lat="45.74217804707587" lon="10.344915390014648">
        <ele>895.3675439657359</ele>
        <time>2017-11-17T11:30:34.739000Z</time>
      </trkpt>
      <trkpt lat="45.74215658940375" lon="10.344979763031006">
        <ele>895.6309597416708</ele>
        <time>2017-11-17T11:30:34.819000Z</time>
      </trkpt>
      <trkpt lat="45.742177963256836" lon="10.345473289489746">
        <ele>898.4567898951358</ele>
        <time>2017-11-17T11:30:35.372000Z</time>
      </trkpt>
      <trkpt lat="45.74254274368286" lon="10.34663200378418">
        <ele>907.1504558411931</ele>
        <time>2017-11-17T11:30:36.794000Z</time>
      </trkpt>
      <trkpt lat="45.74249982833862" lon="10.346953868865967">
        <ele>899.1994813727516</ele>
        <time>2017-11-17T11:30:37.161000Z</time>
      </trkpt>
      <trkpt lat="45.74239253997803" lon="10.347297191619873">
        <ele>898.3545383198922</ele>
        <time>2017-11-17T11:30:37.582000Z</time>
      </trkpt>
      <trkpt lat="45.74228525161743" lon="10.347511768341064">
        <ele>900.0949641352381</ele>
        <time>2017-11-17T11:30:37.877000Z</time>
      </trkpt>
      <trkpt lat="45.74187755584717" lon="10.347962379455566">
        <ele>900.9895501536254</ele>
        <time>2017-11-17T11:30:38.702000Z</time>
      </trkpt>
      <trkpt lat="45.741469860076904" lon="10.348155498504639">
        <ele>891.0689285136541</ele>
        <time>2017-11-17T11:30:39.390000Z</time>
      </trkpt>
      <trkpt lat="45.74134111404419" lon="10.34837007522583">
        <ele>900.4120501496192</ele>
        <time>2017-11-17T11:30:39.707000Z</time>
      </trkpt>
      <trkpt lat="45.74114799499512" lon="10.349185466766357">
        <ele>906.8635024465602</ele>
        <time>2017-11-17T11:30:40.670000Z</time>
      </trkpt>
      <trkpt lat="45.7410192489624" lon="10.349292755126953">
        <ele>905.9317309132797</ele>
        <time>2017-11-17T11:30:40.909000Z</time>
      </trkpt>
      <trkpt lat="45.740933418273926" lon="10.349485874176025">
        <ele>904.9320715693965</ele>
        <time>2017-11-17T11:30:41.165000Z</time>
      </trkpt>
      <trkpt lat="45.74083097000929" lon="10.350237542921105">
        <ele>890.9214653704352</ele>
        <time>2017-11-17T11:30:42.022000Z</time>
      </trkpt>
      <trkpt lat="45.74083048491596" lon="10.350241101985915">
        <ele>890.9216303774565</ele>
        <time>2017-11-17T11:30:42.026000Z</time>
      </trkpt>
      <trkpt lat="45.74082822538912" lon="10.35025767982006">
        <ele>890.9223989667789</ele>
        <time>2017-11-17T11:30:42.045000Z</time>
      </trkpt>
      <trkpt lat="45.74082822538912" lon="10.350257512181997">
        <ele>890.9224065947866</ele>
        <time>2017-11-17T11:30:42.045000Z</time>
      </trkpt>
      <trkpt lat="45.74074029922485" lon="10.350902080535889">
        <ele>894.9522913298761</ele>
        <time>2017-11-17T11:30:42.780000Z</time>
      </trkpt>
      <trkpt lat="45.74063301086426" lon="10.351073741912842">
        <ele>894.9627767957935</ele>
        <time>2017-11-17T11:30:43.038000Z</time>
      </trkpt>
      <trkpt lat="45.74028968811035" lon="10.351095199584961">
        <ele>894.9851824410329</ele>
        <time>2017-11-17T11:30:43.589000Z</time>
      </trkpt>
      <trkpt lat="45.74007511138916" lon="10.351202487945557">
        <ele>895.0</ele>
        <time>2017-11-17T11:30:43.953000Z</time>
      </trkpt>
      <trkpt lat="45.739731788635254" lon="10.351052284240723">
        <ele>884.9106113790264</ele>
        <time>2017-11-17T11:30:44.528000Z</time>
      </trkpt>
      <trkpt lat="45.73964595794678" lon="10.351223945617676">
        <ele>884.1896485356256</ele>
        <time>2017-11-17T11:30:44.764000Z</time>
      </trkpt>
      <trkpt lat="45.73958158493042" lon="10.351738929748535">
        <ele>891.4034259187198</ele>
        <time>2017-11-17T11:30:45.349000Z</time>
      </trkpt>
      <trkpt lat="45.73949575424194" lon="10.351932048797607">
        <ele>890.6217421552082</ele>
        <time>2017-11-17T11:30:45.605000Z</time>
      </trkpt>
      <trkpt lat="45.73936700820923" lon="10.351910591125488">
        <ele>889.9876802630332</ele>
        <time>2017-11-17T11:30:45.813000Z</time>
      </trkpt>
      <trkpt lat="45.738701820373535" lon="10.351567268371582">
        <ele>864.6325119690964</ele>
        <time>2017-11-17T11:30:46.946000Z</time>
      </trkpt>
      <trkpt lat="45.73837995529175" lon="10.351481437683105">
        <ele>858.7570615800577</ele>
        <time>2017-11-17T11:30:47.471000Z</time>
      </trkpt>
      <trkpt lat="45.73814392089844" lon="10.351588726043701">
        <ele>853.0339368944602</ele>
        <time>2017-11-17T11:30:47.868000Z</time>
      </trkpt>
      <trkpt lat="45.7379937171936" lon="10.35210371017456">
        <ele>865.0928755117192</ele>
        <time>2017-11-17T11:30:48.493000Z</time>
      </trkpt>
      <trkpt lat="45.73737144470215" lon="10.35236120223999">
        <ele>864.954088702133</ele>
        <time>2017-11-17T11:30:49.531000Z</time>
      </trkpt>
      <trkpt lat="45.73726415634155" lon="10.352511405944824">
        <ele>874.0553674378402</ele>
        <time>2017-11-17T11:30:49.771000Z</time>
      </trkpt>
      <trkpt lat="45.737199783325195" lon="10.35285472869873">
        <ele>876.4283320755218</ele>
        <time>2017-11-17T11:30:50.169000Z</time>
      </trkpt>
      <trkpt lat="45.73711395263672" lon="10.353004932403564">
        <ele>875.8472950558349</ele>
        <time>2017-11-17T11:30:50.386000Z</time>
      </trkpt>
      <trkpt lat="45.736942291259766" lon="10.353047847747803">
        <ele>875.1000121098565</ele>
        <time>2017-11-17T11:30:50.665000Z</time>
      </trkpt>
      <trkpt lat="45.736727714538574" lon="10.35287618637085">
        <ele>874.0460820498462</ele>
        <time>2017-11-17T11:30:51.059000Z</time>
      </trkpt>
      <trkpt lat="45.73625564575195" lon="10.352210998535156">
        <ele>857.6440168398082</ele>
        <time>2017-11-17T11:30:52.120000Z</time>
      </trkpt>
      <trkpt lat="45.736083984375" lon="10.35210371017456">
        <ele>856.6987249181498</ele>
        <time>2017-11-17T11:30:52.420000Z</time>
      </trkpt>
      <trkpt lat="45.73561191558838" lon="10.351974964141846">
        <ele>861.27322884898</ele>
        <time>2017-11-17T11:30:53.190000Z</time>
      </trkpt>
      <trkpt lat="45.735440254211426" lon="10.351803302764893">
        <ele>860.2166099767036</ele>
        <time>2017-11-17T11:30:53.526000Z</time>
      </trkpt>
      <trkpt lat="45.73511838912964" lon="10.351245403289795">
        <ele>850.0</ele>
        <time>2017-11-17T11:30:54.336000Z</time>
      </trkpt>
      <trkpt lat="45.734920314162885" lon="10.351032031071044">
        <ele>858.5240633004563</ele>
        <time>2017-11-17T11:30:54.733000Z</time>
      </trkpt>
      <trkpt lat="45.73491829135497" lon="10.351029852052474">
        <ele>858.5396275198154</ele>
        <time>2017-11-17T11:30:54.737000Z</time>
      </trkpt>
      <trkpt lat="45.73490783572197" lon="10.351018588989973">
        <ele>858.6200769578154</ele>
        <time>2017-11-17T11:30:54.758000Z</time>
      </trkpt>
      <trkpt lat="45.734907919541" lon="10.351018840447068">
        <ele>858.6212731167903</ele>
        <time>2017-11-17T11:30:54.758000Z</time>
      </trkpt>
      <trkpt lat="45.73483943939209" lon="10.350944995880127">
        <ele>859.1483808203097</ele>
        <time>2017-11-17T11:30:54.895000Z</time>
      </trkpt>
      <trkpt lat="45.73456048965454" lon="10.35088062286377">
        <ele>860.8860156201139</ele>
        <time>2017-11-17T11:30:55.348000Z</time>
      </trkpt>
      <trkpt lat="45.73428153991699" lon="10.350987911224365">
        <ele>862.6622812454992</ele>
        <time>2017-11-17T11:30:55.811000Z</time>
      </trkpt>
      <trkpt lat="45.7340669631958" lon="10.35135269165039">
        <ele>859.3767087334923</ele>
        <time>2017-11-17T11:30:56.345000Z</time>
      </trkpt>
      <trkpt lat="45.73376655578613" lon="10.352447032928467">
        <ele>878.5292607688394</ele>
        <time>2017-11-17T11:30:57.661000Z</time>
      </trkpt>
      <trkpt lat="45.73357343673706" lon="10.354335308074951">
        <ele>902.9585351441921</ele>
        <time>2017-11-17T11:30:59.797000Z</time>
      </trkpt>
      <trkpt lat="45.73359489440918" lon="10.354721546173096">
        <ele>903.6945397527894</ele>
        <time>2017-11-17T11:31:00.231000Z</time>
      </trkpt>
      <trkpt lat="45.73400259017944" lon="10.355579853057861">
        <ele>899.1216056580537</ele>
        <time>2017-11-17T11:31:01.393000Z</time>
      </trkpt>
      <trkpt lat="45.733981132507324" lon="10.355966091156006">
        <ele>894.09634878016</ele>
        <time>2017-11-17T11:31:01.827000Z</time>
      </trkpt>
      <trkpt lat="45.73380947113037" lon="10.356652736663818">
        <ele>890.9114405812961</ele>
        <time>2017-11-17T11:31:02.643000Z</time>
      </trkpt>
      <trkpt lat="45.733702182769775" lon="10.35686731338501">
        <ele>893.8529298655347</ele>
        <time>2017-11-17T11:31:02.938000Z</time>
      </trkpt>
      <trkpt lat="45.733444690704346" lon="10.357060432434082">
        <ele>893.2347763784229</ele>
        <time>2017-11-17T11:31:03.404000Z</time>
      </trkpt>
      <trkpt lat="45.732994079589844" lon="10.357682704925537">
        <ele>888.2369795184362</ele>
        <time>2017-11-17T11:31:04.407000Z</time>
      </trkpt>
      <trkpt lat="45.732976543548226" lon="10.357867133315626">
        <ele>886.9948570024162</ele>
        <time>2017-11-17T11:31:04.615000Z</time>
      </trkpt>
      <trkpt lat="45.732976201953235" lon="10.357870725873967">
        <ele>886.9752773950319</ele>
        <time>2017-11-17T11:31:04.619000Z</time>
      </trkpt>
      <trkpt lat="45.73297446593642" lon="10.357888983562589">
        <ele>886.8757721514448</ele>
        <time>2017-11-17T11:31:04.640000Z</time>
      </trkpt>
      <trkpt lat="45.73297446593642" lon="10.357888648286462">
        <ele>886.8739616028251</ele>
        <time>2017-11-17T11:31:04.640000Z</time>
      </trkpt>
      <trkpt lat="45.732951164245605" lon="10.358133316040039">
        <ele>885.5404711713092</ele>
        <time>2017-11-17T11:31:04.916000Z</time>
      </trkpt>
      <trkpt lat="45.73288679122925" lon="10.358219146728516">
        <ele>884.8601290129018</ele>
        <time>2017-11-17T11:31:05.057000Z</time>
      </trkpt>
      <trkpt lat="45.732693672180176" lon="10.358262062072754">
        <ele>883.3481773828479</ele>
        <time>2017-11-17T11:31:05.370000Z</time>
      </trkpt>
      <trkpt lat="45.73187828063965" lon="10.35785436630249">
        <ele>865.3333333333334</ele>
        <time>2017-11-17T11:31:06.755000Z</time>
      </trkpt>
      <trkpt lat="45.731749534606934" lon="10.35787582397461">
        <ele>866.454971235065</ele>
        <time>2017-11-17T11:31:06.963000Z</time>
      </trkpt>
      <trkpt lat="45.731685161590576" lon="10.358004570007324">
        <ele>867.4115820704016</ele>
        <time>2017-11-17T11:31:07.140000Z</time>
      </trkpt>
      <trkpt lat="45.731492042541504" lon="10.358583927154541">
        <ele>874.6230424086408</ele>
        <time>2017-11-17T11:31:07.858000Z</time>
      </trkpt>
      <trkpt lat="45.73106288909912" lon="10.359227657318115">
        <ele>888.0</ele>
        <time>2017-11-17T11:31:08.854000Z</time>
      </trkpt>
      <trkpt lat="45.73108434677124" lon="10.359506607055664">
        <ele>888.192101038453</ele>
        <time>2017-11-17T11:31:09.168000Z</time>
      </trkpt>
      <trkpt lat="45.73142766952515" lon="10.360579490661621">
        <ele>890.0</ele>
        <time>2017-11-17T11:31:10.489000Z</time>
      </trkpt>
      <trkpt lat="45.73142766952515" lon="10.360901355743408">
        <ele>886.1288080345699</ele>
        <time>2017-11-17T11:31:10.849000Z</time>
      </trkpt>
      <trkpt lat="45.73134183883667" lon="10.36109447479248">
        <ele>884.0865261039322</ele>
        <time>2017-11-17T11:31:11.105000Z</time>
      </trkpt>
      <trkpt lat="45.7309264157641" lon="10.361569081340816">
        <ele>877.2961090073991</ele>
        <time>2017-11-17T11:31:11.957000Z</time>
      </trkpt>
      <trkpt lat="45.73092443711911" lon="10.361571341852322">
        <ele>877.2330498702481</ele>
        <time>2017-11-17T11:31:11.961000Z</time>
      </trkpt>
      <trkpt lat="45.730914110317826" lon="10.361583139747381">
        <ele>876.9039361840547</ele>
        <time>2017-11-17T11:31:11.982000Z</time>
      </trkpt>
      <trkpt lat="45.73091427795589" lon="10.36158305592835">
        <ele>876.8995120595306</ele>
        <time>2017-11-17T11:31:11.982000Z</time>
      </trkpt>
      <trkpt lat="45.73089122772217" lon="10.36160945892334">
        <ele>876.164153649027</ele>
        <time>2017-11-17T11:31:12.029000Z</time>
      </trkpt>
      <trkpt lat="45.73076248168945" lon="10.361802577972412">
        <ele>857.8528072379203</ele>
        <time>2017-11-17T11:31:12.328000Z</time>
      </trkpt>
      <trkpt lat="45.73056936264038" lon="10.362682342529297">
        <ele>854.0548673392203</ele>
        <time>2017-11-17T11:31:13.360000Z</time>
      </trkpt>
      <trkpt lat="45.730483615770936" lon="10.362789630889893">
        <ele>852.3810634357998</ele>
        <time>2017-11-17T11:31:13.543000Z</time>
      </trkpt>
      <trkpt lat="45.73041924275458" lon="10.362789630889893">
        <ele>851.4346386164256</ele>
        <time>2017-11-17T11:31:13.646000Z</time>
      </trkpt>
      <trkpt lat="45.72981834411621" lon="10.362660884857178">
        <ele>833.1685155681738</ele>
        <time>2017-11-17T11:31:14.620000Z</time>
      </trkpt>
      <trkpt lat="45.729496479034424" lon="10.362489223480225">
        <ele>819.0792487496893</ele>
        <time>2017-11-17T11:31:15.171000Z</time>
      </trkpt>
      <trkpt lat="45.72911024093628" lon="10.362424850463867">
        <ele>814.0579723801069</ele>
        <time>2017-11-17T11:31:15.794000Z</time>
      </trkpt>
      <trkpt lat="45.728724002838135" lon="10.362253189086914">
        <ele>811.6091653617465</ele>
        <time>2017-11-17T11:31:16.442000Z</time>
      </trkpt>
      <trkpt lat="45.7285737991333" lon="10.362296104431152">
        <ele>812.9247010270132</ele>
        <time>2017-11-17T11:31:16.688000Z</time>
      </trkpt>
      <trkpt lat="45.728487968444824" lon="10.362317562103271">
        <ele>813.6730579640147</ele>
        <time>2017-11-17T11:31:16.828000Z</time>
      </trkpt>
      <trkpt lat="45.7281231880188" lon="10.36283254623413">
        <ele>825.7386846960225</ele>
        <time>2017-11-17T11:31:17.649000Z</time>
      </trkpt>
      <trkpt lat="45.72777986526489" lon="10.363025665283203">
        <ele>828.906733010737</ele>
        <time>2017-11-17T11:31:18.240000Z</time>
      </trkpt>
      <trkpt lat="45.727736949920654" lon="10.363197326660156">
        <ele>830.0</ele>
        <time>2017-11-17T11:31:18.444000Z</time>
      </trkpt>
      <trkpt lat="45.72786569595337" lon="10.363712310791016">
        <ele>835.6671027154866</ele>
        <time>2017-11-17T11:31:19.056000Z</time>
      </trkpt>
      <trkpt lat="45.727972984313965" lon="10.364484786987305">
        <ele>838.5875266708157</ele>
        <time>2017-11-17T11:31:19.937000Z</time>
      </trkpt>
      <trkpt lat="45.72793006896973" lon="10.364634990692139">
        <ele>838.9832532363729</ele>
        <time>2017-11-17T11:31:20.119000Z</time>
      </trkpt>
      <trkpt lat="45.727736949920654" lon="10.364656448364258">
        <ele>839.6598236309225</ele>
        <time>2017-11-17T11:31:20.430000Z</time>
      </trkpt>
      <trkpt lat="45.727458000183105" lon="10.364248752593994">
        <ele>829.6107046645384</ele>
        <time>2017-11-17T11:31:21.069000Z</time>
      </trkpt>
      <trkpt lat="45.72730779647827" lon="10.364162921905518">
        <ele>824.8419899005127</ele>
        <time>2017-11-17T11:31:21.328000Z</time>
      </trkpt>
      <trkpt lat="45.726685523986816" lon="10.364484786987305">
        <ele>824.0</ele>
        <time>2017-11-17T11:31:22.389000Z</time>
      </trkpt>
      <trkpt lat="45.72632074356079" lon="10.365042686462402">
        <ele>825.0285714204883</ele>
        <time>2017-11-17T11:31:23.244000Z</time>
      </trkpt>
      <trkpt lat="45.726256370544434" lon="10.365300178527832">
        <ele>825.5158695489472</ele>
        <time>2017-11-17T11:31:23.550000Z</time>
      </trkpt>
      <trkpt lat="45.72629928588867" lon="10.365514755249023">
        <ele>825.9135554016085</ele>
        <time>2017-11-17T11:31:23.800000Z</time>
      </trkpt>
      <trkpt lat="45.72640657424927" lon="10.3656005859375">
        <ele>826.2271865102857</ele>
        <time>2017-11-17T11:31:23.997000Z</time>
      </trkpt>
      <trkpt lat="45.7270073890686" lon="10.365793704986572">
        <ele>831.465393860004</ele>
        <time>2017-11-17T11:31:24.984000Z</time>
      </trkpt>
      <trkpt lat="45.72709321975708" lon="10.365986824035645">
        <ele>828.5933618234177</ele>
        <time>2017-11-17T11:31:25.240000Z</time>
      </trkpt>
      <trkpt lat="45.72715759277344" lon="10.36633014678955">
        <ele>827.7568785270546</ele>
        <time>2017-11-17T11:31:25.638000Z</time>
      </trkpt>
      <trkpt lat="45.72714902960727" lon="10.36639865217673">
        <ele>827.3484410305904</ele>
        <time>2017-11-17T11:31:25.716000Z</time>
      </trkpt>
      <trkpt lat="45.72714858353887" lon="10.366402220717355">
        <ele>827.3271649530261</ele>
        <time>2017-11-17T11:31:25.720000Z</time>
      </trkpt>
      <trkpt lat="45.727146193385124" lon="10.366421341896057">
        <ele>827.2131621290176</ele>
        <time>2017-11-17T11:31:25.742000Z</time>
      </trkpt>
      <trkpt lat="45.727146277204156" lon="10.36642100661993">
        <ele>827.211072092276</ele>
        <time>2017-11-17T11:31:25.742000Z</time>
      </trkpt>
      <trkpt lat="45.72713613510132" lon="10.366501808166504">
        <ele>826.729261041664</ele>
        <time>2017-11-17T11:31:25.834000Z</time>
      </trkpt>
      <trkpt lat="45.72679281234741" lon="10.36684513092041">
        <ele>821.8758784462581</ele>
        <time>2017-11-17T11:31:26.505000Z</time>
      </trkpt>
      <trkpt lat="45.726685523986816" lon="10.367166996002197">
        <ele>819.0235551077545</ele>
        <time>2017-11-17T11:31:26.904000Z</time>
      </trkpt>
      <trkpt lat="45.72651386260986" lon="10.367274284362793">
        <ele>807.5447136782885</ele>
        <time>2017-11-17T11:31:27.204000Z</time>
      </trkpt>
      <trkpt lat="45.725719928741455" lon="10.367553234100342">
        <ele>798.8467995838938</ele>
        <time>2017-11-17T11:31:28.515000Z</time>
      </trkpt>
      <trkpt lat="45.725462436676025" lon="10.368003845214844">
        <ele>796.8008641663304</ele>
        <time>2017-11-17T11:31:29.167000Z</time>
      </trkpt>
      <trkpt lat="45.72511911392212" lon="10.368154048919678">
        <ele>797.5437012915036</ele>
        <time>2017-11-17T11:31:29.742000Z</time>
      </trkpt>
      <trkpt lat="45.72501182556152" lon="10.368390083312988">
        <ele>805.2839155526755</ele>
        <time>2017-11-17T11:31:30.057000Z</time>
      </trkpt>
      <trkpt lat="45.72492599487305" lon="10.368947982788086">
        <ele>798.1091914543207</ele>
        <time>2017-11-17T11:31:30.696000Z</time>
      </trkpt>
      <trkpt lat="45.72466858662665" lon="10.369634628295898">
        <ele>805.9034878781113</ele>
        <time>2017-11-17T11:31:31.568000Z</time>
      </trkpt>
      <trkpt lat="45.72443246841431" lon="10.370171070098877">
        <ele>811.9287208343725</ele>
        <time>2017-11-17T11:31:32.278000Z</time>
      </trkpt>
      <trkpt lat="45.72438955307007" lon="10.370557308197021">
        <ele>814.0</ele>
        <time>2017-11-17T11:31:32.716000Z</time>
      </trkpt>
      <trkpt lat="45.72438955307007" lon="10.370986461639404">
        <ele>813.2683837415789</ele>
        <time>2017-11-17T11:31:33.196000Z</time>
      </trkpt>
      <trkpt lat="45.72443246841431" lon="10.371565818786621">
        <ele>811.8226324065032</ele>
        <time>2017-11-17T11:31:33.848000Z</time>
      </trkpt>
      <trkpt lat="45.72486170567572" lon="10.371994972229004">
        <ele>806.6286296337088</ele>
        <time>2017-11-17T11:31:34.687000Z</time>
      </trkpt>
      <trkpt lat="45.72490462101996" lon="10.3721022605896">
        <ele>806.5571403542859</ele>
        <time>2017-11-17T11:31:34.825000Z</time>
      </trkpt>
      <trkpt lat="45.72481870651245" lon="10.37283182144165">
        <ele>804.4627196468074</ele>
        <time>2017-11-17T11:31:35.653000Z</time>
      </trkpt>
      <trkpt lat="45.72462558746338" lon="10.37358283996582">
        <ele>806.0</ele>
        <time>2017-11-17T11:31:36.549000Z</time>
      </trkpt>
      <trkpt lat="45.724453926086426" lon="10.374033451080322">
        <ele>801.1958896679386</ele>
        <time>2017-11-17T11:31:37.124000Z</time>
      </trkpt>
      <trkpt lat="45.724217891693115" lon="10.374398231506348">
        <ele>799.5411674575788</ele>
        <time>2017-11-17T11:31:37.681000Z</time>
      </trkpt>
      <trkpt lat="45.72387456893921" lon="10.374698638916016">
        <ele>781.8146270118705</ele>
        <time>2017-11-17T11:31:38.326000Z</time>
      </trkpt>
      <trkpt lat="45.723724365234375" lon="10.374956130981445">
        <ele>778.6743116348007</ele>
        <time>2017-11-17T11:31:38.702000Z</time>
      </trkpt>
      <trkpt lat="45.72331666946411" lon="10.375063419342041">
        <ele>770.8689779966309</ele>
        <time>2017-11-17T11:31:39.367000Z</time>
      </trkpt>
      <trkpt lat="45.72286605834961" lon="10.375406742095947">
        <ele>767.0794948529856</ele>
        <time>2017-11-17T11:31:40.185000Z</time>
      </trkpt>
      <trkpt lat="45.72246717145867" lon="10.37542033046622">
        <ele>756.1170535473474</ele>
        <time>2017-11-17T11:31:40.825000Z</time>
      </trkpt>
      <trkpt lat="45.72246455155968" lon="10.375420419714313">
        <ele>756.1303879042101</ele>
        <time>2017-11-17T11:31:40.829000Z</time>
      </trkpt>
      <trkpt lat="45.72245023213327" lon="10.375420907512307">
        <ele>756.203268707217</ele>
        <time>2017-11-17T11:31:40.852000Z</time>
      </trkpt>
      <trkpt lat="45.7224503159523" lon="10.375420907512307">
        <ele>756.2036951957743</ele>
        <time>2017-11-17T11:31:40.852000Z</time>
      </trkpt>
      <trkpt lat="45.722243785858154" lon="10.375428199768066">
        <ele>757.2548822214816</ele>
        <time>2017-11-17T11:31:41.183000Z</time>
      </trkpt>
      <trkpt lat="45.72190046310425" lon="10.375707149505615">
        <ele>759.2632528158707</ele>
        <time>2017-11-17T11:31:41.816000Z</time>
      </trkpt>
      <trkpt lat="45.72179317474365" lon="10.375878810882568">
        <ele>767.4150352636493</ele>
        <time>2017-11-17T11:31:42.074000Z</time>
      </trkpt>
      <trkpt lat="45.72181463241577" lon="10.376136302947998">
        <ele>768.3362160464054</ele>
        <time>2017-11-17T11:31:42.364000Z</time>
      </trkpt>
      <trkpt lat="45.72230815887451" lon="10.376887321472168">
        <ele>773.0</ele>
        <time>2017-11-17T11:31:43.518000Z</time>
      </trkpt>
      <trkpt lat="45.72232961654663" lon="10.377058982849121">
        <ele>773.1021465360473</ele>
        <time>2017-11-17T11:31:43.713000Z</time>
      </trkpt>
      <trkpt lat="45.72211503982544" lon="10.37731647491455">
        <ele>773.3370029236535</ele>
        <time>2017-11-17T11:31:44.162000Z</time>
      </trkpt>
      <trkpt lat="45.72213649749756" lon="10.377552509307861">
        <ele>771.4764235045728</ele>
        <time>2017-11-17T11:31:44.428000Z</time>
      </trkpt>
      <trkpt lat="45.722501277923584" lon="10.37858247756958">
        <ele>779.1529124507006</ele>
        <time>2017-11-17T11:31:45.721000Z</time>
      </trkpt>
      <trkpt lat="45.722479820251465" lon="10.378711223602295">
        <ele>767.0226152984645</ele>
        <time>2017-11-17T11:31:45.869000Z</time>
      </trkpt>
      <trkpt lat="45.72205066680908" lon="10.37883996963501">
        <ele>758.4962219770555</ele>
        <time>2017-11-17T11:31:46.572000Z</time>
      </trkpt>
      <trkpt lat="45.72205066680908" lon="10.378968715667725">
        <ele>756.6001598440548</ele>
        <time>2017-11-17T11:31:46.716000Z</time>
      </trkpt>
      <trkpt lat="45.72209358215332" lon="10.379140377044678">
        <ele>755.2405869788349</ele>
        <time>2017-11-17T11:31:46.920000Z</time>
      </trkpt>
      <trkpt lat="45.72226524353027" lon="10.37933349609375">
        <ele>749.5759575425399</ele>
        <time>2017-11-17T11:31:47.270000Z</time>
      </trkpt>
      <trkpt lat="45.72230815887451" lon="10.379548072814941">
        <ele>747.9116287131214</ele>
        <time>2017-11-17T11:31:47.520000Z</time>
      </trkpt>
      <trkpt lat="45.72228670120239" lon="10.379676818847656">
        <ele>746.9246699890223</ele>
        <time>2017-11-17T11:31:47.668000Z</time>
      </trkpt>
      <trkpt lat="45.72202307915496" lon="10.379857112596811">
        <ele>743.8045969030105</ele>
        <time>2017-11-17T11:31:48.136000Z</time>
      </trkpt>
      <trkpt lat="45.72202071425086" lon="10.37985872996973">
        <ele>743.7766073381105</ele>
        <time>2017-11-17T11:31:48.141000Z</time>
      </trkpt>
      <trkpt lat="45.72200800292194" lon="10.379867423325777">
        <ele>743.6261637905591</ele>
        <time>2017-11-17T11:31:48.164000Z</time>
      </trkpt>
      <trkpt lat="45.72200808674097" lon="10.379867339506745">
        <ele>743.6250719853182</ele>
        <time>2017-11-17T11:31:48.164000Z</time>
      </trkpt>
      <trkpt lat="45.721471309661865" lon="10.380234718322754">
        <ele>731.2712211674049</ele>
        <time>2017-11-17T11:31:49.118000Z</time>
      </trkpt>
      <trkpt lat="45.72132110595703" lon="10.380556583404541">
        <ele>728.0183675901111</ele>
        <time>2017-11-17T11:31:49.551000Z</time>
      </trkpt>
      <trkpt lat="45.72108507156372" lon="10.380620956420898">
        <ele>725.1267152929087</ele>
        <time>2017-11-17T11:31:49.936000Z</time>
      </trkpt>
      <trkpt lat="45.720741748809814" lon="10.380513668060303">
        <ele>710.8315298288593</ele>
        <time>2017-11-17T11:31:50.499000Z</time>
      </trkpt>
      <trkpt lat="45.720505714416504" lon="10.380535125732422">
        <ele>706.8188992800156</ele>
        <time>2017-11-17T11:31:50.878000Z</time>
      </trkpt>
      <trkpt lat="45.720205307006836" lon="10.380449295043945">
        <ele>701.6189392986865</ele>
        <time>2017-11-17T11:31:51.369000Z</time>
      </trkpt>
      <trkpt lat="45.720055103302" lon="10.380513668060303">
        <ele>698.9575006619704</ele>
        <time>2017-11-17T11:31:51.620000Z</time>
      </trkpt>
      <trkpt lat="45.719947814941406" lon="10.380642414093018">
        <ele>695.5815518488217</ele>
        <time>2017-11-17T11:31:51.844000Z</time>
      </trkpt>
      <trkpt lat="45.71984052658081" lon="10.380642414093018">
        <ele>693.760303857317</ele>
        <time>2017-11-17T11:31:52.016000Z</time>
      </trkpt>
      <trkpt lat="45.71969032287598" lon="10.380513668060303">
        <ele>690.7888697425891</ele>
        <time>2017-11-17T11:31:52.297000Z</time>
      </trkpt>
      <trkpt lat="45.719218254089355" lon="10.379784107208252">
        <ele>668.0</ele>
        <time>2017-11-17T11:31:53.410000Z</time>
      </trkpt>
      <trkpt lat="45.71906805038452" lon="10.37984848022461">
        <ele>676.9252079133274</ele>
        <time>2017-11-17T11:31:53.661000Z</time>
      </trkpt>
      <trkpt lat="45.71902513504028" lon="10.380105972290039">
        <ele>687.8262061726233</ele>
        <time>2017-11-17T11:31:53.957000Z</time>
      </trkpt>
      <trkpt lat="45.71902513504028" lon="10.380856990814209">
        <ele>700.8388088532961</ele>
        <time>2017-11-17T11:31:54.798000Z</time>
      </trkpt>
      <trkpt lat="45.71913242340088" lon="10.381286144256592">
        <ele>708.1299439584026</ele>
        <time>2017-11-17T11:31:55.308000Z</time>
      </trkpt>
      <trkpt lat="45.71930408477783" lon="10.381715297698975">
        <ele>727.5300465226555</ele>
        <time>2017-11-17T11:31:55.862000Z</time>
      </trkpt>
      <trkpt lat="45.71932562626898" lon="10.382444858551025">
        <ele>739.4396719973089</ele>
        <time>2017-11-17T11:31:56.679000Z</time>
      </trkpt>
      <trkpt lat="45.719304168596864" lon="10.382637977600098">
        <ele>739.625857557668</ele>
        <time>2017-11-17T11:31:56.898000Z</time>
      </trkpt>
      <trkpt lat="45.71930408477783" lon="10.382637977600098">
        <ele>739.6240480651767</ele>
        <time>2017-11-17T11:31:56.898000Z</time>
      </trkpt>
      <trkpt lat="45.719218254089355" lon="10.382788181304932">
        <ele>736.6985390185264</ele>
        <time>2017-11-17T11:31:57.115000Z</time>
      </trkpt>
      <trkpt lat="45.71911096572876" lon="10.382788181304932">
        <ele>723.7157219628385</ele>
        <time>2017-11-17T11:31:57.287000Z</time>
      </trkpt>
      <trkpt lat="45.71887493133545" lon="10.382487773895264">
        <ele>714.8991359661995</ele>
        <time>2017-11-17T11:31:57.793000Z</time>
      </trkpt>
      <trkpt lat="45.71861743927002" lon="10.382444858551025">
        <ele>709.3028672901055</ele>
        <time>2017-11-17T11:31:58.209000Z</time>
      </trkpt>
      <trkpt lat="45.7180380821228" lon="10.38184404373169">
        <ele>688.861444331495</ele>
        <time>2017-11-17T11:31:59.356000Z</time>
      </trkpt>
      <trkpt lat="45.71711540222168" lon="10.381371974945068">
        <ele>661.0</ele>
        <time>2017-11-17T11:32:00.927000Z</time>
      </trkpt>
      <trkpt lat="45.716986656188965" lon="10.381414890289307">
        <ele>660.7267388956867</ele>
        <time>2017-11-17T11:32:01.139000Z</time>
      </trkpt>
      <trkpt lat="45.71683645248413" lon="10.381758213043213">
        <ele>670.1419569583904</ele>
        <time>2017-11-17T11:32:01.592000Z</time>
      </trkpt>
      <trkpt lat="45.716750621795654" lon="10.38184404373169">
        <ele>669.9255558536537</ele>
        <time>2017-11-17T11:32:01.760000Z</time>
      </trkpt>
      <trkpt lat="45.71666479110718" lon="10.38182258605957">
        <ele>669.0787743338102</ele>
        <time>2017-11-17T11:32:01.900000Z</time>
      </trkpt>
      <trkpt lat="45.716493129730225" lon="10.381457805633545">
        <ele>660.4438400707444</ele>
        <time>2017-11-17T11:32:02.392000Z</time>
      </trkpt>
      <trkpt lat="45.715978145599365" lon="10.381007194519043">
        <ele>659.196289648844</ele>
        <time>2017-11-17T11:32:03.359000Z</time>
      </trkpt>
      <trkpt lat="45.715978145599365" lon="10.380749702453613">
        <ele>650.3885584277255</ele>
        <time>2017-11-17T11:32:03.647000Z</time>
      </trkpt>
      <trkpt lat="45.71606397628784" lon="10.380535125732422">
        <ele>648.4487407090863</ele>
        <time>2017-11-17T11:32:03.924000Z</time>
      </trkpt>
      <trkpt lat="45.71608543395996" lon="10.380041599273682">
        <ele>644.5699459218916</ele>
        <time>2017-11-17T11:32:04.477000Z</time>
      </trkpt>
      <trkpt lat="45.71619272232056" lon="10.379676818847656">
        <ele>637.1317157681093</ele>
        <time>2017-11-17T11:32:04.920000Z</time>
      </trkpt>
      <trkpt lat="45.71593523025513" lon="10.379054546356201">
        <ele>626.1243696224507</ele>
        <time>2017-11-17T11:32:05.730000Z</time>
      </trkpt>
      <trkpt lat="45.715763568878174" lon="10.37881851196289">
        <ele>640.3062096201376</ele>
        <time>2017-11-17T11:32:06.111000Z</time>
      </trkpt>
      <trkpt lat="45.71572345358519" lon="10.378787338389929">
        <ele>640.7885981698564</ele>
        <time>2017-11-17T11:32:06.184000Z</time>
      </trkpt>
      <trkpt lat="45.715721071149964" lon="10.37878548700238">
        <ele>640.8172470758658</ele>
        <time>2017-11-17T11:32:06.188000Z</time>
      </trkpt>
      <trkpt lat="45.7157086674124" lon="10.378775848075747">
        <ele>640.9664026546719</ele>
        <time>2017-11-17T11:32:06.211000Z</time>
      </trkpt>
      <trkpt lat="45.71570875123143" lon="10.37877593189478">
        <ele>640.9674831564706</ele>
        <time>2017-11-17T11:32:06.211000Z</time>
      </trkpt>
      <trkpt lat="45.7155704498291" lon="10.378668308258057">
        <ele>642.6310930903907</ele>
        <time>2017-11-17T11:32:06.463000Z</time>
      </trkpt>
      <trkpt lat="45.71544170379639" lon="10.378432273864746">
        <ele>644.841502767947</ele>
        <time>2017-11-17T11:32:06.798000Z</time>
      </trkpt>
      <trkpt lat="45.71542024612427" lon="10.378260612487793">
        <ele>643.1284766069416</ele>
        <time>2017-11-17T11:32:06.993000Z</time>
      </trkpt>
      <trkpt lat="45.71561336517334" lon="10.377917289733887">
        <ele>641.7788117557237</ele>
        <time>2017-11-17T11:32:07.486000Z</time>
      </trkpt>
      <trkpt lat="45.715742111206055" lon="10.377552509307861">
        <ele>639.4369967362603</ele>
        <time>2017-11-17T11:32:07.944000Z</time>
      </trkpt>
      <trkpt lat="45.715270042419434" lon="10.376715660095215">
        <ele>627.9397175290745</ele>
        <time>2017-11-17T11:32:09.148000Z</time>
      </trkpt>
      <trkpt lat="45.71488380432129" lon="10.376672744750977">
        <ele>633.6149296076791</ele>
        <time>2017-11-17T11:32:09.769000Z</time>
      </trkpt>
      <trkpt lat="45.71479797363281" lon="10.376522541046143">
        <ele>630.2351133997307</ele>
        <time>2017-11-17T11:32:09.986000Z</time>
      </trkpt>
      <trkpt lat="45.71481943130493" lon="10.37635087966919">
        <ele>629.2948582293772</ele>
        <time>2017-11-17T11:32:10.181000Z</time>
      </trkpt>
      <trkpt lat="45.71490526199341" lon="10.376157760620117">
        <ele>628.0605830533958</ele>
        <time>2017-11-17T11:32:10.437000Z</time>
      </trkpt>
      <trkpt lat="45.71529150009155" lon="10.37585735321045">
        <ele>614.0</ele>
        <time>2017-11-17T11:32:11.142000Z</time>
      </trkpt>
      <trkpt lat="45.7155704498291" lon="10.375492572784424">
        <ele>611.3665036719989</ele>
        <time>2017-11-17T11:32:11.748000Z</time>
      </trkpt>
      <trkpt lat="45.7156777381897" lon="10.37508487701416">
        <ele>609.7825196049123</ele>
        <time>2017-11-17T11:32:12.236000Z</time>
      </trkpt>
      <trkpt lat="45.71563482284546" lon="10.374677181243896">
        <ele>600.2835657792203</ele>
        <time>2017-11-17T11:32:12.698000Z</time>
      </trkpt>
      <trkpt lat="45.71552753448486" lon="10.3745698928833">
        <ele>599.6022277515067</ele>
        <time>2017-11-17T11:32:12.908000Z</time>
      </trkpt>
      <trkpt lat="45.7151198387146" lon="10.374484062194824">
        <ele>597.4565830256763</ele>
        <time>2017-11-17T11:32:13.569000Z</time>
      </trkpt>
      <trkpt lat="45.71477651596069" lon="10.374784469604492">
        <ele>610.1021603374287</ele>
        <time>2017-11-17T11:32:14.214000Z</time>
      </trkpt>
      <trkpt lat="45.71454048156738" lon="10.374720096588135">
        <ele>609.8029606367088</ele>
        <time>2017-11-17T11:32:14.599000Z</time>
      </trkpt>
      <trkpt lat="45.714454650878906" lon="10.374505519866943">
        <ele>609.5879479522056</ele>
        <time>2017-11-17T11:32:14.876000Z</time>
      </trkpt>
      <trkpt lat="45.714454650878906" lon="10.37435531616211">
        <ele>609.4573510020737</ele>
        <time>2017-11-17T11:32:15.044000Z</time>
      </trkpt>
      <trkpt lat="45.71484088897705" lon="10.373733043670654">
        <ele>609.4001238976994</ele>
        <time>2017-11-17T11:32:15.976000Z</time>
      </trkpt>
      <trkpt lat="45.715205669403076" lon="10.372917652130127">
        <ele>578.5909288504704</ele>
        <time>2017-11-17T11:32:17.060000Z</time>
      </trkpt>
      <trkpt lat="45.71537733078003" lon="10.37233829498291">
        <ele>563.0</ele>
        <time>2017-11-17T11:32:17.764000Z</time>
      </trkpt>
      <trkpt lat="45.71533441543579" lon="10.37208080291748">
        <ele>563.6689428620643</ele>
        <time>2017-11-17T11:32:18.060000Z</time>
      </trkpt>
      <trkpt lat="45.71530953502797" lon="10.372016101170491">
        <ele>563.8555950174633</ele>
        <time>2017-11-17T11:32:18.143000Z</time>
      </trkpt>
      <trkpt lat="45.71530822742106" lon="10.37201270073007">
        <ele>563.8654046402561</ele>
        <time>2017-11-17T11:32:18.147000Z</time>
      </trkpt>
      <trkpt lat="45.71530147455633" lon="10.371995139867067">
        <ele>563.9160643934923</ele>
        <time>2017-11-17T11:32:18.169000Z</time>
      </trkpt>
      <trkpt lat="45.71530147455633" lon="10.371995223686099">
        <ele>563.9162761979346</ele>
        <time>2017-11-17T11:32:18.170000Z</time>
      </trkpt>
      <trkpt lat="45.715227127075195" lon="10.371801853179932">
        <ele>564.474094160125</ele>
        <time>2017-11-17T11:32:18.417000Z</time>
      </trkpt>
      <trkpt lat="45.714991092681885" lon="10.371437072753906">
        <ele>569.3974935348238</ele>
        <time>2017-11-17T11:32:18.974000Z</time>
      </trkpt>
      <trkpt lat="45.71479797363281" lon="10.371394157409668">
        <ele>570.1047690200687</ele>
        <time>2017-11-17T11:32:19.287000Z</time>
      </trkpt>
      <trkpt lat="45.71428298950195" lon="10.37160873413086">
        <ele>568.6993765605521</ele>
        <time>2017-11-17T11:32:20.147000Z</time>
      </trkpt>
      <trkpt lat="45.71417570114136" lon="10.371565818786621">
        <ele>568.4074834503971</ele>
        <time>2017-11-17T11:32:20.326000Z</time>
      </trkpt>
      <trkpt lat="45.71415424346924" lon="10.37135124206543">
        <ele>576.0108804920247</ele>
        <time>2017-11-17T11:32:20.569000Z</time>
      </trkpt>
      <trkpt lat="45.71441173553467" lon="10.369935035705566">
        <ele>561.0</ele>
        <time>2017-11-17T11:32:22.207000Z</time>
      </trkpt>
      <trkpt lat="45.714111328125" lon="10.369570255279541">
        <ele>575.0038953244581</ele>
        <time>2017-11-17T11:32:22.838000Z</time>
      </trkpt>
      <trkpt lat="45.71402549743652" lon="10.369269847869873">
        <ele>577.3078980338319</ele>
        <time>2017-11-17T11:32:23.201000Z</time>
      </trkpt>
      <trkpt lat="45.71406841278076" lon="10.36909818649292">
        <ele>578.6021539036188</ele>
        <time>2017-11-17T11:32:23.405000Z</time>
      </trkpt>
      <trkpt lat="45.71430444717407" lon="10.368540287017822">
        <ele>558.0281242207399</ele>
        <time>2017-11-17T11:32:24.135000Z</time>
      </trkpt>
      <trkpt lat="45.71419715881348" lon="10.36759614944458">
        <ele>545.565892808498</ele>
        <time>2017-11-17T11:32:25.206000Z</time>
      </trkpt>
      <trkpt lat="45.71434736251831" lon="10.367274284362793">
        <ele>542.8939461441611</ele>
        <time>2017-11-17T11:32:25.639000Z</time>
      </trkpt>
      <trkpt lat="45.71434736251831" lon="10.367124080657959">
        <ele>543.3166074205955</ele>
        <time>2017-11-17T11:32:25.807000Z</time>
      </trkpt>
      <trkpt lat="45.714218616485596" lon="10.366888046264648">
        <ele>544.1594283118148</ele>
        <time>2017-11-17T11:32:26.142000Z</time>
      </trkpt>
      <trkpt lat="45.713982582092285" lon="10.366780757904053">
        <ele>553.1574167626471</ele>
        <time>2017-11-17T11:32:26.539000Z</time>
      </trkpt>
      <trkpt lat="45.71385383605957" lon="10.36658763885498">
        <ele>543.5754286103761</ele>
        <time>2017-11-17T11:32:26.838000Z</time>
      </trkpt>
      <trkpt lat="45.71359634399414" lon="10.366437435150146">
        <ele>544.6959090863451</ele>
        <time>2017-11-17T11:32:27.284000Z</time>
      </trkpt>
      <trkpt lat="45.71331739425659" lon="10.366480350494385">
        <ele>547.4932225883502</ele>
        <time>2017-11-17T11:32:27.734000Z</time>
      </trkpt>
      <trkpt lat="45.71303844451904" lon="10.366737842559814">
        <ele>562.3542277061994</ele>
        <time>2017-11-17T11:32:28.266000Z</time>
      </trkpt>
      <trkpt lat="45.7125449180603" lon="10.36736011505127">
        <ele>563.406942837527</ele>
        <time>2017-11-17T11:32:29.320000Z</time>
      </trkpt>
      <trkpt lat="45.71241617202759" lon="10.367403030395508">
        <ele>558.2735364137656</ele>
        <time>2017-11-17T11:32:29.532000Z</time>
      </trkpt>
      <trkpt lat="45.71235179901123" lon="10.36733865737915">
        <ele>556.6104237733658</ele>
        <time>2017-11-17T11:32:29.658000Z</time>
      </trkpt>
      <trkpt lat="45.71233034133911" lon="10.367038249969482">
        <ele>552.1439129521826</ele>
        <time>2017-11-17T11:32:29.996000Z</time>
      </trkpt>
      <trkpt lat="45.712523460388184" lon="10.365750789642334">
        <ele>518.0</ele>
        <time>2017-11-17T11:32:31.470000Z</time>
      </trkpt>
      <trkpt lat="45.7126522064209" lon="10.365386009216309">
        <ele>517.5494910671663</ele>
        <time>2017-11-17T11:32:31.928000Z</time>
      </trkpt>
      <trkpt lat="45.71263074874878" lon="10.364978313446045">
        <ele>510.76551552846485</ele>
        <time>2017-11-17T11:32:32.386000Z</time>
      </trkpt>
      <trkpt lat="45.71262420687898" lon="10.364960409374268">
        <ele>510.7432428872651</ele>
        <time>2017-11-17T11:32:32.409000Z</time>
      </trkpt>
      <trkpt lat="45.7126229501719" lon="10.364956969965386">
        <ele>510.7389642668142</ele>
        <time>2017-11-17T11:32:32.413000Z</time>
      </trkpt>
      <trkpt lat="45.712616415694356" lon="10.364939086139202">
        <ele>510.71671680489</ele>
        <time>2017-11-17T11:32:32.436000Z</time>
      </trkpt>
      <trkpt lat="45.71261649951339" lon="10.364939086139202">
        <ele>510.71658449495243</ele>
        <time>2017-11-17T11:32:32.436000Z</time>
      </trkpt>
      <trkpt lat="45.71213722229004" lon="10.363626480102539">
        <ele>513.0839435674735</ele>
        <time>2017-11-17T11:32:34.094000Z</time>
      </trkpt>
      <trkpt lat="45.71194410324097" lon="10.363540649414062">
        <ele>513.4841333405643</ele>
        <time>2017-11-17T11:32:34.418000Z</time>
      </trkpt>
      <trkpt lat="45.71181535720825" lon="10.36360502243042">
        <ele>513.7540214784</ele>
        <time>2017-11-17T11:32:34.637000Z</time>
      </trkpt>
      <trkpt lat="45.71166515350342" lon="10.363819599151611">
        <ele>516.1739088675982</ele>
        <time>2017-11-17T11:32:34.977000Z</time>
      </trkpt>
      <trkpt lat="45.71132183074951" lon="10.364077091217041">
        <ele>516.7823644179188</ele>
        <time>2017-11-17T11:32:35.598000Z</time>
      </trkpt>
      <trkpt lat="45.71112871170044" lon="10.364527702331543">
        <ele>521.7477230971833</ele>
        <time>2017-11-17T11:32:36.190000Z</time>
      </trkpt>
      <trkpt lat="45.710957050323486" lon="10.364656448364258">
        <ele>521.3796246879266</ele>
        <time>2017-11-17T11:32:36.501000Z</time>
      </trkpt>
      <trkpt lat="45.710763931274414" lon="10.364549160003662">
        <ele>517.3194736406459</ele>
        <time>2017-11-17T11:32:36.833000Z</time>
      </trkpt>
      <trkpt lat="45.71057081222534" lon="10.363926887512207">
        <ele>512.7495436034989</ele>
        <time>2017-11-17T11:32:37.595000Z</time>
      </trkpt>
      <trkpt lat="45.71042060852051" lon="10.363883972167969">
        <ele>512.7013418601159</ele>
        <time>2017-11-17T11:32:37.841000Z</time>
      </trkpt>
      <trkpt lat="45.71029186248779" lon="10.363969802856445">
        <ele>512.6566494018549</ele>
        <time>2017-11-17T11:32:38.069000Z</time>
      </trkpt>
      <trkpt lat="45.709991455078125" lon="10.364441871643066">
        <ele>512.8496270411468</ele>
        <time>2017-11-17T11:32:38.784000Z</time>
      </trkpt>
      <trkpt lat="45.70960521697998" lon="10.364527702331543">
        <ele>511.65832064415963</ele>
        <time>2017-11-17T11:32:39.411000Z</time>
      </trkpt>
      <trkpt lat="45.70943355560303" lon="10.364720821380615">
        <ele>510.9929734466857</ele>
        <time>2017-11-17T11:32:39.761000Z</time>
      </trkpt>
      <trkpt lat="45.70932626724243" lon="10.36487102508545">
        <ele>511.395016157758</ele>
        <time>2017-11-17T11:32:40.002000Z</time>
      </trkpt>
      <trkpt lat="45.70911169052124" lon="10.365471839904785">
        <ele>508.9910623699352</ele>
        <time>2017-11-17T11:32:40.757000Z</time>
      </trkpt>
      <trkpt lat="45.70868253707886" lon="10.365965366363525">
        <ele>521.1325623083402</ele>
        <time>2017-11-17T11:32:41.639000Z</time>
      </trkpt>
      <trkpt lat="45.70831775665283" lon="10.36633014678955">
        <ele>498.3189768175439</ele>
        <time>2017-11-17T11:32:42.352000Z</time>
      </trkpt>
      <trkpt lat="45.7081210931164" lon="10.366420849062566">
        <ele>494.42781080896793</ele>
        <time>2017-11-17T11:32:42.683000Z</time>
      </trkpt>
      <trkpt lat="45.70811851309631" lon="10.366422038977179">
        <ele>494.37676279477427</ele>
        <time>2017-11-17T11:32:42.687000Z</time>
      </trkpt>
      <trkpt lat="45.70810494013131" lon="10.36642829887569">
        <ele>494.1082094966236</ele>
        <time>2017-11-17T11:32:42.710000Z</time>
      </trkpt>
      <trkpt lat="45.70810502395034" lon="10.36642829887569">
        <ele>494.1066309122147</ele>
        <time>2017-11-17T11:32:42.710000Z</time>
      </trkpt>
      <trkpt lat="45.707759857177734" lon="10.36658763885498">
        <ele>487.27659605436793</ele>
        <time>2017-11-17T11:32:43.291000Z</time>
      </trkpt>
      <trkpt lat="45.707459449768066" lon="10.3666090965271">
        <ele>474.9452491064165</ele>
        <time>2017-11-17T11:32:43.773000Z</time>
      </trkpt>
      <trkpt lat="45.707008838653564" lon="10.366394519805908">
        <ele>473.75283304373096</ele>
        <time>2017-11-17T11:32:44.534000Z</time>
      </trkpt>
      <trkpt lat="45.706472396850586" lon="10.366029739379883">
        <ele>472.9283234101703</ele>
        <time>2017-11-17T11:32:45.486000Z</time>
      </trkpt>
      <trkpt lat="45.70634365081787" lon="10.366029739379883">
        <ele>473.2493840486865</ele>
        <time>2017-11-17T11:32:45.692000Z</time>
      </trkpt>
      <trkpt lat="45.706214904785156" lon="10.366458892822266">
        <ele>474.70324787992064</ele>
        <time>2017-11-17T11:32:46.215000Z</time>
      </trkpt>
      <trkpt lat="45.70608615875244" lon="10.366673469543457">
        <ele>485.9171578456874</ele>
        <time>2017-11-17T11:32:46.532000Z</time>
      </trkpt>
      <trkpt lat="45.70591449737549" lon="10.366802215576172">
        <ele>486.7808939579707</ele>
        <time>2017-11-17T11:32:46.843000Z</time>
      </trkpt>
      <trkpt lat="45.70582866668701" lon="10.366973876953125">
        <ele>476.4380619690021</ele>
        <time>2017-11-17T11:32:47.079000Z</time>
      </trkpt>
      <trkpt lat="45.705742835998535" lon="10.3676176071167">
        <ele>482.4779987048159</ele>
        <time>2017-11-17T11:32:47.813000Z</time>
      </trkpt>
      <trkpt lat="45.70571541048641" lon="10.367720900740169">
        <ele>482.6944464929463</ele>
        <time>2017-11-17T11:32:47.937000Z</time>
      </trkpt>
      <trkpt lat="45.705714447216494" lon="10.36772452872765">
        <ele>482.7020488025164</ele>
        <time>2017-11-17T11:32:47.941000Z</time>
      </trkpt>
      <trkpt lat="45.70570947602391" lon="10.36774325184524">
        <ele>482.74128238762023</ele>
        <time>2017-11-17T11:32:47.963000Z</time>
      </trkpt>
      <trkpt lat="45.705709559842944" lon="10.367743084207177">
        <ele>482.7416862193695</ele>
        <time>2017-11-17T11:32:47.963000Z</time>
      </trkpt>
      <trkpt lat="45.705463886260986" lon="10.368669033050537">
        <ele>485.6818039774526</ele>
        <time>2017-11-17T11:32:49.072000Z</time>
      </trkpt>
      <trkpt lat="45.70535659790039" lon="10.368819236755371">
        <ele>485.83729290602486</ele>
        <time>2017-11-17T11:32:49.313000Z</time>
      </trkpt>
      <trkpt lat="45.7051420211792" lon="10.368776321411133">
        <ele>486.0618125540297</ele>
        <time>2017-11-17T11:32:49.660000Z</time>
      </trkpt>
      <trkpt lat="45.704777240753174" lon="10.368411540985107">
        <ele>473.16443154532044</ele>
        <time>2017-11-17T11:32:50.373000Z</time>
      </trkpt>
      <trkpt lat="45.70454120635986" lon="10.368411540985107">
        <ele>471.6273687518017</ele>
        <time>2017-11-17T11:32:50.751000Z</time>
      </trkpt>
      <trkpt lat="45.704498291015625" lon="10.36860466003418">
        <ele>470.705722596458</ele>
        <time>2017-11-17T11:32:50.978000Z</time>
      </trkpt>
      <trkpt lat="45.704498291015625" lon="10.368819236755371">
        <ele>469.72988461437876</ele>
        <time>2017-11-17T11:32:51.218000Z</time>
      </trkpt>
      <trkpt lat="45.7045841217041" lon="10.368947982788086">
        <ele>468.9204296370979</ele>
        <time>2017-11-17T11:32:51.417000Z</time>
      </trkpt>
      <trkpt lat="45.704970359802246" lon="10.36909818649292">
        <ele>466.3141285842568</ele>
        <time>2017-11-17T11:32:52.059000Z</time>
      </trkpt>
      <trkpt lat="45.70505619049072" lon="10.369205474853516">
        <ele>477.4338570451825</ele>
        <time>2017-11-17T11:32:52.242000Z</time>
      </trkpt>
      <trkpt lat="45.70510077908837" lon="10.369502965402294">
        <ele>477.23155015457195</ele>
        <time>2017-11-17T11:32:52.583000Z</time>
      </trkpt>
      <trkpt lat="45.705101347870055" lon="10.369506760291747">
        <ele>477.2289694609769</ele>
        <time>2017-11-17T11:32:52.587000Z</time>
      </trkpt>
      <trkpt lat="45.705104218795896" lon="10.369525915011764">
        <ele>477.21594340056316</ele>
        <time>2017-11-17T11:32:52.609000Z</time>
      </trkpt>
      <trkpt lat="45.705104218795896" lon="10.369525663554668">
        <ele>477.21577620589215</ele>
        <time>2017-11-17T11:32:52.609000Z</time>
      </trkpt>
      <trkpt lat="45.70518493652344" lon="10.370063781738281">
        <ele>474.8498196301459</ele>
        <time>2017-11-17T11:32:53.225000Z</time>
      </trkpt>
      <trkpt lat="45.70531368255615" lon="10.370428562164307">
        <ele>474.578060934407</ele>
        <time>2017-11-17T11:32:53.683000Z</time>
      </trkpt>
      <trkpt lat="45.70531368255615" lon="10.370750427246094">
        <ele>474.3640525574767</ele>
        <time>2017-11-17T11:32:54.043000Z</time>
      </trkpt>
      <trkpt lat="45.704777240753174" lon="10.372316837310791">
        <ele>433.0</ele>
        <time>2017-11-17T11:32:55.996000Z</time>
      </trkpt>
      <trkpt lat="45.70467003621161" lon="10.373024940490723">
        <ele>431.9265597229116</ele>
        <time>2017-11-17T11:32:56.807000Z</time>
      </trkpt>
      <trkpt lat="45.70466995239258" lon="10.373303890228271">
        <ele>431.12829289844944</ele>
        <time>2017-11-17T11:32:57.119000Z</time>
      </trkpt>
      <trkpt lat="45.704755866900086" lon="10.373711585998535">
        <ele>428.24297038143305</ele>
        <time>2017-11-17T11:32:57.596000Z</time>
      </trkpt>
      <trkpt lat="45.70488452911377" lon="10.374205112457275">
        <ele>424.06878976389174</ele>
        <time>2017-11-17T11:32:58.186000Z</time>
      </trkpt>
      <trkpt lat="45.70492744445801" lon="10.374612808227539">
        <ele>423.4950956846083</ele>
        <time>2017-11-17T11:32:58.648000Z</time>
      </trkpt>
      <trkpt lat="45.70488452911377" lon="10.374891757965088">
        <ele>423.0976453707485</ele>
        <time>2017-11-17T11:32:58.968000Z</time>
      </trkpt>
      <trkpt lat="45.70464849472046" lon="10.375277996063232">
        <ele>422.05016692493354</ele>
        <time>2017-11-17T11:32:59.543000Z</time>
      </trkpt>
      <trkpt lat="45.70464849472046" lon="10.375492572784424">
        <ele>422.3168536778365</ele>
        <time>2017-11-17T11:32:59.783000Z</time>
      </trkpt>
      <trkpt lat="45.70486307144165" lon="10.376136302947998">
        <ele>424.818444201243</ele>
        <time>2017-11-17T11:33:00.582000Z</time>
      </trkpt>
      <trkpt lat="45.704959250085786" lon="10.376380300202126">
        <ele>425.8010592388719</ele>
        <time>2017-11-17T11:33:00.896000Z</time>
      </trkpt>
      <trkpt lat="45.704960582426295" lon="10.376383680254836">
        <ele>425.81467122383975</ele>
        <time>2017-11-17T11:33:00.900000Z</time>
      </trkpt>
      <trkpt lat="45.70496750995517" lon="10.37640125490725">
        <ele>425.88544700197286</ele>
        <time>2017-11-17T11:33:00.923000Z</time>
      </trkpt>
      <trkpt lat="45.704967426136136" lon="10.376401171088219">
        <ele>425.8859604159615</ele>
        <time>2017-11-17T11:33:00.923000Z</time>
      </trkpt>
      <trkpt lat="45.7051420211792" lon="10.37684440612793">
        <ele>432.0039723721334</ele>
        <time>2017-11-17T11:33:01.493000Z</time>
      </trkpt>
      <trkpt lat="45.70544242858887" lon="10.377273559570312">
        <ele>434.1349623510942</ele>
        <time>2017-11-17T11:33:02.173000Z</time>
      </trkpt>
      <trkpt lat="45.70582866668701" lon="10.377466678619385">
        <ele>431.71070385389254</ele>
        <time>2017-11-17T11:33:02.829000Z</time>
      </trkpt>
      <trkpt lat="45.70587158203125" lon="10.377638339996338">
        <ele>432.584014992813</ele>
        <time>2017-11-17T11:33:03.033000Z</time>
      </trkpt>
      <trkpt lat="45.70578575134277" lon="10.37783145904541">
        <ele>418.7509744886028</ele>
        <time>2017-11-17T11:33:03.289000Z</time>
      </trkpt>
      <trkpt lat="45.70537805557251" lon="10.378260612487793">
        <ele>412.94890665485656</ele>
        <time>2017-11-17T11:33:04.100000Z</time>
      </trkpt>
      <trkpt lat="45.70533514022827" lon="10.379011631011963">
        <ele>414.7240284457</ele>
        <time>2017-11-17T11:33:04.944000Z</time>
      </trkpt>
      <trkpt lat="45.70524126157938" lon="10.37941827985406">
        <ele>415.5506222828974</ele>
        <time>2017-11-17T11:33:05.423000Z</time>
      </trkpt>
      <trkpt lat="45.70524041080648" lon="10.379421965064147">
        <ele>415.54603000800506</ele>
        <time>2017-11-17T11:33:05.427000Z</time>
      </trkpt>
      <trkpt lat="45.705236066132784" lon="10.379440784454346">
        <ele>415.5225784756752</ele>
        <time>2017-11-17T11:33:05.449000Z</time>
      </trkpt>
      <trkpt lat="45.705236149951816" lon="10.379440700635314">
        <ele>415.52240526667714</ele>
        <time>2017-11-17T11:33:05.449000Z</time>
      </trkpt>
      <trkpt lat="45.70507764816284" lon="10.380127429962158">
        <ele>413.0</ele>
        <time>2017-11-17T11:33:06.259000Z</time>
      </trkpt>
      <trkpt lat="45.70509910583496" lon="10.38083553314209">
        <ele>404.4711374117476</ele>
        <time>2017-11-17T11:33:07.053000Z</time>
      </trkpt>
      <trkpt lat="45.704991817474365" lon="10.381994247436523">
        <ele>378.93808631999997</ele>
        <time>2017-11-17T11:33:08.362000Z</time>
      </trkpt>
      <trkpt lat="45.704991817474365" lon="10.382509231567383">
        <ele>376.71787555450675</ele>
        <time>2017-11-17T11:33:08.939000Z</time>
      </trkpt>
      <trkpt lat="45.70516347885132" lon="10.383152961730957">
        <ele>385.1978714807946</ele>
        <time>2017-11-17T11:33:09.710000Z</time>
      </trkpt>
      <trkpt lat="45.705270767211914" lon="10.384204387664795">
        <ele>373.6158527480889</ele>
        <time>2017-11-17T11:33:10.900000Z</time>
      </trkpt>
      <trkpt lat="45.70537805557251" lon="10.384461879730225">
        <ele>374.0526189670517</ele>
        <time>2017-11-17T11:33:11.236000Z</time>
      </trkpt>
      <trkpt lat="45.70593595504761" lon="10.38484811782837">
        <ele>382.34519675504936</ele>
        <time>2017-11-17T11:33:12.229000Z</time>
      </trkpt>
      <trkpt lat="45.706021785736084" lon="10.384976863861084">
        <ele>380.4426271218097</ele>
        <time>2017-11-17T11:33:12.428000Z</time>
      </trkpt>
      <trkpt lat="45.706021785736084" lon="10.385169982910156">
        <ele>372.7117113828511</ele>
        <time>2017-11-17T11:33:12.644000Z</time>
      </trkpt>
      <trkpt lat="45.705721378326416" lon="10.385599136352539">
        <ele>357.88334423968337</ele>
        <time>2017-11-17T11:33:13.324000Z</time>
      </trkpt>
      <trkpt lat="45.7056999206543" lon="10.385749340057373">
        <ele>356.7153431724227</ele>
        <time>2017-11-17T11:33:13.496000Z</time>
      </trkpt>
      <trkpt lat="45.70567854680121" lon="10.38733720779419">
        <ele>341.61617187700085</ele>
        <time>2017-11-17T11:33:15.274000Z</time>
      </trkpt>
      <trkpt lat="45.7056784653396" lon="10.38815124486857">
        <ele>339.8352070645815</ele>
        <time>2017-11-17T11:33:16.185000Z</time>
      </trkpt>
      <trkpt lat="45.705678464937336" lon="10.38815512622606">
        <ele>339.81659271421887</ele>
        <time>2017-11-17T11:33:16.189000Z</time>
      </trkpt>
      <trkpt lat="45.70567846298218" lon="10.388173973187804">
        <ele>339.7262057941445</ele>
        <time>2017-11-17T11:33:16.210000Z</time>
      </trkpt>
      <trkpt lat="45.70567846298218" lon="10.388173889368773">
        <ele>339.72580381189726</ele>
        <time>2017-11-17T11:33:16.210000Z</time>
      </trkpt>
      <trkpt lat="45.70567846298218" lon="10.388173721730709">
        <ele>339.7249998474026</ele>
        <time>2017-11-17T11:33:16.210000Z</time>
      </trkpt>
      <trkpt lat="45.70567846298218" lon="10.388517379760742">
        <ele>337.41020596678675</ele>
        <time>2017-11-17T11:33:16.595000Z</time>
      </trkpt>
      <trkpt lat="45.70563563145697" lon="10.388667583465576">
        <ele>336.5829466374338</ele>
        <time>2017-11-17T11:33:16.777000Z</time>
      </trkpt>
      <trkpt lat="45.70535659790039" lon="10.389096736907959">
        <ele>333.5931315031597</ele>
        <time>2017-11-17T11:33:17.433000Z</time>
      </trkpt>
      <trkpt lat="45.70516424140407" lon="10.389289093407577">
        <ele>332.54675360883704</ele>
        <time>2017-11-17T11:33:17.809000Z</time>
      </trkpt>
      <trkpt lat="45.70516347885132" lon="10.389289855957031">
        <ele>332.5399626503009</ele>
        <time>2017-11-17T11:33:17.809000Z</time>
      </trkpt>
      <trkpt lat="45.705161841801534" lon="10.389290498777848">
        <ele>332.5275686634425</ele>
        <time>2017-11-17T11:33:17.812000Z</time>
      </trkpt>
      <trkpt lat="45.70514746941626" lon="10.38929614238441">
        <ele>332.4187563632282</ele>
        <time>2017-11-17T11:33:17.836000Z</time>
      </trkpt>
      <trkpt lat="45.7051473017782" lon="10.38929614238441">
        <ele>332.4175323738254</ele>
        <time>2017-11-17T11:33:17.836000Z</time>
      </trkpt>
      <trkpt lat="45.70505619049072" lon="10.38933277130127">
        <ele>331.7265733464933</ele>
        <time>2017-11-17T11:33:17.988000Z</time>
      </trkpt>
      <trkpt lat="45.704970359802246" lon="10.389268398284912">
        <ele>325.01913528923484</ele>
        <time>2017-11-17T11:33:18.143000Z</time>
      </trkpt>
      <trkpt lat="45.70486315526068" lon="10.388667583465576">
        <ele>322.56390888568035</ele>
        <time>2017-11-17T11:33:18.837000Z</time>
      </trkpt>
      <trkpt lat="45.70483214665898" lon="10.388536169366244">
        <ele>322.16382852401244</ele>
        <time>2017-11-17T11:33:18.992000Z</time>
      </trkpt>
      <trkpt lat="45.70483127901016" lon="10.38853249229166">
        <ele>322.1526339427865</ele>
        <time>2017-11-17T11:33:18.996000Z</time>
      </trkpt>
      <trkpt lat="45.70482652634382" lon="10.38851235061884">
        <ele>322.0913141034632</ele>
        <time>2017-11-17T11:33:19.020000Z</time>
      </trkpt>
      <trkpt lat="45.704777240753174" lon="10.38830280303955">
        <ele>322.45357217743003</ele>
        <time>2017-11-17T11:33:19.268000Z</time>
      </trkpt>
      <trkpt lat="45.70445537567139" lon="10.387916564941406">
        <ele>320.71918726123766</ele>
        <time>2017-11-17T11:33:19.941000Z</time>
      </trkpt>
      <trkpt lat="45.70406913757324" lon="10.387701988220215">
        <ele>316.94799629819994</ele>
        <time>2017-11-17T11:33:20.605000Z</time>
      </trkpt>
      <trkpt lat="45.70370444096625" lon="10.387680530548096">
        <ele>316.63414394577444</ele>
        <time>2017-11-17T11:33:21.190000Z</time>
      </trkpt>
      <trkpt lat="45.70344694890082" lon="10.387723445892334">
        <ele>316.41124227057026</ele>
        <time>2017-11-17T11:33:21.606000Z</time>
      </trkpt>
      <trkpt lat="45.70359552953166" lon="10.388020763943203">
        <ele>316.1917005097489</ele>
        <time>2017-11-17T11:33:22.015000Z</time>
      </trkpt>
      <trkpt lat="45.703597106863" lon="10.388023920287095">
        <ele>316.1893698472268</ele>
        <time>2017-11-17T11:33:22.019000Z</time>
      </trkpt>
      <trkpt lat="45.70360570214689" lon="10.388041120022535">
        <ele>316.17666946631044</ele>
        <time>2017-11-17T11:33:22.043000Z</time>
      </trkpt>
      <trkpt lat="45.703605618327856" lon="10.38804086856544">
        <ele>316.1765021478806</ele>
        <time>2017-11-17T11:33:22.044000Z</time>
      </trkpt>
      <trkpt lat="45.70387601852417" lon="10.3885817527771">
        <ele>314.77705924001174</ele>
        <time>2017-11-17T11:33:22.789000Z</time>
      </trkpt>
      <trkpt lat="45.704283714294434" lon="10.389697551727295">
        <ele>322.0</ele>
        <time>2017-11-17T11:33:24.199000Z</time>
      </trkpt>
      <trkpt lat="45.70461563115275" lon="10.391372203443996">
        <ele>327.750336521442</ele>
        <time>2017-11-17T11:33:26.148000Z</time>
      </trkpt>
      <trkpt lat="45.70461637117356" lon="10.391375937301609">
        <ele>327.7564687409881</ele>
        <time>2017-11-17T11:33:26.152000Z</time>
      </trkpt>
      <trkpt lat="45.70461974479258" lon="10.391392959281802">
        <ele>327.7844244159644</ele>
        <time>2017-11-17T11:33:26.172000Z</time>
      </trkpt>
      <trkpt lat="45.70461974479258" lon="10.39139287546277">
        <ele>327.7845568446126</ele>
        <time>2017-11-17T11:33:26.172000Z</time>
      </trkpt>
      <trkpt lat="45.705249309539795" lon="10.39456844329834">
        <ele>334.0</ele>
        <time>2017-11-17T11:33:29.868000Z</time>
      </trkpt>
      <trkpt lat="45.70563554763794" lon="10.39583444595337">
        <ele>319.0</ele>
        <time>2017-11-17T11:33:31.415000Z</time>
      </trkpt>
      <trkpt lat="45.70591946335764" lon="10.397336925446673">
        <ele>332.83744416169435</ele>
        <time>2017-11-17T11:33:33.158000Z</time>
      </trkpt>
      <trkpt lat="45.70592017133582" lon="10.397340672210314">
        <ele>332.84202622102157</ele>
        <time>2017-11-17T11:33:33.162000Z</time>
      </trkpt>
      <trkpt lat="45.70592346601188" lon="10.397358108311892">
        <ele>332.8252204897953</ele>
        <time>2017-11-17T11:33:33.182000Z</time>
      </trkpt>
      <trkpt lat="45.70592338219285" lon="10.397357856854796">
        <ele>332.82496125158985</ele>
        <time>2017-11-17T11:33:33.183000Z</time>
      </trkpt>
      <trkpt lat="45.7061505317688" lon="10.3985595703125">
        <ele>329.0</ele>
        <time>2017-11-17T11:33:34.577000Z</time>
      </trkpt>
      <trkpt lat="45.706322276964784" lon="10.399160385131836">
        <ele>328.85701876434905</ele>
        <time>2017-11-17T11:33:35.304000Z</time>
      </trkpt>
      <trkpt lat="45.70694446563721" lon="10.4005765914917">
        <ele>329.1551936287714</ele>
        <time>2017-11-17T11:33:37.177000Z</time>
      </trkpt>
      <trkpt lat="45.70763119496405" lon="10.401864051818848">
        <ele>323.0</ele>
        <time>2017-11-17T11:33:38.991000Z</time>
      </trkpt>
      <trkpt lat="45.707802856341004" lon="10.402250289916992">
        <ele>322.6193238095907</ele>
        <time>2017-11-17T11:33:39.504000Z</time>
      </trkpt>
      <trkpt lat="45.70788868702948" lon="10.402421951293945">
        <ele>322.4437760195513</ele>
        <time>2017-11-17T11:33:39.740000Z</time>
      </trkpt>
      <trkpt lat="45.70881128311157" lon="10.404589176177979">
        <ele>319.0</ele>
        <time>2017-11-17T11:33:42.581000Z</time>
      </trkpt>
      <trkpt lat="45.70894002914429" lon="10.40478229522705">
        <ele>318.94410102530924</ele>
        <time>2017-11-17T11:33:42.880000Z</time>
      </trkpt>
      <trkpt lat="45.70922976792181" lon="10.405071874405513">
        <ele>318.40226665562744</ele>
        <time>2017-11-17T11:33:43.446000Z</time>
      </trkpt>
      <trkpt lat="45.70923199075957" lon="10.405074096033237">
        <ele>318.4006670597526</ele>
        <time>2017-11-17T11:33:43.450000Z</time>
      </trkpt>
      <trkpt lat="45.70924454368651" lon="10.40508664213121">
        <ele>318.3916337369609</ele>
        <time>2017-11-17T11:33:43.475000Z</time>
      </trkpt>
      <trkpt lat="45.709244376048446" lon="10.405086558312178">
        <ele>318.39152895551615</ele>
        <time>2017-11-17T11:33:43.475000Z</time>
      </trkpt>
      <trkpt lat="45.709261894226074" lon="10.405104160308838">
        <ele>318.3789004914562</ele>
        <time>2017-11-17T11:33:43.509000Z</time>
      </trkpt>
      <trkpt lat="45.709776962175965" lon="10.40529727935791">
        <ele>318.0647083512409</ele>
        <time>2017-11-17T11:33:44.363000Z</time>
      </trkpt>
      <trkpt lat="45.709819877520204" lon="10.40531873703003">
        <ele>318.1222094046944</ele>
        <time>2017-11-17T11:33:44.436000Z</time>
      </trkpt>
      <trkpt lat="45.70999153889716" lon="10.405383110046387">
        <ele>318.34668007264526</ele>
        <time>2017-11-17T11:33:44.720000Z</time>
      </trkpt>
      <trkpt lat="45.71042060852051" lon="10.40555477142334">
        <ele>322.9025206768666</ele>
        <time>2017-11-17T11:33:45.434000Z</time>
      </trkpt>
      <trkpt lat="45.71067810058594" lon="10.405769348144531">
        <ele>323.9429421679349</ele>
        <time>2017-11-17T11:33:45.912000Z</time>
      </trkpt>
      <trkpt lat="45.71093559265137" lon="10.4060697555542">
        <ele>328.1028293666806</ele>
        <time>2017-11-17T11:33:46.444000Z</time>
      </trkpt>
      <trkpt lat="45.711378315027105" lon="10.406742037451776">
        <ele>327.689681260004</ele>
        <time>2017-11-17T11:33:47.478000Z</time>
      </trkpt>
      <trkpt lat="45.71138017483391" lon="10.406744861636959">
        <ele>327.7069635650908</ele>
        <time>2017-11-17T11:33:47.482000Z</time>
      </trkpt>
      <trkpt lat="45.71139047853649" lon="10.406760508194566">
        <ele>327.8027110085198</ele>
        <time>2017-11-17T11:33:47.506000Z</time>
      </trkpt>
      <trkpt lat="45.711390394717455" lon="10.40676025673747">
        <ele>327.8039514835518</ele>
        <time>2017-11-17T11:33:47.506000Z</time>
      </trkpt>
      <trkpt lat="45.711514949798584" lon="10.406949520111084">
        <ele>328.9617766444376</ele>
        <time>2017-11-17T11:33:47.797000Z</time>
      </trkpt>
      <trkpt lat="45.711815441027284" lon="10.407507419586182">
        <ele>334.88223413007495</ele>
        <time>2017-11-17T11:33:48.586000Z</time>
      </trkpt>
      <trkpt lat="45.71331739425659" lon="10.411734580993652">
        <ele>333.0</ele>
        <time>2017-11-17T11:33:53.895000Z</time>
      </trkpt>
      <trkpt lat="45.713467597961426" lon="10.411992073059082">
        <ele>343.6326966134314</ele>
        <time>2017-11-17T11:33:54.271000Z</time>
      </trkpt>
      <trkpt lat="45.7136920058607" lon="10.412236881610777">
        <ele>346.0</ele>
        <time>2017-11-17T11:33:54.723000Z</time>
      </trkpt>
      <trkpt lat="45.71369416227133" lon="10.41223923407044">
        <ele>346.0009806576856</ele>
        <time>2017-11-17T11:33:54.727000Z</time>
      </trkpt>
      <trkpt lat="45.713703632354736" lon="10.412249565124512">
        <ele>346.00528730977777</ele>
        <time>2017-11-17T11:33:54.746000Z</time>
      </trkpt>
      <trkpt lat="45.71370715275407" lon="10.412251828238368">
        <ele>346.00668328506794</ele>
        <time>2017-11-17T11:33:54.752000Z</time>
      </trkpt>
      <trkpt lat="45.713706985116005" lon="10.412251660600305">
        <ele>346.00675725142327</ele>
        <time>2017-11-17T11:33:54.752000Z</time>
      </trkpt>
      <trkpt lat="45.71466931141913" lon="10.412893295288086">
        <ele>346.05743791086815</ele>
        <time>2017-11-17T11:33:56.454000Z</time>
      </trkpt>
      <trkpt lat="45.71490526199341" lon="10.413086414337158">
        <ele>346.1557520078499</ele>
        <time>2017-11-17T11:33:56.890000Z</time>
      </trkpt>
      <trkpt lat="45.715205669403076" lon="10.413472652435303">
        <ele>346.8879380471717</ele>
        <time>2017-11-17T11:33:57.537000Z</time>
      </trkpt>
      <trkpt lat="45.71627855300903" lon="10.4150390625">
        <ele>352.0</ele>
        <time>2017-11-17T11:33:59.993000Z</time>
      </trkpt>
      <trkpt lat="45.716514587402344" lon="10.415511131286621">
        <ele>354.0729947493318</ele>
        <time>2017-11-17T11:34:00.643000Z</time>
      </trkpt>
      <trkpt lat="45.71653604507446" lon="10.415618419647217">
        <ele>354.4714459086069</ele>
        <time>2017-11-17T11:34:00.768000Z</time>
      </trkpt>
      <trkpt lat="45.71662187576294" lon="10.415704250335693">
        <ele>354.8800447830026</ele>
        <time>2017-11-17T11:34:00.936000Z</time>
      </trkpt>
      <trkpt lat="45.71683645248413" lon="10.415918827056885">
        <ele>362.9015406834792</ele>
        <time>2017-11-17T11:34:01.356000Z</time>
      </trkpt>
      <trkpt lat="45.71717977523804" lon="10.416476726531982">
        <ele>364.9282411507333</ele>
        <time>2017-11-17T11:34:02.188000Z</time>
      </trkpt>
      <trkpt lat="45.71982036513872" lon="10.420384304217109">
        <ele>335.0</ele>
        <time>2017-11-17T11:34:08.275000Z</time>
      </trkpt>
      <trkpt lat="45.71982225036596" lon="10.420387094202118">
        <ele>335.0</ele>
        <time>2017-11-17T11:34:08.279000Z</time>
      </trkpt>
      <trkpt lat="45.71983088739216" lon="10.420399876311421">
        <ele>335.0</ele>
        <time>2017-11-17T11:34:08.299000Z</time>
      </trkpt>
      <trkpt lat="45.719830971211195" lon="10.420399876311421">
        <ele>335.0</ele>
        <time>2017-11-17T11:34:08.299000Z</time>
      </trkpt>
      <trkpt lat="45.72089195251465" lon="10.421969890594482">
        <ele>335.0</ele>
        <time>2017-11-17T11:34:10.745000Z</time>
      </trkpt>
      <trkpt lat="45.7210636138916" lon="10.42229175567627">
        <ele>334.8879824926764</ele>
        <time>2017-11-17T11:34:11.198000Z</time>
      </trkpt>
      <trkpt lat="45.721707344055176" lon="10.424072742462158">
        <ele>333.0</ele>
        <time>2017-11-17T11:34:13.443000Z</time>
      </trkpt>
      <trkpt lat="45.72237253189087" lon="10.424931049346924">
        <ele>333.64583450525015</ele>
        <time>2017-11-17T11:34:14.878000Z</time>
      </trkpt>
      <trkpt lat="45.7223726157099" lon="10.424931049346924">
        <ele>333.64595738536036</ele>
        <time>2017-11-17T11:34:14.878000Z</time>
      </trkpt>
      <trkpt lat="45.723230838775635" lon="10.426476001739502">
        <ele>338.0</ele>
        <time>2017-11-17T11:34:17.088000Z</time>
      </trkpt>
      <trkpt lat="45.7246470451355" lon="10.428428649902344">
        <ele>342.0</ele>
        <time>2017-11-17T11:34:20.239000Z</time>
      </trkpt>
      <trkpt lat="45.72490462101996" lon="10.428943634033203">
        <ele>341.62072801075436</ele>
        <time>2017-11-17T11:34:20.948000Z</time>
      </trkpt>
      <trkpt lat="45.72505474090576" lon="10.42928695678711">
        <ele>342.044866353149</ele>
        <time>2017-11-17T11:34:21.401000Z</time>
      </trkpt>
      <trkpt lat="45.72651160143878" lon="10.431240932637083">
        <ele>335.0</ele>
        <time>2017-11-17T11:34:24.601000Z</time>
      </trkpt>
      <trkpt lat="45.72651358043307" lon="10.431243587010771">
        <ele>335.01980634571055</ele>
        <time>2017-11-17T11:34:24.605000Z</time>
      </trkpt>
      <trkpt lat="45.726524172350764" lon="10.431257793679833">
        <ele>335.12581332030726</ele>
        <time>2017-11-17T11:34:24.628000Z</time>
      </trkpt>
      <trkpt lat="45.726524256169796" lon="10.431257961317897">
        <ele>335.1268649515749</ele>
        <time>2017-11-17T11:34:24.628000Z</time>
      </trkpt>
      <trkpt lat="45.72652433998883" lon="10.431258045136929">
        <ele>335.12761175711324</ele>
        <time>2017-11-17T11:34:24.628000Z</time>
      </trkpt>
      <trkpt lat="45.72687864303589" lon="10.431733131408691">
        <ele>342.00645355689994</ele>
        <time>2017-11-17T11:34:25.406000Z</time>
      </trkpt>
      <trkpt lat="45.7276725769043" lon="10.432548522949219">
        <ele>340.9128752001702</ele>
        <time>2017-11-17T11:34:26.972000Z</time>
      </trkpt>
      <trkpt lat="45.72838068008423" lon="10.43250560760498">
        <ele>346.07621764642016</ele>
        <time>2017-11-17T11:34:28.108000Z</time>
      </trkpt>
      <trkpt lat="45.72859525680542" lon="10.432634353637695">
        <ele>346.69713731800744</ele>
        <time>2017-11-17T11:34:28.481000Z</time>
      </trkpt>
      <trkpt lat="45.72863817214966" lon="10.432870388031006">
        <ele>347.1515762853153</ele>
        <time>2017-11-17T11:34:28.754000Z</time>
      </trkpt>
      <trkpt lat="45.72936773300171" lon="10.433986186981201">
        <ele>351.0</ele>
        <time>2017-11-17T11:34:30.465000Z</time>
      </trkpt>
      <trkpt lat="45.72956085205078" lon="10.43424367904663">
        <ele>344.761939036317</ele>
        <time>2017-11-17T11:34:30.888000Z</time>
      </trkpt>
      <trkpt lat="45.72986125946045" lon="10.434479713439941">
        <ele>341.8553782843055</ele>
        <time>2017-11-17T11:34:31.437000Z</time>
      </trkpt>
      <trkpt lat="45.73052644729614" lon="10.434737205505371">
        <ele>342.4443887068287</ele>
        <time>2017-11-17T11:34:32.542000Z</time>
      </trkpt>
      <trkpt lat="45.73081976639515" lon="10.43476535783805">
        <ele>342.2690421905755</ele>
        <time>2017-11-17T11:34:33.013000Z</time>
      </trkpt>
      <trkpt lat="45.73082247158298" lon="10.4347656174794">
        <ele>342.2733852586582</ele>
        <time>2017-11-17T11:34:33.017000Z</time>
      </trkpt>
      <trkpt lat="45.73083909228444" lon="10.434767212718725">
        <ele>343.6334024462945</ele>
        <time>2017-11-17T11:34:33.044000Z</time>
      </trkpt>
      <trkpt lat="45.73083917610347" lon="10.434767212718725">
        <ele>343.63353671331976</ele>
        <time>2017-11-17T11:34:33.044000Z</time>
      </trkpt>
      <trkpt lat="45.73164233006537" lon="10.434844493865967">
        <ele>344.92298203967994</ele>
        <time>2017-11-17T11:34:34.334000Z</time>
      </trkpt>
      <trkpt lat="45.732479095458984" lon="10.435037612915039">
        <ele>341.8531575117758</ele>
        <time>2017-11-17T11:34:35.693000Z</time>
      </trkpt>
      <trkpt lat="45.732951164245605" lon="10.435059070587158">
        <ele>345.68055090901066</ele>
        <time>2017-11-17T11:34:36.450000Z</time>
      </trkpt>
      <trkpt lat="45.73387384414673" lon="10.434823036193848">
        <ele>359.63576527278684</ele>
        <time>2017-11-17T11:34:37.953000Z</time>
      </trkpt>
      <trkpt lat="45.73479652404785" lon="10.434823036193848">
        <ele>362.5793953182903</ele>
        <time>2017-11-17T11:34:39.432000Z</time>
      </trkpt>
      <trkpt lat="45.73539733886719" lon="10.435059070587158">
        <ele>359.76276168226724</ele>
        <time>2017-11-17T11:34:40.431000Z</time>
      </trkpt>
      <trkpt lat="45.73546410904984" lon="10.435120107954951">
        <ele>359.74319049575746</ele>
        <time>2017-11-17T11:34:40.558000Z</time>
      </trkpt>
      <trkpt lat="45.73546639468518" lon="10.435122197351292">
        <ele>359.742520546796</ele>
        <time>2017-11-17T11:34:40.562000Z</time>
      </trkpt>
      <trkpt lat="45.735480319708586" lon="10.43513492681086">
        <ele>359.73843894417536</ele>
        <time>2017-11-17T11:34:40.588000Z</time>
      </trkpt>
      <trkpt lat="45.73548040352762" lon="10.435135010629892">
        <ele>359.7384136864591</ele>
        <time>2017-11-17T11:34:40.588000Z</time>
      </trkpt>
      <trkpt lat="45.735480319707875" lon="10.435134926811568">
        <ele>359.7383884286687</ele>
        <time>2017-11-17T11:34:40.589000Z</time>
      </trkpt>
      <trkpt lat="45.73640584945679" lon="10.435981750488281">
        <ele>361.13369667221355</ele>
        <time>2017-11-17T11:34:42.350000Z</time>
      </trkpt>
      <trkpt lat="45.736963748931885" lon="10.436797142028809">
        <ele>361.0</ele>
        <time>2017-11-17T11:34:43.628000Z</time>
      </trkpt>
      <trkpt lat="45.73734998703003" lon="10.437054634094238">
        <ele>362.5193961271214</ele>
        <time>2017-11-17T11:34:44.311000Z</time>
      </trkpt>
      <trkpt lat="45.73750019073486" lon="10.43724775314331">
        <ele>371.90585842596175</ele>
        <time>2017-11-17T11:34:44.635000Z</time>
      </trkpt>
      <trkpt lat="45.737736225128174" lon="10.437784194946289">
        <ele>371.1511098201492</ele>
        <time>2017-11-17T11:34:45.345000Z</time>
      </trkpt>
      <trkpt lat="45.73784351348877" lon="10.438406467437744">
        <ele>370.41337189522375</ele>
        <time>2017-11-17T11:34:46.062000Z</time>
      </trkpt>
      <trkpt lat="45.73807954788208" lon="10.43924331665039">
        <ele>370.70014843100074</ele>
        <time>2017-11-17T11:34:47.072000Z</time>
      </trkpt>
      <trkpt lat="45.738444328308105" lon="10.439693927764893">
        <ele>376.4694643821899</ele>
        <time>2017-11-17T11:34:47.844000Z</time>
      </trkpt>
      <trkpt lat="45.738577414785844" lon="10.440119899408193">
        <ele>371.85954183688824</ele>
        <time>2017-11-17T11:34:48.366000Z</time>
      </trkpt>
      <trkpt lat="45.73857852254585" lon="10.440123445060019">
        <ele>371.84614137513154</ele>
        <time>2017-11-17T11:34:48.370000Z</time>
      </trkpt>
      <trkpt lat="45.738585060462356" lon="10.440144371241331">
        <ele>371.76705283053803</ele>
        <time>2017-11-17T11:34:48.396000Z</time>
      </trkpt>
      <trkpt lat="45.738584976643324" lon="10.440144119784236">
        <ele>371.7660915635906</ele>
        <time>2017-11-17T11:34:48.396000Z</time>
      </trkpt>
      <trkpt lat="45.7386589050293" lon="10.440380573272705">
        <ele>370.87233004972956</ele>
        <time>2017-11-17T11:34:48.686000Z</time>
      </trkpt>
      <trkpt lat="45.73908805847168" lon="10.441453456878662">
        <ele>364.2733007239728</ele>
        <time>2017-11-17T11:34:50.070000Z</time>
      </trkpt>
      <trkpt lat="45.73915243148804" lon="10.441796779632568">
        <ele>362.872263417267</ele>
        <time>2017-11-17T11:34:50.468000Z</time>
      </trkpt>
      <trkpt lat="45.739216804504395" lon="10.44198989868164">
        <ele>373.0481870325713</ele>
        <time>2017-11-17T11:34:50.707000Z</time>
      </trkpt>
      <trkpt lat="45.739688873291016" lon="10.442976951599121">
        <ele>374.7591490877532</ele>
        <time>2017-11-17T11:34:52.046000Z</time>
      </trkpt>
      <trkpt lat="45.739860618487" lon="10.443127155303955">
        <ele>374.8051157093075</ele>
        <time>2017-11-17T11:34:52.369000Z</time>
      </trkpt>
      <trkpt lat="45.73988207615912" lon="10.443363189697266">
        <ele>369.8430668030381</ele>
        <time>2017-11-17T11:34:52.635000Z</time>
      </trkpt>
      <trkpt lat="45.73988207615912" lon="10.443427562713623">
        <ele>369.8533303959564</ele>
        <time>2017-11-17T11:34:52.707000Z</time>
      </trkpt>
      <trkpt lat="45.740010822191834" lon="10.444328784942627">
        <ele>373.0</ele>
        <time>2017-11-17T11:34:53.736000Z</time>
      </trkpt>
      <trkpt lat="45.740010822191834" lon="10.444478988647461">
        <ele>372.58443839455686</ele>
        <time>2017-11-17T11:34:53.904000Z</time>
      </trkpt>
      <trkpt lat="45.73990345001221" lon="10.444650650024414">
        <ele>366.61335307675</ele>
        <time>2017-11-17T11:34:54.162000Z</time>
      </trkpt>
      <trkpt lat="45.73978859483184" lon="10.444692768397065">
        <ele>366.1433727895537</ele>
        <time>2017-11-17T11:34:54.352000Z</time>
      </trkpt>
      <trkpt lat="45.73978596820176" lon="10.444693731602555">
        <ele>366.13262478329307</ele>
        <time>2017-11-17T11:34:54.356000Z</time>
      </trkpt>
      <trkpt lat="45.739769507199526" lon="10.444699767977">
        <ele>366.0652673903234</ele>
        <time>2017-11-17T11:34:54.383000Z</time>
      </trkpt>
      <trkpt lat="45.73976933956146" lon="10.444699851796031">
        <ele>366.06456354527086</ele>
        <time>2017-11-17T11:34:54.383000Z</time>
      </trkpt>
      <trkpt lat="45.73925971984863" lon="10.444886684417725">
        <ele>363.97926380916107</ele>
        <time>2017-11-17T11:34:55.226000Z</time>
      </trkpt>
      <trkpt lat="45.737285697832704" lon="10.446925163269043">
        <ele>353.0</ele>
        <time>2017-11-17T11:34:59.127000Z</time>
      </trkpt>
      <trkpt lat="45.736749256029725" lon="10.44726848602295">
        <ele>354.42128020786623</ele>
        <time>2017-11-17T11:35:00.069000Z</time>
      </trkpt>
      <trkpt lat="45.73614835739136" lon="10.447633266448975">
        <ele>362.0</ele>
        <time>2017-11-17T11:35:01.115000Z</time>
      </trkpt>
      <trkpt lat="45.73601961135864" lon="10.447783470153809">
        <ele>363.61857688227684</ele>
        <time>2017-11-17T11:35:01.381000Z</time>
      </trkpt>
      <trkpt lat="45.735483169555664" lon="10.448427200317383">
        <ele>373.4401423457435</ele>
        <time>2017-11-17T11:35:02.503000Z</time>
      </trkpt>
      <trkpt lat="45.73511838912964" lon="10.449199676513672">
        <ele>390.8855312770361</ele>
        <time>2017-11-17T11:35:03.547000Z</time>
      </trkpt>
      <trkpt lat="45.73503255844116" lon="10.450057983398438">
        <ele>402.0</ele>
        <time>2017-11-17T11:35:04.517000Z</time>
      </trkpt>
      <trkpt lat="45.73509693145752" lon="10.450422763824463">
        <ele>401.6682315442106</ele>
        <time>2017-11-17T11:35:04.938000Z</time>
      </trkpt>
      <trkpt lat="45.73515877968726" lon="10.450554217947701">
        <ele>401.5284461138112</ele>
        <time>2017-11-17T11:35:05.115000Z</time>
      </trkpt>
      <trkpt lat="45.735160295158074" lon="10.450557438983465">
        <ele>401.525020937657</ele>
        <time>2017-11-17T11:35:05.119000Z</time>
      </trkpt>
      <trkpt lat="45.73516977019608" lon="10.450577577576041">
        <ele>401.50360602180143</ele>
        <time>2017-11-17T11:35:05.146000Z</time>
      </trkpt>
      <trkpt lat="45.73516985401511" lon="10.450577661395073">
        <ele>401.5034768908567</ele>
        <time>2017-11-17T11:35:05.146000Z</time>
      </trkpt>
      <trkpt lat="45.73526859283447" lon="10.450787544250488">
        <ele>401.28029912723474</ele>
        <time>2017-11-17T11:35:05.429000Z</time>
      </trkpt>
      <trkpt lat="45.73529005050659" lon="10.451109409332275">
        <ele>401.9952021899096</ele>
        <time>2017-11-17T11:35:05.791000Z</time>
      </trkpt>
      <trkpt lat="45.73526859283447" lon="10.4514741897583">
        <ele>400.1257465588256</ele>
        <time>2017-11-17T11:35:06.201000Z</time>
      </trkpt>
      <trkpt lat="45.73511838912964" lon="10.45198917388916">
        <ele>399.2754482061055</ele>
        <time>2017-11-17T11:35:06.826000Z</time>
      </trkpt>
      <trkpt lat="45.734732151031494" lon="10.452783107757568">
        <ele>386.0</ele>
        <time>2017-11-17T11:35:07.909000Z</time>
      </trkpt>
      <trkpt lat="45.734195709228516" lon="10.453319549560547">
        <ele>387.82028025617956</ele>
        <time>2017-11-17T11:35:08.958000Z</time>
      </trkpt>
      <trkpt lat="45.73383092880249" lon="10.454349517822266">
        <ele>392.3967395600798</ele>
        <time>2017-11-17T11:35:10.250000Z</time>
      </trkpt>
      <trkpt lat="45.73355197906494" lon="10.454692840576172">
        <ele>392.21917320399524</ele>
        <time>2017-11-17T11:35:10.840000Z</time>
      </trkpt>
      <trkpt lat="45.7335090637207" lon="10.454885959625244">
        <ele>392.15086810426095</ele>
        <time>2017-11-17T11:35:11.067000Z</time>
      </trkpt>
      <trkpt lat="45.73353052139282" lon="10.455100536346436">
        <ele>389.808113180733</ele>
        <time>2017-11-17T11:35:11.310000Z</time>
      </trkpt>
      <trkpt lat="45.733745181933045" lon="10.455808639526367">
        <ele>388.587415181752</ele>
        <time>2017-11-17T11:35:12.174000Z</time>
      </trkpt>
      <trkpt lat="45.73399170660418" lon="10.456507301308363">
        <ele>386.9658135461313</ele>
        <time>2017-11-17T11:35:13.050000Z</time>
      </trkpt>
      <trkpt lat="45.7339929298079" lon="10.456510767967117">
        <ele>386.9693450464188</ele>
        <time>2017-11-17T11:35:13.054000Z</time>
      </trkpt>
      <trkpt lat="45.734000243246555" lon="10.45653149485588">
        <ele>386.99045961366664</ele>
        <time>2017-11-17T11:35:13.080000Z</time>
      </trkpt>
      <trkpt lat="45.734000159427524" lon="10.456531243398786">
        <ele>386.9907129547402</ele>
        <time>2017-11-17T11:35:13.080000Z</time>
      </trkpt>
      <trkpt lat="45.73413142003119" lon="10.456902980804443">
        <ele>388.0361245091835</ele>
        <time>2017-11-17T11:35:13.546000Z</time>
      </trkpt>
      <trkpt lat="45.73430308140814" lon="10.457375049591064">
        <ele>392.5200515255908</ele>
        <time>2017-11-17T11:35:14.142000Z</time>
      </trkpt>
      <trkpt lat="45.73443182744086" lon="10.457782745361328">
        <ele>389.9423935300945</ele>
        <time>2017-11-17T11:35:14.643000Z</time>
      </trkpt>
      <trkpt lat="45.73445328511298" lon="10.457825660705566">
        <ele>389.8569494389428</ele>
        <time>2017-11-17T11:35:14.702000Z</time>
      </trkpt>
      <trkpt lat="45.73465293414296" lon="10.45827119819229">
        <ele>389.0</ele>
        <time>2017-11-17T11:35:15.294000Z</time>
      </trkpt>
    </trkseg>
  </trk>
</gpx>